<?xml version="1.0" encoding="UTF-8" standalone="no" ?>
<gpx xmlns="http://www.topografix.com/GPX/1/1" xmlns:xsi="http://www.w3.org/2001/XMLSchema-instance" xsi:schemaLocation="http://www.topografix.com/GPX/1/1 http://www.topografix.com/GPX/1/1/gpx.xsd" version="1.1" creator="VisuGPX - https://www.visugpx.com">
  <metadata>
    <name>Etang de la Porte Baudet</name>
    <desc><![CDATA[Petit pique-nique sur ce magnifique étang, où les nénuphars étaient encore présents (un peu pressé, le retour a été plus rapide que d\'habitude).]]></desc>
  </metadata>
  <trk>
    <name><![CDATA[Untitled]]></name>
    <trkseg>
      <trkpt lat="48.70651" lon="1.7567">
        <ele>179.19999694824</ele>
        <time>2014-07-04T08:49:02.000Z</time>
      </trkpt>
      <trkpt lat="48.7065" lon="1.7567">
        <ele>179.19999694824</ele>
        <time>2014-07-04T08:49:03.000Z</time>
      </trkpt>
      <trkpt lat="48.70652" lon="1.75669">
        <ele>179</ele>
        <time>2014-07-04T08:49:06.000Z</time>
      </trkpt>
      <trkpt lat="48.70653" lon="1.75669">
        <ele>178.80000305176</ele>
        <time>2014-07-04T08:49:08.000Z</time>
      </trkpt>
      <trkpt lat="48.70651" lon="1.75675">
        <ele>179</ele>
        <time>2014-07-04T08:53:06.000Z</time>
      </trkpt>
      <trkpt lat="48.70651" lon="1.75684">
        <ele>179</ele>
        <time>2014-07-04T08:53:10.000Z</time>
      </trkpt>
      <trkpt lat="48.70651" lon="1.75684">
        <ele>179</ele>
        <time>2014-07-04T08:53:13.000Z</time>
      </trkpt>
      <trkpt lat="48.70647" lon="1.75688">
        <ele>179.39999389648</ele>
        <time>2014-07-04T08:59:01.000Z</time>
      </trkpt>
      <trkpt lat="48.70645" lon="1.75692">
        <ele>179.60000610352</ele>
        <time>2014-07-04T08:59:05.000Z</time>
      </trkpt>
      <trkpt lat="48.70644" lon="1.75696">
        <ele>179.60000610352</ele>
        <time>2014-07-04T08:59:08.000Z</time>
      </trkpt>
      <trkpt lat="48.70638" lon="1.75703">
        <ele>179.39999389648</ele>
        <time>2014-07-04T08:59:12.000Z</time>
      </trkpt>
      <trkpt lat="48.70631" lon="1.75718">
        <ele>178.80000305176</ele>
        <time>2014-07-04T08:59:21.000Z</time>
      </trkpt>
      <trkpt lat="48.70628" lon="1.75724">
        <ele>178.39999389648</ele>
        <time>2014-07-04T08:59:24.000Z</time>
      </trkpt>
      <trkpt lat="48.70625" lon="1.75734">
        <ele>178</ele>
        <time>2014-07-04T08:59:30.000Z</time>
      </trkpt>
      <trkpt lat="48.70624" lon="1.75737">
        <ele>177.80000305176</ele>
        <time>2014-07-04T08:59:32.000Z</time>
      </trkpt>
      <trkpt lat="48.70618" lon="1.75747">
        <ele>177.80000305176</ele>
        <time>2014-07-04T08:59:39.000Z</time>
      </trkpt>
      <trkpt lat="48.70613" lon="1.75755">
        <ele>177.80000305176</ele>
        <time>2014-07-04T08:59:44.000Z</time>
      </trkpt>
      <trkpt lat="48.70609" lon="1.75762">
        <ele>177.60000610352</ele>
        <time>2014-07-04T08:59:50.000Z</time>
      </trkpt>
      <trkpt lat="48.70607" lon="1.75765">
        <ele>177.60000610352</ele>
        <time>2014-07-04T08:59:52.000Z</time>
      </trkpt>
      <trkpt lat="48.70602" lon="1.75776">
        <ele>177.19999694824</ele>
        <time>2014-07-04T08:59:59.000Z</time>
      </trkpt>
      <trkpt lat="48.706" lon="1.75778">
        <ele>177.19999694824</ele>
        <time>2014-07-04T09:00:01.000Z</time>
      </trkpt>
      <trkpt lat="48.70597" lon="1.75783">
        <ele>177.19999694824</ele>
        <time>2014-07-04T09:00:04.000Z</time>
      </trkpt>
      <trkpt lat="48.70593" lon="1.75794">
        <ele>177</ele>
        <time>2014-07-04T09:00:10.000Z</time>
      </trkpt>
      <trkpt lat="48.70591" lon="1.75797">
        <ele>177</ele>
        <time>2014-07-04T09:00:12.000Z</time>
      </trkpt>
      <trkpt lat="48.70586" lon="1.75806">
        <ele>177</ele>
        <time>2014-07-04T09:00:18.000Z</time>
      </trkpt>
      <trkpt lat="48.70582" lon="1.75811">
        <ele>177.39999389648</ele>
        <time>2014-07-04T09:00:21.000Z</time>
      </trkpt>
      <trkpt lat="48.70577" lon="1.75818">
        <ele>178</ele>
        <time>2014-07-04T09:00:26.000Z</time>
      </trkpt>
      <trkpt lat="48.70572" lon="1.75823">
        <ele>178.39999389648</ele>
        <time>2014-07-04T09:00:30.000Z</time>
      </trkpt>
      <trkpt lat="48.70567" lon="1.75834">
        <ele>179</ele>
        <time>2014-07-04T09:00:37.000Z</time>
      </trkpt>
      <trkpt lat="48.70564" lon="1.75848">
        <ele>179.60000610352</ele>
        <time>2014-07-04T09:00:43.000Z</time>
      </trkpt>
      <trkpt lat="48.70562" lon="1.75857">
        <ele>179.80000305176</ele>
        <time>2014-07-04T09:00:48.000Z</time>
      </trkpt>
      <trkpt lat="48.70558" lon="1.75866">
        <ele>180.19999694824</ele>
        <time>2014-07-04T09:00:55.000Z</time>
      </trkpt>
      <trkpt lat="48.70557" lon="1.75869">
        <ele>180.19999694824</ele>
        <time>2014-07-04T09:00:57.000Z</time>
      </trkpt>
      <trkpt lat="48.70553" lon="1.75879">
        <ele>180.19999694824</ele>
        <time>2014-07-04T09:01:04.000Z</time>
      </trkpt>
      <trkpt lat="48.70552" lon="1.75884">
        <ele>180.19999694824</ele>
        <time>2014-07-04T09:01:07.000Z</time>
      </trkpt>
      <trkpt lat="48.70545" lon="1.75893">
        <ele>180.39999389648</ele>
        <time>2014-07-04T09:01:14.000Z</time>
      </trkpt>
      <trkpt lat="48.70544" lon="1.75895">
        <ele>180.60000610352</ele>
        <time>2014-07-04T09:01:15.000Z</time>
      </trkpt>
      <trkpt lat="48.7054" lon="1.75902">
        <ele>180.60000610352</ele>
        <time>2014-07-04T09:01:20.000Z</time>
      </trkpt>
      <trkpt lat="48.70537" lon="1.75913">
        <ele>180.39999389648</ele>
        <time>2014-07-04T09:01:25.000Z</time>
      </trkpt>
      <trkpt lat="48.70535" lon="1.75917">
        <ele>180.39999389648</ele>
        <time>2014-07-04T09:01:27.000Z</time>
      </trkpt>
      <trkpt lat="48.70533" lon="1.75924">
        <ele>180.19999694824</ele>
        <time>2014-07-04T09:01:31.000Z</time>
      </trkpt>
      <trkpt lat="48.70525" lon="1.75932">
        <ele>180.39999389648</ele>
        <time>2014-07-04T09:01:39.000Z</time>
      </trkpt>
      <trkpt lat="48.7052" lon="1.75938">
        <ele>180.39999389648</ele>
        <time>2014-07-04T09:01:43.000Z</time>
      </trkpt>
      <trkpt lat="48.70516" lon="1.75944">
        <ele>180.19999694824</ele>
        <time>2014-07-04T09:01:48.000Z</time>
      </trkpt>
      <trkpt lat="48.70513" lon="1.75948">
        <ele>179.80000305176</ele>
        <time>2014-07-04T09:01:52.000Z</time>
      </trkpt>
      <trkpt lat="48.7051" lon="1.75953">
        <ele>179.60000610352</ele>
        <time>2014-07-04T09:01:56.000Z</time>
      </trkpt>
      <trkpt lat="48.70507" lon="1.75961">
        <ele>179.19999694824</ele>
        <time>2014-07-04T09:02:01.000Z</time>
      </trkpt>
      <trkpt lat="48.70505" lon="1.75965">
        <ele>179</ele>
        <time>2014-07-04T09:02:03.000Z</time>
      </trkpt>
      <trkpt lat="48.70498" lon="1.75978">
        <ele>179</ele>
        <time>2014-07-04T09:02:09.000Z</time>
      </trkpt>
      <trkpt lat="48.70493" lon="1.75988">
        <ele>179</ele>
        <time>2014-07-04T09:02:15.000Z</time>
      </trkpt>
      <trkpt lat="48.70489" lon="1.75999">
        <ele>178.39999389648</ele>
        <time>2014-07-04T09:02:21.000Z</time>
      </trkpt>
      <trkpt lat="48.70487" lon="1.76007">
        <ele>178</ele>
        <time>2014-07-04T09:02:26.000Z</time>
      </trkpt>
      <trkpt lat="48.70485" lon="1.76025">
        <ele>177</ele>
        <time>2014-07-04T09:02:34.000Z</time>
      </trkpt>
      <trkpt lat="48.70484" lon="1.76033">
        <ele>176.60000610352</ele>
        <time>2014-07-04T09:02:39.000Z</time>
      </trkpt>
      <trkpt lat="48.70483" lon="1.76037">
        <ele>176.39999389648</ele>
        <time>2014-07-04T09:02:41.000Z</time>
      </trkpt>
      <trkpt lat="48.70479" lon="1.76048">
        <ele>176</ele>
        <time>2014-07-04T09:02:46.000Z</time>
      </trkpt>
      <trkpt lat="48.70478" lon="1.76059">
        <ele>175.60000610352</ele>
        <time>2014-07-04T09:02:51.000Z</time>
      </trkpt>
      <trkpt lat="48.70475" lon="1.76068">
        <ele>175.39999389648</ele>
        <time>2014-07-04T09:02:57.000Z</time>
      </trkpt>
      <trkpt lat="48.70473" lon="1.76078">
        <ele>175.19999694824</ele>
        <time>2014-07-04T09:03:02.000Z</time>
      </trkpt>
      <trkpt lat="48.70469" lon="1.76086">
        <ele>175.19999694824</ele>
        <time>2014-07-04T09:03:07.000Z</time>
      </trkpt>
      <trkpt lat="48.70468" lon="1.76099">
        <ele>175.19999694824</ele>
        <time>2014-07-04T09:03:13.000Z</time>
      </trkpt>
      <trkpt lat="48.70464" lon="1.7611">
        <ele>175.19999694824</ele>
        <time>2014-07-04T09:03:19.000Z</time>
      </trkpt>
      <trkpt lat="48.70462" lon="1.76121">
        <ele>175.19999694824</ele>
        <time>2014-07-04T09:03:23.000Z</time>
      </trkpt>
      <trkpt lat="48.70461" lon="1.76127">
        <ele>175.19999694824</ele>
        <time>2014-07-04T09:03:26.000Z</time>
      </trkpt>
      <trkpt lat="48.70462" lon="1.76136">
        <ele>175</ele>
        <time>2014-07-04T09:03:31.000Z</time>
      </trkpt>
      <trkpt lat="48.70462" lon="1.76147">
        <ele>174.80000305176</ele>
        <time>2014-07-04T09:03:38.000Z</time>
      </trkpt>
      <trkpt lat="48.70461" lon="1.76153">
        <ele>174.80000305176</ele>
        <time>2014-07-04T09:03:41.000Z</time>
      </trkpt>
      <trkpt lat="48.70462" lon="1.76162">
        <ele>174.60000610352</ele>
        <time>2014-07-04T09:03:45.000Z</time>
      </trkpt>
      <trkpt lat="48.70462" lon="1.7617">
        <ele>174.19999694824</ele>
        <time>2014-07-04T09:03:50.000Z</time>
      </trkpt>
      <trkpt lat="48.70463" lon="1.76178">
        <ele>173.80000305176</ele>
        <time>2014-07-04T09:03:54.000Z</time>
      </trkpt>
      <trkpt lat="48.70463" lon="1.76189">
        <ele>173.60000610352</ele>
        <time>2014-07-04T09:04:00.000Z</time>
      </trkpt>
      <trkpt lat="48.70464" lon="1.76199">
        <ele>173.39999389648</ele>
        <time>2014-07-04T09:04:05.000Z</time>
      </trkpt>
      <trkpt lat="48.70465" lon="1.76199">
        <ele>173.19999694824</ele>
        <time>2014-07-04T09:04:13.000Z</time>
      </trkpt>
      <trkpt lat="48.7046" lon="1.76212">
        <ele>173.19999694824</ele>
        <time>2014-07-04T09:05:26.000Z</time>
      </trkpt>
      <trkpt lat="48.70461" lon="1.76214">
        <ele>173.19999694824</ele>
        <time>2014-07-04T09:05:27.000Z</time>
      </trkpt>
      <trkpt lat="48.7046" lon="1.76224">
        <ele>173</ele>
        <time>2014-07-04T09:05:30.000Z</time>
      </trkpt>
      <trkpt lat="48.70462" lon="1.76238">
        <ele>172.39999389648</ele>
        <time>2014-07-04T09:05:38.000Z</time>
      </trkpt>
      <trkpt lat="48.70462" lon="1.76239">
        <ele>172.39999389648</ele>
        <time>2014-07-04T09:05:39.000Z</time>
      </trkpt>
      <trkpt lat="48.70462" lon="1.76246">
        <ele>172.80000305176</ele>
        <time>2014-07-04T09:05:42.000Z</time>
      </trkpt>
      <trkpt lat="48.70457" lon="1.76256">
        <ele>173.19999694824</ele>
        <time>2014-07-04T09:05:48.000Z</time>
      </trkpt>
      <trkpt lat="48.70455" lon="1.76264">
        <ele>173.39999389648</ele>
        <time>2014-07-04T09:05:52.000Z</time>
      </trkpt>
      <trkpt lat="48.70453" lon="1.76272">
        <ele>173.39999389648</ele>
        <time>2014-07-04T09:05:56.000Z</time>
      </trkpt>
      <trkpt lat="48.70452" lon="1.76284">
        <ele>173.39999389648</ele>
        <time>2014-07-04T09:06:01.000Z</time>
      </trkpt>
      <trkpt lat="48.70452" lon="1.76293">
        <ele>173.39999389648</ele>
        <time>2014-07-04T09:06:05.000Z</time>
      </trkpt>
      <trkpt lat="48.70448" lon="1.76312">
        <ele>173.60000610352</ele>
        <time>2014-07-04T09:06:13.000Z</time>
      </trkpt>
      <trkpt lat="48.70449" lon="1.76326">
        <ele>173.80000305176</ele>
        <time>2014-07-04T09:06:19.000Z</time>
      </trkpt>
      <trkpt lat="48.70452" lon="1.76342">
        <ele>174.39999389648</ele>
        <time>2014-07-04T09:06:26.000Z</time>
      </trkpt>
      <trkpt lat="48.70455" lon="1.76352">
        <ele>174.80000305176</ele>
        <time>2014-07-04T09:06:32.000Z</time>
      </trkpt>
      <trkpt lat="48.70455" lon="1.76364">
        <ele>175.39999389648</ele>
        <time>2014-07-04T09:06:37.000Z</time>
      </trkpt>
      <trkpt lat="48.70455" lon="1.76366">
        <ele>175.60000610352</ele>
        <time>2014-07-04T09:06:38.000Z</time>
      </trkpt>
      <trkpt lat="48.70456" lon="1.76372">
        <ele>175.80000305176</ele>
        <time>2014-07-04T09:06:43.000Z</time>
      </trkpt>
      <trkpt lat="48.70458" lon="1.76379">
        <ele>176</ele>
        <time>2014-07-04T09:06:46.000Z</time>
      </trkpt>
      <trkpt lat="48.7046" lon="1.76391">
        <ele>176.60000610352</ele>
        <time>2014-07-04T09:06:52.000Z</time>
      </trkpt>
      <trkpt lat="48.70463" lon="1.764">
        <ele>176.80000305176</ele>
        <time>2014-07-04T09:06:57.000Z</time>
      </trkpt>
      <trkpt lat="48.70464" lon="1.76409">
        <ele>177</ele>
        <time>2014-07-04T09:07:01.000Z</time>
      </trkpt>
      <trkpt lat="48.70467" lon="1.76413">
        <ele>177</ele>
        <time>2014-07-04T09:07:03.000Z</time>
      </trkpt>
      <trkpt lat="48.70467" lon="1.76424">
        <ele>177.19999694824</ele>
        <time>2014-07-04T09:07:07.000Z</time>
      </trkpt>
      <trkpt lat="48.70466" lon="1.76438">
        <ele>177.39999389648</ele>
        <time>2014-07-04T09:07:13.000Z</time>
      </trkpt>
      <trkpt lat="48.70464" lon="1.7645">
        <ele>178.19999694824</ele>
        <time>2014-07-04T09:07:19.000Z</time>
      </trkpt>
      <trkpt lat="48.70464" lon="1.76453">
        <ele>178.39999389648</ele>
        <time>2014-07-04T09:07:21.000Z</time>
      </trkpt>
      <trkpt lat="48.7046" lon="1.76471">
        <ele>179.60000610352</ele>
        <time>2014-07-04T09:07:28.000Z</time>
      </trkpt>
      <trkpt lat="48.70458" lon="1.76477">
        <ele>180</ele>
        <time>2014-07-04T09:07:34.000Z</time>
      </trkpt>
      <trkpt lat="48.70458" lon="1.76479">
        <ele>180</ele>
        <time>2014-07-04T09:07:35.000Z</time>
      </trkpt>
      <trkpt lat="48.70456" lon="1.76487">
        <ele>180.60000610352</ele>
        <time>2014-07-04T09:07:39.000Z</time>
      </trkpt>
      <trkpt lat="48.70454" lon="1.76499">
        <ele>180.80000305176</ele>
        <time>2014-07-04T09:07:46.000Z</time>
      </trkpt>
      <trkpt lat="48.70455" lon="1.76513">
        <ele>180.80000305176</ele>
        <time>2014-07-04T09:07:51.000Z</time>
      </trkpt>
      <trkpt lat="48.70455" lon="1.76515">
        <ele>180.80000305176</ele>
        <time>2014-07-04T09:07:52.000Z</time>
      </trkpt>
      <trkpt lat="48.70452" lon="1.76531">
        <ele>180.80000305176</ele>
        <time>2014-07-04T09:07:59.000Z</time>
      </trkpt>
      <trkpt lat="48.7045" lon="1.7654">
        <ele>180.80000305176</ele>
        <time>2014-07-04T09:08:05.000Z</time>
      </trkpt>
      <trkpt lat="48.7045" lon="1.76542">
        <ele>180.80000305176</ele>
        <time>2014-07-04T09:08:06.000Z</time>
      </trkpt>
      <trkpt lat="48.70447" lon="1.76549">
        <ele>180.80000305176</ele>
        <time>2014-07-04T09:08:08.000Z</time>
      </trkpt>
      <trkpt lat="48.70445" lon="1.76557">
        <ele>180.80000305176</ele>
        <time>2014-07-04T09:08:11.000Z</time>
      </trkpt>
      <trkpt lat="48.70444" lon="1.76562">
        <ele>180.80000305176</ele>
        <time>2014-07-04T09:08:13.000Z</time>
      </trkpt>
      <trkpt lat="48.70443" lon="1.76568">
        <ele>180.80000305176</ele>
        <time>2014-07-04T09:08:18.000Z</time>
      </trkpt>
      <trkpt lat="48.70442" lon="1.7657">
        <ele>180.80000305176</ele>
        <time>2014-07-04T09:08:19.000Z</time>
      </trkpt>
      <trkpt lat="48.7044" lon="1.76572">
        <ele>180.80000305176</ele>
        <time>2014-07-04T09:08:21.000Z</time>
      </trkpt>
      <trkpt lat="48.70434" lon="1.76578">
        <ele>180.80000305176</ele>
        <time>2014-07-04T09:08:28.000Z</time>
      </trkpt>
      <trkpt lat="48.70428" lon="1.76579">
        <ele>180.60000610352</ele>
        <time>2014-07-04T09:08:33.000Z</time>
      </trkpt>
      <trkpt lat="48.70416" lon="1.76583">
        <ele>180</ele>
        <time>2014-07-04T09:08:41.000Z</time>
      </trkpt>
      <trkpt lat="48.70413" lon="1.76583">
        <ele>180</ele>
        <time>2014-07-04T09:08:43.000Z</time>
      </trkpt>
      <trkpt lat="48.70408" lon="1.76584">
        <ele>179.80000305176</ele>
        <time>2014-07-04T09:08:47.000Z</time>
      </trkpt>
      <trkpt lat="48.70402" lon="1.76589">
        <ele>179.60000610352</ele>
        <time>2014-07-04T09:08:53.000Z</time>
      </trkpt>
      <trkpt lat="48.70395" lon="1.76592">
        <ele>179.19999694824</ele>
        <time>2014-07-04T09:09:00.000Z</time>
      </trkpt>
      <trkpt lat="48.7039" lon="1.76594">
        <ele>179</ele>
        <time>2014-07-04T09:09:04.000Z</time>
      </trkpt>
      <trkpt lat="48.70384" lon="1.76599">
        <ele>178.80000305176</ele>
        <time>2014-07-04T09:09:09.000Z</time>
      </trkpt>
      <trkpt lat="48.70376" lon="1.76604">
        <ele>178.60000610352</ele>
        <time>2014-07-04T09:09:14.000Z</time>
      </trkpt>
      <trkpt lat="48.70372" lon="1.76604">
        <ele>178.39999389648</ele>
        <time>2014-07-04T09:09:17.000Z</time>
      </trkpt>
      <trkpt lat="48.70368" lon="1.76608">
        <ele>178.39999389648</ele>
        <time>2014-07-04T09:09:21.000Z</time>
      </trkpt>
      <trkpt lat="48.7036" lon="1.76612">
        <ele>178.19999694824</ele>
        <time>2014-07-04T09:09:27.000Z</time>
      </trkpt>
      <trkpt lat="48.70353" lon="1.76617">
        <ele>178</ele>
        <time>2014-07-04T09:09:32.000Z</time>
      </trkpt>
      <trkpt lat="48.70351" lon="1.7662">
        <ele>178</ele>
        <time>2014-07-04T09:09:35.000Z</time>
      </trkpt>
      <trkpt lat="48.70344" lon="1.76621">
        <ele>178.19999694824</ele>
        <time>2014-07-04T09:09:40.000Z</time>
      </trkpt>
      <trkpt lat="48.70344" lon="1.76622">
        <ele>178.19999694824</ele>
        <time>2014-07-04T09:09:44.000Z</time>
      </trkpt>
      <trkpt lat="48.70342" lon="1.76622">
        <ele>178.19999694824</ele>
        <time>2014-07-04T09:09:49.000Z</time>
      </trkpt>
      <trkpt lat="48.70335" lon="1.76637">
        <ele>178.39999389648</ele>
        <time>2014-07-04T09:11:00.000Z</time>
      </trkpt>
      <trkpt lat="48.70331" lon="1.76642">
        <ele>178.60000610352</ele>
        <time>2014-07-04T09:11:03.000Z</time>
      </trkpt>
      <trkpt lat="48.70328" lon="1.7665">
        <ele>178.60000610352</ele>
        <time>2014-07-04T09:11:08.000Z</time>
      </trkpt>
      <trkpt lat="48.70328" lon="1.76656">
        <ele>178.60000610352</ele>
        <time>2014-07-04T09:11:11.000Z</time>
      </trkpt>
      <trkpt lat="48.70328" lon="1.7667">
        <ele>178.60000610352</ele>
        <time>2014-07-04T09:11:18.000Z</time>
      </trkpt>
      <trkpt lat="48.70328" lon="1.76673">
        <ele>178.60000610352</ele>
        <time>2014-07-04T09:11:19.000Z</time>
      </trkpt>
      <trkpt lat="48.70329" lon="1.76682">
        <ele>178.60000610352</ele>
        <time>2014-07-04T09:11:23.000Z</time>
      </trkpt>
      <trkpt lat="48.70328" lon="1.76704">
        <ele>178.60000610352</ele>
        <time>2014-07-04T09:11:33.000Z</time>
      </trkpt>
      <trkpt lat="48.70328" lon="1.76706">
        <ele>178.60000610352</ele>
        <time>2014-07-04T09:11:34.000Z</time>
      </trkpt>
      <trkpt lat="48.70327" lon="1.76718">
        <ele>178.60000610352</ele>
        <time>2014-07-04T09:11:39.000Z</time>
      </trkpt>
      <trkpt lat="48.7033" lon="1.76734">
        <ele>178.60000610352</ele>
        <time>2014-07-04T09:11:47.000Z</time>
      </trkpt>
      <trkpt lat="48.7033" lon="1.7674">
        <ele>178.60000610352</ele>
        <time>2014-07-04T09:11:50.000Z</time>
      </trkpt>
      <trkpt lat="48.70332" lon="1.76751">
        <ele>178.60000610352</ele>
        <time>2014-07-04T09:11:55.000Z</time>
      </trkpt>
      <trkpt lat="48.70332" lon="1.76771">
        <ele>179</ele>
        <time>2014-07-04T09:12:04.000Z</time>
      </trkpt>
      <trkpt lat="48.70332" lon="1.76787">
        <ele>179.19999694824</ele>
        <time>2014-07-04T09:12:09.000Z</time>
      </trkpt>
      <trkpt lat="48.70333" lon="1.76812">
        <ele>179.19999694824</ele>
        <time>2014-07-04T09:12:16.000Z</time>
      </trkpt>
      <trkpt lat="48.70334" lon="1.76826">
        <ele>179</ele>
        <time>2014-07-04T09:12:23.000Z</time>
      </trkpt>
      <trkpt lat="48.70334" lon="1.76844">
        <ele>179.19999694824</ele>
        <time>2014-07-04T09:12:31.000Z</time>
      </trkpt>
      <trkpt lat="48.70334" lon="1.7686">
        <ele>179.39999389648</ele>
        <time>2014-07-04T09:12:39.000Z</time>
      </trkpt>
      <trkpt lat="48.70334" lon="1.76877">
        <ele>179.60000610352</ele>
        <time>2014-07-04T09:12:47.000Z</time>
      </trkpt>
      <trkpt lat="48.70334" lon="1.76898">
        <ele>180</ele>
        <time>2014-07-04T09:12:57.000Z</time>
      </trkpt>
      <trkpt lat="48.70336" lon="1.76915">
        <ele>180.39999389648</ele>
        <time>2014-07-04T09:13:06.000Z</time>
      </trkpt>
      <trkpt lat="48.70337" lon="1.76933">
        <ele>180.80000305176</ele>
        <time>2014-07-04T09:13:14.000Z</time>
      </trkpt>
      <trkpt lat="48.70337" lon="1.76944">
        <ele>181.19999694824</ele>
        <time>2014-07-04T09:13:20.000Z</time>
      </trkpt>
      <trkpt lat="48.70338" lon="1.76946">
        <ele>181.19999694824</ele>
        <time>2014-07-04T09:13:23.000Z</time>
      </trkpt>
      <trkpt lat="48.7034" lon="1.76964">
        <ele>181.60000610352</ele>
        <time>2014-07-04T09:14:08.000Z</time>
      </trkpt>
      <trkpt lat="48.7034" lon="1.76982">
        <ele>182</ele>
        <time>2014-07-04T09:14:16.000Z</time>
      </trkpt>
      <trkpt lat="48.7034" lon="1.76993">
        <ele>182.19999694824</ele>
        <time>2014-07-04T09:14:23.000Z</time>
      </trkpt>
      <trkpt lat="48.70342" lon="1.77007">
        <ele>182.19999694824</ele>
        <time>2014-07-04T09:14:30.000Z</time>
      </trkpt>
      <trkpt lat="48.70344" lon="1.77015">
        <ele>182.19999694824</ele>
        <time>2014-07-04T09:14:34.000Z</time>
      </trkpt>
      <trkpt lat="48.70345" lon="1.77021">
        <ele>182.19999694824</ele>
        <time>2014-07-04T09:14:37.000Z</time>
      </trkpt>
      <trkpt lat="48.70348" lon="1.77038">
        <ele>182</ele>
        <time>2014-07-04T09:14:45.000Z</time>
      </trkpt>
      <trkpt lat="48.70348" lon="1.77055">
        <ele>182</ele>
        <time>2014-07-04T09:14:53.000Z</time>
      </trkpt>
      <trkpt lat="48.70349" lon="1.7707">
        <ele>182</ele>
        <time>2014-07-04T09:14:59.000Z</time>
      </trkpt>
      <trkpt lat="48.7035" lon="1.77086">
        <ele>182</ele>
        <time>2014-07-04T09:15:06.000Z</time>
      </trkpt>
      <trkpt lat="48.70351" lon="1.77107">
        <ele>182</ele>
        <time>2014-07-04T09:15:16.000Z</time>
      </trkpt>
      <trkpt lat="48.70353" lon="1.77125">
        <ele>182</ele>
        <time>2014-07-04T09:15:24.000Z</time>
      </trkpt>
      <trkpt lat="48.70355" lon="1.77141">
        <ele>182</ele>
        <time>2014-07-04T09:15:31.000Z</time>
      </trkpt>
      <trkpt lat="48.70357" lon="1.77167">
        <ele>181.80000305176</ele>
        <time>2014-07-04T09:15:42.000Z</time>
      </trkpt>
      <trkpt lat="48.70357" lon="1.77171">
        <ele>181.60000610352</ele>
        <time>2014-07-04T09:15:44.000Z</time>
      </trkpt>
      <trkpt lat="48.70359" lon="1.77179">
        <ele>181.39999389648</ele>
        <time>2014-07-04T09:15:49.000Z</time>
      </trkpt>
      <trkpt lat="48.70362" lon="1.77193">
        <ele>181.19999694824</ele>
        <time>2014-07-04T09:15:57.000Z</time>
      </trkpt>
      <trkpt lat="48.70363" lon="1.77198">
        <ele>181</ele>
        <time>2014-07-04T09:16:01.000Z</time>
      </trkpt>
      <trkpt lat="48.70365" lon="1.77209">
        <ele>180.80000305176</ele>
        <time>2014-07-04T09:16:07.000Z</time>
      </trkpt>
      <trkpt lat="48.70368" lon="1.77226">
        <ele>180.39999389648</ele>
        <time>2014-07-04T09:16:16.000Z</time>
      </trkpt>
      <trkpt lat="48.70369" lon="1.7724">
        <ele>180.19999694824</ele>
        <time>2014-07-04T09:16:23.000Z</time>
      </trkpt>
      <trkpt lat="48.70369" lon="1.77243">
        <ele>180.19999694824</ele>
        <time>2014-07-04T09:16:24.000Z</time>
      </trkpt>
      <trkpt lat="48.7037" lon="1.77261">
        <ele>180.60000610352</ele>
        <time>2014-07-04T09:16:33.000Z</time>
      </trkpt>
      <trkpt lat="48.70371" lon="1.77263">
        <ele>180.80000305176</ele>
        <time>2014-07-04T09:16:34.000Z</time>
      </trkpt>
      <trkpt lat="48.70371" lon="1.77274">
        <ele>180.80000305176</ele>
        <time>2014-07-04T09:16:40.000Z</time>
      </trkpt>
      <trkpt lat="48.70372" lon="1.77276">
        <ele>180.80000305176</ele>
        <time>2014-07-04T09:16:41.000Z</time>
      </trkpt>
      <trkpt lat="48.70374" lon="1.77291">
        <ele>181.19999694824</ele>
        <time>2014-07-04T09:16:48.000Z</time>
      </trkpt>
      <trkpt lat="48.70374" lon="1.77297">
        <ele>181.19999694824</ele>
        <time>2014-07-04T09:16:51.000Z</time>
      </trkpt>
      <trkpt lat="48.70373" lon="1.77303">
        <ele>181.19999694824</ele>
        <time>2014-07-04T09:16:55.000Z</time>
      </trkpt>
      <trkpt lat="48.70376" lon="1.77319">
        <ele>181.60000610352</ele>
        <time>2014-07-04T09:17:02.000Z</time>
      </trkpt>
      <trkpt lat="48.70375" lon="1.77331">
        <ele>181.60000610352</ele>
        <time>2014-07-04T09:17:07.000Z</time>
      </trkpt>
      <trkpt lat="48.70375" lon="1.77333">
        <ele>181.60000610352</ele>
        <time>2014-07-04T09:17:08.000Z</time>
      </trkpt>
      <trkpt lat="48.70374" lon="1.77337">
        <ele>181.60000610352</ele>
        <time>2014-07-04T09:17:12.000Z</time>
      </trkpt>
      <trkpt lat="48.70371" lon="1.77349">
        <ele>182.19999694824</ele>
        <time>2014-07-04T09:17:30.000Z</time>
      </trkpt>
      <trkpt lat="48.70367" lon="1.77357">
        <ele>182.80000305176</ele>
        <time>2014-07-04T09:17:33.000Z</time>
      </trkpt>
      <trkpt lat="48.70365" lon="1.77362">
        <ele>183.19999694824</ele>
        <time>2014-07-04T09:17:36.000Z</time>
      </trkpt>
      <trkpt lat="48.70362" lon="1.77367">
        <ele>183.60000610352</ele>
        <time>2014-07-04T09:17:39.000Z</time>
      </trkpt>
      <trkpt lat="48.70357" lon="1.77375">
        <ele>184.19999694824</ele>
        <time>2014-07-04T09:17:44.000Z</time>
      </trkpt>
      <trkpt lat="48.70352" lon="1.77387">
        <ele>184.80000305176</ele>
        <time>2014-07-04T09:17:51.000Z</time>
      </trkpt>
      <trkpt lat="48.70348" lon="1.77392">
        <ele>185</ele>
        <time>2014-07-04T09:17:55.000Z</time>
      </trkpt>
      <trkpt lat="48.70347" lon="1.774">
        <ele>185.39999389648</ele>
        <time>2014-07-04T09:18:02.000Z</time>
      </trkpt>
      <trkpt lat="48.70351" lon="1.77413">
        <ele>186.19999694824</ele>
        <time>2014-07-04T09:18:10.000Z</time>
      </trkpt>
      <trkpt lat="48.70352" lon="1.77415">
        <ele>186.19999694824</ele>
        <time>2014-07-04T09:18:11.000Z</time>
      </trkpt>
      <trkpt lat="48.7035" lon="1.77424">
        <ele>186.39999389648</ele>
        <time>2014-07-04T09:18:15.000Z</time>
      </trkpt>
      <trkpt lat="48.70351" lon="1.77437">
        <ele>186.60000610352</ele>
        <time>2014-07-04T09:18:22.000Z</time>
      </trkpt>
      <trkpt lat="48.70354" lon="1.77447">
        <ele>187</ele>
        <time>2014-07-04T09:18:29.000Z</time>
      </trkpt>
      <trkpt lat="48.70354" lon="1.77462">
        <ele>187.39999389648</ele>
        <time>2014-07-04T09:18:35.000Z</time>
      </trkpt>
      <trkpt lat="48.70356" lon="1.7747">
        <ele>187.60000610352</ele>
        <time>2014-07-04T09:18:38.000Z</time>
      </trkpt>
      <trkpt lat="48.70359" lon="1.77508">
        <ele>188.19999694824</ele>
        <time>2014-07-04T09:18:46.000Z</time>
      </trkpt>
      <trkpt lat="48.70362" lon="1.77532">
        <ele>188.39999389648</ele>
        <time>2014-07-04T09:18:51.000Z</time>
      </trkpt>
      <trkpt lat="48.70362" lon="1.77548">
        <ele>188.60000610352</ele>
        <time>2014-07-04T09:18:56.000Z</time>
      </trkpt>
      <trkpt lat="48.70371" lon="1.77578">
        <ele>188.60000610352</ele>
        <time>2014-07-04T09:19:02.000Z</time>
      </trkpt>
      <trkpt lat="48.70376" lon="1.776">
        <ele>188.39999389648</ele>
        <time>2014-07-04T09:19:06.000Z</time>
      </trkpt>
      <trkpt lat="48.7038" lon="1.77615">
        <ele>188.39999389648</ele>
        <time>2014-07-04T09:19:10.000Z</time>
      </trkpt>
      <trkpt lat="48.70386" lon="1.77628">
        <ele>188.19999694824</ele>
        <time>2014-07-04T09:19:16.000Z</time>
      </trkpt>
      <trkpt lat="48.70387" lon="1.77636">
        <ele>188.19999694824</ele>
        <time>2014-07-04T09:19:19.000Z</time>
      </trkpt>
      <trkpt lat="48.70387" lon="1.77654">
        <ele>188.19999694824</ele>
        <time>2014-07-04T09:19:26.000Z</time>
      </trkpt>
      <trkpt lat="48.70388" lon="1.77669">
        <ele>188.19999694824</ele>
        <time>2014-07-04T09:19:32.000Z</time>
      </trkpt>
      <trkpt lat="48.70392" lon="1.77684">
        <ele>188</ele>
        <time>2014-07-04T09:19:38.000Z</time>
      </trkpt>
      <trkpt lat="48.70393" lon="1.7769">
        <ele>188</ele>
        <time>2014-07-04T09:19:42.000Z</time>
      </trkpt>
      <trkpt lat="48.70394" lon="1.77709">
        <ele>188</ele>
        <time>2014-07-04T09:19:50.000Z</time>
      </trkpt>
      <trkpt lat="48.70396" lon="1.77724">
        <ele>188</ele>
        <time>2014-07-04T09:19:56.000Z</time>
      </trkpt>
      <trkpt lat="48.70397" lon="1.77728">
        <ele>188</ele>
        <time>2014-07-04T09:19:58.000Z</time>
      </trkpt>
      <trkpt lat="48.70398" lon="1.77733">
        <ele>188</ele>
        <time>2014-07-04T09:20:00.000Z</time>
      </trkpt>
      <trkpt lat="48.70402" lon="1.77748">
        <ele>188</ele>
        <time>2014-07-04T09:20:06.000Z</time>
      </trkpt>
      <trkpt lat="48.70403" lon="1.77755">
        <ele>188</ele>
        <time>2014-07-04T09:20:09.000Z</time>
      </trkpt>
      <trkpt lat="48.70405" lon="1.77768">
        <ele>188.19999694824</ele>
        <time>2014-07-04T09:20:15.000Z</time>
      </trkpt>
      <trkpt lat="48.70406" lon="1.77775">
        <ele>188.19999694824</ele>
        <time>2014-07-04T09:20:19.000Z</time>
      </trkpt>
      <trkpt lat="48.70407" lon="1.77786">
        <ele>188.19999694824</ele>
        <time>2014-07-04T09:20:24.000Z</time>
      </trkpt>
      <trkpt lat="48.70407" lon="1.77788">
        <ele>188.39999389648</ele>
        <time>2014-07-04T09:20:26.000Z</time>
      </trkpt>
      <trkpt lat="48.70405" lon="1.77809">
        <ele>188.39999389648</ele>
        <time>2014-07-04T09:20:32.000Z</time>
      </trkpt>
      <trkpt lat="48.7041" lon="1.77825">
        <ele>188.39999389648</ele>
        <time>2014-07-04T09:20:38.000Z</time>
      </trkpt>
      <trkpt lat="48.70411" lon="1.77832">
        <ele>188.39999389648</ele>
        <time>2014-07-04T09:20:42.000Z</time>
      </trkpt>
      <trkpt lat="48.70413" lon="1.77835">
        <ele>188.19999694824</ele>
        <time>2014-07-04T09:20:44.000Z</time>
      </trkpt>
      <trkpt lat="48.70418" lon="1.77845">
        <ele>188.19999694824</ele>
        <time>2014-07-04T09:20:49.000Z</time>
      </trkpt>
      <trkpt lat="48.70423" lon="1.7786">
        <ele>188.19999694824</ele>
        <time>2014-07-04T09:20:55.000Z</time>
      </trkpt>
      <trkpt lat="48.70425" lon="1.77869">
        <ele>188.19999694824</ele>
        <time>2014-07-04T09:20:59.000Z</time>
      </trkpt>
      <trkpt lat="48.70429" lon="1.7788">
        <ele>188</ele>
        <time>2014-07-04T09:21:05.000Z</time>
      </trkpt>
      <trkpt lat="48.70429" lon="1.77895">
        <ele>188</ele>
        <time>2014-07-04T09:21:11.000Z</time>
      </trkpt>
      <trkpt lat="48.70428" lon="1.77904">
        <ele>188</ele>
        <time>2014-07-04T09:21:15.000Z</time>
      </trkpt>
      <trkpt lat="48.70428" lon="1.77911">
        <ele>188</ele>
        <time>2014-07-04T09:21:18.000Z</time>
      </trkpt>
      <trkpt lat="48.70427" lon="1.77926">
        <ele>188.19999694824</ele>
        <time>2014-07-04T09:21:24.000Z</time>
      </trkpt>
      <trkpt lat="48.70427" lon="1.77937">
        <ele>188.19999694824</ele>
        <time>2014-07-04T09:21:28.000Z</time>
      </trkpt>
      <trkpt lat="48.70427" lon="1.7794">
        <ele>188.39999389648</ele>
        <time>2014-07-04T09:21:30.000Z</time>
      </trkpt>
      <trkpt lat="48.7043" lon="1.7795">
        <ele>188.39999389648</ele>
        <time>2014-07-04T09:21:36.000Z</time>
      </trkpt>
      <trkpt lat="48.70434" lon="1.77965">
        <ele>188.60000610352</ele>
        <time>2014-07-04T09:21:41.000Z</time>
      </trkpt>
      <trkpt lat="48.70436" lon="1.77971">
        <ele>188.80000305176</ele>
        <time>2014-07-04T09:21:43.000Z</time>
      </trkpt>
      <trkpt lat="48.70438" lon="1.77976">
        <ele>188.80000305176</ele>
        <time>2014-07-04T09:21:45.000Z</time>
      </trkpt>
      <trkpt lat="48.70441" lon="1.77987">
        <ele>189</ele>
        <time>2014-07-04T09:21:50.000Z</time>
      </trkpt>
      <trkpt lat="48.70442" lon="1.77997">
        <ele>189</ele>
        <time>2014-07-04T09:21:56.000Z</time>
      </trkpt>
      <trkpt lat="48.70441" lon="1.7801">
        <ele>189</ele>
        <time>2014-07-04T09:22:00.000Z</time>
      </trkpt>
      <trkpt lat="48.70444" lon="1.78025">
        <ele>189</ele>
        <time>2014-07-04T09:22:08.000Z</time>
      </trkpt>
      <trkpt lat="48.70445" lon="1.78033">
        <ele>189</ele>
        <time>2014-07-04T09:22:13.000Z</time>
      </trkpt>
      <trkpt lat="48.70447" lon="1.78042">
        <ele>188.80000305176</ele>
        <time>2014-07-04T09:22:17.000Z</time>
      </trkpt>
      <trkpt lat="48.70449" lon="1.78058">
        <ele>188.80000305176</ele>
        <time>2014-07-04T09:22:23.000Z</time>
      </trkpt>
      <trkpt lat="48.70453" lon="1.7807">
        <ele>188.80000305176</ele>
        <time>2014-07-04T09:22:29.000Z</time>
      </trkpt>
      <trkpt lat="48.70456" lon="1.78084">
        <ele>188.80000305176</ele>
        <time>2014-07-04T09:22:35.000Z</time>
      </trkpt>
      <trkpt lat="48.70457" lon="1.781">
        <ele>188.80000305176</ele>
        <time>2014-07-04T09:22:43.000Z</time>
      </trkpt>
      <trkpt lat="48.70459" lon="1.78113">
        <ele>188.80000305176</ele>
        <time>2014-07-04T09:22:48.000Z</time>
      </trkpt>
      <trkpt lat="48.70459" lon="1.78131">
        <ele>188.80000305176</ele>
        <time>2014-07-04T09:22:53.000Z</time>
      </trkpt>
      <trkpt lat="48.7046" lon="1.78146">
        <ele>188.80000305176</ele>
        <time>2014-07-04T09:22:59.000Z</time>
      </trkpt>
      <trkpt lat="48.7046" lon="1.78147">
        <ele>188.80000305176</ele>
        <time>2014-07-04T09:23:00.000Z</time>
      </trkpt>
      <trkpt lat="48.70465" lon="1.78155">
        <ele>188.60000610352</ele>
        <time>2014-07-04T09:23:05.000Z</time>
      </trkpt>
      <trkpt lat="48.70464" lon="1.78171">
        <ele>188.80000305176</ele>
        <time>2014-07-04T09:23:12.000Z</time>
      </trkpt>
      <trkpt lat="48.70462" lon="1.78179">
        <ele>189</ele>
        <time>2014-07-04T09:23:15.000Z</time>
      </trkpt>
      <trkpt lat="48.70462" lon="1.78194">
        <ele>189</ele>
        <time>2014-07-04T09:23:21.000Z</time>
      </trkpt>
      <trkpt lat="48.70469" lon="1.782">
        <ele>189</ele>
        <time>2014-07-04T09:23:27.000Z</time>
      </trkpt>
      <trkpt lat="48.70469" lon="1.78204">
        <ele>189</ele>
        <time>2014-07-04T09:23:32.000Z</time>
      </trkpt>
      <trkpt lat="48.70472" lon="1.78218">
        <ele>189</ele>
        <time>2014-07-04T09:23:37.000Z</time>
      </trkpt>
      <trkpt lat="48.70472" lon="1.78225">
        <ele>189</ele>
        <time>2014-07-04T09:23:39.000Z</time>
      </trkpt>
      <trkpt lat="48.70471" lon="1.78242">
        <ele>189</ele>
        <time>2014-07-04T09:23:46.000Z</time>
      </trkpt>
      <trkpt lat="48.70471" lon="1.78245">
        <ele>189</ele>
        <time>2014-07-04T09:23:47.000Z</time>
      </trkpt>
      <trkpt lat="48.70474" lon="1.78257">
        <ele>189</ele>
        <time>2014-07-04T09:23:52.000Z</time>
      </trkpt>
      <trkpt lat="48.70476" lon="1.78271">
        <ele>189</ele>
        <time>2014-07-04T09:23:58.000Z</time>
      </trkpt>
      <trkpt lat="48.70477" lon="1.78288">
        <ele>189</ele>
        <time>2014-07-04T09:24:04.000Z</time>
      </trkpt>
      <trkpt lat="48.70481" lon="1.78301">
        <ele>189</ele>
        <time>2014-07-04T09:24:11.000Z</time>
      </trkpt>
      <trkpt lat="48.70484" lon="1.78311">
        <ele>189</ele>
        <time>2014-07-04T09:24:16.000Z</time>
      </trkpt>
      <trkpt lat="48.70484" lon="1.78315">
        <ele>189</ele>
        <time>2014-07-04T09:24:19.000Z</time>
      </trkpt>
      <trkpt lat="48.70487" lon="1.78325">
        <ele>189</ele>
        <time>2014-07-04T09:24:24.000Z</time>
      </trkpt>
      <trkpt lat="48.70488" lon="1.78337">
        <ele>189</ele>
        <time>2014-07-04T09:24:29.000Z</time>
      </trkpt>
      <trkpt lat="48.70488" lon="1.7834">
        <ele>189</ele>
        <time>2014-07-04T09:24:30.000Z</time>
      </trkpt>
      <trkpt lat="48.70492" lon="1.78354">
        <ele>189</ele>
        <time>2014-07-04T09:24:36.000Z</time>
      </trkpt>
      <trkpt lat="48.70492" lon="1.78355">
        <ele>189</ele>
        <time>2014-07-04T09:24:37.000Z</time>
      </trkpt>
      <trkpt lat="48.70496" lon="1.78368">
        <ele>189</ele>
        <time>2014-07-04T09:24:43.000Z</time>
      </trkpt>
      <trkpt lat="48.70496" lon="1.78377">
        <ele>189</ele>
        <time>2014-07-04T09:24:47.000Z</time>
      </trkpt>
      <trkpt lat="48.70497" lon="1.78391">
        <ele>189.19999694824</ele>
        <time>2014-07-04T09:24:53.000Z</time>
      </trkpt>
      <trkpt lat="48.70499" lon="1.78403">
        <ele>189.19999694824</ele>
        <time>2014-07-04T09:24:58.000Z</time>
      </trkpt>
      <trkpt lat="48.70502" lon="1.78407">
        <ele>189.19999694824</ele>
        <time>2014-07-04T09:25:02.000Z</time>
      </trkpt>
      <trkpt lat="48.70502" lon="1.78427">
        <ele>189.19999694824</ele>
        <time>2014-07-04T09:25:08.000Z</time>
      </trkpt>
      <trkpt lat="48.70503" lon="1.7844">
        <ele>189.19999694824</ele>
        <time>2014-07-04T09:25:13.000Z</time>
      </trkpt>
      <trkpt lat="48.70504" lon="1.7844">
        <ele>189.19999694824</ele>
        <time>2014-07-04T09:25:14.000Z</time>
      </trkpt>
      <trkpt lat="48.70506" lon="1.7846">
        <ele>189.19999694824</ele>
        <time>2014-07-04T09:25:21.000Z</time>
      </trkpt>
      <trkpt lat="48.7051" lon="1.78466">
        <ele>189.19999694824</ele>
        <time>2014-07-04T09:25:24.000Z</time>
      </trkpt>
      <trkpt lat="48.70513" lon="1.78483">
        <ele>189</ele>
        <time>2014-07-04T09:25:30.000Z</time>
      </trkpt>
      <trkpt lat="48.7052" lon="1.78494">
        <ele>189</ele>
        <time>2014-07-04T09:25:36.000Z</time>
      </trkpt>
      <trkpt lat="48.7052" lon="1.78507">
        <ele>188.80000305176</ele>
        <time>2014-07-04T09:25:41.000Z</time>
      </trkpt>
      <trkpt lat="48.7052" lon="1.78511">
        <ele>188.80000305176</ele>
        <time>2014-07-04T09:25:43.000Z</time>
      </trkpt>
      <trkpt lat="48.7052" lon="1.78525">
        <ele>188.60000610352</ele>
        <time>2014-07-04T09:25:50.000Z</time>
      </trkpt>
      <trkpt lat="48.70523" lon="1.7854">
        <ele>188.39999389648</ele>
        <time>2014-07-04T09:25:55.000Z</time>
      </trkpt>
      <trkpt lat="48.70522" lon="1.78543">
        <ele>188.39999389648</ele>
        <time>2014-07-04T09:25:56.000Z</time>
      </trkpt>
      <trkpt lat="48.70524" lon="1.78549">
        <ele>188.19999694824</ele>
        <time>2014-07-04T09:25:59.000Z</time>
      </trkpt>
      <trkpt lat="48.7053" lon="1.78562">
        <ele>188.19999694824</ele>
        <time>2014-07-04T09:26:05.000Z</time>
      </trkpt>
      <trkpt lat="48.70538" lon="1.7858">
        <ele>188</ele>
        <time>2014-07-04T09:26:14.000Z</time>
      </trkpt>
      <trkpt lat="48.70539" lon="1.78589">
        <ele>188</ele>
        <time>2014-07-04T09:26:19.000Z</time>
      </trkpt>
      <trkpt lat="48.70544" lon="1.78607">
        <ele>188</ele>
        <time>2014-07-04T09:26:27.000Z</time>
      </trkpt>
      <trkpt lat="48.70544" lon="1.7861">
        <ele>188</ele>
        <time>2014-07-04T09:26:28.000Z</time>
      </trkpt>
      <trkpt lat="48.70545" lon="1.78631">
        <ele>188</ele>
        <time>2014-07-04T09:26:36.000Z</time>
      </trkpt>
      <trkpt lat="48.70545" lon="1.7864">
        <ele>188</ele>
        <time>2014-07-04T09:26:39.000Z</time>
      </trkpt>
      <trkpt lat="48.70544" lon="1.78645">
        <ele>188</ele>
        <time>2014-07-04T09:26:41.000Z</time>
      </trkpt>
      <trkpt lat="48.70545" lon="1.78658">
        <ele>188</ele>
        <time>2014-07-04T09:26:47.000Z</time>
      </trkpt>
      <trkpt lat="48.70544" lon="1.78675">
        <ele>188</ele>
        <time>2014-07-04T09:26:53.000Z</time>
      </trkpt>
      <trkpt lat="48.70545" lon="1.78677">
        <ele>188</ele>
        <time>2014-07-04T09:26:54.000Z</time>
      </trkpt>
      <trkpt lat="48.70545" lon="1.78693">
        <ele>188</ele>
        <time>2014-07-04T09:27:00.000Z</time>
      </trkpt>
      <trkpt lat="48.70548" lon="1.78708">
        <ele>188</ele>
        <time>2014-07-04T09:27:07.000Z</time>
      </trkpt>
      <trkpt lat="48.70548" lon="1.7872">
        <ele>188</ele>
        <time>2014-07-04T09:27:11.000Z</time>
      </trkpt>
      <trkpt lat="48.70548" lon="1.78734">
        <ele>188</ele>
        <time>2014-07-04T09:27:16.000Z</time>
      </trkpt>
      <trkpt lat="48.70547" lon="1.7875">
        <ele>187.80000305176</ele>
        <time>2014-07-04T09:27:22.000Z</time>
      </trkpt>
      <trkpt lat="48.7055" lon="1.78761">
        <ele>187.80000305176</ele>
        <time>2014-07-04T09:27:28.000Z</time>
      </trkpt>
      <trkpt lat="48.70556" lon="1.7877">
        <ele>187.60000610352</ele>
        <time>2014-07-04T09:27:35.000Z</time>
      </trkpt>
      <trkpt lat="48.7056" lon="1.78786">
        <ele>187.60000610352</ele>
        <time>2014-07-04T09:27:39.000Z</time>
      </trkpt>
      <trkpt lat="48.70564" lon="1.78801">
        <ele>187.39999389648</ele>
        <time>2014-07-04T09:27:43.000Z</time>
      </trkpt>
      <trkpt lat="48.70566" lon="1.78809">
        <ele>187.39999389648</ele>
        <time>2014-07-04T09:27:46.000Z</time>
      </trkpt>
      <trkpt lat="48.70568" lon="1.78827">
        <ele>187.39999389648</ele>
        <time>2014-07-04T09:27:53.000Z</time>
      </trkpt>
      <trkpt lat="48.70568" lon="1.78829">
        <ele>187.60000610352</ele>
        <time>2014-07-04T09:27:54.000Z</time>
      </trkpt>
      <trkpt lat="48.7057" lon="1.78843">
        <ele>187.60000610352</ele>
        <time>2014-07-04T09:28:00.000Z</time>
      </trkpt>
      <trkpt lat="48.70573" lon="1.78852">
        <ele>187.80000305176</ele>
        <time>2014-07-04T09:28:04.000Z</time>
      </trkpt>
      <trkpt lat="48.70574" lon="1.78857">
        <ele>187.80000305176</ele>
        <time>2014-07-04T09:28:06.000Z</time>
      </trkpt>
      <trkpt lat="48.70576" lon="1.78869">
        <ele>188</ele>
        <time>2014-07-04T09:28:11.000Z</time>
      </trkpt>
      <trkpt lat="48.70577" lon="1.78878">
        <ele>188</ele>
        <time>2014-07-04T09:28:15.000Z</time>
      </trkpt>
      <trkpt lat="48.70579" lon="1.78895">
        <ele>188</ele>
        <time>2014-07-04T09:28:23.000Z</time>
      </trkpt>
      <trkpt lat="48.70579" lon="1.78897">
        <ele>188</ele>
        <time>2014-07-04T09:28:24.000Z</time>
      </trkpt>
      <trkpt lat="48.70585" lon="1.78912">
        <ele>188</ele>
        <time>2014-07-04T09:28:33.000Z</time>
      </trkpt>
      <trkpt lat="48.70586" lon="1.78924">
        <ele>188</ele>
        <time>2014-07-04T09:28:38.000Z</time>
      </trkpt>
      <trkpt lat="48.70587" lon="1.78935">
        <ele>188</ele>
        <time>2014-07-04T09:28:44.000Z</time>
      </trkpt>
      <trkpt lat="48.70586" lon="1.78945">
        <ele>188</ele>
        <time>2014-07-04T09:28:48.000Z</time>
      </trkpt>
      <trkpt lat="48.70591" lon="1.78957">
        <ele>188</ele>
        <time>2014-07-04T09:28:54.000Z</time>
      </trkpt>
      <trkpt lat="48.70592" lon="1.78956">
        <ele>188</ele>
        <time>2014-07-04T09:28:55.000Z</time>
      </trkpt>
      <trkpt lat="48.70598" lon="1.78952">
        <ele>188</ele>
        <time>2014-07-04T09:29:01.000Z</time>
      </trkpt>
      <trkpt lat="48.70603" lon="1.78941">
        <ele>188</ele>
        <time>2014-07-04T09:29:07.000Z</time>
      </trkpt>
      <trkpt lat="48.70605" lon="1.78938">
        <ele>188</ele>
        <time>2014-07-04T09:29:09.000Z</time>
      </trkpt>
      <trkpt lat="48.70611" lon="1.78933">
        <ele>188</ele>
        <time>2014-07-04T09:29:15.000Z</time>
      </trkpt>
      <trkpt lat="48.70621" lon="1.78927">
        <ele>188</ele>
        <time>2014-07-04T09:29:21.000Z</time>
      </trkpt>
      <trkpt lat="48.70627" lon="1.78919">
        <ele>188.19999694824</ele>
        <time>2014-07-04T09:29:26.000Z</time>
      </trkpt>
      <trkpt lat="48.70636" lon="1.78908">
        <ele>188.39999389648</ele>
        <time>2014-07-04T09:29:33.000Z</time>
      </trkpt>
      <trkpt lat="48.70642" lon="1.78898">
        <ele>188.39999389648</ele>
        <time>2014-07-04T09:29:39.000Z</time>
      </trkpt>
      <trkpt lat="48.70647" lon="1.78895">
        <ele>188.39999389648</ele>
        <time>2014-07-04T09:29:43.000Z</time>
      </trkpt>
      <trkpt lat="48.70655" lon="1.78892">
        <ele>188.39999389648</ele>
        <time>2014-07-04T09:29:49.000Z</time>
      </trkpt>
      <trkpt lat="48.70662" lon="1.78884">
        <ele>188.39999389648</ele>
        <time>2014-07-04T09:29:54.000Z</time>
      </trkpt>
      <trkpt lat="48.70669" lon="1.78873">
        <ele>188.19999694824</ele>
        <time>2014-07-04T09:29:59.000Z</time>
      </trkpt>
      <trkpt lat="48.70681" lon="1.78854">
        <ele>187.80000305176</ele>
        <time>2014-07-04T09:30:08.000Z</time>
      </trkpt>
      <trkpt lat="48.7069" lon="1.78838">
        <ele>187.39999389648</ele>
        <time>2014-07-04T09:30:15.000Z</time>
      </trkpt>
      <trkpt lat="48.70695" lon="1.78829">
        <ele>187</ele>
        <time>2014-07-04T09:30:20.000Z</time>
      </trkpt>
      <trkpt lat="48.70701" lon="1.78825">
        <ele>187.19999694824</ele>
        <time>2014-07-04T09:30:24.000Z</time>
      </trkpt>
      <trkpt lat="48.70705" lon="1.78822">
        <ele>187.19999694824</ele>
        <time>2014-07-04T09:30:27.000Z</time>
      </trkpt>
      <trkpt lat="48.70708" lon="1.78813">
        <ele>187.39999389648</ele>
        <time>2014-07-04T09:30:31.000Z</time>
      </trkpt>
      <trkpt lat="48.70712" lon="1.78801">
        <ele>187.80000305176</ele>
        <time>2014-07-04T09:30:36.000Z</time>
      </trkpt>
      <trkpt lat="48.70716" lon="1.78793">
        <ele>188</ele>
        <time>2014-07-04T09:30:40.000Z</time>
      </trkpt>
      <trkpt lat="48.7072" lon="1.78783">
        <ele>188.39999389648</ele>
        <time>2014-07-04T09:30:47.000Z</time>
      </trkpt>
      <trkpt lat="48.70723" lon="1.78777">
        <ele>188.39999389648</ele>
        <time>2014-07-04T09:30:51.000Z</time>
      </trkpt>
      <trkpt lat="48.70727" lon="1.78763">
        <ele>188.60000610352</ele>
        <time>2014-07-04T09:30:58.000Z</time>
      </trkpt>
      <trkpt lat="48.70732" lon="1.78759">
        <ele>188.80000305176</ele>
        <time>2014-07-04T09:31:03.000Z</time>
      </trkpt>
      <trkpt lat="48.70739" lon="1.78762">
        <ele>188.80000305176</ele>
        <time>2014-07-04T09:31:09.000Z</time>
      </trkpt>
      <trkpt lat="48.70743" lon="1.78764">
        <ele>188.60000610352</ele>
        <time>2014-07-04T09:31:12.000Z</time>
      </trkpt>
      <trkpt lat="48.70752" lon="1.78771">
        <ele>188.60000610352</ele>
        <time>2014-07-04T09:31:19.000Z</time>
      </trkpt>
      <trkpt lat="48.70755" lon="1.78775">
        <ele>188.60000610352</ele>
        <time>2014-07-04T09:31:22.000Z</time>
      </trkpt>
      <trkpt lat="48.70763" lon="1.78783">
        <ele>188.39999389648</ele>
        <time>2014-07-04T09:31:27.000Z</time>
      </trkpt>
      <trkpt lat="48.70766" lon="1.78786">
        <ele>188.39999389648</ele>
        <time>2014-07-04T09:31:29.000Z</time>
      </trkpt>
      <trkpt lat="48.7078" lon="1.78793">
        <ele>188</ele>
        <time>2014-07-04T09:31:36.000Z</time>
      </trkpt>
      <trkpt lat="48.70785" lon="1.78796">
        <ele>187.80000305176</ele>
        <time>2014-07-04T09:31:42.000Z</time>
      </trkpt>
      <trkpt lat="48.70789" lon="1.788">
        <ele>187.60000610352</ele>
        <time>2014-07-04T09:31:47.000Z</time>
      </trkpt>
      <trkpt lat="48.70793" lon="1.78801">
        <ele>187.39999389648</ele>
        <time>2014-07-04T09:31:50.000Z</time>
      </trkpt>
      <trkpt lat="48.70803" lon="1.78804">
        <ele>187</ele>
        <time>2014-07-04T09:31:56.000Z</time>
      </trkpt>
      <trkpt lat="48.7081" lon="1.78811">
        <ele>186.60000610352</ele>
        <time>2014-07-04T09:32:00.000Z</time>
      </trkpt>
      <trkpt lat="48.70816" lon="1.78814">
        <ele>186.39999389648</ele>
        <time>2014-07-04T09:32:04.000Z</time>
      </trkpt>
      <trkpt lat="48.70822" lon="1.78821">
        <ele>186.19999694824</ele>
        <time>2014-07-04T09:32:10.000Z</time>
      </trkpt>
      <trkpt lat="48.70824" lon="1.78824">
        <ele>186.19999694824</ele>
        <time>2014-07-04T09:32:12.000Z</time>
      </trkpt>
      <trkpt lat="48.70828" lon="1.78826">
        <ele>186</ele>
        <time>2014-07-04T09:32:18.000Z</time>
      </trkpt>
      <trkpt lat="48.70828" lon="1.78826">
        <ele>186</ele>
        <time>2014-07-04T09:32:19.000Z</time>
      </trkpt>
      <trkpt lat="48.70833" lon="1.7883">
        <ele>186</ele>
        <time>2014-07-04T09:32:24.000Z</time>
      </trkpt>
      <trkpt lat="48.70836" lon="1.78832">
        <ele>186</ele>
        <time>2014-07-04T09:32:25.000Z</time>
      </trkpt>
      <trkpt lat="48.70841" lon="1.78839">
        <ele>186</ele>
        <time>2014-07-04T09:32:29.000Z</time>
      </trkpt>
      <trkpt lat="48.70847" lon="1.78842">
        <ele>186</ele>
        <time>2014-07-04T09:32:34.000Z</time>
      </trkpt>
      <trkpt lat="48.7085" lon="1.78845">
        <ele>186</ele>
        <time>2014-07-04T09:32:40.000Z</time>
      </trkpt>
      <trkpt lat="48.70858" lon="1.78852">
        <ele>186</ele>
        <time>2014-07-04T09:32:47.000Z</time>
      </trkpt>
      <trkpt lat="48.70865" lon="1.78855">
        <ele>186</ele>
        <time>2014-07-04T09:32:57.000Z</time>
      </trkpt>
      <trkpt lat="48.70867" lon="1.78856">
        <ele>186</ele>
        <time>2014-07-04T09:32:59.000Z</time>
      </trkpt>
      <trkpt lat="48.70869" lon="1.78856">
        <ele>185.80000305176</ele>
        <time>2014-07-04T09:33:01.000Z</time>
      </trkpt>
      <trkpt lat="48.70877" lon="1.78867">
        <ele>186</ele>
        <time>2014-07-04T09:33:08.000Z</time>
      </trkpt>
      <trkpt lat="48.70882" lon="1.78867">
        <ele>186</ele>
        <time>2014-07-04T09:33:12.000Z</time>
      </trkpt>
      <trkpt lat="48.70889" lon="1.78865">
        <ele>185.80000305176</ele>
        <time>2014-07-04T09:33:17.000Z</time>
      </trkpt>
      <trkpt lat="48.70898" lon="1.78877">
        <ele>186</ele>
        <time>2014-07-04T09:33:25.000Z</time>
      </trkpt>
      <trkpt lat="48.70908" lon="1.78889">
        <ele>186.19999694824</ele>
        <time>2014-07-04T09:33:34.000Z</time>
      </trkpt>
      <trkpt lat="48.70914" lon="1.78891">
        <ele>186</ele>
        <time>2014-07-04T09:33:39.000Z</time>
      </trkpt>
      <trkpt lat="48.70923" lon="1.78895">
        <ele>186</ele>
        <time>2014-07-04T09:33:45.000Z</time>
      </trkpt>
      <trkpt lat="48.70931" lon="1.78904">
        <ele>186</ele>
        <time>2014-07-04T09:33:51.000Z</time>
      </trkpt>
      <trkpt lat="48.70939" lon="1.7891">
        <ele>186</ele>
        <time>2014-07-04T09:33:58.000Z</time>
      </trkpt>
      <trkpt lat="48.70946" lon="1.78915">
        <ele>186.19999694824</ele>
        <time>2014-07-04T09:34:03.000Z</time>
      </trkpt>
      <trkpt lat="48.70957" lon="1.78925">
        <ele>186.19999694824</ele>
        <time>2014-07-04T09:34:10.000Z</time>
      </trkpt>
      <trkpt lat="48.70965" lon="1.7893">
        <ele>186.39999389648</ele>
        <time>2014-07-04T09:34:16.000Z</time>
      </trkpt>
      <trkpt lat="48.70976" lon="1.78934">
        <ele>186.39999389648</ele>
        <time>2014-07-04T09:34:23.000Z</time>
      </trkpt>
      <trkpt lat="48.70978" lon="1.78935">
        <ele>186.39999389648</ele>
        <time>2014-07-04T09:34:24.000Z</time>
      </trkpt>
      <trkpt lat="48.70988" lon="1.78942">
        <ele>186.60000610352</ele>
        <time>2014-07-04T09:34:31.000Z</time>
      </trkpt>
      <trkpt lat="48.70993" lon="1.78946">
        <ele>186.60000610352</ele>
        <time>2014-07-04T09:34:35.000Z</time>
      </trkpt>
      <trkpt lat="48.71003" lon="1.78952">
        <ele>186.80000305176</ele>
        <time>2014-07-04T09:34:41.000Z</time>
      </trkpt>
      <trkpt lat="48.71005" lon="1.78953">
        <ele>186.80000305176</ele>
        <time>2014-07-04T09:34:42.000Z</time>
      </trkpt>
      <trkpt lat="48.71007" lon="1.78954">
        <ele>186.80000305176</ele>
        <time>2014-07-04T09:34:44.000Z</time>
      </trkpt>
      <trkpt lat="48.71017" lon="1.78961">
        <ele>187</ele>
        <time>2014-07-04T09:34:51.000Z</time>
      </trkpt>
      <trkpt lat="48.7102" lon="1.78963">
        <ele>187</ele>
        <time>2014-07-04T09:34:53.000Z</time>
      </trkpt>
      <trkpt lat="48.71024" lon="1.78965">
        <ele>187</ele>
        <time>2014-07-04T09:34:55.000Z</time>
      </trkpt>
      <trkpt lat="48.71031" lon="1.7897">
        <ele>187</ele>
        <time>2014-07-04T09:35:00.000Z</time>
      </trkpt>
      <trkpt lat="48.7104" lon="1.78975">
        <ele>187</ele>
        <time>2014-07-04T09:35:06.000Z</time>
      </trkpt>
      <trkpt lat="48.7105" lon="1.78979">
        <ele>187</ele>
        <time>2014-07-04T09:35:12.000Z</time>
      </trkpt>
      <trkpt lat="48.71058" lon="1.78987">
        <ele>187</ele>
        <time>2014-07-04T09:35:18.000Z</time>
      </trkpt>
      <trkpt lat="48.7106" lon="1.78988">
        <ele>187</ele>
        <time>2014-07-04T09:35:19.000Z</time>
      </trkpt>
      <trkpt lat="48.71063" lon="1.7899">
        <ele>187</ele>
        <time>2014-07-04T09:35:21.000Z</time>
      </trkpt>
      <trkpt lat="48.71072" lon="1.78999">
        <ele>187.19999694824</ele>
        <time>2014-07-04T09:35:28.000Z</time>
      </trkpt>
      <trkpt lat="48.71077" lon="1.79002">
        <ele>187.39999389648</ele>
        <time>2014-07-04T09:35:32.000Z</time>
      </trkpt>
      <trkpt lat="48.71084" lon="1.79007">
        <ele>187.39999389648</ele>
        <time>2014-07-04T09:35:37.000Z</time>
      </trkpt>
      <trkpt lat="48.71092" lon="1.79014">
        <ele>187.60000610352</ele>
        <time>2014-07-04T09:35:42.000Z</time>
      </trkpt>
      <trkpt lat="48.71094" lon="1.79017">
        <ele>187.60000610352</ele>
        <time>2014-07-04T09:35:44.000Z</time>
      </trkpt>
      <trkpt lat="48.71101" lon="1.79022">
        <ele>187.80000305176</ele>
        <time>2014-07-04T09:35:49.000Z</time>
      </trkpt>
      <trkpt lat="48.71107" lon="1.79029">
        <ele>187.80000305176</ele>
        <time>2014-07-04T09:35:55.000Z</time>
      </trkpt>
      <trkpt lat="48.71117" lon="1.79032">
        <ele>187.60000610352</ele>
        <time>2014-07-04T09:36:01.000Z</time>
      </trkpt>
      <trkpt lat="48.71121" lon="1.79034">
        <ele>187.39999389648</ele>
        <time>2014-07-04T09:36:03.000Z</time>
      </trkpt>
      <trkpt lat="48.71127" lon="1.79037">
        <ele>187.39999389648</ele>
        <time>2014-07-04T09:36:07.000Z</time>
      </trkpt>
      <trkpt lat="48.71137" lon="1.79042">
        <ele>187</ele>
        <time>2014-07-04T09:36:15.000Z</time>
      </trkpt>
      <trkpt lat="48.7114" lon="1.79044">
        <ele>187</ele>
        <time>2014-07-04T09:36:17.000Z</time>
      </trkpt>
      <trkpt lat="48.71146" lon="1.79048">
        <ele>187</ele>
        <time>2014-07-04T09:36:21.000Z</time>
      </trkpt>
      <trkpt lat="48.71149" lon="1.79052">
        <ele>187</ele>
        <time>2014-07-04T09:36:23.000Z</time>
      </trkpt>
      <trkpt lat="48.71153" lon="1.79055">
        <ele>186.80000305176</ele>
        <time>2014-07-04T09:36:27.000Z</time>
      </trkpt>
      <trkpt lat="48.71155" lon="1.79058">
        <ele>186.80000305176</ele>
        <time>2014-07-04T09:36:29.000Z</time>
      </trkpt>
      <trkpt lat="48.71163" lon="1.79065">
        <ele>186.80000305176</ele>
        <time>2014-07-04T09:36:35.000Z</time>
      </trkpt>
      <trkpt lat="48.7117" lon="1.79069">
        <ele>186.60000610352</ele>
        <time>2014-07-04T09:36:40.000Z</time>
      </trkpt>
      <trkpt lat="48.71182" lon="1.79077">
        <ele>186.19999694824</ele>
        <time>2014-07-04T09:36:49.000Z</time>
      </trkpt>
      <trkpt lat="48.71185" lon="1.79077">
        <ele>186</ele>
        <time>2014-07-04T09:36:52.000Z</time>
      </trkpt>
      <trkpt lat="48.71192" lon="1.7908">
        <ele>185.60000610352</ele>
        <time>2014-07-04T09:36:58.000Z</time>
      </trkpt>
      <trkpt lat="48.71195" lon="1.79083">
        <ele>185.39999389648</ele>
        <time>2014-07-04T09:37:02.000Z</time>
      </trkpt>
      <trkpt lat="48.71197" lon="1.79086">
        <ele>185.39999389648</ele>
        <time>2014-07-04T09:37:05.000Z</time>
      </trkpt>
      <trkpt lat="48.71206" lon="1.79091">
        <ele>184.80000305176</ele>
        <time>2014-07-04T09:37:12.000Z</time>
      </trkpt>
      <trkpt lat="48.71215" lon="1.79096">
        <ele>184.39999389648</ele>
        <time>2014-07-04T09:37:18.000Z</time>
      </trkpt>
      <trkpt lat="48.71222" lon="1.79102">
        <ele>184</ele>
        <time>2014-07-04T09:37:23.000Z</time>
      </trkpt>
      <trkpt lat="48.71227" lon="1.79105">
        <ele>183.80000305176</ele>
        <time>2014-07-04T09:37:27.000Z</time>
      </trkpt>
      <trkpt lat="48.71234" lon="1.7911">
        <ele>183.39999389648</ele>
        <time>2014-07-04T09:37:33.000Z</time>
      </trkpt>
      <trkpt lat="48.71235" lon="1.7911">
        <ele>183.39999389648</ele>
        <time>2014-07-04T09:37:35.000Z</time>
      </trkpt>
      <trkpt lat="48.7124" lon="1.79112">
        <ele>183.19999694824</ele>
        <time>2014-07-04T09:37:39.000Z</time>
      </trkpt>
      <trkpt lat="48.7125" lon="1.79122">
        <ele>182.60000610352</ele>
        <time>2014-07-04T09:37:46.000Z</time>
      </trkpt>
      <trkpt lat="48.71251" lon="1.79123">
        <ele>182.39999389648</ele>
        <time>2014-07-04T09:37:47.000Z</time>
      </trkpt>
      <trkpt lat="48.7126" lon="1.79129">
        <ele>182</ele>
        <time>2014-07-04T09:37:53.000Z</time>
      </trkpt>
      <trkpt lat="48.71267" lon="1.79132">
        <ele>181.60000610352</ele>
        <time>2014-07-04T09:37:58.000Z</time>
      </trkpt>
      <trkpt lat="48.71276" lon="1.79138">
        <ele>181.39999389648</ele>
        <time>2014-07-04T09:38:03.000Z</time>
      </trkpt>
      <trkpt lat="48.71278" lon="1.79141">
        <ele>181.39999389648</ele>
        <time>2014-07-04T09:38:05.000Z</time>
      </trkpt>
      <trkpt lat="48.71289" lon="1.79147">
        <ele>181.19999694824</ele>
        <time>2014-07-04T09:38:11.000Z</time>
      </trkpt>
      <trkpt lat="48.71298" lon="1.79153">
        <ele>181</ele>
        <time>2014-07-04T09:38:17.000Z</time>
      </trkpt>
      <trkpt lat="48.71302" lon="1.79153">
        <ele>181</ele>
        <time>2014-07-04T09:38:19.000Z</time>
      </trkpt>
      <trkpt lat="48.71308" lon="1.79155">
        <ele>181</ele>
        <time>2014-07-04T09:38:24.000Z</time>
      </trkpt>
      <trkpt lat="48.71318" lon="1.79164">
        <ele>180.80000305176</ele>
        <time>2014-07-04T09:38:31.000Z</time>
      </trkpt>
      <trkpt lat="48.71325" lon="1.79169">
        <ele>180.60000610352</ele>
        <time>2014-07-04T09:38:36.000Z</time>
      </trkpt>
      <trkpt lat="48.71333" lon="1.79174">
        <ele>180.60000610352</ele>
        <time>2014-07-04T09:38:42.000Z</time>
      </trkpt>
      <trkpt lat="48.71343" lon="1.79181">
        <ele>180.39999389648</ele>
        <time>2014-07-04T09:38:48.000Z</time>
      </trkpt>
      <trkpt lat="48.71345" lon="1.79184">
        <ele>180.39999389648</ele>
        <time>2014-07-04T09:38:50.000Z</time>
      </trkpt>
      <trkpt lat="48.7135" lon="1.79186">
        <ele>180.19999694824</ele>
        <time>2014-07-04T09:38:54.000Z</time>
      </trkpt>
      <trkpt lat="48.71361" lon="1.79192">
        <ele>180.19999694824</ele>
        <time>2014-07-04T09:39:01.000Z</time>
      </trkpt>
      <trkpt lat="48.71363" lon="1.79193">
        <ele>180.39999389648</ele>
        <time>2014-07-04T09:39:02.000Z</time>
      </trkpt>
      <trkpt lat="48.71367" lon="1.792">
        <ele>180.19999694824</ele>
        <time>2014-07-04T09:39:06.000Z</time>
      </trkpt>
      <trkpt lat="48.71372" lon="1.79203">
        <ele>180.19999694824</ele>
        <time>2014-07-04T09:39:10.000Z</time>
      </trkpt>
      <trkpt lat="48.71381" lon="1.79212">
        <ele>180.19999694824</ele>
        <time>2014-07-04T09:39:17.000Z</time>
      </trkpt>
      <trkpt lat="48.71387" lon="1.79216">
        <ele>180.39999389648</ele>
        <time>2014-07-04T09:39:21.000Z</time>
      </trkpt>
      <trkpt lat="48.71396" lon="1.79221">
        <ele>180.39999389648</ele>
        <time>2014-07-04T09:39:27.000Z</time>
      </trkpt>
      <trkpt lat="48.71402" lon="1.79226">
        <ele>180.39999389648</ele>
        <time>2014-07-04T09:39:31.000Z</time>
      </trkpt>
      <trkpt lat="48.71407" lon="1.79232">
        <ele>180.39999389648</ele>
        <time>2014-07-04T09:39:36.000Z</time>
      </trkpt>
      <trkpt lat="48.71412" lon="1.79232">
        <ele>180.60000610352</ele>
        <time>2014-07-04T09:39:40.000Z</time>
      </trkpt>
      <trkpt lat="48.71414" lon="1.79233">
        <ele>180.60000610352</ele>
        <time>2014-07-04T09:39:41.000Z</time>
      </trkpt>
      <trkpt lat="48.71416" lon="1.79235">
        <ele>180.60000610352</ele>
        <time>2014-07-04T09:39:43.000Z</time>
      </trkpt>
      <trkpt lat="48.71426" lon="1.79241">
        <ele>180.60000610352</ele>
        <time>2014-07-04T09:39:50.000Z</time>
      </trkpt>
      <trkpt lat="48.71428" lon="1.79243">
        <ele>180.60000610352</ele>
        <time>2014-07-04T09:39:52.000Z</time>
      </trkpt>
      <trkpt lat="48.71436" lon="1.7925">
        <ele>180.60000610352</ele>
        <time>2014-07-04T09:39:58.000Z</time>
      </trkpt>
      <trkpt lat="48.71447" lon="1.79257">
        <ele>180.60000610352</ele>
        <time>2014-07-04T09:40:05.000Z</time>
      </trkpt>
      <trkpt lat="48.71459" lon="1.79266">
        <ele>180.60000610352</ele>
        <time>2014-07-04T09:40:13.000Z</time>
      </trkpt>
      <trkpt lat="48.71465" lon="1.79268">
        <ele>180.60000610352</ele>
        <time>2014-07-04T09:40:18.000Z</time>
      </trkpt>
      <trkpt lat="48.7147" lon="1.79273">
        <ele>180.60000610352</ele>
        <time>2014-07-04T09:40:22.000Z</time>
      </trkpt>
      <trkpt lat="48.71481" lon="1.79278">
        <ele>180.60000610352</ele>
        <time>2014-07-04T09:40:28.000Z</time>
      </trkpt>
      <trkpt lat="48.71488" lon="1.79283">
        <ele>180.60000610352</ele>
        <time>2014-07-04T09:40:33.000Z</time>
      </trkpt>
      <trkpt lat="48.71496" lon="1.79288">
        <ele>180.80000305176</ele>
        <time>2014-07-04T09:40:39.000Z</time>
      </trkpt>
      <trkpt lat="48.71506" lon="1.79295">
        <ele>180.80000305176</ele>
        <time>2014-07-04T09:40:45.000Z</time>
      </trkpt>
      <trkpt lat="48.71511" lon="1.793">
        <ele>180.60000610352</ele>
        <time>2014-07-04T09:40:49.000Z</time>
      </trkpt>
      <trkpt lat="48.71515" lon="1.79305">
        <ele>180.60000610352</ele>
        <time>2014-07-04T09:40:53.000Z</time>
      </trkpt>
      <trkpt lat="48.71524" lon="1.79302">
        <ele>181</ele>
        <time>2014-07-04T09:40:59.000Z</time>
      </trkpt>
      <trkpt lat="48.71527" lon="1.79297">
        <ele>181.19999694824</ele>
        <time>2014-07-04T09:41:02.000Z</time>
      </trkpt>
      <trkpt lat="48.7153" lon="1.79285">
        <ele>181.60000610352</ele>
        <time>2014-07-04T09:41:07.000Z</time>
      </trkpt>
      <trkpt lat="48.71534" lon="1.79271">
        <ele>182.19999694824</ele>
        <time>2014-07-04T09:41:13.000Z</time>
      </trkpt>
      <trkpt lat="48.71539" lon="1.79249">
        <ele>183</ele>
        <time>2014-07-04T09:41:21.000Z</time>
      </trkpt>
      <trkpt lat="48.71544" lon="1.79238">
        <ele>183.19999694824</ele>
        <time>2014-07-04T09:41:27.000Z</time>
      </trkpt>
      <trkpt lat="48.71546" lon="1.79232">
        <ele>183.19999694824</ele>
        <time>2014-07-04T09:41:31.000Z</time>
      </trkpt>
      <trkpt lat="48.7155" lon="1.79217">
        <ele>183.19999694824</ele>
        <time>2014-07-04T09:41:38.000Z</time>
      </trkpt>
      <trkpt lat="48.71553" lon="1.79205">
        <ele>183.19999694824</ele>
        <time>2014-07-04T09:41:44.000Z</time>
      </trkpt>
      <trkpt lat="48.71555" lon="1.79192">
        <ele>183.39999389648</ele>
        <time>2014-07-04T09:41:49.000Z</time>
      </trkpt>
      <trkpt lat="48.71559" lon="1.79179">
        <ele>183.19999694824</ele>
        <time>2014-07-04T09:41:54.000Z</time>
      </trkpt>
      <trkpt lat="48.71563" lon="1.79171">
        <ele>183</ele>
        <time>2014-07-04T09:41:58.000Z</time>
      </trkpt>
      <trkpt lat="48.71565" lon="1.79164">
        <ele>182.80000305176</ele>
        <time>2014-07-04T09:42:02.000Z</time>
      </trkpt>
      <trkpt lat="48.7157" lon="1.7915">
        <ele>182.60000610352</ele>
        <time>2014-07-04T09:42:08.000Z</time>
      </trkpt>
      <trkpt lat="48.71572" lon="1.79147">
        <ele>182.39999389648</ele>
        <time>2014-07-04T09:42:10.000Z</time>
      </trkpt>
      <trkpt lat="48.71578" lon="1.79132">
        <ele>182</ele>
        <time>2014-07-04T09:42:18.000Z</time>
      </trkpt>
      <trkpt lat="48.71582" lon="1.79117">
        <ele>181.60000610352</ele>
        <time>2014-07-04T09:42:24.000Z</time>
      </trkpt>
      <trkpt lat="48.71588" lon="1.79097">
        <ele>181</ele>
        <time>2014-07-04T09:42:33.000Z</time>
      </trkpt>
      <trkpt lat="48.71592" lon="1.79083">
        <ele>180.80000305176</ele>
        <time>2014-07-04T09:42:39.000Z</time>
      </trkpt>
      <trkpt lat="48.71596" lon="1.79068">
        <ele>180.39999389648</ele>
        <time>2014-07-04T09:42:45.000Z</time>
      </trkpt>
      <trkpt lat="48.716" lon="1.79055">
        <ele>180.19999694824</ele>
        <time>2014-07-04T09:42:51.000Z</time>
      </trkpt>
      <trkpt lat="48.71606" lon="1.79044">
        <ele>180.19999694824</ele>
        <time>2014-07-04T09:42:57.000Z</time>
      </trkpt>
      <trkpt lat="48.71611" lon="1.79027">
        <ele>180.19999694824</ele>
        <time>2014-07-04T09:43:04.000Z</time>
      </trkpt>
      <trkpt lat="48.71617" lon="1.79008">
        <ele>180.19999694824</ele>
        <time>2014-07-04T09:43:12.000Z</time>
      </trkpt>
      <trkpt lat="48.71624" lon="1.78985">
        <ele>180.60000610352</ele>
        <time>2014-07-04T09:43:22.000Z</time>
      </trkpt>
      <trkpt lat="48.71628" lon="1.78972">
        <ele>180.39999389648</ele>
        <time>2014-07-04T09:43:28.000Z</time>
      </trkpt>
      <trkpt lat="48.71633" lon="1.78952">
        <ele>180.19999694824</ele>
        <time>2014-07-04T09:43:36.000Z</time>
      </trkpt>
      <trkpt lat="48.71639" lon="1.78933">
        <ele>180.19999694824</ele>
        <time>2014-07-04T09:43:44.000Z</time>
      </trkpt>
      <trkpt lat="48.7164" lon="1.7893">
        <ele>180.19999694824</ele>
        <time>2014-07-04T09:43:46.000Z</time>
      </trkpt>
      <trkpt lat="48.71644" lon="1.78917">
        <ele>180</ele>
        <time>2014-07-04T09:43:52.000Z</time>
      </trkpt>
      <trkpt lat="48.71647" lon="1.78908">
        <ele>180</ele>
        <time>2014-07-04T09:43:56.000Z</time>
      </trkpt>
      <trkpt lat="48.71655" lon="1.7889">
        <ele>180.19999694824</ele>
        <time>2014-07-04T09:44:04.000Z</time>
      </trkpt>
      <trkpt lat="48.71658" lon="1.78872">
        <ele>180.39999389648</ele>
        <time>2014-07-04T09:44:11.000Z</time>
      </trkpt>
      <trkpt lat="48.71664" lon="1.78856">
        <ele>180.39999389648</ele>
        <time>2014-07-04T09:44:20.000Z</time>
      </trkpt>
      <trkpt lat="48.7167" lon="1.78842">
        <ele>180.39999389648</ele>
        <time>2014-07-04T09:44:28.000Z</time>
      </trkpt>
      <trkpt lat="48.71676" lon="1.78829">
        <ele>180.39999389648</ele>
        <time>2014-07-04T09:44:34.000Z</time>
      </trkpt>
      <trkpt lat="48.71679" lon="1.78816">
        <ele>180.19999694824</ele>
        <time>2014-07-04T09:44:41.000Z</time>
      </trkpt>
      <trkpt lat="48.71683" lon="1.78797">
        <ele>180.39999389648</ele>
        <time>2014-07-04T09:44:50.000Z</time>
      </trkpt>
      <trkpt lat="48.71687" lon="1.78782">
        <ele>180.39999389648</ele>
        <time>2014-07-04T09:44:57.000Z</time>
      </trkpt>
      <trkpt lat="48.71692" lon="1.78766">
        <ele>180.60000610352</ele>
        <time>2014-07-04T09:45:05.000Z</time>
      </trkpt>
      <trkpt lat="48.71699" lon="1.78743">
        <ele>180.80000305176</ele>
        <time>2014-07-04T09:45:13.000Z</time>
      </trkpt>
      <trkpt lat="48.71705" lon="1.78724">
        <ele>181.19999694824</ele>
        <time>2014-07-04T09:45:21.000Z</time>
      </trkpt>
      <trkpt lat="48.7171" lon="1.78715">
        <ele>181.19999694824</ele>
        <time>2014-07-04T09:45:26.000Z</time>
      </trkpt>
      <trkpt lat="48.71715" lon="1.78695">
        <ele>181.60000610352</ele>
        <time>2014-07-04T09:45:36.000Z</time>
      </trkpt>
      <trkpt lat="48.71719" lon="1.7868">
        <ele>182</ele>
        <time>2014-07-04T09:45:43.000Z</time>
      </trkpt>
      <trkpt lat="48.71725" lon="1.78662">
        <ele>182.39999389648</ele>
        <time>2014-07-04T09:45:51.000Z</time>
      </trkpt>
      <trkpt lat="48.71729" lon="1.7865">
        <ele>182.60000610352</ele>
        <time>2014-07-04T09:45:57.000Z</time>
      </trkpt>
      <trkpt lat="48.71734" lon="1.78635">
        <ele>182.60000610352</ele>
        <time>2014-07-04T09:46:04.000Z</time>
      </trkpt>
      <trkpt lat="48.71737" lon="1.7862">
        <ele>182.80000305176</ele>
        <time>2014-07-04T09:46:11.000Z</time>
      </trkpt>
      <trkpt lat="48.7174" lon="1.78612">
        <ele>182.19999694824</ele>
        <time>2014-07-04T09:46:17.000Z</time>
      </trkpt>
      <trkpt lat="48.71743" lon="1.78606">
        <ele>182</ele>
        <time>2014-07-04T09:46:21.000Z</time>
      </trkpt>
      <trkpt lat="48.71746" lon="1.78601">
        <ele>181.60000610352</ele>
        <time>2014-07-04T09:46:24.000Z</time>
      </trkpt>
      <trkpt lat="48.71747" lon="1.78593">
        <ele>181.19999694824</ele>
        <time>2014-07-04T09:46:29.000Z</time>
      </trkpt>
      <trkpt lat="48.71748" lon="1.78577">
        <ele>180.60000610352</ele>
        <time>2014-07-04T09:46:37.000Z</time>
      </trkpt>
      <trkpt lat="48.71751" lon="1.78571">
        <ele>180.19999694824</ele>
        <time>2014-07-04T09:46:41.000Z</time>
      </trkpt>
      <trkpt lat="48.71756" lon="1.78557">
        <ele>179.80000305176</ele>
        <time>2014-07-04T09:46:48.000Z</time>
      </trkpt>
      <trkpt lat="48.71756" lon="1.78554">
        <ele>179.60000610352</ele>
        <time>2014-07-04T09:46:49.000Z</time>
      </trkpt>
      <trkpt lat="48.71762" lon="1.78541">
        <ele>179.39999389648</ele>
        <time>2014-07-04T09:46:56.000Z</time>
      </trkpt>
      <trkpt lat="48.7177" lon="1.78516">
        <ele>179</ele>
        <time>2014-07-04T09:47:08.000Z</time>
      </trkpt>
      <trkpt lat="48.71772" lon="1.785">
        <ele>179</ele>
        <time>2014-07-04T09:47:14.000Z</time>
      </trkpt>
      <trkpt lat="48.71778" lon="1.78484">
        <ele>179</ele>
        <time>2014-07-04T09:47:22.000Z</time>
      </trkpt>
      <trkpt lat="48.71787" lon="1.7846">
        <ele>178.60000610352</ele>
        <time>2014-07-04T09:47:34.000Z</time>
      </trkpt>
      <trkpt lat="48.71792" lon="1.78438">
        <ele>178</ele>
        <time>2014-07-04T09:47:43.000Z</time>
      </trkpt>
      <trkpt lat="48.71795" lon="1.78421">
        <ele>178</ele>
        <time>2014-07-04T09:47:49.000Z</time>
      </trkpt>
      <trkpt lat="48.71796" lon="1.78409">
        <ele>178.19999694824</ele>
        <time>2014-07-04T09:47:54.000Z</time>
      </trkpt>
      <trkpt lat="48.71799" lon="1.78396">
        <ele>178.19999694824</ele>
        <time>2014-07-04T09:48:00.000Z</time>
      </trkpt>
      <trkpt lat="48.71804" lon="1.78376">
        <ele>178.19999694824</ele>
        <time>2014-07-04T09:48:08.000Z</time>
      </trkpt>
      <trkpt lat="48.71808" lon="1.78366">
        <ele>178.39999389648</ele>
        <time>2014-07-04T09:48:15.000Z</time>
      </trkpt>
      <trkpt lat="48.71812" lon="1.78361">
        <ele>178.39999389648</ele>
        <time>2014-07-04T09:48:20.000Z</time>
      </trkpt>
      <trkpt lat="48.71816" lon="1.78352">
        <ele>178.39999389648</ele>
        <time>2014-07-04T09:48:25.000Z</time>
      </trkpt>
      <trkpt lat="48.71818" lon="1.78345">
        <ele>178.19999694824</ele>
        <time>2014-07-04T09:48:29.000Z</time>
      </trkpt>
      <trkpt lat="48.71823" lon="1.78329">
        <ele>178</ele>
        <time>2014-07-04T09:48:36.000Z</time>
      </trkpt>
      <trkpt lat="48.71827" lon="1.78314">
        <ele>178</ele>
        <time>2014-07-04T09:48:42.000Z</time>
      </trkpt>
      <trkpt lat="48.71831" lon="1.783">
        <ele>178</ele>
        <time>2014-07-04T09:48:48.000Z</time>
      </trkpt>
      <trkpt lat="48.71835" lon="1.78285">
        <ele>177.80000305176</ele>
        <time>2014-07-04T09:48:54.000Z</time>
      </trkpt>
      <trkpt lat="48.71837" lon="1.78268">
        <ele>177.80000305176</ele>
        <time>2014-07-04T09:49:00.000Z</time>
      </trkpt>
      <trkpt lat="48.71846" lon="1.78248">
        <ele>177.80000305176</ele>
        <time>2014-07-04T09:49:10.000Z</time>
      </trkpt>
      <trkpt lat="48.71852" lon="1.78236">
        <ele>178</ele>
        <time>2014-07-04T09:49:16.000Z</time>
      </trkpt>
      <trkpt lat="48.71858" lon="1.78224">
        <ele>178.39999389648</ele>
        <time>2014-07-04T09:49:23.000Z</time>
      </trkpt>
      <trkpt lat="48.71861" lon="1.78216">
        <ele>178.80000305176</ele>
        <time>2014-07-04T09:49:28.000Z</time>
      </trkpt>
      <trkpt lat="48.71864" lon="1.78209">
        <ele>179</ele>
        <time>2014-07-04T09:49:32.000Z</time>
      </trkpt>
      <trkpt lat="48.71867" lon="1.7819">
        <ele>179.39999389648</ele>
        <time>2014-07-04T09:49:39.000Z</time>
      </trkpt>
      <trkpt lat="48.71867" lon="1.7818">
        <ele>179.39999389648</ele>
        <time>2014-07-04T09:49:42.000Z</time>
      </trkpt>
      <trkpt lat="48.71867" lon="1.78169">
        <ele>179.60000610352</ele>
        <time>2014-07-04T09:49:46.000Z</time>
      </trkpt>
      <trkpt lat="48.71873" lon="1.78157">
        <ele>180.19999694824</ele>
        <time>2014-07-04T09:49:52.000Z</time>
      </trkpt>
      <trkpt lat="48.71876" lon="1.78151">
        <ele>180.60000610352</ele>
        <time>2014-07-04T09:49:55.000Z</time>
      </trkpt>
      <trkpt lat="48.71884" lon="1.78135">
        <ele>182</ele>
        <time>2014-07-04T09:50:03.000Z</time>
      </trkpt>
      <trkpt lat="48.71889" lon="1.78122">
        <ele>183</ele>
        <time>2014-07-04T09:50:09.000Z</time>
      </trkpt>
      <trkpt lat="48.71894" lon="1.78109">
        <ele>184</ele>
        <time>2014-07-04T09:50:15.000Z</time>
      </trkpt>
      <trkpt lat="48.71896" lon="1.78095">
        <ele>184</ele>
        <time>2014-07-04T09:50:20.000Z</time>
      </trkpt>
      <trkpt lat="48.71901" lon="1.78085">
        <ele>184</ele>
        <time>2014-07-04T09:50:25.000Z</time>
      </trkpt>
      <trkpt lat="48.71905" lon="1.78074">
        <ele>184</ele>
        <time>2014-07-04T09:50:30.000Z</time>
      </trkpt>
      <trkpt lat="48.7191" lon="1.78058">
        <ele>184.39999389648</ele>
        <time>2014-07-04T09:50:38.000Z</time>
      </trkpt>
      <trkpt lat="48.71912" lon="1.7805">
        <ele>184.60000610352</ele>
        <time>2014-07-04T09:50:42.000Z</time>
      </trkpt>
      <trkpt lat="48.71913" lon="1.78034">
        <ele>184.80000305176</ele>
        <time>2014-07-04T09:50:49.000Z</time>
      </trkpt>
      <trkpt lat="48.71914" lon="1.78021">
        <ele>185.19999694824</ele>
        <time>2014-07-04T09:50:53.000Z</time>
      </trkpt>
      <trkpt lat="48.71914" lon="1.7801">
        <ele>185.39999389648</ele>
        <time>2014-07-04T09:50:56.000Z</time>
      </trkpt>
      <trkpt lat="48.71918" lon="1.78006">
        <ele>185.60000610352</ele>
        <time>2014-07-04T09:51:01.000Z</time>
      </trkpt>
      <trkpt lat="48.71925" lon="1.77993">
        <ele>185.80000305176</ele>
        <time>2014-07-04T09:51:07.000Z</time>
      </trkpt>
      <trkpt lat="48.7193" lon="1.77982">
        <ele>186</ele>
        <time>2014-07-04T09:51:13.000Z</time>
      </trkpt>
      <trkpt lat="48.71935" lon="1.77968">
        <ele>186.19999694824</ele>
        <time>2014-07-04T09:51:19.000Z</time>
      </trkpt>
      <trkpt lat="48.71936" lon="1.77965">
        <ele>186.19999694824</ele>
        <time>2014-07-04T09:51:20.000Z</time>
      </trkpt>
      <trkpt lat="48.71942" lon="1.77952">
        <ele>186.39999389648</ele>
        <time>2014-07-04T09:51:27.000Z</time>
      </trkpt>
      <trkpt lat="48.71945" lon="1.77941">
        <ele>186.39999389648</ele>
        <time>2014-07-04T09:51:32.000Z</time>
      </trkpt>
      <trkpt lat="48.7195" lon="1.77922">
        <ele>186.60000610352</ele>
        <time>2014-07-04T09:51:40.000Z</time>
      </trkpt>
      <trkpt lat="48.71953" lon="1.77911">
        <ele>186.60000610352</ele>
        <time>2014-07-04T09:51:46.000Z</time>
      </trkpt>
      <trkpt lat="48.71956" lon="1.77904">
        <ele>186.60000610352</ele>
        <time>2014-07-04T09:51:49.000Z</time>
      </trkpt>
      <trkpt lat="48.71959" lon="1.77889">
        <ele>186</ele>
        <time>2014-07-04T09:51:56.000Z</time>
      </trkpt>
      <trkpt lat="48.71963" lon="1.77881">
        <ele>185.80000305176</ele>
        <time>2014-07-04T09:52:00.000Z</time>
      </trkpt>
      <trkpt lat="48.71968" lon="1.77878">
        <ele>185.60000610352</ele>
        <time>2014-07-04T09:52:06.000Z</time>
      </trkpt>
      <trkpt lat="48.71967" lon="1.77877">
        <ele>185.60000610352</ele>
        <time>2014-07-04T09:52:17.000Z</time>
      </trkpt>
      <trkpt lat="48.71964" lon="1.77881">
        <ele>185.80000305176</ele>
        <time>2014-07-04T09:52:25.000Z</time>
      </trkpt>
      <trkpt lat="48.71964" lon="1.77881">
        <ele>185.80000305176</ele>
        <time>2014-07-04T09:52:26.000Z</time>
      </trkpt>
      <trkpt lat="48.71969" lon="1.77861">
        <ele>185.19999694824</ele>
        <time>2014-07-04T09:52:51.000Z</time>
      </trkpt>
      <trkpt lat="48.7197" lon="1.77859">
        <ele>185.19999694824</ele>
        <time>2014-07-04T09:52:54.000Z</time>
      </trkpt>
      <trkpt lat="48.71969" lon="1.77867">
        <ele>185.39999389648</ele>
        <time>2014-07-04T09:53:01.000Z</time>
      </trkpt>
      <trkpt lat="48.71966" lon="1.77872">
        <ele>185.60000610352</ele>
        <time>2014-07-04T09:53:13.000Z</time>
      </trkpt>
      <trkpt lat="48.71974" lon="1.77868">
        <ele>185.19999694824</ele>
        <time>2014-07-04T09:53:41.000Z</time>
      </trkpt>
      <trkpt lat="48.71978" lon="1.77877">
        <ele>185.39999389648</ele>
        <time>2014-07-04T09:53:44.000Z</time>
      </trkpt>
      <trkpt lat="48.71987" lon="1.77884">
        <ele>185.39999389648</ele>
        <time>2014-07-04T09:53:51.000Z</time>
      </trkpt>
      <trkpt lat="48.71992" lon="1.77889">
        <ele>185.39999389648</ele>
        <time>2014-07-04T09:53:55.000Z</time>
      </trkpt>
      <trkpt lat="48.71997" lon="1.77892">
        <ele>185.19999694824</ele>
        <time>2014-07-04T09:53:59.000Z</time>
      </trkpt>
      <trkpt lat="48.72005" lon="1.77899">
        <ele>185.19999694824</ele>
        <time>2014-07-04T09:54:04.000Z</time>
      </trkpt>
      <trkpt lat="48.72007" lon="1.779">
        <ele>185.19999694824</ele>
        <time>2014-07-04T09:54:05.000Z</time>
      </trkpt>
      <trkpt lat="48.72012" lon="1.77902">
        <ele>185.19999694824</ele>
        <time>2014-07-04T09:54:09.000Z</time>
      </trkpt>
      <trkpt lat="48.72015" lon="1.77904">
        <ele>185.19999694824</ele>
        <time>2014-07-04T09:54:11.000Z</time>
      </trkpt>
      <trkpt lat="48.72023" lon="1.77906">
        <ele>184.80000305176</ele>
        <time>2014-07-04T09:54:17.000Z</time>
      </trkpt>
      <trkpt lat="48.72034" lon="1.77906">
        <ele>184.39999389648</ele>
        <time>2014-07-04T09:54:24.000Z</time>
      </trkpt>
      <trkpt lat="48.72047" lon="1.77911">
        <ele>183.80000305176</ele>
        <time>2014-07-04T09:54:29.000Z</time>
      </trkpt>
      <trkpt lat="48.7206" lon="1.77915">
        <ele>183.19999694824</ele>
        <time>2014-07-04T09:54:34.000Z</time>
      </trkpt>
      <trkpt lat="48.72061" lon="1.77917">
        <ele>183.19999694824</ele>
        <time>2014-07-04T09:54:35.000Z</time>
      </trkpt>
      <trkpt lat="48.72069" lon="1.77919">
        <ele>182.80000305176</ele>
        <time>2014-07-04T09:54:41.000Z</time>
      </trkpt>
      <trkpt lat="48.72075" lon="1.7792">
        <ele>182.60000610352</ele>
        <time>2014-07-04T09:54:49.000Z</time>
      </trkpt>
      <trkpt lat="48.72076" lon="1.7792">
        <ele>182.39999389648</ele>
        <time>2014-07-04T09:54:50.000Z</time>
      </trkpt>
      <trkpt lat="48.72081" lon="1.77921">
        <ele>182.19999694824</ele>
        <time>2014-07-04T09:54:55.000Z</time>
      </trkpt>
      <trkpt lat="48.72086" lon="1.77929">
        <ele>182.19999694824</ele>
        <time>2014-07-04T09:54:59.000Z</time>
      </trkpt>
      <trkpt lat="48.72098" lon="1.77945">
        <ele>181.80000305176</ele>
        <time>2014-07-04T09:55:07.000Z</time>
      </trkpt>
      <trkpt lat="48.72099" lon="1.77948">
        <ele>181.80000305176</ele>
        <time>2014-07-04T09:55:09.000Z</time>
      </trkpt>
      <trkpt lat="48.72103" lon="1.77954">
        <ele>181.60000610352</ele>
        <time>2014-07-04T09:55:13.000Z</time>
      </trkpt>
      <trkpt lat="48.72112" lon="1.77965">
        <ele>181.60000610352</ele>
        <time>2014-07-04T09:55:20.000Z</time>
      </trkpt>
      <trkpt lat="48.72122" lon="1.77968">
        <ele>181.60000610352</ele>
        <time>2014-07-04T09:55:26.000Z</time>
      </trkpt>
      <trkpt lat="48.72132" lon="1.77972">
        <ele>181.39999389648</ele>
        <time>2014-07-04T09:55:33.000Z</time>
      </trkpt>
      <trkpt lat="48.72143" lon="1.77977">
        <ele>181.39999389648</ele>
        <time>2014-07-04T09:55:40.000Z</time>
      </trkpt>
      <trkpt lat="48.72149" lon="1.77986">
        <ele>181.39999389648</ele>
        <time>2014-07-04T09:55:46.000Z</time>
      </trkpt>
      <trkpt lat="48.72157" lon="1.77995">
        <ele>181.39999389648</ele>
        <time>2014-07-04T09:55:53.000Z</time>
      </trkpt>
      <trkpt lat="48.72159" lon="1.77997">
        <ele>181.39999389648</ele>
        <time>2014-07-04T09:55:55.000Z</time>
      </trkpt>
      <trkpt lat="48.7217" lon="1.78001">
        <ele>181.19999694824</ele>
        <time>2014-07-04T09:56:04.000Z</time>
      </trkpt>
      <trkpt lat="48.72173" lon="1.78001">
        <ele>181.19999694824</ele>
        <time>2014-07-04T09:56:07.000Z</time>
      </trkpt>
      <trkpt lat="48.72181" lon="1.78008">
        <ele>181</ele>
        <time>2014-07-04T09:56:13.000Z</time>
      </trkpt>
      <trkpt lat="48.72183" lon="1.78012">
        <ele>181</ele>
        <time>2014-07-04T09:56:15.000Z</time>
      </trkpt>
      <trkpt lat="48.72192" lon="1.78015">
        <ele>180.60000610352</ele>
        <time>2014-07-04T09:56:23.000Z</time>
      </trkpt>
      <trkpt lat="48.72202" lon="1.78015">
        <ele>179.80000305176</ele>
        <time>2014-07-04T09:56:29.000Z</time>
      </trkpt>
      <trkpt lat="48.72207" lon="1.78017">
        <ele>179.39999389648</ele>
        <time>2014-07-04T09:56:33.000Z</time>
      </trkpt>
      <trkpt lat="48.72211" lon="1.78021">
        <ele>179</ele>
        <time>2014-07-04T09:56:41.000Z</time>
      </trkpt>
      <trkpt lat="48.72212" lon="1.78021">
        <ele>178.80000305176</ele>
        <time>2014-07-04T09:56:49.000Z</time>
      </trkpt>
      <trkpt lat="48.72218" lon="1.78028">
        <ele>178.39999389648</ele>
        <time>2014-07-04T09:56:54.000Z</time>
      </trkpt>
      <trkpt lat="48.72223" lon="1.7803">
        <ele>178</ele>
        <time>2014-07-04T09:57:01.000Z</time>
      </trkpt>
      <trkpt lat="48.72226" lon="1.78032">
        <ele>177.80000305176</ele>
        <time>2014-07-04T09:57:07.000Z</time>
      </trkpt>
      <trkpt lat="48.72228" lon="1.78037">
        <ele>177.60000610352</ele>
        <time>2014-07-04T09:57:11.000Z</time>
      </trkpt>
      <trkpt lat="48.7223" lon="1.78039">
        <ele>177.39999389648</ele>
        <time>2014-07-04T09:57:12.000Z</time>
      </trkpt>
      <trkpt lat="48.7224" lon="1.78042">
        <ele>176.60000610352</ele>
        <time>2014-07-04T09:57:18.000Z</time>
      </trkpt>
      <trkpt lat="48.72247" lon="1.78045">
        <ele>176</ele>
        <time>2014-07-04T09:57:23.000Z</time>
      </trkpt>
      <trkpt lat="48.72253" lon="1.7805">
        <ele>175.60000610352</ele>
        <time>2014-07-04T09:57:29.000Z</time>
      </trkpt>
      <trkpt lat="48.72257" lon="1.78053">
        <ele>175.19999694824</ele>
        <time>2014-07-04T09:57:31.000Z</time>
      </trkpt>
      <trkpt lat="48.72263" lon="1.78065">
        <ele>174.60000610352</ele>
        <time>2014-07-04T09:57:37.000Z</time>
      </trkpt>
      <trkpt lat="48.72269" lon="1.78069">
        <ele>174.19999694824</ele>
        <time>2014-07-04T09:57:43.000Z</time>
      </trkpt>
      <trkpt lat="48.72273" lon="1.78069">
        <ele>173.80000305176</ele>
        <time>2014-07-04T09:57:47.000Z</time>
      </trkpt>
      <trkpt lat="48.7228" lon="1.78067">
        <ele>173.39999389648</ele>
        <time>2014-07-04T09:57:53.000Z</time>
      </trkpt>
      <trkpt lat="48.72286" lon="1.78068">
        <ele>173</ele>
        <time>2014-07-04T09:57:55.000Z</time>
      </trkpt>
      <trkpt lat="48.72293" lon="1.78073">
        <ele>172.39999389648</ele>
        <time>2014-07-04T09:57:59.000Z</time>
      </trkpt>
      <trkpt lat="48.723" lon="1.7808">
        <ele>172</ele>
        <time>2014-07-04T09:58:05.000Z</time>
      </trkpt>
      <trkpt lat="48.72304" lon="1.7808">
        <ele>171.80000305176</ele>
        <time>2014-07-04T09:58:11.000Z</time>
      </trkpt>
      <trkpt lat="48.72307" lon="1.78074">
        <ele>171.39999389648</ele>
        <time>2014-07-04T09:58:17.000Z</time>
      </trkpt>
      <trkpt lat="48.7231" lon="1.78071">
        <ele>171.19999694824</ele>
        <time>2014-07-04T09:58:20.000Z</time>
      </trkpt>
      <trkpt lat="48.72312" lon="1.78065">
        <ele>171.19999694824</ele>
        <time>2014-07-04T09:58:24.000Z</time>
      </trkpt>
      <trkpt lat="48.72313" lon="1.78051">
        <ele>171.39999389648</ele>
        <time>2014-07-04T09:58:32.000Z</time>
      </trkpt>
      <trkpt lat="48.72315" lon="1.78046">
        <ele>171.39999389648</ele>
        <time>2014-07-04T09:58:35.000Z</time>
      </trkpt>
      <trkpt lat="48.72319" lon="1.78036">
        <ele>171.19999694824</ele>
        <time>2014-07-04T09:58:40.000Z</time>
      </trkpt>
      <trkpt lat="48.72325" lon="1.7802">
        <ele>170.19999694824</ele>
        <time>2014-07-04T09:58:47.000Z</time>
      </trkpt>
      <trkpt lat="48.72332" lon="1.78013">
        <ele>169.19999694824</ele>
        <time>2014-07-04T09:58:51.000Z</time>
      </trkpt>
      <trkpt lat="48.7234" lon="1.77997">
        <ele>167.80000305176</ele>
        <time>2014-07-04T09:58:59.000Z</time>
      </trkpt>
      <trkpt lat="48.72343" lon="1.77992">
        <ele>167.39999389648</ele>
        <time>2014-07-04T09:59:02.000Z</time>
      </trkpt>
      <trkpt lat="48.72351" lon="1.77984">
        <ele>166.19999694824</ele>
        <time>2014-07-04T09:59:08.000Z</time>
      </trkpt>
      <trkpt lat="48.72352" lon="1.7798">
        <ele>166</ele>
        <time>2014-07-04T09:59:10.000Z</time>
      </trkpt>
      <trkpt lat="48.72355" lon="1.77965">
        <ele>165.60000610352</ele>
        <time>2014-07-04T09:59:16.000Z</time>
      </trkpt>
      <trkpt lat="48.72357" lon="1.77957">
        <ele>165.60000610352</ele>
        <time>2014-07-04T09:59:20.000Z</time>
      </trkpt>
      <trkpt lat="48.72353" lon="1.77941">
        <ele>165</ele>
        <time>2014-07-04T09:59:26.000Z</time>
      </trkpt>
      <trkpt lat="48.72353" lon="1.77939">
        <ele>164.80000305176</ele>
        <time>2014-07-04T09:59:27.000Z</time>
      </trkpt>
      <trkpt lat="48.72359" lon="1.77935">
        <ele>165.19999694824</ele>
        <time>2014-07-04T09:59:31.000Z</time>
      </trkpt>
      <trkpt lat="48.72361" lon="1.77921">
        <ele>165.19999694824</ele>
        <time>2014-07-04T09:59:37.000Z</time>
      </trkpt>
      <trkpt lat="48.72366" lon="1.77906">
        <ele>165.19999694824</ele>
        <time>2014-07-04T09:59:44.000Z</time>
      </trkpt>
      <trkpt lat="48.72376" lon="1.77897">
        <ele>166.39999389648</ele>
        <time>2014-07-04T10:00:01.000Z</time>
      </trkpt>
      <trkpt lat="48.72386" lon="1.77896">
        <ele>167.19999694824</ele>
        <time>2014-07-04T10:00:32.000Z</time>
      </trkpt>
      <trkpt lat="48.7239" lon="1.77897">
        <ele>167.60000610352</ele>
        <time>2014-07-04T10:00:36.000Z</time>
      </trkpt>
      <trkpt lat="48.72396" lon="1.77891">
        <ele>168.39999389648</ele>
        <time>2014-07-04T10:00:42.000Z</time>
      </trkpt>
      <trkpt lat="48.724" lon="1.77879">
        <ele>169</ele>
        <time>2014-07-04T10:00:50.000Z</time>
      </trkpt>
      <trkpt lat="48.72413" lon="1.77875">
        <ele>170.60000610352</ele>
        <time>2014-07-04T10:00:57.000Z</time>
      </trkpt>
      <trkpt lat="48.72416" lon="1.77874">
        <ele>171</ele>
        <time>2014-07-04T10:00:59.000Z</time>
      </trkpt>
      <trkpt lat="48.72428" lon="1.77885">
        <ele>171.80000305176</ele>
        <time>2014-07-04T10:01:09.000Z</time>
      </trkpt>
      <trkpt lat="48.72433" lon="1.77887">
        <ele>172.39999389648</ele>
        <time>2014-07-04T10:01:14.000Z</time>
      </trkpt>
      <trkpt lat="48.72441" lon="1.77898">
        <ele>172.39999389648</ele>
        <time>2014-07-04T10:01:19.000Z</time>
      </trkpt>
      <trkpt lat="48.72446" lon="1.77902">
        <ele>172.39999389648</ele>
        <time>2014-07-04T10:01:23.000Z</time>
      </trkpt>
      <trkpt lat="48.72452" lon="1.77907">
        <ele>172.60000610352</ele>
        <time>2014-07-04T10:01:27.000Z</time>
      </trkpt>
      <trkpt lat="48.72462" lon="1.77914">
        <ele>173</ele>
        <time>2014-07-04T10:01:34.000Z</time>
      </trkpt>
      <trkpt lat="48.72469" lon="1.77914">
        <ele>173.19999694824</ele>
        <time>2014-07-04T10:01:40.000Z</time>
      </trkpt>
      <trkpt lat="48.7247" lon="1.77914">
        <ele>173.39999389648</ele>
        <time>2014-07-04T10:01:41.000Z</time>
      </trkpt>
      <trkpt lat="48.72472" lon="1.77915">
        <ele>173.39999389648</ele>
        <time>2014-07-04T10:01:43.000Z</time>
      </trkpt>
      <trkpt lat="48.72474" lon="1.77916">
        <ele>173.39999389648</ele>
        <time>2014-07-04T10:01:45.000Z</time>
      </trkpt>
      <trkpt lat="48.72484" lon="1.77928">
        <ele>174</ele>
        <time>2014-07-04T10:01:54.000Z</time>
      </trkpt>
      <trkpt lat="48.72492" lon="1.77938">
        <ele>174.39999389648</ele>
        <time>2014-07-04T10:02:00.000Z</time>
      </trkpt>
      <trkpt lat="48.72498" lon="1.77943">
        <ele>174.60000610352</ele>
        <time>2014-07-04T10:02:05.000Z</time>
      </trkpt>
      <trkpt lat="48.725" lon="1.77946">
        <ele>174.80000305176</ele>
        <time>2014-07-04T10:02:08.000Z</time>
      </trkpt>
      <trkpt lat="48.72506" lon="1.77951">
        <ele>175</ele>
        <time>2014-07-04T10:02:13.000Z</time>
      </trkpt>
      <trkpt lat="48.72513" lon="1.77958">
        <ele>175.39999389648</ele>
        <time>2014-07-04T10:02:19.000Z</time>
      </trkpt>
      <trkpt lat="48.72524" lon="1.77968">
        <ele>175.80000305176</ele>
        <time>2014-07-04T10:02:27.000Z</time>
      </trkpt>
      <trkpt lat="48.72529" lon="1.77971">
        <ele>175.80000305176</ele>
        <time>2014-07-04T10:02:30.000Z</time>
      </trkpt>
      <trkpt lat="48.72536" lon="1.77974">
        <ele>175.80000305176</ele>
        <time>2014-07-04T10:02:36.000Z</time>
      </trkpt>
      <trkpt lat="48.72544" lon="1.77977">
        <ele>175.80000305176</ele>
        <time>2014-07-04T10:02:43.000Z</time>
      </trkpt>
      <trkpt lat="48.72549" lon="1.77979">
        <ele>175.80000305176</ele>
        <time>2014-07-04T10:02:47.000Z</time>
      </trkpt>
      <trkpt lat="48.7256" lon="1.77975">
        <ele>175.80000305176</ele>
        <time>2014-07-04T10:02:55.000Z</time>
      </trkpt>
      <trkpt lat="48.72564" lon="1.77973">
        <ele>175.80000305176</ele>
        <time>2014-07-04T10:02:58.000Z</time>
      </trkpt>
      <trkpt lat="48.7257" lon="1.77967">
        <ele>175.80000305176</ele>
        <time>2014-07-04T10:03:03.000Z</time>
      </trkpt>
      <trkpt lat="48.72581" lon="1.77958">
        <ele>176.19999694824</ele>
        <time>2014-07-04T10:03:12.000Z</time>
      </trkpt>
      <trkpt lat="48.72591" lon="1.77958">
        <ele>176.80000305176</ele>
        <time>2014-07-04T10:03:19.000Z</time>
      </trkpt>
      <trkpt lat="48.72597" lon="1.77957">
        <ele>177.39999389648</ele>
        <time>2014-07-04T10:03:22.000Z</time>
      </trkpt>
      <trkpt lat="48.72604" lon="1.77954">
        <ele>178</ele>
        <time>2014-07-04T10:03:26.000Z</time>
      </trkpt>
      <trkpt lat="48.72616" lon="1.77955">
        <ele>178.80000305176</ele>
        <time>2014-07-04T10:03:32.000Z</time>
      </trkpt>
      <trkpt lat="48.72624" lon="1.77959">
        <ele>179</ele>
        <time>2014-07-04T10:03:38.000Z</time>
      </trkpt>
      <trkpt lat="48.72633" lon="1.77952">
        <ele>180</ele>
        <time>2014-07-04T10:03:44.000Z</time>
      </trkpt>
      <trkpt lat="48.7264" lon="1.7795">
        <ele>180.39999389648</ele>
        <time>2014-07-04T10:03:48.000Z</time>
      </trkpt>
      <trkpt lat="48.7265" lon="1.77952">
        <ele>181</ele>
        <time>2014-07-04T10:03:55.000Z</time>
      </trkpt>
      <trkpt lat="48.72659" lon="1.77953">
        <ele>181.39999389648</ele>
        <time>2014-07-04T10:04:00.000Z</time>
      </trkpt>
      <trkpt lat="48.7266" lon="1.77953">
        <ele>181.39999389648</ele>
        <time>2014-07-04T10:04:01.000Z</time>
      </trkpt>
      <trkpt lat="48.72669" lon="1.77955">
        <ele>181.80000305176</ele>
        <time>2014-07-04T10:04:06.000Z</time>
      </trkpt>
      <trkpt lat="48.7267" lon="1.77956">
        <ele>181.80000305176</ele>
        <time>2014-07-04T10:04:07.000Z</time>
      </trkpt>
      <trkpt lat="48.72681" lon="1.77964">
        <ele>181.80000305176</ele>
        <time>2014-07-04T10:04:16.000Z</time>
      </trkpt>
      <trkpt lat="48.72685" lon="1.77967">
        <ele>181.80000305176</ele>
        <time>2014-07-04T10:04:19.000Z</time>
      </trkpt>
      <trkpt lat="48.72692" lon="1.77974">
        <ele>181.60000610352</ele>
        <time>2014-07-04T10:04:24.000Z</time>
      </trkpt>
      <trkpt lat="48.72696" lon="1.77981">
        <ele>181.39999389648</ele>
        <time>2014-07-04T10:04:28.000Z</time>
      </trkpt>
      <trkpt lat="48.72701" lon="1.77986">
        <ele>181.19999694824</ele>
        <time>2014-07-04T10:04:31.000Z</time>
      </trkpt>
      <trkpt lat="48.7271" lon="1.77998">
        <ele>180.80000305176</ele>
        <time>2014-07-04T10:04:38.000Z</time>
      </trkpt>
      <trkpt lat="48.72711" lon="1.78">
        <ele>180.80000305176</ele>
        <time>2014-07-04T10:04:39.000Z</time>
      </trkpt>
      <trkpt lat="48.72713" lon="1.78015">
        <ele>180.60000610352</ele>
        <time>2014-07-04T10:04:47.000Z</time>
      </trkpt>
      <trkpt lat="48.72717" lon="1.78027">
        <ele>180.60000610352</ele>
        <time>2014-07-04T10:04:55.000Z</time>
      </trkpt>
      <trkpt lat="48.72718" lon="1.78029">
        <ele>180.60000610352</ele>
        <time>2014-07-04T10:04:59.000Z</time>
      </trkpt>
      <trkpt lat="48.72722" lon="1.7804">
        <ele>180.39999389648</ele>
        <time>2014-07-04T10:05:14.000Z</time>
      </trkpt>
      <trkpt lat="48.72732" lon="1.78044">
        <ele>180.39999389648</ele>
        <time>2014-07-04T10:05:18.000Z</time>
      </trkpt>
      <trkpt lat="48.72746" lon="1.7805">
        <ele>180.19999694824</ele>
        <time>2014-07-04T10:05:25.000Z</time>
      </trkpt>
      <trkpt lat="48.72754" lon="1.7806">
        <ele>180.19999694824</ele>
        <time>2014-07-04T10:05:33.000Z</time>
      </trkpt>
      <trkpt lat="48.72764" lon="1.78072">
        <ele>180</ele>
        <time>2014-07-04T10:05:43.000Z</time>
      </trkpt>
      <trkpt lat="48.72773" lon="1.7808">
        <ele>180</ele>
        <time>2014-07-04T10:05:50.000Z</time>
      </trkpt>
      <trkpt lat="48.72782" lon="1.78088">
        <ele>180</ele>
        <time>2014-07-04T10:05:57.000Z</time>
      </trkpt>
      <trkpt lat="48.72789" lon="1.78095">
        <ele>180</ele>
        <time>2014-07-04T10:06:03.000Z</time>
      </trkpt>
      <trkpt lat="48.72796" lon="1.781">
        <ele>180</ele>
        <time>2014-07-04T10:06:09.000Z</time>
      </trkpt>
      <trkpt lat="48.72803" lon="1.78107">
        <ele>180</ele>
        <time>2014-07-04T10:06:15.000Z</time>
      </trkpt>
      <trkpt lat="48.72807" lon="1.78111">
        <ele>180</ele>
        <time>2014-07-04T10:06:18.000Z</time>
      </trkpt>
      <trkpt lat="48.72814" lon="1.7812">
        <ele>180</ele>
        <time>2014-07-04T10:06:25.000Z</time>
      </trkpt>
      <trkpt lat="48.72822" lon="1.78129">
        <ele>180</ele>
        <time>2014-07-04T10:06:33.000Z</time>
      </trkpt>
      <trkpt lat="48.7283" lon="1.78137">
        <ele>180</ele>
        <time>2014-07-04T10:06:40.000Z</time>
      </trkpt>
      <trkpt lat="48.72843" lon="1.78149">
        <ele>180</ele>
        <time>2014-07-04T10:06:50.000Z</time>
      </trkpt>
      <trkpt lat="48.72846" lon="1.78152">
        <ele>180</ele>
        <time>2014-07-04T10:06:53.000Z</time>
      </trkpt>
      <trkpt lat="48.72855" lon="1.78158">
        <ele>180</ele>
        <time>2014-07-04T10:06:59.000Z</time>
      </trkpt>
      <trkpt lat="48.72858" lon="1.78162">
        <ele>180</ele>
        <time>2014-07-04T10:07:02.000Z</time>
      </trkpt>
      <trkpt lat="48.72873" lon="1.78171">
        <ele>180</ele>
        <time>2014-07-04T10:07:11.000Z</time>
      </trkpt>
      <trkpt lat="48.72887" lon="1.78183">
        <ele>180</ele>
        <time>2014-07-04T10:07:22.000Z</time>
      </trkpt>
      <trkpt lat="48.72901" lon="1.78196">
        <ele>180</ele>
        <time>2014-07-04T10:07:33.000Z</time>
      </trkpt>
      <trkpt lat="48.72916" lon="1.78208">
        <ele>179.80000305176</ele>
        <time>2014-07-04T10:07:44.000Z</time>
      </trkpt>
      <trkpt lat="48.72922" lon="1.78213">
        <ele>179.80000305176</ele>
        <time>2014-07-04T10:07:50.000Z</time>
      </trkpt>
      <trkpt lat="48.72933" lon="1.78225">
        <ele>179.80000305176</ele>
        <time>2014-07-04T10:08:00.000Z</time>
      </trkpt>
      <trkpt lat="48.7294" lon="1.78231">
        <ele>180</ele>
        <time>2014-07-04T10:08:06.000Z</time>
      </trkpt>
      <trkpt lat="48.72942" lon="1.78231">
        <ele>180</ele>
        <time>2014-07-04T10:08:08.000Z</time>
      </trkpt>
      <trkpt lat="48.72951" lon="1.78239">
        <ele>180</ele>
        <time>2014-07-04T10:08:16.000Z</time>
      </trkpt>
      <trkpt lat="48.72959" lon="1.78249">
        <ele>180</ele>
        <time>2014-07-04T10:08:23.000Z</time>
      </trkpt>
      <trkpt lat="48.72972" lon="1.78256">
        <ele>180</ele>
        <time>2014-07-04T10:08:31.000Z</time>
      </trkpt>
      <trkpt lat="48.7298" lon="1.78263">
        <ele>180</ele>
        <time>2014-07-04T10:08:37.000Z</time>
      </trkpt>
      <trkpt lat="48.72988" lon="1.78271">
        <ele>180</ele>
        <time>2014-07-04T10:08:44.000Z</time>
      </trkpt>
      <trkpt lat="48.7299" lon="1.78273">
        <ele>180</ele>
        <time>2014-07-04T10:08:46.000Z</time>
      </trkpt>
      <trkpt lat="48.72999" lon="1.78282">
        <ele>180</ele>
        <time>2014-07-04T10:08:54.000Z</time>
      </trkpt>
      <trkpt lat="48.73004" lon="1.78286">
        <ele>180</ele>
        <time>2014-07-04T10:08:57.000Z</time>
      </trkpt>
      <trkpt lat="48.73012" lon="1.78296">
        <ele>180</ele>
        <time>2014-07-04T10:09:05.000Z</time>
      </trkpt>
      <trkpt lat="48.73022" lon="1.78306">
        <ele>180</ele>
        <time>2014-07-04T10:09:13.000Z</time>
      </trkpt>
      <trkpt lat="48.73033" lon="1.78316">
        <ele>180.39999389648</ele>
        <time>2014-07-04T10:09:22.000Z</time>
      </trkpt>
      <trkpt lat="48.73048" lon="1.78329">
        <ele>181</ele>
        <time>2014-07-04T10:09:33.000Z</time>
      </trkpt>
      <trkpt lat="48.73061" lon="1.78341">
        <ele>181.80000305176</ele>
        <time>2014-07-04T10:09:44.000Z</time>
      </trkpt>
      <trkpt lat="48.73072" lon="1.78347">
        <ele>182.19999694824</ele>
        <time>2014-07-04T10:09:51.000Z</time>
      </trkpt>
      <trkpt lat="48.7308" lon="1.78353">
        <ele>182.60000610352</ele>
        <time>2014-07-04T10:09:57.000Z</time>
      </trkpt>
      <trkpt lat="48.73087" lon="1.7836">
        <ele>182.80000305176</ele>
        <time>2014-07-04T10:10:03.000Z</time>
      </trkpt>
      <trkpt lat="48.73094" lon="1.78371">
        <ele>183.19999694824</ele>
        <time>2014-07-04T10:10:10.000Z</time>
      </trkpt>
      <trkpt lat="48.73102" lon="1.78379">
        <ele>183.60000610352</ele>
        <time>2014-07-04T10:10:17.000Z</time>
      </trkpt>
      <trkpt lat="48.73109" lon="1.78385">
        <ele>183.80000305176</ele>
        <time>2014-07-04T10:10:23.000Z</time>
      </trkpt>
      <trkpt lat="48.7312" lon="1.78391">
        <ele>183.60000610352</ele>
        <time>2014-07-04T10:10:30.000Z</time>
      </trkpt>
      <trkpt lat="48.7313" lon="1.78402">
        <ele>183.60000610352</ele>
        <time>2014-07-04T10:10:39.000Z</time>
      </trkpt>
      <trkpt lat="48.73143" lon="1.78412">
        <ele>183.39999389648</ele>
        <time>2014-07-04T10:10:49.000Z</time>
      </trkpt>
      <trkpt lat="48.73151" lon="1.78418">
        <ele>183.19999694824</ele>
        <time>2014-07-04T10:10:55.000Z</time>
      </trkpt>
      <trkpt lat="48.73158" lon="1.78421">
        <ele>183.19999694824</ele>
        <time>2014-07-04T10:11:00.000Z</time>
      </trkpt>
      <trkpt lat="48.73165" lon="1.78428">
        <ele>183</ele>
        <time>2014-07-04T10:11:06.000Z</time>
      </trkpt>
      <trkpt lat="48.73171" lon="1.78434">
        <ele>182.80000305176</ele>
        <time>2014-07-04T10:11:12.000Z</time>
      </trkpt>
      <trkpt lat="48.7318" lon="1.78446">
        <ele>182.60000610352</ele>
        <time>2014-07-04T10:11:20.000Z</time>
      </trkpt>
      <trkpt lat="48.73189" lon="1.78452">
        <ele>182.39999389648</ele>
        <time>2014-07-04T10:11:26.000Z</time>
      </trkpt>
      <trkpt lat="48.73198" lon="1.78459">
        <ele>182.19999694824</ele>
        <time>2014-07-04T10:11:33.000Z</time>
      </trkpt>
      <trkpt lat="48.73206" lon="1.78462">
        <ele>182</ele>
        <time>2014-07-04T10:11:39.000Z</time>
      </trkpt>
      <trkpt lat="48.73217" lon="1.78468">
        <ele>181.80000305176</ele>
        <time>2014-07-04T10:11:47.000Z</time>
      </trkpt>
      <trkpt lat="48.73222" lon="1.78474">
        <ele>181.80000305176</ele>
        <time>2014-07-04T10:11:52.000Z</time>
      </trkpt>
      <trkpt lat="48.73229" lon="1.78485">
        <ele>181.60000610352</ele>
        <time>2014-07-04T10:11:59.000Z</time>
      </trkpt>
      <trkpt lat="48.73233" lon="1.78488">
        <ele>181.39999389648</ele>
        <time>2014-07-04T10:12:02.000Z</time>
      </trkpt>
      <trkpt lat="48.73242" lon="1.78496">
        <ele>181.39999389648</ele>
        <time>2014-07-04T10:12:09.000Z</time>
      </trkpt>
      <trkpt lat="48.73243" lon="1.78498">
        <ele>181.39999389648</ele>
        <time>2014-07-04T10:12:10.000Z</time>
      </trkpt>
      <trkpt lat="48.73249" lon="1.78504">
        <ele>181.19999694824</ele>
        <time>2014-07-04T10:12:15.000Z</time>
      </trkpt>
      <trkpt lat="48.73253" lon="1.78508">
        <ele>181.19999694824</ele>
        <time>2014-07-04T10:12:18.000Z</time>
      </trkpt>
      <trkpt lat="48.73262" lon="1.78518">
        <ele>181</ele>
        <time>2014-07-04T10:12:27.000Z</time>
      </trkpt>
      <trkpt lat="48.73272" lon="1.78523">
        <ele>180.80000305176</ele>
        <time>2014-07-04T10:12:35.000Z</time>
      </trkpt>
      <trkpt lat="48.73282" lon="1.78526">
        <ele>180</ele>
        <time>2014-07-04T10:12:42.000Z</time>
      </trkpt>
      <trkpt lat="48.73283" lon="1.78527">
        <ele>180</ele>
        <time>2014-07-04T10:12:43.000Z</time>
      </trkpt>
      <trkpt lat="48.7329" lon="1.78535">
        <ele>179.39999389648</ele>
        <time>2014-07-04T10:12:49.000Z</time>
      </trkpt>
      <trkpt lat="48.733" lon="1.78547">
        <ele>178.60000610352</ele>
        <time>2014-07-04T10:12:57.000Z</time>
      </trkpt>
      <trkpt lat="48.73301" lon="1.78549">
        <ele>178.39999389648</ele>
        <time>2014-07-04T10:12:58.000Z</time>
      </trkpt>
      <trkpt lat="48.73306" lon="1.78552">
        <ele>178</ele>
        <time>2014-07-04T10:13:01.000Z</time>
      </trkpt>
      <trkpt lat="48.73315" lon="1.7856">
        <ele>177.19999694824</ele>
        <time>2014-07-04T10:13:10.000Z</time>
      </trkpt>
      <trkpt lat="48.73316" lon="1.78559">
        <ele>177.19999694824</ele>
        <time>2014-07-04T10:13:11.000Z</time>
      </trkpt>
      <trkpt lat="48.73319" lon="1.78557">
        <ele>177</ele>
        <time>2014-07-04T10:13:15.000Z</time>
      </trkpt>
      <trkpt lat="48.73322" lon="1.78563">
        <ele>176.80000305176</ele>
        <time>2014-07-04T10:13:20.000Z</time>
      </trkpt>
      <trkpt lat="48.73322" lon="1.78566">
        <ele>176.60000610352</ele>
        <time>2014-07-04T10:13:22.000Z</time>
      </trkpt>
      <trkpt lat="48.73327" lon="1.78572">
        <ele>176.19999694824</ele>
        <time>2014-07-04T10:13:26.000Z</time>
      </trkpt>
      <trkpt lat="48.73335" lon="1.78577">
        <ele>175.39999389648</ele>
        <time>2014-07-04T10:13:32.000Z</time>
      </trkpt>
      <trkpt lat="48.73344" lon="1.78582">
        <ele>174.39999389648</ele>
        <time>2014-07-04T10:13:38.000Z</time>
      </trkpt>
      <trkpt lat="48.73347" lon="1.78585">
        <ele>174</ele>
        <time>2014-07-04T10:13:40.000Z</time>
      </trkpt>
      <trkpt lat="48.73354" lon="1.78591">
        <ele>173.19999694824</ele>
        <time>2014-07-04T10:13:46.000Z</time>
      </trkpt>
      <trkpt lat="48.73364" lon="1.78598">
        <ele>172.60000610352</ele>
        <time>2014-07-04T10:13:52.000Z</time>
      </trkpt>
      <trkpt lat="48.73373" lon="1.78606">
        <ele>171.80000305176</ele>
        <time>2014-07-04T10:13:59.000Z</time>
      </trkpt>
      <trkpt lat="48.73383" lon="1.78616">
        <ele>171</ele>
        <time>2014-07-04T10:14:06.000Z</time>
      </trkpt>
      <trkpt lat="48.73387" lon="1.7862">
        <ele>170.60000610352</ele>
        <time>2014-07-04T10:14:09.000Z</time>
      </trkpt>
      <trkpt lat="48.73391" lon="1.78628">
        <ele>170.19999694824</ele>
        <time>2014-07-04T10:14:13.000Z</time>
      </trkpt>
      <trkpt lat="48.73398" lon="1.78637">
        <ele>169.60000610352</ele>
        <time>2014-07-04T10:14:19.000Z</time>
      </trkpt>
      <trkpt lat="48.73408" lon="1.7865">
        <ele>168.60000610352</ele>
        <time>2014-07-04T10:14:26.000Z</time>
      </trkpt>
      <trkpt lat="48.7342" lon="1.7866">
        <ele>168</ele>
        <time>2014-07-04T10:14:31.000Z</time>
      </trkpt>
      <trkpt lat="48.73424" lon="1.78666">
        <ele>168.19999694824</ele>
        <time>2014-07-04T10:14:35.000Z</time>
      </trkpt>
      <trkpt lat="48.7343" lon="1.78671">
        <ele>168.19999694824</ele>
        <time>2014-07-04T10:14:40.000Z</time>
      </trkpt>
      <trkpt lat="48.73441" lon="1.78676">
        <ele>168.19999694824</ele>
        <time>2014-07-04T10:14:47.000Z</time>
      </trkpt>
      <trkpt lat="48.73449" lon="1.78683">
        <ele>168.60000610352</ele>
        <time>2014-07-04T10:14:54.000Z</time>
      </trkpt>
      <trkpt lat="48.73459" lon="1.78693">
        <ele>169.39999389648</ele>
        <time>2014-07-04T10:15:02.000Z</time>
      </trkpt>
      <trkpt lat="48.7346" lon="1.78694">
        <ele>169.39999389648</ele>
        <time>2014-07-04T10:15:03.000Z</time>
      </trkpt>
      <trkpt lat="48.73469" lon="1.78704">
        <ele>170.19999694824</ele>
        <time>2014-07-04T10:15:11.000Z</time>
      </trkpt>
      <trkpt lat="48.73475" lon="1.78709">
        <ele>170.39999389648</ele>
        <time>2014-07-04T10:15:15.000Z</time>
      </trkpt>
      <trkpt lat="48.73481" lon="1.78716">
        <ele>171</ele>
        <time>2014-07-04T10:15:20.000Z</time>
      </trkpt>
      <trkpt lat="48.73489" lon="1.78722">
        <ele>171.39999389648</ele>
        <time>2014-07-04T10:15:26.000Z</time>
      </trkpt>
      <trkpt lat="48.7349" lon="1.78723">
        <ele>171.60000610352</ele>
        <time>2014-07-04T10:15:27.000Z</time>
      </trkpt>
      <trkpt lat="48.73505" lon="1.78735">
        <ele>172.39999389648</ele>
        <time>2014-07-04T10:15:33.000Z</time>
      </trkpt>
      <trkpt lat="48.73511" lon="1.78742">
        <ele>173</ele>
        <time>2014-07-04T10:15:39.000Z</time>
      </trkpt>
      <trkpt lat="48.73518" lon="1.78751">
        <ele>173.60000610352</ele>
        <time>2014-07-04T10:15:46.000Z</time>
      </trkpt>
      <trkpt lat="48.73522" lon="1.78754">
        <ele>173.80000305176</ele>
        <time>2014-07-04T10:15:49.000Z</time>
      </trkpt>
      <trkpt lat="48.73528" lon="1.7876">
        <ele>174.19999694824</ele>
        <time>2014-07-04T10:15:54.000Z</time>
      </trkpt>
      <trkpt lat="48.73538" lon="1.78771">
        <ele>175.19999694824</ele>
        <time>2014-07-04T10:16:02.000Z</time>
      </trkpt>
      <trkpt lat="48.73548" lon="1.78781">
        <ele>176</ele>
        <time>2014-07-04T10:16:10.000Z</time>
      </trkpt>
      <trkpt lat="48.7356" lon="1.78793">
        <ele>177</ele>
        <time>2014-07-04T10:16:15.000Z</time>
      </trkpt>
      <trkpt lat="48.73575" lon="1.78807">
        <ele>178.19999694824</ele>
        <time>2014-07-04T10:16:21.000Z</time>
      </trkpt>
      <trkpt lat="48.73584" lon="1.78817">
        <ele>179</ele>
        <time>2014-07-04T10:16:27.000Z</time>
      </trkpt>
      <trkpt lat="48.73589" lon="1.78821">
        <ele>179.39999389648</ele>
        <time>2014-07-04T10:16:31.000Z</time>
      </trkpt>
      <trkpt lat="48.73596" lon="1.78828">
        <ele>180</ele>
        <time>2014-07-04T10:16:37.000Z</time>
      </trkpt>
      <trkpt lat="48.73603" lon="1.78834">
        <ele>180.39999389648</ele>
        <time>2014-07-04T10:16:42.000Z</time>
      </trkpt>
      <trkpt lat="48.73613" lon="1.78843">
        <ele>181.19999694824</ele>
        <time>2014-07-04T10:16:50.000Z</time>
      </trkpt>
      <trkpt lat="48.73619" lon="1.78849">
        <ele>181.60000610352</ele>
        <time>2014-07-04T10:16:55.000Z</time>
      </trkpt>
      <trkpt lat="48.73626" lon="1.78855">
        <ele>182</ele>
        <time>2014-07-04T10:17:01.000Z</time>
      </trkpt>
      <trkpt lat="48.73634" lon="1.78862">
        <ele>182.60000610352</ele>
        <time>2014-07-04T10:17:08.000Z</time>
      </trkpt>
      <trkpt lat="48.73639" lon="1.78866">
        <ele>182.80000305176</ele>
        <time>2014-07-04T10:17:12.000Z</time>
      </trkpt>
      <trkpt lat="48.73651" lon="1.78878">
        <ele>183.80000305176</ele>
        <time>2014-07-04T10:17:21.000Z</time>
      </trkpt>
      <trkpt lat="48.73661" lon="1.78886">
        <ele>184.39999389648</ele>
        <time>2014-07-04T10:17:28.000Z</time>
      </trkpt>
      <trkpt lat="48.7367" lon="1.78896">
        <ele>185</ele>
        <time>2014-07-04T10:17:35.000Z</time>
      </trkpt>
      <trkpt lat="48.73681" lon="1.78905">
        <ele>185.80000305176</ele>
        <time>2014-07-04T10:17:42.000Z</time>
      </trkpt>
      <trkpt lat="48.7369" lon="1.78912">
        <ele>186.19999694824</ele>
        <time>2014-07-04T10:17:48.000Z</time>
      </trkpt>
      <trkpt lat="48.73703" lon="1.78924">
        <ele>186.80000305176</ele>
        <time>2014-07-04T10:17:58.000Z</time>
      </trkpt>
      <trkpt lat="48.73713" lon="1.78933">
        <ele>187.19999694824</ele>
        <time>2014-07-04T10:18:05.000Z</time>
      </trkpt>
      <trkpt lat="48.73724" lon="1.78944">
        <ele>187.80000305176</ele>
        <time>2014-07-04T10:18:13.000Z</time>
      </trkpt>
      <trkpt lat="48.73734" lon="1.78953">
        <ele>188.19999694824</ele>
        <time>2014-07-04T10:18:20.000Z</time>
      </trkpt>
      <trkpt lat="48.73747" lon="1.78965">
        <ele>188.80000305176</ele>
        <time>2014-07-04T10:18:29.000Z</time>
      </trkpt>
      <trkpt lat="48.73757" lon="1.78976">
        <ele>189.39999389648</ele>
        <time>2014-07-04T10:18:37.000Z</time>
      </trkpt>
      <trkpt lat="48.73772" lon="1.78988">
        <ele>190</ele>
        <time>2014-07-04T10:18:47.000Z</time>
      </trkpt>
      <trkpt lat="48.73783" lon="1.78997">
        <ele>190</ele>
        <time>2014-07-04T10:18:55.000Z</time>
      </trkpt>
      <trkpt lat="48.73796" lon="1.79005">
        <ele>190.19999694824</ele>
        <time>2014-07-04T10:19:03.000Z</time>
      </trkpt>
      <trkpt lat="48.738" lon="1.79008">
        <ele>190.19999694824</ele>
        <time>2014-07-04T10:19:08.000Z</time>
      </trkpt>
      <trkpt lat="48.73801" lon="1.79009">
        <ele>190.19999694824</ele>
        <time>2014-07-04T10:19:09.000Z</time>
      </trkpt>
      <trkpt lat="48.73807" lon="1.79018">
        <ele>190.19999694824</ele>
        <time>2014-07-04T10:19:19.000Z</time>
      </trkpt>
      <trkpt lat="48.73819" lon="1.79033">
        <ele>190</ele>
        <time>2014-07-04T10:19:28.000Z</time>
      </trkpt>
      <trkpt lat="48.73834" lon="1.79044">
        <ele>190.19999694824</ele>
        <time>2014-07-04T10:19:38.000Z</time>
      </trkpt>
      <trkpt lat="48.73844" lon="1.79054">
        <ele>190.19999694824</ele>
        <time>2014-07-04T10:19:45.000Z</time>
      </trkpt>
      <trkpt lat="48.73852" lon="1.79073">
        <ele>190</ele>
        <time>2014-07-04T10:19:54.000Z</time>
      </trkpt>
      <trkpt lat="48.73854" lon="1.79083">
        <ele>190</ele>
        <time>2014-07-04T10:20:01.000Z</time>
      </trkpt>
      <trkpt lat="48.73857" lon="1.79091">
        <ele>190</ele>
        <time>2014-07-04T10:20:14.000Z</time>
      </trkpt>
      <trkpt lat="48.73859" lon="1.79107">
        <ele>190</ele>
        <time>2014-07-04T10:20:20.000Z</time>
      </trkpt>
      <trkpt lat="48.73862" lon="1.79119">
        <ele>190</ele>
        <time>2014-07-04T10:20:26.000Z</time>
      </trkpt>
      <trkpt lat="48.73864" lon="1.79124">
        <ele>189.80000305176</ele>
        <time>2014-07-04T10:20:29.000Z</time>
      </trkpt>
      <trkpt lat="48.73866" lon="1.79133">
        <ele>189.80000305176</ele>
        <time>2014-07-04T10:20:34.000Z</time>
      </trkpt>
      <trkpt lat="48.73869" lon="1.79148">
        <ele>189.80000305176</ele>
        <time>2014-07-04T10:20:40.000Z</time>
      </trkpt>
      <trkpt lat="48.73872" lon="1.79163">
        <ele>189.80000305176</ele>
        <time>2014-07-04T10:20:47.000Z</time>
      </trkpt>
      <trkpt lat="48.73872" lon="1.79165">
        <ele>189.80000305176</ele>
        <time>2014-07-04T10:20:48.000Z</time>
      </trkpt>
      <trkpt lat="48.73875" lon="1.79179">
        <ele>189.80000305176</ele>
        <time>2014-07-04T10:20:54.000Z</time>
      </trkpt>
      <trkpt lat="48.73877" lon="1.79199">
        <ele>189.80000305176</ele>
        <time>2014-07-04T10:21:02.000Z</time>
      </trkpt>
      <trkpt lat="48.73879" lon="1.79214">
        <ele>189.60000610352</ele>
        <time>2014-07-04T10:21:09.000Z</time>
      </trkpt>
      <trkpt lat="48.73882" lon="1.79228">
        <ele>189.60000610352</ele>
        <time>2014-07-04T10:21:15.000Z</time>
      </trkpt>
      <trkpt lat="48.73884" lon="1.79247">
        <ele>189.80000305176</ele>
        <time>2014-07-04T10:21:23.000Z</time>
      </trkpt>
      <trkpt lat="48.73886" lon="1.79263">
        <ele>190</ele>
        <time>2014-07-04T10:21:30.000Z</time>
      </trkpt>
      <trkpt lat="48.73888" lon="1.79276">
        <ele>190</ele>
        <time>2014-07-04T10:21:36.000Z</time>
      </trkpt>
      <trkpt lat="48.73889" lon="1.79283">
        <ele>190</ele>
        <time>2014-07-04T10:21:39.000Z</time>
      </trkpt>
      <trkpt lat="48.73891" lon="1.79297">
        <ele>190</ele>
        <time>2014-07-04T10:21:45.000Z</time>
      </trkpt>
      <trkpt lat="48.73892" lon="1.79301">
        <ele>190</ele>
        <time>2014-07-04T10:21:47.000Z</time>
      </trkpt>
      <trkpt lat="48.739" lon="1.79327">
        <ele>190</ele>
        <time>2014-07-04T10:21:59.000Z</time>
      </trkpt>
      <trkpt lat="48.73903" lon="1.79344">
        <ele>190.19999694824</ele>
        <time>2014-07-04T10:22:07.000Z</time>
      </trkpt>
      <trkpt lat="48.73907" lon="1.79365">
        <ele>190.60000610352</ele>
        <time>2014-07-04T10:22:16.000Z</time>
      </trkpt>
      <trkpt lat="48.73909" lon="1.79379">
        <ele>190.60000610352</ele>
        <time>2014-07-04T10:22:22.000Z</time>
      </trkpt>
      <trkpt lat="48.73912" lon="1.79392">
        <ele>190.80000305176</ele>
        <time>2014-07-04T10:22:28.000Z</time>
      </trkpt>
      <trkpt lat="48.73916" lon="1.79409">
        <ele>191</ele>
        <time>2014-07-04T10:22:35.000Z</time>
      </trkpt>
      <trkpt lat="48.73919" lon="1.79422">
        <ele>191.19999694824</ele>
        <time>2014-07-04T10:22:41.000Z</time>
      </trkpt>
      <trkpt lat="48.73921" lon="1.79437">
        <ele>191.39999389648</ele>
        <time>2014-07-04T10:22:48.000Z</time>
      </trkpt>
      <trkpt lat="48.73924" lon="1.79451">
        <ele>191.60000610352</ele>
        <time>2014-07-04T10:22:54.000Z</time>
      </trkpt>
      <trkpt lat="48.73927" lon="1.79461">
        <ele>191.60000610352</ele>
        <time>2014-07-04T10:22:58.000Z</time>
      </trkpt>
      <trkpt lat="48.73928" lon="1.79474">
        <ele>191.80000305176</ele>
        <time>2014-07-04T10:23:03.000Z</time>
      </trkpt>
      <trkpt lat="48.7393" lon="1.79488">
        <ele>191.80000305176</ele>
        <time>2014-07-04T10:23:09.000Z</time>
      </trkpt>
      <trkpt lat="48.73932" lon="1.79501">
        <ele>192.60000610352</ele>
        <time>2014-07-04T10:23:14.000Z</time>
      </trkpt>
      <trkpt lat="48.73932" lon="1.79503">
        <ele>192.80000305176</ele>
        <time>2014-07-04T10:23:15.000Z</time>
      </trkpt>
      <trkpt lat="48.73935" lon="1.79521">
        <ele>194</ele>
        <time>2014-07-04T10:23:22.000Z</time>
      </trkpt>
      <trkpt lat="48.73936" lon="1.79531">
        <ele>194.60000610352</ele>
        <time>2014-07-04T10:23:26.000Z</time>
      </trkpt>
      <trkpt lat="48.73938" lon="1.7955">
        <ele>195.60000610352</ele>
        <time>2014-07-04T10:23:34.000Z</time>
      </trkpt>
      <trkpt lat="48.73942" lon="1.79561">
        <ele>196.39999389648</ele>
        <time>2014-07-04T10:23:40.000Z</time>
      </trkpt>
      <trkpt lat="48.73946" lon="1.79569">
        <ele>196.80000305176</ele>
        <time>2014-07-04T10:23:44.000Z</time>
      </trkpt>
      <trkpt lat="48.73951" lon="1.79588">
        <ele>197</ele>
        <time>2014-07-04T10:23:52.000Z</time>
      </trkpt>
      <trkpt lat="48.73953" lon="1.79601">
        <ele>197.19999694824</ele>
        <time>2014-07-04T10:23:58.000Z</time>
      </trkpt>
      <trkpt lat="48.73953" lon="1.79612">
        <ele>197.39999389648</ele>
        <time>2014-07-04T10:24:03.000Z</time>
      </trkpt>
      <trkpt lat="48.73954" lon="1.79614">
        <ele>197.39999389648</ele>
        <time>2014-07-04T10:24:04.000Z</time>
      </trkpt>
      <trkpt lat="48.73955" lon="1.79622">
        <ele>197.39999389648</ele>
        <time>2014-07-04T10:24:08.000Z</time>
      </trkpt>
      <trkpt lat="48.73957" lon="1.79633">
        <ele>197.39999389648</ele>
        <time>2014-07-04T10:24:13.000Z</time>
      </trkpt>
      <trkpt lat="48.73962" lon="1.79651">
        <ele>197.60000610352</ele>
        <time>2014-07-04T10:24:20.000Z</time>
      </trkpt>
      <trkpt lat="48.73964" lon="1.79665">
        <ele>197.60000610352</ele>
        <time>2014-07-04T10:24:26.000Z</time>
      </trkpt>
      <trkpt lat="48.73966" lon="1.79678">
        <ele>197.60000610352</ele>
        <time>2014-07-04T10:24:32.000Z</time>
      </trkpt>
      <trkpt lat="48.73969" lon="1.79689">
        <ele>197.60000610352</ele>
        <time>2014-07-04T10:24:37.000Z</time>
      </trkpt>
      <trkpt lat="48.73969" lon="1.79701">
        <ele>197.19999694824</ele>
        <time>2014-07-04T10:24:43.000Z</time>
      </trkpt>
      <trkpt lat="48.73969" lon="1.79703">
        <ele>197.19999694824</ele>
        <time>2014-07-04T10:24:44.000Z</time>
      </trkpt>
      <trkpt lat="48.73972" lon="1.79711">
        <ele>197</ele>
        <time>2014-07-04T10:24:47.000Z</time>
      </trkpt>
      <trkpt lat="48.73975" lon="1.79729">
        <ele>196.60000610352</ele>
        <time>2014-07-04T10:24:54.000Z</time>
      </trkpt>
      <trkpt lat="48.73977" lon="1.79747">
        <ele>196.19999694824</ele>
        <time>2014-07-04T10:25:01.000Z</time>
      </trkpt>
      <trkpt lat="48.73981" lon="1.79762">
        <ele>196</ele>
        <time>2014-07-04T10:25:08.000Z</time>
      </trkpt>
      <trkpt lat="48.73984" lon="1.7977">
        <ele>195.80000305176</ele>
        <time>2014-07-04T10:25:12.000Z</time>
      </trkpt>
      <trkpt lat="48.73987" lon="1.79781">
        <ele>195.60000610352</ele>
        <time>2014-07-04T10:25:18.000Z</time>
      </trkpt>
      <trkpt lat="48.73987" lon="1.79786">
        <ele>195.39999389648</ele>
        <time>2014-07-04T10:25:20.000Z</time>
      </trkpt>
      <trkpt lat="48.73988" lon="1.79791">
        <ele>195.39999389648</ele>
        <time>2014-07-04T10:25:23.000Z</time>
      </trkpt>
      <trkpt lat="48.73992" lon="1.79809">
        <ele>194.80000305176</ele>
        <time>2014-07-04T10:25:30.000Z</time>
      </trkpt>
      <trkpt lat="48.73995" lon="1.79813">
        <ele>194.60000610352</ele>
        <time>2014-07-04T10:25:32.000Z</time>
      </trkpt>
      <trkpt lat="48.73997" lon="1.79823">
        <ele>194.39999389648</ele>
        <time>2014-07-04T10:25:36.000Z</time>
      </trkpt>
      <trkpt lat="48.73999" lon="1.79838">
        <ele>194.39999389648</ele>
        <time>2014-07-04T10:25:43.000Z</time>
      </trkpt>
      <trkpt lat="48.74" lon="1.79849">
        <ele>194.39999389648</ele>
        <time>2014-07-04T10:25:48.000Z</time>
      </trkpt>
      <trkpt lat="48.74003" lon="1.79865">
        <ele>194.60000610352</ele>
        <time>2014-07-04T10:25:55.000Z</time>
      </trkpt>
      <trkpt lat="48.74006" lon="1.79884">
        <ele>194.60000610352</ele>
        <time>2014-07-04T10:26:03.000Z</time>
      </trkpt>
      <trkpt lat="48.74008" lon="1.79896">
        <ele>194.60000610352</ele>
        <time>2014-07-04T10:26:09.000Z</time>
      </trkpt>
      <trkpt lat="48.74012" lon="1.79911">
        <ele>194.60000610352</ele>
        <time>2014-07-04T10:26:15.000Z</time>
      </trkpt>
      <trkpt lat="48.74013" lon="1.79915">
        <ele>194.60000610352</ele>
        <time>2014-07-04T10:26:17.000Z</time>
      </trkpt>
      <trkpt lat="48.74017" lon="1.79938">
        <ele>194.39999389648</ele>
        <time>2014-07-04T10:26:27.000Z</time>
      </trkpt>
      <trkpt lat="48.7402" lon="1.7995">
        <ele>194.39999389648</ele>
        <time>2014-07-04T10:26:32.000Z</time>
      </trkpt>
      <trkpt lat="48.74019" lon="1.79957">
        <ele>194.39999389648</ele>
        <time>2014-07-04T10:26:35.000Z</time>
      </trkpt>
      <trkpt lat="48.74021" lon="1.79966">
        <ele>194.19999694824</ele>
        <time>2014-07-04T10:26:40.000Z</time>
      </trkpt>
      <trkpt lat="48.74022" lon="1.79978">
        <ele>194.19999694824</ele>
        <time>2014-07-04T10:26:45.000Z</time>
      </trkpt>
      <trkpt lat="48.74023" lon="1.79986">
        <ele>194</ele>
        <time>2014-07-04T10:26:49.000Z</time>
      </trkpt>
      <trkpt lat="48.74023" lon="1.79994">
        <ele>193.80000305176</ele>
        <time>2014-07-04T10:26:53.000Z</time>
      </trkpt>
      <trkpt lat="48.74027" lon="1.80013">
        <ele>193</ele>
        <time>2014-07-04T10:27:01.000Z</time>
      </trkpt>
      <trkpt lat="48.7403" lon="1.80028">
        <ele>192.39999389648</ele>
        <time>2014-07-04T10:27:07.000Z</time>
      </trkpt>
      <trkpt lat="48.74031" lon="1.80031">
        <ele>192.39999389648</ele>
        <time>2014-07-04T10:27:09.000Z</time>
      </trkpt>
      <trkpt lat="48.74033" lon="1.80043">
        <ele>191.80000305176</ele>
        <time>2014-07-04T10:27:16.000Z</time>
      </trkpt>
      <trkpt lat="48.74031" lon="1.80045">
        <ele>191.60000610352</ele>
        <time>2014-07-04T10:27:21.000Z</time>
      </trkpt>
      <trkpt lat="48.74031" lon="1.80048">
        <ele>191.39999389648</ele>
        <time>2014-07-04T10:27:26.000Z</time>
      </trkpt>
      <trkpt lat="48.74017" lon="1.80048">
        <ele>191</ele>
        <time>2014-07-04T10:27:34.000Z</time>
      </trkpt>
      <trkpt lat="48.74015" lon="1.80048">
        <ele>191</ele>
        <time>2014-07-04T10:27:36.000Z</time>
      </trkpt>
      <trkpt lat="48.74007" lon="1.80038">
        <ele>191.19999694824</ele>
        <time>2014-07-04T10:27:42.000Z</time>
      </trkpt>
      <trkpt lat="48.74003" lon="1.80033">
        <ele>191.19999694824</ele>
        <time>2014-07-04T10:27:47.000Z</time>
      </trkpt>
      <trkpt lat="48.73997" lon="1.8003">
        <ele>191.19999694824</ele>
        <time>2014-07-04T10:27:51.000Z</time>
      </trkpt>
      <trkpt lat="48.73984" lon="1.80015">
        <ele>191.39999389648</ele>
        <time>2014-07-04T10:28:01.000Z</time>
      </trkpt>
      <trkpt lat="48.73975" lon="1.80004">
        <ele>191.60000610352</ele>
        <time>2014-07-04T10:28:08.000Z</time>
      </trkpt>
      <trkpt lat="48.73969" lon="1.79995">
        <ele>191.80000305176</ele>
        <time>2014-07-04T10:28:13.000Z</time>
      </trkpt>
      <trkpt lat="48.73966" lon="1.7999">
        <ele>192</ele>
        <time>2014-07-04T10:28:15.000Z</time>
      </trkpt>
      <trkpt lat="48.73963" lon="1.79985">
        <ele>192</ele>
        <time>2014-07-04T10:28:18.000Z</time>
      </trkpt>
      <trkpt lat="48.73957" lon="1.79976">
        <ele>191.80000305176</ele>
        <time>2014-07-04T10:28:23.000Z</time>
      </trkpt>
      <trkpt lat="48.73951" lon="1.79971">
        <ele>191.80000305176</ele>
        <time>2014-07-04T10:28:28.000Z</time>
      </trkpt>
      <trkpt lat="48.73944" lon="1.79959">
        <ele>191.60000610352</ele>
        <time>2014-07-04T10:28:34.000Z</time>
      </trkpt>
      <trkpt lat="48.73942" lon="1.79957">
        <ele>191.60000610352</ele>
        <time>2014-07-04T10:28:41.000Z</time>
      </trkpt>
      <trkpt lat="48.73947" lon="1.79961">
        <ele>191.60000610352</ele>
        <time>2014-07-04T10:28:48.000Z</time>
      </trkpt>
      <trkpt lat="48.73953" lon="1.79966">
        <ele>191.80000305176</ele>
        <time>2014-07-04T10:28:52.000Z</time>
      </trkpt>
      <trkpt lat="48.73958" lon="1.79974">
        <ele>192</ele>
        <time>2014-07-04T10:28:58.000Z</time>
      </trkpt>
      <trkpt lat="48.73966" lon="1.79985">
        <ele>192</ele>
        <time>2014-07-04T10:29:06.000Z</time>
      </trkpt>
      <trkpt lat="48.73975" lon="1.79996">
        <ele>192</ele>
        <time>2014-07-04T10:29:14.000Z</time>
      </trkpt>
      <trkpt lat="48.73986" lon="1.80009">
        <ele>191.80000305176</ele>
        <time>2014-07-04T10:29:23.000Z</time>
      </trkpt>
      <trkpt lat="48.73995" lon="1.80019">
        <ele>191.60000610352</ele>
        <time>2014-07-04T10:29:30.000Z</time>
      </trkpt>
      <trkpt lat="48.74003" lon="1.80033">
        <ele>191.19999694824</ele>
        <time>2014-07-04T10:29:38.000Z</time>
      </trkpt>
      <trkpt lat="48.74007" lon="1.80042">
        <ele>191</ele>
        <time>2014-07-04T10:29:44.000Z</time>
      </trkpt>
      <trkpt lat="48.74013" lon="1.80042">
        <ele>191.19999694824</ele>
        <time>2014-07-04T10:29:48.000Z</time>
      </trkpt>
      <trkpt lat="48.74018" lon="1.80048">
        <ele>191</ele>
        <time>2014-07-04T10:29:52.000Z</time>
      </trkpt>
      <trkpt lat="48.74026" lon="1.8006">
        <ele>190.80000305176</ele>
        <time>2014-07-04T10:29:59.000Z</time>
      </trkpt>
      <trkpt lat="48.74029" lon="1.80064">
        <ele>190.60000610352</ele>
        <time>2014-07-04T10:30:02.000Z</time>
      </trkpt>
      <trkpt lat="48.74036" lon="1.80066">
        <ele>190.80000305176</ele>
        <time>2014-07-04T10:30:07.000Z</time>
      </trkpt>
      <trkpt lat="48.74043" lon="1.80063">
        <ele>191.19999694824</ele>
        <time>2014-07-04T10:30:11.000Z</time>
      </trkpt>
      <trkpt lat="48.74055" lon="1.80061">
        <ele>191.80000305176</ele>
        <time>2014-07-04T10:30:18.000Z</time>
      </trkpt>
      <trkpt lat="48.74062" lon="1.80064">
        <ele>191.80000305176</ele>
        <time>2014-07-04T10:30:21.000Z</time>
      </trkpt>
      <trkpt lat="48.74067" lon="1.80069">
        <ele>191.80000305176</ele>
        <time>2014-07-04T10:30:25.000Z</time>
      </trkpt>
      <trkpt lat="48.74074" lon="1.80082">
        <ele>191.60000610352</ele>
        <time>2014-07-04T10:30:32.000Z</time>
      </trkpt>
      <trkpt lat="48.74078" lon="1.80091">
        <ele>191.60000610352</ele>
        <time>2014-07-04T10:30:37.000Z</time>
      </trkpt>
      <trkpt lat="48.74086" lon="1.801">
        <ele>191.60000610352</ele>
        <time>2014-07-04T10:30:43.000Z</time>
      </trkpt>
      <trkpt lat="48.74087" lon="1.80101">
        <ele>191.60000610352</ele>
        <time>2014-07-04T10:30:44.000Z</time>
      </trkpt>
      <trkpt lat="48.74097" lon="1.80111">
        <ele>191.80000305176</ele>
        <time>2014-07-04T10:30:50.000Z</time>
      </trkpt>
      <trkpt lat="48.74106" lon="1.80121">
        <ele>191.80000305176</ele>
        <time>2014-07-04T10:30:58.000Z</time>
      </trkpt>
      <trkpt lat="48.74108" lon="1.80125">
        <ele>191.80000305176</ele>
        <time>2014-07-04T10:31:00.000Z</time>
      </trkpt>
      <trkpt lat="48.74112" lon="1.8013">
        <ele>191.80000305176</ele>
        <time>2014-07-04T10:31:04.000Z</time>
      </trkpt>
      <trkpt lat="48.74121" lon="1.80138">
        <ele>192</ele>
        <time>2014-07-04T10:31:11.000Z</time>
      </trkpt>
      <trkpt lat="48.74129" lon="1.80141">
        <ele>192.19999694824</ele>
        <time>2014-07-04T10:31:16.000Z</time>
      </trkpt>
      <trkpt lat="48.74135" lon="1.8015">
        <ele>192.19999694824</ele>
        <time>2014-07-04T10:31:23.000Z</time>
      </trkpt>
      <trkpt lat="48.74137" lon="1.80152">
        <ele>192.19999694824</ele>
        <time>2014-07-04T10:31:24.000Z</time>
      </trkpt>
      <trkpt lat="48.74146" lon="1.80164">
        <ele>192.60000610352</ele>
        <time>2014-07-04T10:31:29.000Z</time>
      </trkpt>
      <trkpt lat="48.7415" lon="1.80172">
        <ele>192.60000610352</ele>
        <time>2014-07-04T10:31:33.000Z</time>
      </trkpt>
      <trkpt lat="48.74152" lon="1.80176">
        <ele>192.80000305176</ele>
        <time>2014-07-04T10:31:36.000Z</time>
      </trkpt>
      <trkpt lat="48.7416" lon="1.80189">
        <ele>193</ele>
        <time>2014-07-04T10:31:45.000Z</time>
      </trkpt>
      <trkpt lat="48.74164" lon="1.80193">
        <ele>193.19999694824</ele>
        <time>2014-07-04T10:31:48.000Z</time>
      </trkpt>
      <trkpt lat="48.74169" lon="1.80202">
        <ele>193.39999389648</ele>
        <time>2014-07-04T10:31:55.000Z</time>
      </trkpt>
      <trkpt lat="48.74171" lon="1.80203">
        <ele>193.39999389648</ele>
        <time>2014-07-04T10:31:56.000Z</time>
      </trkpt>
      <trkpt lat="48.74174" lon="1.80209">
        <ele>193.60000610352</ele>
        <time>2014-07-04T10:32:00.000Z</time>
      </trkpt>
      <trkpt lat="48.7418" lon="1.80212">
        <ele>193.80000305176</ele>
        <time>2014-07-04T10:32:05.000Z</time>
      </trkpt>
      <trkpt lat="48.74192" lon="1.80218">
        <ele>194</ele>
        <time>2014-07-04T10:32:13.000Z</time>
      </trkpt>
      <trkpt lat="48.742" lon="1.80226">
        <ele>194</ele>
        <time>2014-07-04T10:32:20.000Z</time>
      </trkpt>
      <trkpt lat="48.74209" lon="1.80233">
        <ele>194</ele>
        <time>2014-07-04T10:32:26.000Z</time>
      </trkpt>
      <trkpt lat="48.7422" lon="1.80243">
        <ele>193.80000305176</ele>
        <time>2014-07-04T10:32:31.000Z</time>
      </trkpt>
      <trkpt lat="48.7423" lon="1.8025">
        <ele>193.80000305176</ele>
        <time>2014-07-04T10:32:35.000Z</time>
      </trkpt>
      <trkpt lat="48.74235" lon="1.80252">
        <ele>193.60000610352</ele>
        <time>2014-07-04T10:32:38.000Z</time>
      </trkpt>
      <trkpt lat="48.74243" lon="1.80263">
        <ele>193.39999389648</ele>
        <time>2014-07-04T10:32:47.000Z</time>
      </trkpt>
      <trkpt lat="48.74248" lon="1.80269">
        <ele>193.19999694824</ele>
        <time>2014-07-04T10:32:52.000Z</time>
      </trkpt>
      <trkpt lat="48.74252" lon="1.80275">
        <ele>193.19999694824</ele>
        <time>2014-07-04T10:32:57.000Z</time>
      </trkpt>
      <trkpt lat="48.74256" lon="1.80279">
        <ele>193</ele>
        <time>2014-07-04T10:33:00.000Z</time>
      </trkpt>
      <trkpt lat="48.74267" lon="1.80293">
        <ele>192.60000610352</ele>
        <time>2014-07-04T10:33:07.000Z</time>
      </trkpt>
      <trkpt lat="48.74269" lon="1.80294">
        <ele>192.60000610352</ele>
        <time>2014-07-04T10:33:08.000Z</time>
      </trkpt>
      <trkpt lat="48.74272" lon="1.80296">
        <ele>192.60000610352</ele>
        <time>2014-07-04T10:33:10.000Z</time>
      </trkpt>
      <trkpt lat="48.74278" lon="1.80302">
        <ele>192.60000610352</ele>
        <time>2014-07-04T10:33:15.000Z</time>
      </trkpt>
      <trkpt lat="48.74286" lon="1.80312">
        <ele>192.39999389648</ele>
        <time>2014-07-04T10:33:21.000Z</time>
      </trkpt>
      <trkpt lat="48.74292" lon="1.80319">
        <ele>192.39999389648</ele>
        <time>2014-07-04T10:33:25.000Z</time>
      </trkpt>
      <trkpt lat="48.743" lon="1.80329">
        <ele>192.39999389648</ele>
        <time>2014-07-04T10:33:32.000Z</time>
      </trkpt>
      <trkpt lat="48.74306" lon="1.80336">
        <ele>192.39999389648</ele>
        <time>2014-07-04T10:33:39.000Z</time>
      </trkpt>
      <trkpt lat="48.74307" lon="1.80338">
        <ele>192.39999389648</ele>
        <time>2014-07-04T10:33:41.000Z</time>
      </trkpt>
      <trkpt lat="48.74318" lon="1.80342">
        <ele>192.60000610352</ele>
        <time>2014-07-04T10:33:48.000Z</time>
      </trkpt>
      <trkpt lat="48.7432" lon="1.80342">
        <ele>192.60000610352</ele>
        <time>2014-07-04T10:33:49.000Z</time>
      </trkpt>
      <trkpt lat="48.74329" lon="1.80346">
        <ele>192.60000610352</ele>
        <time>2014-07-04T10:33:54.000Z</time>
      </trkpt>
      <trkpt lat="48.74338" lon="1.80352">
        <ele>192.80000305176</ele>
        <time>2014-07-04T10:34:01.000Z</time>
      </trkpt>
      <trkpt lat="48.7434" lon="1.80353">
        <ele>192.80000305176</ele>
        <time>2014-07-04T10:34:02.000Z</time>
      </trkpt>
      <trkpt lat="48.74343" lon="1.80355">
        <ele>192.80000305176</ele>
        <time>2014-07-04T10:34:04.000Z</time>
      </trkpt>
      <trkpt lat="48.74354" lon="1.80362">
        <ele>193</ele>
        <time>2014-07-04T10:34:10.000Z</time>
      </trkpt>
      <trkpt lat="48.74365" lon="1.80371">
        <ele>193</ele>
        <time>2014-07-04T10:34:15.000Z</time>
      </trkpt>
      <trkpt lat="48.74371" lon="1.80378">
        <ele>193</ele>
        <time>2014-07-04T10:34:21.000Z</time>
      </trkpt>
      <trkpt lat="48.74375" lon="1.80382">
        <ele>193</ele>
        <time>2014-07-04T10:34:24.000Z</time>
      </trkpt>
      <trkpt lat="48.74382" lon="1.80394">
        <ele>193</ele>
        <time>2014-07-04T10:34:31.000Z</time>
      </trkpt>
      <trkpt lat="48.74387" lon="1.80403">
        <ele>193</ele>
        <time>2014-07-04T10:34:36.000Z</time>
      </trkpt>
      <trkpt lat="48.74393" lon="1.80413">
        <ele>193</ele>
        <time>2014-07-04T10:34:42.000Z</time>
      </trkpt>
      <trkpt lat="48.74401" lon="1.80427">
        <ele>193</ele>
        <time>2014-07-04T10:34:49.000Z</time>
      </trkpt>
      <trkpt lat="48.74406" lon="1.80438">
        <ele>193</ele>
        <time>2014-07-04T10:34:54.000Z</time>
      </trkpt>
      <trkpt lat="48.74408" lon="1.80444">
        <ele>193</ele>
        <time>2014-07-04T10:34:57.000Z</time>
      </trkpt>
      <trkpt lat="48.74416" lon="1.80456">
        <ele>193</ele>
        <time>2014-07-04T10:35:04.000Z</time>
      </trkpt>
      <trkpt lat="48.74424" lon="1.80464">
        <ele>193</ele>
        <time>2014-07-04T10:35:10.000Z</time>
      </trkpt>
      <trkpt lat="48.74426" lon="1.80466">
        <ele>193</ele>
        <time>2014-07-04T10:35:12.000Z</time>
      </trkpt>
      <trkpt lat="48.74436" lon="1.80474">
        <ele>193</ele>
        <time>2014-07-04T10:35:20.000Z</time>
      </trkpt>
      <trkpt lat="48.74441" lon="1.80495">
        <ele>193</ele>
        <time>2014-07-04T10:35:27.000Z</time>
      </trkpt>
      <trkpt lat="48.74444" lon="1.80511">
        <ele>192.60000610352</ele>
        <time>2014-07-04T10:35:33.000Z</time>
      </trkpt>
      <trkpt lat="48.74449" lon="1.80524">
        <ele>192.39999389648</ele>
        <time>2014-07-04T10:35:40.000Z</time>
      </trkpt>
      <trkpt lat="48.74451" lon="1.80528">
        <ele>192.39999389648</ele>
        <time>2014-07-04T10:35:42.000Z</time>
      </trkpt>
      <trkpt lat="48.74458" lon="1.80544">
        <ele>192.19999694824</ele>
        <time>2014-07-04T10:35:50.000Z</time>
      </trkpt>
      <trkpt lat="48.74462" lon="1.80556">
        <ele>192</ele>
        <time>2014-07-04T10:35:55.000Z</time>
      </trkpt>
      <trkpt lat="48.74468" lon="1.80572">
        <ele>191.80000305176</ele>
        <time>2014-07-04T10:36:01.000Z</time>
      </trkpt>
      <trkpt lat="48.74473" lon="1.80581">
        <ele>191.80000305176</ele>
        <time>2014-07-04T10:36:06.000Z</time>
      </trkpt>
      <trkpt lat="48.74478" lon="1.8059">
        <ele>191.80000305176</ele>
        <time>2014-07-04T10:36:11.000Z</time>
      </trkpt>
      <trkpt lat="48.74487" lon="1.806">
        <ele>191.80000305176</ele>
        <time>2014-07-04T10:36:18.000Z</time>
      </trkpt>
      <trkpt lat="48.74491" lon="1.80613">
        <ele>191.80000305176</ele>
        <time>2014-07-04T10:36:24.000Z</time>
      </trkpt>
      <trkpt lat="48.74499" lon="1.80622">
        <ele>191.80000305176</ele>
        <time>2014-07-04T10:36:31.000Z</time>
      </trkpt>
      <trkpt lat="48.74509" lon="1.80623">
        <ele>192</ele>
        <time>2014-07-04T10:36:39.000Z</time>
      </trkpt>
      <trkpt lat="48.74513" lon="1.80626">
        <ele>192.19999694824</ele>
        <time>2014-07-04T10:36:44.000Z</time>
      </trkpt>
      <trkpt lat="48.74513" lon="1.80635">
        <ele>192</ele>
        <time>2014-07-04T10:36:50.000Z</time>
      </trkpt>
      <trkpt lat="48.74509" lon="1.80644">
        <ele>191.80000305176</ele>
        <time>2014-07-04T10:36:56.000Z</time>
      </trkpt>
      <trkpt lat="48.745" lon="1.80648">
        <ele>191.39999389648</ele>
        <time>2014-07-04T10:37:02.000Z</time>
      </trkpt>
      <trkpt lat="48.74495" lon="1.80649">
        <ele>191.19999694824</ele>
        <time>2014-07-04T10:37:06.000Z</time>
      </trkpt>
      <trkpt lat="48.74489" lon="1.80652">
        <ele>191</ele>
        <time>2014-07-04T10:37:11.000Z</time>
      </trkpt>
      <trkpt lat="48.74488" lon="1.80652">
        <ele>190.80000305176</ele>
        <time>2014-07-04T10:37:12.000Z</time>
      </trkpt>
      <trkpt lat="48.74482" lon="1.80665">
        <ele>190.60000610352</ele>
        <time>2014-07-04T10:37:20.000Z</time>
      </trkpt>
      <trkpt lat="48.74475" lon="1.80679">
        <ele>190.39999389648</ele>
        <time>2014-07-04T10:37:27.000Z</time>
      </trkpt>
      <trkpt lat="48.74466" lon="1.80687">
        <ele>190.19999694824</ele>
        <time>2014-07-04T10:37:34.000Z</time>
      </trkpt>
      <trkpt lat="48.74457" lon="1.80691">
        <ele>190.19999694824</ele>
        <time>2014-07-04T10:37:41.000Z</time>
      </trkpt>
      <trkpt lat="48.74445" lon="1.807">
        <ele>190.60000610352</ele>
        <time>2014-07-04T10:37:49.000Z</time>
      </trkpt>
      <trkpt lat="48.74437" lon="1.80703">
        <ele>190.80000305176</ele>
        <time>2014-07-04T10:37:54.000Z</time>
      </trkpt>
      <trkpt lat="48.74433" lon="1.80702">
        <ele>190.60000610352</ele>
        <time>2014-07-04T10:37:57.000Z</time>
      </trkpt>
      <trkpt lat="48.74419" lon="1.80707">
        <ele>190.60000610352</ele>
        <time>2014-07-04T10:38:04.000Z</time>
      </trkpt>
      <trkpt lat="48.74411" lon="1.8071">
        <ele>190.60000610352</ele>
        <time>2014-07-04T10:38:09.000Z</time>
      </trkpt>
      <trkpt lat="48.74398" lon="1.80714">
        <ele>191</ele>
        <time>2014-07-04T10:38:16.000Z</time>
      </trkpt>
      <trkpt lat="48.7438" lon="1.80714">
        <ele>191.19999694824</ele>
        <time>2014-07-04T10:38:22.000Z</time>
      </trkpt>
      <trkpt lat="48.74369" lon="1.80716">
        <ele>191.39999389648</ele>
        <time>2014-07-04T10:38:25.000Z</time>
      </trkpt>
      <trkpt lat="48.7435" lon="1.80718">
        <ele>191.80000305176</ele>
        <time>2014-07-04T10:38:31.000Z</time>
      </trkpt>
      <trkpt lat="48.74323" lon="1.80721">
        <ele>192.19999694824</ele>
        <time>2014-07-04T10:38:37.000Z</time>
      </trkpt>
      <trkpt lat="48.74315" lon="1.8072">
        <ele>192</ele>
        <time>2014-07-04T10:38:39.000Z</time>
      </trkpt>
      <trkpt lat="48.743" lon="1.80724">
        <ele>192</ele>
        <time>2014-07-04T10:38:43.000Z</time>
      </trkpt>
      <trkpt lat="48.74282" lon="1.80731">
        <ele>192</ele>
        <time>2014-07-04T10:38:49.000Z</time>
      </trkpt>
      <trkpt lat="48.7427" lon="1.80732">
        <ele>191.80000305176</ele>
        <time>2014-07-04T10:38:53.000Z</time>
      </trkpt>
      <trkpt lat="48.74258" lon="1.80737">
        <ele>192</ele>
        <time>2014-07-04T10:38:57.000Z</time>
      </trkpt>
      <trkpt lat="48.74253" lon="1.80739">
        <ele>192.19999694824</ele>
        <time>2014-07-04T10:38:59.000Z</time>
      </trkpt>
      <trkpt lat="48.74244" lon="1.80742">
        <ele>192.39999389648</ele>
        <time>2014-07-04T10:39:03.000Z</time>
      </trkpt>
      <trkpt lat="48.74227" lon="1.80743">
        <ele>192.60000610352</ele>
        <time>2014-07-04T10:39:09.000Z</time>
      </trkpt>
      <trkpt lat="48.74217" lon="1.80747">
        <ele>192.80000305176</ele>
        <time>2014-07-04T10:39:13.000Z</time>
      </trkpt>
      <trkpt lat="48.74202" lon="1.80749">
        <ele>193</ele>
        <time>2014-07-04T10:39:18.000Z</time>
      </trkpt>
      <trkpt lat="48.74185" lon="1.80756">
        <ele>193.60000610352</ele>
        <time>2014-07-04T10:39:24.000Z</time>
      </trkpt>
      <trkpt lat="48.74182" lon="1.80757">
        <ele>193.39999389648</ele>
        <time>2014-07-04T10:39:25.000Z</time>
      </trkpt>
      <trkpt lat="48.74172" lon="1.8076">
        <ele>193.19999694824</ele>
        <time>2014-07-04T10:39:29.000Z</time>
      </trkpt>
      <trkpt lat="48.74152" lon="1.80764">
        <ele>192.60000610352</ele>
        <time>2014-07-04T10:39:36.000Z</time>
      </trkpt>
      <trkpt lat="48.74149" lon="1.80764">
        <ele>192.60000610352</ele>
        <time>2014-07-04T10:39:37.000Z</time>
      </trkpt>
      <trkpt lat="48.74147" lon="1.80764">
        <ele>192.39999389648</ele>
        <time>2014-07-04T10:39:39.000Z</time>
      </trkpt>
      <trkpt lat="48.74133" lon="1.80766">
        <ele>192</ele>
        <time>2014-07-04T10:39:44.000Z</time>
      </trkpt>
      <trkpt lat="48.74116" lon="1.8077">
        <ele>192</ele>
        <time>2014-07-04T10:39:49.000Z</time>
      </trkpt>
      <trkpt lat="48.74098" lon="1.80777">
        <ele>192.39999389648</ele>
        <time>2014-07-04T10:39:55.000Z</time>
      </trkpt>
      <trkpt lat="48.74097" lon="1.80778">
        <ele>192.39999389648</ele>
        <time>2014-07-04T10:39:56.000Z</time>
      </trkpt>
      <trkpt lat="48.74071" lon="1.80784">
        <ele>192.80000305176</ele>
        <time>2014-07-04T10:40:02.000Z</time>
      </trkpt>
      <trkpt lat="48.74062" lon="1.80785">
        <ele>192.80000305176</ele>
        <time>2014-07-04T10:40:06.000Z</time>
      </trkpt>
      <trkpt lat="48.74048" lon="1.80786">
        <ele>192.60000610352</ele>
        <time>2014-07-04T10:40:11.000Z</time>
      </trkpt>
      <trkpt lat="48.74043" lon="1.80786">
        <ele>192.60000610352</ele>
        <time>2014-07-04T10:40:14.000Z</time>
      </trkpt>
      <trkpt lat="48.74032" lon="1.80787">
        <ele>192.39999389648</ele>
        <time>2014-07-04T10:40:21.000Z</time>
      </trkpt>
      <trkpt lat="48.74027" lon="1.80788">
        <ele>192.39999389648</ele>
        <time>2014-07-04T10:40:24.000Z</time>
      </trkpt>
      <trkpt lat="48.74021" lon="1.80789">
        <ele>192.39999389648</ele>
        <time>2014-07-04T10:40:28.000Z</time>
      </trkpt>
      <trkpt lat="48.74005" lon="1.80789">
        <ele>193</ele>
        <time>2014-07-04T10:40:34.000Z</time>
      </trkpt>
      <trkpt lat="48.73991" lon="1.80792">
        <ele>193.60000610352</ele>
        <time>2014-07-04T10:40:39.000Z</time>
      </trkpt>
      <trkpt lat="48.73975" lon="1.80794">
        <ele>194</ele>
        <time>2014-07-04T10:40:46.000Z</time>
      </trkpt>
      <trkpt lat="48.73973" lon="1.80795">
        <ele>194.19999694824</ele>
        <time>2014-07-04T10:40:47.000Z</time>
      </trkpt>
      <trkpt lat="48.73967" lon="1.80795">
        <ele>194.39999389648</ele>
        <time>2014-07-04T10:40:51.000Z</time>
      </trkpt>
      <trkpt lat="48.7395" lon="1.80797">
        <ele>194.80000305176</ele>
        <time>2014-07-04T10:40:59.000Z</time>
      </trkpt>
      <trkpt lat="48.73948" lon="1.80798">
        <ele>194.80000305176</ele>
        <time>2014-07-04T10:41:00.000Z</time>
      </trkpt>
      <trkpt lat="48.73937" lon="1.80801">
        <ele>195.19999694824</ele>
        <time>2014-07-04T10:41:05.000Z</time>
      </trkpt>
      <trkpt lat="48.73925" lon="1.80804">
        <ele>195.60000610352</ele>
        <time>2014-07-04T10:41:12.000Z</time>
      </trkpt>
      <trkpt lat="48.73923" lon="1.80805">
        <ele>195.80000305176</ele>
        <time>2014-07-04T10:41:14.000Z</time>
      </trkpt>
      <trkpt lat="48.73912" lon="1.80805">
        <ele>195.80000305176</ele>
        <time>2014-07-04T10:41:21.000Z</time>
      </trkpt>
      <trkpt lat="48.73909" lon="1.80804">
        <ele>195.80000305176</ele>
        <time>2014-07-04T10:41:23.000Z</time>
      </trkpt>
      <trkpt lat="48.73896" lon="1.80804">
        <ele>195.80000305176</ele>
        <time>2014-07-04T10:41:30.000Z</time>
      </trkpt>
      <trkpt lat="48.73892" lon="1.80804">
        <ele>195.80000305176</ele>
        <time>2014-07-04T10:41:33.000Z</time>
      </trkpt>
      <trkpt lat="48.73884" lon="1.80809">
        <ele>195.80000305176</ele>
        <time>2014-07-04T10:41:39.000Z</time>
      </trkpt>
      <trkpt lat="48.73879" lon="1.80808">
        <ele>195.80000305176</ele>
        <time>2014-07-04T10:41:43.000Z</time>
      </trkpt>
      <trkpt lat="48.73871" lon="1.8081">
        <ele>195.80000305176</ele>
        <time>2014-07-04T10:41:48.000Z</time>
      </trkpt>
      <trkpt lat="48.73865" lon="1.80814">
        <ele>196</ele>
        <time>2014-07-04T10:41:52.000Z</time>
      </trkpt>
      <trkpt lat="48.73851" lon="1.80821">
        <ele>196</ele>
        <time>2014-07-04T10:42:00.000Z</time>
      </trkpt>
      <trkpt lat="48.73839" lon="1.80821">
        <ele>195.80000305176</ele>
        <time>2014-07-04T10:42:06.000Z</time>
      </trkpt>
      <trkpt lat="48.73824" lon="1.80823">
        <ele>195.60000610352</ele>
        <time>2014-07-04T10:42:13.000Z</time>
      </trkpt>
      <trkpt lat="48.73812" lon="1.80829">
        <ele>195.39999389648</ele>
        <time>2014-07-04T10:42:19.000Z</time>
      </trkpt>
      <trkpt lat="48.73793" lon="1.80832">
        <ele>195.19999694824</ele>
        <time>2014-07-04T10:42:28.000Z</time>
      </trkpt>
      <trkpt lat="48.73782" lon="1.80834">
        <ele>195.19999694824</ele>
        <time>2014-07-04T10:42:34.000Z</time>
      </trkpt>
      <trkpt lat="48.7377" lon="1.80837">
        <ele>195.39999389648</ele>
        <time>2014-07-04T10:42:41.000Z</time>
      </trkpt>
      <trkpt lat="48.73756" lon="1.80833">
        <ele>195.39999389648</ele>
        <time>2014-07-04T10:42:47.000Z</time>
      </trkpt>
      <trkpt lat="48.73751" lon="1.80835">
        <ele>195.60000610352</ele>
        <time>2014-07-04T10:42:51.000Z</time>
      </trkpt>
      <trkpt lat="48.73743" lon="1.80839">
        <ele>195.80000305176</ele>
        <time>2014-07-04T10:42:56.000Z</time>
      </trkpt>
      <trkpt lat="48.73733" lon="1.80838">
        <ele>195.80000305176</ele>
        <time>2014-07-04T10:43:01.000Z</time>
      </trkpt>
      <trkpt lat="48.73719" lon="1.80842">
        <ele>196.19999694824</ele>
        <time>2014-07-04T10:43:09.000Z</time>
      </trkpt>
      <trkpt lat="48.73705" lon="1.80843">
        <ele>196.19999694824</ele>
        <time>2014-07-04T10:43:17.000Z</time>
      </trkpt>
      <trkpt lat="48.73693" lon="1.80845">
        <ele>195.60000610352</ele>
        <time>2014-07-04T10:43:23.000Z</time>
      </trkpt>
      <trkpt lat="48.73684" lon="1.80842">
        <ele>195.39999389648</ele>
        <time>2014-07-04T10:43:29.000Z</time>
      </trkpt>
      <trkpt lat="48.73674" lon="1.80841">
        <ele>195</ele>
        <time>2014-07-04T10:43:35.000Z</time>
      </trkpt>
      <trkpt lat="48.73664" lon="1.80843">
        <ele>194.39999389648</ele>
        <time>2014-07-04T10:43:41.000Z</time>
      </trkpt>
      <trkpt lat="48.73661" lon="1.80844">
        <ele>194.19999694824</ele>
        <time>2014-07-04T10:43:42.000Z</time>
      </trkpt>
      <trkpt lat="48.73653" lon="1.80844">
        <ele>193.80000305176</ele>
        <time>2014-07-04T10:43:46.000Z</time>
      </trkpt>
      <trkpt lat="48.73642" lon="1.80847">
        <ele>193.19999694824</ele>
        <time>2014-07-04T10:43:54.000Z</time>
      </trkpt>
      <trkpt lat="48.73631" lon="1.80851">
        <ele>192.60000610352</ele>
        <time>2014-07-04T10:44:01.000Z</time>
      </trkpt>
      <trkpt lat="48.73627" lon="1.80851">
        <ele>192.60000610352</ele>
        <time>2014-07-04T10:44:04.000Z</time>
      </trkpt>
      <trkpt lat="48.73622" lon="1.80854">
        <ele>192.39999389648</ele>
        <time>2014-07-04T10:44:08.000Z</time>
      </trkpt>
      <trkpt lat="48.73615" lon="1.80858">
        <ele>192.19999694824</ele>
        <time>2014-07-04T10:44:14.000Z</time>
      </trkpt>
      <trkpt lat="48.73606" lon="1.80858">
        <ele>192</ele>
        <time>2014-07-04T10:44:19.000Z</time>
      </trkpt>
      <trkpt lat="48.73603" lon="1.80858">
        <ele>192</ele>
        <time>2014-07-04T10:44:22.000Z</time>
      </trkpt>
      <trkpt lat="48.73594" lon="1.80862">
        <ele>192.39999389648</ele>
        <time>2014-07-04T10:44:28.000Z</time>
      </trkpt>
      <trkpt lat="48.73589" lon="1.80863">
        <ele>192.60000610352</ele>
        <time>2014-07-04T10:44:34.000Z</time>
      </trkpt>
      <trkpt lat="48.73582" lon="1.80874">
        <ele>192.80000305176</ele>
        <time>2014-07-04T10:45:05.000Z</time>
      </trkpt>
      <trkpt lat="48.73584" lon="1.80862">
        <ele>192.80000305176</ele>
        <time>2014-07-04T10:45:16.000Z</time>
      </trkpt>
      <trkpt lat="48.73589" lon="1.80853">
        <ele>192.60000610352</ele>
        <time>2014-07-04T10:45:26.000Z</time>
      </trkpt>
      <trkpt lat="48.73587" lon="1.80847">
        <ele>192.60000610352</ele>
        <time>2014-07-04T10:45:30.000Z</time>
      </trkpt>
      <trkpt lat="48.73573" lon="1.8084">
        <ele>193.19999694824</ele>
        <time>2014-07-04T10:45:38.000Z</time>
      </trkpt>
      <trkpt lat="48.73575" lon="1.80843">
        <ele>193</ele>
        <time>2014-07-04T10:45:43.000Z</time>
      </trkpt>
      <trkpt lat="48.73578" lon="1.80845">
        <ele>193</ele>
        <time>2014-07-04T10:45:52.000Z</time>
      </trkpt>
      <trkpt lat="48.73582" lon="1.80851">
        <ele>192.80000305176</ele>
        <time>2014-07-04T10:46:55.000Z</time>
      </trkpt>
      <trkpt lat="48.73588" lon="1.80853">
        <ele>192.60000610352</ele>
        <time>2014-07-04T10:46:59.000Z</time>
      </trkpt>
      <trkpt lat="48.73589" lon="1.80855">
        <ele>192.60000610352</ele>
        <time>2014-07-04T10:47:01.000Z</time>
      </trkpt>
      <trkpt lat="48.73595" lon="1.80857">
        <ele>192.39999389648</ele>
        <time>2014-07-04T10:47:08.000Z</time>
      </trkpt>
      <trkpt lat="48.73596" lon="1.80857">
        <ele>192.19999694824</ele>
        <time>2014-07-04T10:47:10.000Z</time>
      </trkpt>
      <trkpt lat="48.73604" lon="1.80865">
        <ele>192</ele>
        <time>2014-07-04T10:47:55.000Z</time>
      </trkpt>
      <trkpt lat="48.73606" lon="1.80871">
        <ele>192</ele>
        <time>2014-07-04T10:47:57.000Z</time>
      </trkpt>
      <trkpt lat="48.73608" lon="1.8088">
        <ele>192</ele>
        <time>2014-07-04T10:48:02.000Z</time>
      </trkpt>
      <trkpt lat="48.7361" lon="1.80881">
        <ele>192.19999694824</ele>
        <time>2014-07-04T10:48:04.000Z</time>
      </trkpt>
      <trkpt lat="48.73616" lon="1.80886">
        <ele>192.19999694824</ele>
        <time>2014-07-04T10:48:09.000Z</time>
      </trkpt>
      <trkpt lat="48.73627" lon="1.80895">
        <ele>192.60000610352</ele>
        <time>2014-07-04T10:48:16.000Z</time>
      </trkpt>
      <trkpt lat="48.73629" lon="1.80896">
        <ele>192.60000610352</ele>
        <time>2014-07-04T10:48:17.000Z</time>
      </trkpt>
      <trkpt lat="48.73638" lon="1.80904">
        <ele>192.80000305176</ele>
        <time>2014-07-04T10:48:24.000Z</time>
      </trkpt>
      <trkpt lat="48.73641" lon="1.80909">
        <ele>192.80000305176</ele>
        <time>2014-07-04T10:48:27.000Z</time>
      </trkpt>
      <trkpt lat="48.73653" lon="1.80915">
        <ele>193</ele>
        <time>2014-07-04T10:48:33.000Z</time>
      </trkpt>
      <trkpt lat="48.73653" lon="1.80916">
        <ele>193</ele>
        <time>2014-07-04T10:48:34.000Z</time>
      </trkpt>
      <trkpt lat="48.73663" lon="1.80924">
        <ele>193.19999694824</ele>
        <time>2014-07-04T10:48:42.000Z</time>
      </trkpt>
      <trkpt lat="48.73668" lon="1.8093">
        <ele>193.19999694824</ele>
        <time>2014-07-04T10:48:47.000Z</time>
      </trkpt>
      <trkpt lat="48.7367" lon="1.80933">
        <ele>193.19999694824</ele>
        <time>2014-07-04T10:48:51.000Z</time>
      </trkpt>
      <trkpt lat="48.73679" lon="1.80944">
        <ele>193.39999389648</ele>
        <time>2014-07-04T10:48:57.000Z</time>
      </trkpt>
      <trkpt lat="48.73684" lon="1.8095">
        <ele>193.39999389648</ele>
        <time>2014-07-04T10:49:01.000Z</time>
      </trkpt>
      <trkpt lat="48.73691" lon="1.80956">
        <ele>193.39999389648</ele>
        <time>2014-07-04T10:49:07.000Z</time>
      </trkpt>
      <trkpt lat="48.73698" lon="1.80962">
        <ele>193.60000610352</ele>
        <time>2014-07-04T10:49:12.000Z</time>
      </trkpt>
      <trkpt lat="48.73704" lon="1.8097">
        <ele>193.60000610352</ele>
        <time>2014-07-04T10:49:17.000Z</time>
      </trkpt>
      <trkpt lat="48.73705" lon="1.80974">
        <ele>193.60000610352</ele>
        <time>2014-07-04T10:49:20.000Z</time>
      </trkpt>
      <trkpt lat="48.73711" lon="1.80982">
        <ele>193.60000610352</ele>
        <time>2014-07-04T10:49:26.000Z</time>
      </trkpt>
      <trkpt lat="48.73712" lon="1.80983">
        <ele>193.60000610352</ele>
        <time>2014-07-04T10:49:27.000Z</time>
      </trkpt>
      <trkpt lat="48.73715" lon="1.80983">
        <ele>193.80000305176</ele>
        <time>2014-07-04T10:49:29.000Z</time>
      </trkpt>
      <trkpt lat="48.73722" lon="1.80989">
        <ele>193.80000305176</ele>
        <time>2014-07-04T10:49:34.000Z</time>
      </trkpt>
      <trkpt lat="48.7373" lon="1.80997">
        <ele>193.80000305176</ele>
        <time>2014-07-04T10:49:39.000Z</time>
      </trkpt>
      <trkpt lat="48.73744" lon="1.81009">
        <ele>193.80000305176</ele>
        <time>2014-07-04T10:49:44.000Z</time>
      </trkpt>
      <trkpt lat="48.7376" lon="1.8102">
        <ele>194</ele>
        <time>2014-07-04T10:49:49.000Z</time>
      </trkpt>
      <trkpt lat="48.73772" lon="1.81034">
        <ele>194</ele>
        <time>2014-07-04T10:49:54.000Z</time>
      </trkpt>
      <trkpt lat="48.73791" lon="1.81052">
        <ele>194</ele>
        <time>2014-07-04T10:49:59.000Z</time>
      </trkpt>
      <trkpt lat="48.73808" lon="1.81073">
        <ele>193.80000305176</ele>
        <time>2014-07-04T10:50:05.000Z</time>
      </trkpt>
      <trkpt lat="48.73825" lon="1.8109">
        <ele>193.80000305176</ele>
        <time>2014-07-04T10:50:11.000Z</time>
      </trkpt>
      <trkpt lat="48.7384" lon="1.81103">
        <ele>194</ele>
        <time>2014-07-04T10:50:16.000Z</time>
      </trkpt>
      <trkpt lat="48.73856" lon="1.81117">
        <ele>194</ele>
        <time>2014-07-04T10:50:21.000Z</time>
      </trkpt>
      <trkpt lat="48.73872" lon="1.81128">
        <ele>194.39999389648</ele>
        <time>2014-07-04T10:50:26.000Z</time>
      </trkpt>
      <trkpt lat="48.73881" lon="1.81138">
        <ele>194.39999389648</ele>
        <time>2014-07-04T10:50:32.000Z</time>
      </trkpt>
      <trkpt lat="48.73883" lon="1.81141">
        <ele>194.39999389648</ele>
        <time>2014-07-04T10:50:34.000Z</time>
      </trkpt>
      <trkpt lat="48.73886" lon="1.81145">
        <ele>194.39999389648</ele>
        <time>2014-07-04T10:50:38.000Z</time>
      </trkpt>
      <trkpt lat="48.73886" lon="1.81147">
        <ele>194.39999389648</ele>
        <time>2014-07-04T10:50:40.000Z</time>
      </trkpt>
      <trkpt lat="48.7389" lon="1.81153">
        <ele>194.39999389648</ele>
        <time>2014-07-04T10:50:44.000Z</time>
      </trkpt>
      <trkpt lat="48.73895" lon="1.81156">
        <ele>194.39999389648</ele>
        <time>2014-07-04T10:50:47.000Z</time>
      </trkpt>
      <trkpt lat="48.73899" lon="1.81157">
        <ele>194.60000610352</ele>
        <time>2014-07-04T10:50:50.000Z</time>
      </trkpt>
      <trkpt lat="48.73906" lon="1.81162">
        <ele>194.80000305176</ele>
        <time>2014-07-04T10:50:56.000Z</time>
      </trkpt>
      <trkpt lat="48.73908" lon="1.81166">
        <ele>194.80000305176</ele>
        <time>2014-07-04T10:50:59.000Z</time>
      </trkpt>
      <trkpt lat="48.73911" lon="1.81169">
        <ele>194.80000305176</ele>
        <time>2014-07-04T10:51:02.000Z</time>
      </trkpt>
      <trkpt lat="48.73919" lon="1.81177">
        <ele>195</ele>
        <time>2014-07-04T10:51:09.000Z</time>
      </trkpt>
      <trkpt lat="48.73926" lon="1.81183">
        <ele>195.19999694824</ele>
        <time>2014-07-04T10:51:16.000Z</time>
      </trkpt>
      <trkpt lat="48.73934" lon="1.81193">
        <ele>195.39999389648</ele>
        <time>2014-07-04T10:51:22.000Z</time>
      </trkpt>
      <trkpt lat="48.73937" lon="1.81197">
        <ele>195.39999389648</ele>
        <time>2014-07-04T10:51:24.000Z</time>
      </trkpt>
      <trkpt lat="48.7394" lon="1.81201">
        <ele>195.39999389648</ele>
        <time>2014-07-04T10:51:27.000Z</time>
      </trkpt>
      <trkpt lat="48.7395" lon="1.81214">
        <ele>195.19999694824</ele>
        <time>2014-07-04T10:51:33.000Z</time>
      </trkpt>
      <trkpt lat="48.73963" lon="1.81225">
        <ele>195.19999694824</ele>
        <time>2014-07-04T10:51:38.000Z</time>
      </trkpt>
      <trkpt lat="48.73973" lon="1.81233">
        <ele>195</ele>
        <time>2014-07-04T10:51:43.000Z</time>
      </trkpt>
      <trkpt lat="48.73988" lon="1.81248">
        <ele>194.80000305176</ele>
        <time>2014-07-04T10:51:50.000Z</time>
      </trkpt>
      <trkpt lat="48.74005" lon="1.81262">
        <ele>194.39999389648</ele>
        <time>2014-07-04T10:51:55.000Z</time>
      </trkpt>
      <trkpt lat="48.74008" lon="1.81264">
        <ele>194.39999389648</ele>
        <time>2014-07-04T10:51:56.000Z</time>
      </trkpt>
      <trkpt lat="48.74027" lon="1.81281">
        <ele>194.19999694824</ele>
        <time>2014-07-04T10:52:03.000Z</time>
      </trkpt>
      <trkpt lat="48.7404" lon="1.81295">
        <ele>194.19999694824</ele>
        <time>2014-07-04T10:52:08.000Z</time>
      </trkpt>
      <trkpt lat="48.74058" lon="1.81315">
        <ele>194</ele>
        <time>2014-07-04T10:52:16.000Z</time>
      </trkpt>
      <trkpt lat="48.74064" lon="1.81322">
        <ele>194</ele>
        <time>2014-07-04T10:52:19.000Z</time>
      </trkpt>
      <trkpt lat="48.7408" lon="1.81336">
        <ele>194.39999389648</ele>
        <time>2014-07-04T10:52:25.000Z</time>
      </trkpt>
      <trkpt lat="48.74094" lon="1.81347">
        <ele>194.80000305176</ele>
        <time>2014-07-04T10:52:31.000Z</time>
      </trkpt>
      <trkpt lat="48.74108" lon="1.81358">
        <ele>195</ele>
        <time>2014-07-04T10:52:37.000Z</time>
      </trkpt>
      <trkpt lat="48.74116" lon="1.81365">
        <ele>195</ele>
        <time>2014-07-04T10:52:42.000Z</time>
      </trkpt>
      <trkpt lat="48.74126" lon="1.81375">
        <ele>195</ele>
        <time>2014-07-04T10:52:49.000Z</time>
      </trkpt>
      <trkpt lat="48.74135" lon="1.81382">
        <ele>195</ele>
        <time>2014-07-04T10:52:54.000Z</time>
      </trkpt>
      <trkpt lat="48.74137" lon="1.81383">
        <ele>195</ele>
        <time>2014-07-04T10:52:55.000Z</time>
      </trkpt>
      <trkpt lat="48.74142" lon="1.81389">
        <ele>195</ele>
        <time>2014-07-04T10:52:59.000Z</time>
      </trkpt>
      <trkpt lat="48.74149" lon="1.81394">
        <ele>195</ele>
        <time>2014-07-04T10:53:05.000Z</time>
      </trkpt>
      <trkpt lat="48.74156" lon="1.81398">
        <ele>195</ele>
        <time>2014-07-04T10:53:09.000Z</time>
      </trkpt>
      <trkpt lat="48.74167" lon="1.81409">
        <ele>195</ele>
        <time>2014-07-04T10:53:16.000Z</time>
      </trkpt>
      <trkpt lat="48.74175" lon="1.8142">
        <ele>195</ele>
        <time>2014-07-04T10:53:23.000Z</time>
      </trkpt>
      <trkpt lat="48.74182" lon="1.81431">
        <ele>195</ele>
        <time>2014-07-04T10:53:30.000Z</time>
      </trkpt>
      <trkpt lat="48.74186" lon="1.81436">
        <ele>195</ele>
        <time>2014-07-04T10:53:33.000Z</time>
      </trkpt>
      <trkpt lat="48.74196" lon="1.81444">
        <ele>195</ele>
        <time>2014-07-04T10:53:40.000Z</time>
      </trkpt>
      <trkpt lat="48.74206" lon="1.81451">
        <ele>194.80000305176</ele>
        <time>2014-07-04T10:53:46.000Z</time>
      </trkpt>
      <trkpt lat="48.74218" lon="1.81456">
        <ele>194.60000610352</ele>
        <time>2014-07-04T10:53:53.000Z</time>
      </trkpt>
      <trkpt lat="48.74231" lon="1.81459">
        <ele>194.39999389648</ele>
        <time>2014-07-04T10:54:00.000Z</time>
      </trkpt>
      <trkpt lat="48.74234" lon="1.81458">
        <ele>194.39999389648</ele>
        <time>2014-07-04T10:54:02.000Z</time>
      </trkpt>
      <trkpt lat="48.74239" lon="1.81458">
        <ele>194.39999389648</ele>
        <time>2014-07-04T10:54:06.000Z</time>
      </trkpt>
      <trkpt lat="48.74252" lon="1.81452">
        <ele>194.60000610352</ele>
        <time>2014-07-04T10:54:13.000Z</time>
      </trkpt>
      <trkpt lat="48.74261" lon="1.81447">
        <ele>194.80000305176</ele>
        <time>2014-07-04T10:54:19.000Z</time>
      </trkpt>
      <trkpt lat="48.74267" lon="1.81444">
        <ele>195</ele>
        <time>2014-07-04T10:54:24.000Z</time>
      </trkpt>
      <trkpt lat="48.7427" lon="1.81443">
        <ele>195</ele>
        <time>2014-07-04T10:54:28.000Z</time>
      </trkpt>
      <trkpt lat="48.74274" lon="1.81441">
        <ele>195</ele>
        <time>2014-07-04T10:54:32.000Z</time>
      </trkpt>
      <trkpt lat="48.74279" lon="1.81439">
        <ele>195</ele>
        <time>2014-07-04T10:54:37.000Z</time>
      </trkpt>
      <trkpt lat="48.74286" lon="1.81437">
        <ele>194.80000305176</ele>
        <time>2014-07-04T10:54:42.000Z</time>
      </trkpt>
      <trkpt lat="48.74297" lon="1.81434">
        <ele>194.60000610352</ele>
        <time>2014-07-04T10:54:49.000Z</time>
      </trkpt>
      <trkpt lat="48.74305" lon="1.81431">
        <ele>194.39999389648</ele>
        <time>2014-07-04T10:54:56.000Z</time>
      </trkpt>
      <trkpt lat="48.74305" lon="1.8143">
        <ele>194.39999389648</ele>
        <time>2014-07-04T10:54:57.000Z</time>
      </trkpt>
      <trkpt lat="48.74307" lon="1.8143">
        <ele>194.39999389648</ele>
        <time>2014-07-04T10:55:00.000Z</time>
      </trkpt>
      <trkpt lat="48.74314" lon="1.8143">
        <ele>194.19999694824</ele>
        <time>2014-07-04T10:55:02.000Z</time>
      </trkpt>
      <trkpt lat="48.74321" lon="1.81431">
        <ele>193.80000305176</ele>
        <time>2014-07-04T10:55:08.000Z</time>
      </trkpt>
      <trkpt lat="48.74326" lon="1.81429">
        <ele>193.80000305176</ele>
        <time>2014-07-04T10:55:12.000Z</time>
      </trkpt>
      <trkpt lat="48.74329" lon="1.81429">
        <ele>193.60000610352</ele>
        <time>2014-07-04T10:55:14.000Z</time>
      </trkpt>
      <trkpt lat="48.74334" lon="1.81429">
        <ele>193.39999389648</ele>
        <time>2014-07-04T10:55:18.000Z</time>
      </trkpt>
      <trkpt lat="48.7434" lon="1.81426">
        <ele>193.19999694824</ele>
        <time>2014-07-04T10:55:24.000Z</time>
      </trkpt>
      <trkpt lat="48.74343" lon="1.81426">
        <ele>193.19999694824</ele>
        <time>2014-07-04T10:55:28.000Z</time>
      </trkpt>
      <trkpt lat="48.74346" lon="1.81429">
        <ele>193</ele>
        <time>2014-07-04T10:55:32.000Z</time>
      </trkpt>
      <trkpt lat="48.74348" lon="1.81432">
        <ele>192.80000305176</ele>
        <time>2014-07-04T10:55:35.000Z</time>
      </trkpt>
      <trkpt lat="48.74353" lon="1.81434">
        <ele>192.60000610352</ele>
        <time>2014-07-04T10:55:39.000Z</time>
      </trkpt>
      <trkpt lat="48.74359" lon="1.81432">
        <ele>192.60000610352</ele>
        <time>2014-07-04T10:55:46.000Z</time>
      </trkpt>
      <trkpt lat="48.74364" lon="1.81426">
        <ele>192.60000610352</ele>
        <time>2014-07-04T10:55:50.000Z</time>
      </trkpt>
      <trkpt lat="48.74372" lon="1.81427">
        <ele>192.39999389648</ele>
        <time>2014-07-04T10:55:56.000Z</time>
      </trkpt>
      <trkpt lat="48.74377" lon="1.81426">
        <ele>192.19999694824</ele>
        <time>2014-07-04T10:56:01.000Z</time>
      </trkpt>
      <trkpt lat="48.74374" lon="1.814">
        <ele>191.80000305176</ele>
        <time>2014-07-04T10:56:24.000Z</time>
      </trkpt>
      <trkpt lat="48.74383" lon="1.81401">
        <ele>191</ele>
        <time>2014-07-04T10:56:30.000Z</time>
      </trkpt>
      <trkpt lat="48.74386" lon="1.81401">
        <ele>190.80000305176</ele>
        <time>2014-07-04T10:56:32.000Z</time>
      </trkpt>
      <trkpt lat="48.74395" lon="1.81393">
        <ele>190.39999389648</ele>
        <time>2014-07-04T10:56:39.000Z</time>
      </trkpt>
      <trkpt lat="48.74407" lon="1.81387">
        <ele>189.60000610352</ele>
        <time>2014-07-04T10:56:45.000Z</time>
      </trkpt>
      <trkpt lat="48.74413" lon="1.81389">
        <ele>189.19999694824</ele>
        <time>2014-07-04T10:56:49.000Z</time>
      </trkpt>
      <trkpt lat="48.74419" lon="1.81391">
        <ele>188.60000610352</ele>
        <time>2014-07-04T10:56:54.000Z</time>
      </trkpt>
      <trkpt lat="48.74426" lon="1.81399">
        <ele>188</ele>
        <time>2014-07-04T10:57:00.000Z</time>
      </trkpt>
      <trkpt lat="48.74438" lon="1.81395">
        <ele>187.19999694824</ele>
        <time>2014-07-04T10:57:06.000Z</time>
      </trkpt>
      <trkpt lat="48.74451" lon="1.81391">
        <ele>187.60000610352</ele>
        <time>2014-07-04T10:57:11.000Z</time>
      </trkpt>
      <trkpt lat="48.74463" lon="1.81386">
        <ele>188.19999694824</ele>
        <time>2014-07-04T10:57:17.000Z</time>
      </trkpt>
      <trkpt lat="48.74475" lon="1.81382">
        <ele>188.60000610352</ele>
        <time>2014-07-04T10:57:24.000Z</time>
      </trkpt>
      <trkpt lat="48.74486" lon="1.81376">
        <ele>189</ele>
        <time>2014-07-04T10:57:29.000Z</time>
      </trkpt>
      <trkpt lat="48.74486" lon="1.81376">
        <ele>189.19999694824</ele>
        <time>2014-07-04T10:57:30.000Z</time>
      </trkpt>
      <trkpt lat="48.74494" lon="1.81374">
        <ele>189</ele>
        <time>2014-07-04T10:57:36.000Z</time>
      </trkpt>
      <trkpt lat="48.74498" lon="1.81374">
        <ele>188.80000305176</ele>
        <time>2014-07-04T10:57:39.000Z</time>
      </trkpt>
      <trkpt lat="48.74507" lon="1.81374">
        <ele>188.39999389648</ele>
        <time>2014-07-04T10:57:45.000Z</time>
      </trkpt>
      <trkpt lat="48.7451" lon="1.81373">
        <ele>188.19999694824</ele>
        <time>2014-07-04T10:57:47.000Z</time>
      </trkpt>
      <trkpt lat="48.74522" lon="1.81367">
        <ele>187.19999694824</ele>
        <time>2014-07-04T10:57:53.000Z</time>
      </trkpt>
      <trkpt lat="48.74523" lon="1.81367">
        <ele>187.19999694824</ele>
        <time>2014-07-04T10:57:54.000Z</time>
      </trkpt>
      <trkpt lat="48.74528" lon="1.81366">
        <ele>187.19999694824</ele>
        <time>2014-07-04T10:57:57.000Z</time>
      </trkpt>
      <trkpt lat="48.74537" lon="1.8136">
        <ele>187</ele>
        <time>2014-07-04T10:58:02.000Z</time>
      </trkpt>
      <trkpt lat="48.74544" lon="1.81356">
        <ele>186.80000305176</ele>
        <time>2014-07-04T10:58:07.000Z</time>
      </trkpt>
      <trkpt lat="48.74552" lon="1.81353">
        <ele>186.60000610352</ele>
        <time>2014-07-04T10:58:12.000Z</time>
      </trkpt>
      <trkpt lat="48.74559" lon="1.81352">
        <ele>187</ele>
        <time>2014-07-04T10:58:17.000Z</time>
      </trkpt>
      <trkpt lat="48.74564" lon="1.8135">
        <ele>187.19999694824</ele>
        <time>2014-07-04T10:58:20.000Z</time>
      </trkpt>
      <trkpt lat="48.74573" lon="1.81349">
        <ele>187.80000305176</ele>
        <time>2014-07-04T10:58:25.000Z</time>
      </trkpt>
      <trkpt lat="48.74578" lon="1.81346">
        <ele>188</ele>
        <time>2014-07-04T10:58:29.000Z</time>
      </trkpt>
      <trkpt lat="48.74588" lon="1.81343">
        <ele>188.60000610352</ele>
        <time>2014-07-04T10:58:35.000Z</time>
      </trkpt>
      <trkpt lat="48.74598" lon="1.81336">
        <ele>189</ele>
        <time>2014-07-04T10:58:42.000Z</time>
      </trkpt>
      <trkpt lat="48.74599" lon="1.81335">
        <ele>189</ele>
        <time>2014-07-04T10:58:43.000Z</time>
      </trkpt>
      <trkpt lat="48.74606" lon="1.81334">
        <ele>189.39999389648</ele>
        <time>2014-07-04T10:58:47.000Z</time>
      </trkpt>
      <trkpt lat="48.74616" lon="1.8133">
        <ele>189.39999389648</ele>
        <time>2014-07-04T10:58:54.000Z</time>
      </trkpt>
      <trkpt lat="48.74626" lon="1.81325">
        <ele>189.80000305176</ele>
        <time>2014-07-04T10:59:00.000Z</time>
      </trkpt>
      <trkpt lat="48.74635" lon="1.81322">
        <ele>190</ele>
        <time>2014-07-04T10:59:05.000Z</time>
      </trkpt>
      <trkpt lat="48.74643" lon="1.81321">
        <ele>190.39999389648</ele>
        <time>2014-07-04T10:59:10.000Z</time>
      </trkpt>
      <trkpt lat="48.74645" lon="1.8132">
        <ele>190.39999389648</ele>
        <time>2014-07-04T10:59:12.000Z</time>
      </trkpt>
      <trkpt lat="48.74655" lon="1.81317">
        <ele>190.60000610352</ele>
        <time>2014-07-04T10:59:19.000Z</time>
      </trkpt>
      <trkpt lat="48.74659" lon="1.81315">
        <ele>190.80000305176</ele>
        <time>2014-07-04T10:59:22.000Z</time>
      </trkpt>
      <trkpt lat="48.74667" lon="1.8131">
        <ele>190.80000305176</ele>
        <time>2014-07-04T10:59:27.000Z</time>
      </trkpt>
      <trkpt lat="48.7467" lon="1.81311">
        <ele>191</ele>
        <time>2014-07-04T10:59:29.000Z</time>
      </trkpt>
      <trkpt lat="48.74683" lon="1.81305">
        <ele>191.39999389648</ele>
        <time>2014-07-04T10:59:36.000Z</time>
      </trkpt>
      <trkpt lat="48.74685" lon="1.81304">
        <ele>191.39999389648</ele>
        <time>2014-07-04T10:59:37.000Z</time>
      </trkpt>
      <trkpt lat="48.74701" lon="1.813">
        <ele>191.19999694824</ele>
        <time>2014-07-04T10:59:45.000Z</time>
      </trkpt>
      <trkpt lat="48.74709" lon="1.81294">
        <ele>190.80000305176</ele>
        <time>2014-07-04T10:59:51.000Z</time>
      </trkpt>
      <trkpt lat="48.74716" lon="1.81291">
        <ele>190.60000610352</ele>
        <time>2014-07-04T10:59:56.000Z</time>
      </trkpt>
      <trkpt lat="48.74728" lon="1.81288">
        <ele>190.19999694824</ele>
        <time>2014-07-04T11:00:03.000Z</time>
      </trkpt>
      <trkpt lat="48.74737" lon="1.81285">
        <ele>190</ele>
        <time>2014-07-04T11:00:08.000Z</time>
      </trkpt>
      <trkpt lat="48.74749" lon="1.81282">
        <ele>189.80000305176</ele>
        <time>2014-07-04T11:00:14.000Z</time>
      </trkpt>
      <trkpt lat="48.74754" lon="1.81281">
        <ele>189.80000305176</ele>
        <time>2014-07-04T11:00:18.000Z</time>
      </trkpt>
      <trkpt lat="48.74762" lon="1.81275">
        <ele>189.60000610352</ele>
        <time>2014-07-04T11:00:22.000Z</time>
      </trkpt>
      <trkpt lat="48.7478" lon="1.81269">
        <ele>188.80000305176</ele>
        <time>2014-07-04T11:00:30.000Z</time>
      </trkpt>
      <trkpt lat="48.74792" lon="1.81271">
        <ele>187.80000305176</ele>
        <time>2014-07-04T11:00:36.000Z</time>
      </trkpt>
      <trkpt lat="48.74802" lon="1.81265">
        <ele>187</ele>
        <time>2014-07-04T11:00:42.000Z</time>
      </trkpt>
      <trkpt lat="48.74811" lon="1.8126">
        <ele>186.39999389648</ele>
        <time>2014-07-04T11:00:48.000Z</time>
      </trkpt>
      <trkpt lat="48.74816" lon="1.81261">
        <ele>186</ele>
        <time>2014-07-04T11:00:53.000Z</time>
      </trkpt>
      <trkpt lat="48.7482" lon="1.8126">
        <ele>185.80000305176</ele>
        <time>2014-07-04T11:00:57.000Z</time>
      </trkpt>
      <trkpt lat="48.74832" lon="1.81256">
        <ele>184.80000305176</ele>
        <time>2014-07-04T11:01:03.000Z</time>
      </trkpt>
      <trkpt lat="48.74847" lon="1.81252">
        <ele>183.60000610352</ele>
        <time>2014-07-04T11:01:10.000Z</time>
      </trkpt>
      <trkpt lat="48.74851" lon="1.81253">
        <ele>183.39999389648</ele>
        <time>2014-07-04T11:01:15.000Z</time>
      </trkpt>
      <trkpt lat="48.7486" lon="1.81249">
        <ele>182.80000305176</ele>
        <time>2014-07-04T11:01:20.000Z</time>
      </trkpt>
      <trkpt lat="48.74873" lon="1.81245">
        <ele>182.19999694824</ele>
        <time>2014-07-04T11:01:26.000Z</time>
      </trkpt>
      <trkpt lat="48.74883" lon="1.81242">
        <ele>181.60000610352</ele>
        <time>2014-07-04T11:01:32.000Z</time>
      </trkpt>
      <trkpt lat="48.74887" lon="1.81241">
        <ele>181.39999389648</ele>
        <time>2014-07-04T11:01:34.000Z</time>
      </trkpt>
      <trkpt lat="48.74892" lon="1.81238">
        <ele>181.19999694824</ele>
        <time>2014-07-04T11:01:37.000Z</time>
      </trkpt>
      <trkpt lat="48.74905" lon="1.81234">
        <ele>180.39999389648</ele>
        <time>2014-07-04T11:01:44.000Z</time>
      </trkpt>
      <trkpt lat="48.74909" lon="1.8123">
        <ele>180.19999694824</ele>
        <time>2014-07-04T11:01:50.000Z</time>
      </trkpt>
      <trkpt lat="48.74914" lon="1.81231">
        <ele>180</ele>
        <time>2014-07-04T11:01:55.000Z</time>
      </trkpt>
      <trkpt lat="48.74919" lon="1.81235">
        <ele>179.80000305176</ele>
        <time>2014-07-04T11:02:00.000Z</time>
      </trkpt>
      <trkpt lat="48.74923" lon="1.81237">
        <ele>179.60000610352</ele>
        <time>2014-07-04T11:02:02.000Z</time>
      </trkpt>
      <trkpt lat="48.74934" lon="1.81241">
        <ele>179.19999694824</ele>
        <time>2014-07-04T11:02:08.000Z</time>
      </trkpt>
      <trkpt lat="48.74947" lon="1.81248">
        <ele>178.80000305176</ele>
        <time>2014-07-04T11:02:16.000Z</time>
      </trkpt>
      <trkpt lat="48.74958" lon="1.81256">
        <ele>178.60000610352</ele>
        <time>2014-07-04T11:02:23.000Z</time>
      </trkpt>
      <trkpt lat="48.74965" lon="1.8126">
        <ele>178.39999389648</ele>
        <time>2014-07-04T11:02:28.000Z</time>
      </trkpt>
      <trkpt lat="48.74971" lon="1.81268">
        <ele>178.19999694824</ele>
        <time>2014-07-04T11:02:34.000Z</time>
      </trkpt>
      <trkpt lat="48.74979" lon="1.81273">
        <ele>178</ele>
        <time>2014-07-04T11:02:39.000Z</time>
      </trkpt>
      <trkpt lat="48.74986" lon="1.81277">
        <ele>178</ele>
        <time>2014-07-04T11:02:45.000Z</time>
      </trkpt>
      <trkpt lat="48.74988" lon="1.81281">
        <ele>177.80000305176</ele>
        <time>2014-07-04T11:02:49.000Z</time>
      </trkpt>
      <trkpt lat="48.74998" lon="1.81288">
        <ele>177.60000610352</ele>
        <time>2014-07-04T11:02:55.000Z</time>
      </trkpt>
      <trkpt lat="48.75003" lon="1.8129">
        <ele>177.60000610352</ele>
        <time>2014-07-04T11:02:59.000Z</time>
      </trkpt>
      <trkpt lat="48.75006" lon="1.81295">
        <ele>177.39999389648</ele>
        <time>2014-07-04T11:03:03.000Z</time>
      </trkpt>
      <trkpt lat="48.75015" lon="1.81302">
        <ele>177.39999389648</ele>
        <time>2014-07-04T11:03:09.000Z</time>
      </trkpt>
      <trkpt lat="48.75022" lon="1.81303">
        <ele>177.19999694824</ele>
        <time>2014-07-04T11:03:13.000Z</time>
      </trkpt>
      <trkpt lat="48.75025" lon="1.81304">
        <ele>177</ele>
        <time>2014-07-04T11:03:15.000Z</time>
      </trkpt>
      <trkpt lat="48.75034" lon="1.81316">
        <ele>176.60000610352</ele>
        <time>2014-07-04T11:03:22.000Z</time>
      </trkpt>
      <trkpt lat="48.7504" lon="1.81324">
        <ele>176.19999694824</ele>
        <time>2014-07-04T11:03:28.000Z</time>
      </trkpt>
      <trkpt lat="48.75048" lon="1.81332">
        <ele>175.19999694824</ele>
        <time>2014-07-04T11:03:35.000Z</time>
      </trkpt>
      <trkpt lat="48.7505" lon="1.81333">
        <ele>175</ele>
        <time>2014-07-04T11:03:36.000Z</time>
      </trkpt>
      <trkpt lat="48.75054" lon="1.81336">
        <ele>174.60000610352</ele>
        <time>2014-07-04T11:03:40.000Z</time>
      </trkpt>
      <trkpt lat="48.75061" lon="1.81343">
        <ele>173.80000305176</ele>
        <time>2014-07-04T11:03:45.000Z</time>
      </trkpt>
      <trkpt lat="48.7507" lon="1.8135">
        <ele>173</ele>
        <time>2014-07-04T11:03:50.000Z</time>
      </trkpt>
      <trkpt lat="48.75074" lon="1.81353">
        <ele>172.39999389648</ele>
        <time>2014-07-04T11:03:54.000Z</time>
      </trkpt>
      <trkpt lat="48.75085" lon="1.81358">
        <ele>171.60000610352</ele>
        <time>2014-07-04T11:04:01.000Z</time>
      </trkpt>
      <trkpt lat="48.75091" lon="1.81364">
        <ele>171</ele>
        <time>2014-07-04T11:04:07.000Z</time>
      </trkpt>
      <trkpt lat="48.75097" lon="1.81369">
        <ele>170.39999389648</ele>
        <time>2014-07-04T11:04:12.000Z</time>
      </trkpt>
      <trkpt lat="48.75101" lon="1.81374">
        <ele>169.80000305176</ele>
        <time>2014-07-04T11:04:16.000Z</time>
      </trkpt>
      <trkpt lat="48.75108" lon="1.81378">
        <ele>169</ele>
        <time>2014-07-04T11:04:20.000Z</time>
      </trkpt>
      <trkpt lat="48.75116" lon="1.81381">
        <ele>168.19999694824</ele>
        <time>2014-07-04T11:04:25.000Z</time>
      </trkpt>
      <trkpt lat="48.75118" lon="1.81379">
        <ele>168.19999694824</ele>
        <time>2014-07-04T11:04:27.000Z</time>
      </trkpt>
      <trkpt lat="48.75128" lon="1.81377">
        <ele>167.60000610352</ele>
        <time>2014-07-04T11:04:31.000Z</time>
      </trkpt>
      <trkpt lat="48.75137" lon="1.8138">
        <ele>166.80000305176</ele>
        <time>2014-07-04T11:04:37.000Z</time>
      </trkpt>
      <trkpt lat="48.75137" lon="1.81382">
        <ele>166.60000610352</ele>
        <time>2014-07-04T11:04:39.000Z</time>
      </trkpt>
      <trkpt lat="48.75137" lon="1.81392">
        <ele>165.80000305176</ele>
        <time>2014-07-04T11:04:45.000Z</time>
      </trkpt>
      <trkpt lat="48.75145" lon="1.81403">
        <ele>164.19999694824</ele>
        <time>2014-07-04T11:04:51.000Z</time>
      </trkpt>
      <trkpt lat="48.75151" lon="1.81408">
        <ele>163.39999389648</ele>
        <time>2014-07-04T11:04:55.000Z</time>
      </trkpt>
      <trkpt lat="48.75158" lon="1.81418">
        <ele>162.19999694824</ele>
        <time>2014-07-04T11:05:01.000Z</time>
      </trkpt>
      <trkpt lat="48.7517" lon="1.81427">
        <ele>160.60000610352</ele>
        <time>2014-07-04T11:05:07.000Z</time>
      </trkpt>
      <trkpt lat="48.75176" lon="1.81435">
        <ele>159.80000305176</ele>
        <time>2014-07-04T11:05:12.000Z</time>
      </trkpt>
      <trkpt lat="48.75177" lon="1.81445">
        <ele>158.80000305176</ele>
        <time>2014-07-04T11:05:17.000Z</time>
      </trkpt>
      <trkpt lat="48.75178" lon="1.81447">
        <ele>158.60000610352</ele>
        <time>2014-07-04T11:05:18.000Z</time>
      </trkpt>
      <trkpt lat="48.75187" lon="1.81457">
        <ele>157.39999389648</ele>
        <time>2014-07-04T11:05:24.000Z</time>
      </trkpt>
      <trkpt lat="48.75193" lon="1.81462">
        <ele>156.60000610352</ele>
        <time>2014-07-04T11:05:28.000Z</time>
      </trkpt>
      <trkpt lat="48.75194" lon="1.81474">
        <ele>155.60000610352</ele>
        <time>2014-07-04T11:05:33.000Z</time>
      </trkpt>
      <trkpt lat="48.75197" lon="1.81481">
        <ele>154.80000305176</ele>
        <time>2014-07-04T11:05:38.000Z</time>
      </trkpt>
      <trkpt lat="48.75198" lon="1.81482">
        <ele>154.80000305176</ele>
        <time>2014-07-04T11:05:39.000Z</time>
      </trkpt>
      <trkpt lat="48.75201" lon="1.81496">
        <ele>153.80000305176</ele>
        <time>2014-07-04T11:05:45.000Z</time>
      </trkpt>
      <trkpt lat="48.75206" lon="1.815">
        <ele>153.19999694824</ele>
        <time>2014-07-04T11:05:48.000Z</time>
      </trkpt>
      <trkpt lat="48.75215" lon="1.8151">
        <ele>152.19999694824</ele>
        <time>2014-07-04T11:05:54.000Z</time>
      </trkpt>
      <trkpt lat="48.75221" lon="1.81517">
        <ele>151.60000610352</ele>
        <time>2014-07-04T11:05:59.000Z</time>
      </trkpt>
      <trkpt lat="48.75224" lon="1.81522">
        <ele>151.19999694824</ele>
        <time>2014-07-04T11:06:02.000Z</time>
      </trkpt>
      <trkpt lat="48.75227" lon="1.81524">
        <ele>150.80000305176</ele>
        <time>2014-07-04T11:06:04.000Z</time>
      </trkpt>
      <trkpt lat="48.75236" lon="1.81533">
        <ele>150</ele>
        <time>2014-07-04T11:06:09.000Z</time>
      </trkpt>
      <trkpt lat="48.75243" lon="1.81541">
        <ele>149.19999694824</ele>
        <time>2014-07-04T11:06:15.000Z</time>
      </trkpt>
      <trkpt lat="48.75245" lon="1.81546">
        <ele>148.80000305176</ele>
        <time>2014-07-04T11:06:18.000Z</time>
      </trkpt>
      <trkpt lat="48.75257" lon="1.81554">
        <ele>147.60000610352</ele>
        <time>2014-07-04T11:06:24.000Z</time>
      </trkpt>
      <trkpt lat="48.75259" lon="1.81559">
        <ele>147.19999694824</ele>
        <time>2014-07-04T11:06:27.000Z</time>
      </trkpt>
      <trkpt lat="48.75263" lon="1.81571">
        <ele>146.39999389648</ele>
        <time>2014-07-04T11:06:31.000Z</time>
      </trkpt>
      <trkpt lat="48.75268" lon="1.8158">
        <ele>145.80000305176</ele>
        <time>2014-07-04T11:06:37.000Z</time>
      </trkpt>
      <trkpt lat="48.75268" lon="1.81581">
        <ele>145.60000610352</ele>
        <time>2014-07-04T11:06:39.000Z</time>
      </trkpt>
      <trkpt lat="48.75274" lon="1.81589">
        <ele>145.19999694824</ele>
        <time>2014-07-04T11:06:44.000Z</time>
      </trkpt>
      <trkpt lat="48.7528" lon="1.81598">
        <ele>144.60000610352</ele>
        <time>2014-07-04T11:06:49.000Z</time>
      </trkpt>
      <trkpt lat="48.75284" lon="1.81611">
        <ele>143.80000305176</ele>
        <time>2014-07-04T11:06:54.000Z</time>
      </trkpt>
      <trkpt lat="48.75287" lon="1.81625">
        <ele>143</ele>
        <time>2014-07-04T11:06:59.000Z</time>
      </trkpt>
      <trkpt lat="48.7529" lon="1.8163">
        <ele>142.80000305176</ele>
        <time>2014-07-04T11:07:01.000Z</time>
      </trkpt>
      <trkpt lat="48.75293" lon="1.81641">
        <ele>142.19999694824</ele>
        <time>2014-07-04T11:07:07.000Z</time>
      </trkpt>
      <trkpt lat="48.75297" lon="1.81645">
        <ele>141.80000305176</ele>
        <time>2014-07-04T11:07:11.000Z</time>
      </trkpt>
      <trkpt lat="48.75298" lon="1.81646">
        <ele>141.80000305176</ele>
        <time>2014-07-04T11:07:12.000Z</time>
      </trkpt>
      <trkpt lat="48.75308" lon="1.81656">
        <ele>141</ele>
        <time>2014-07-04T11:07:19.000Z</time>
      </trkpt>
      <trkpt lat="48.75314" lon="1.81666">
        <ele>140.19999694824</ele>
        <time>2014-07-04T11:07:25.000Z</time>
      </trkpt>
      <trkpt lat="48.75319" lon="1.81672">
        <ele>139.60000610352</ele>
        <time>2014-07-04T11:07:29.000Z</time>
      </trkpt>
      <trkpt lat="48.75325" lon="1.81689">
        <ele>138.39999389648</ele>
        <time>2014-07-04T11:07:36.000Z</time>
      </trkpt>
      <trkpt lat="48.7533" lon="1.81693">
        <ele>137.80000305176</ele>
        <time>2014-07-04T11:07:39.000Z</time>
      </trkpt>
      <trkpt lat="48.75337" lon="1.81701">
        <ele>137.19999694824</ele>
        <time>2014-07-04T11:07:45.000Z</time>
      </trkpt>
      <trkpt lat="48.75342" lon="1.81702">
        <ele>137</ele>
        <time>2014-07-04T11:07:48.000Z</time>
      </trkpt>
      <trkpt lat="48.7535" lon="1.81704">
        <ele>136.60000610352</ele>
        <time>2014-07-04T11:07:50.000Z</time>
      </trkpt>
      <trkpt lat="48.75362" lon="1.81719">
        <ele>135.80000305176</ele>
        <time>2014-07-04T11:07:57.000Z</time>
      </trkpt>
      <trkpt lat="48.75373" lon="1.8173">
        <ele>135.39999389648</ele>
        <time>2014-07-04T11:08:03.000Z</time>
      </trkpt>
      <trkpt lat="48.75376" lon="1.81736">
        <ele>135</ele>
        <time>2014-07-04T11:08:06.000Z</time>
      </trkpt>
      <trkpt lat="48.75379" lon="1.8174">
        <ele>134.80000305176</ele>
        <time>2014-07-04T11:08:08.000Z</time>
      </trkpt>
      <trkpt lat="48.7538" lon="1.81746">
        <ele>134.39999389648</ele>
        <time>2014-07-04T11:08:11.000Z</time>
      </trkpt>
      <trkpt lat="48.75383" lon="1.81754">
        <ele>133.80000305176</ele>
        <time>2014-07-04T11:08:17.000Z</time>
      </trkpt>
      <trkpt lat="48.75383" lon="1.81761">
        <ele>133.39999389648</ele>
        <time>2014-07-04T11:08:22.000Z</time>
      </trkpt>
      <trkpt lat="48.75392" lon="1.81769">
        <ele>133.19999694824</ele>
        <time>2014-07-04T11:08:28.000Z</time>
      </trkpt>
      <trkpt lat="48.75393" lon="1.81773">
        <ele>133</ele>
        <time>2014-07-04T11:08:30.000Z</time>
      </trkpt>
      <trkpt lat="48.75396" lon="1.8178">
        <ele>132.60000610352</ele>
        <time>2014-07-04T11:08:36.000Z</time>
      </trkpt>
      <trkpt lat="48.75399" lon="1.81782">
        <ele>132.39999389648</ele>
        <time>2014-07-04T11:08:38.000Z</time>
      </trkpt>
      <trkpt lat="48.75412" lon="1.81788">
        <ele>132.60000610352</ele>
        <time>2014-07-04T11:08:43.000Z</time>
      </trkpt>
      <trkpt lat="48.75418" lon="1.81792">
        <ele>132.39999389648</ele>
        <time>2014-07-04T11:08:47.000Z</time>
      </trkpt>
      <trkpt lat="48.75425" lon="1.81799">
        <ele>132.19999694824</ele>
        <time>2014-07-04T11:08:52.000Z</time>
      </trkpt>
      <trkpt lat="48.75426" lon="1.81811">
        <ele>131.39999389648</ele>
        <time>2014-07-04T11:08:58.000Z</time>
      </trkpt>
      <trkpt lat="48.75427" lon="1.81811">
        <ele>131.39999389648</ele>
        <time>2014-07-04T11:09:00.000Z</time>
      </trkpt>
      <trkpt lat="48.75424" lon="1.818">
        <ele>132</ele>
        <time>2014-07-04T11:09:04.000Z</time>
      </trkpt>
      <trkpt lat="48.75424" lon="1.81785">
        <ele>133.19999694824</ele>
        <time>2014-07-04T11:09:11.000Z</time>
      </trkpt>
      <trkpt lat="48.75421" lon="1.81775">
        <ele>133.80000305176</ele>
        <time>2014-07-04T11:09:16.000Z</time>
      </trkpt>
      <trkpt lat="48.75418" lon="1.81768">
        <ele>134.19999694824</ele>
        <time>2014-07-04T11:09:20.000Z</time>
      </trkpt>
      <trkpt lat="48.75415" lon="1.81763">
        <ele>134.39999389648</ele>
        <time>2014-07-04T11:09:24.000Z</time>
      </trkpt>
      <trkpt lat="48.75414" lon="1.81758">
        <ele>134.80000305176</ele>
        <time>2014-07-04T11:09:41.000Z</time>
      </trkpt>
      <trkpt lat="48.75416" lon="1.8175">
        <ele>135.39999389648</ele>
        <time>2014-07-04T11:10:23.000Z</time>
      </trkpt>
      <trkpt lat="48.75419" lon="1.81751">
        <ele>135.39999389648</ele>
        <time>2014-07-04T11:10:34.000Z</time>
      </trkpt>
      <trkpt lat="48.75414" lon="1.81757">
        <ele>134.80000305176</ele>
        <time>2014-07-04T11:10:46.000Z</time>
      </trkpt>
      <trkpt lat="48.75414" lon="1.8176">
        <ele>134.60000610352</ele>
        <time>2014-07-04T11:10:51.000Z</time>
      </trkpt>
      <trkpt lat="48.75412" lon="1.81763">
        <ele>134.39999389648</ele>
        <time>2014-07-04T11:10:57.000Z</time>
      </trkpt>
      <trkpt lat="48.75414" lon="1.81771">
        <ele>133.80000305176</ele>
        <time>2014-07-04T11:11:05.000Z</time>
      </trkpt>
      <trkpt lat="48.75415" lon="1.81771">
        <ele>133.80000305176</ele>
        <time>2014-07-04T11:11:07.000Z</time>
      </trkpt>
      <trkpt lat="48.75417" lon="1.81766">
        <ele>134.19999694824</ele>
        <time>2014-07-04T11:11:25.000Z</time>
      </trkpt>
      <trkpt lat="48.75417" lon="1.81764">
        <ele>134.39999389648</ele>
        <time>2014-07-04T11:11:30.000Z</time>
      </trkpt>
      <trkpt lat="48.75416" lon="1.81753">
        <ele>135.19999694824</ele>
        <time>2014-07-04T11:12:44.000Z</time>
      </trkpt>
      <trkpt lat="48.75416" lon="1.81745">
        <ele>135.80000305176</ele>
        <time>2014-07-04T11:12:47.000Z</time>
      </trkpt>
      <trkpt lat="48.75417" lon="1.81746">
        <ele>135.80000305176</ele>
        <time>2014-07-04T11:12:51.000Z</time>
      </trkpt>
      <trkpt lat="48.75417" lon="1.81751">
        <ele>135.39999389648</ele>
        <time>2014-07-04T11:12:58.000Z</time>
      </trkpt>
      <trkpt lat="48.75417" lon="1.81752">
        <ele>135.19999694824</ele>
        <time>2014-07-04T11:13:01.000Z</time>
      </trkpt>
      <trkpt lat="48.75418" lon="1.81748">
        <ele>135.60000610352</ele>
        <time>2014-07-04T11:13:34.000Z</time>
      </trkpt>
      <trkpt lat="48.75413" lon="1.81748">
        <ele>135.39999389648</ele>
        <time>2014-07-04T11:13:43.000Z</time>
      </trkpt>
      <trkpt lat="48.75414" lon="1.81744">
        <ele>135.80000305176</ele>
        <time>2014-07-04T11:13:49.000Z</time>
      </trkpt>
      <trkpt lat="48.75411" lon="1.81747">
        <ele>135.39999389648</ele>
        <time>2014-07-04T11:14:54.000Z</time>
      </trkpt>
      <trkpt lat="48.75409" lon="1.81746">
        <ele>135.39999389648</ele>
        <time>2014-07-04T11:14:57.000Z</time>
      </trkpt>
      <trkpt lat="48.75413" lon="1.81753">
        <ele>135</ele>
        <time>2014-07-04T11:15:34.000Z</time>
      </trkpt>
      <trkpt lat="48.75411" lon="1.81751">
        <ele>135.19999694824</ele>
        <time>2014-07-04T11:15:47.000Z</time>
      </trkpt>
      <trkpt lat="48.75409" lon="1.81753">
        <ele>135</ele>
        <time>2014-07-04T11:15:50.000Z</time>
      </trkpt>
      <trkpt lat="48.75401" lon="1.81745">
        <ele>135.19999694824</ele>
        <time>2014-07-04T11:16:01.000Z</time>
      </trkpt>
      <trkpt lat="48.75407" lon="1.81747">
        <ele>135.19999694824</ele>
        <time>2014-07-04T11:16:13.000Z</time>
      </trkpt>
      <trkpt lat="48.75413" lon="1.81752">
        <ele>135.19999694824</ele>
        <time>2014-07-04T11:16:23.000Z</time>
      </trkpt>
      <trkpt lat="48.7541" lon="1.81756">
        <ele>134.80000305176</ele>
        <time>2014-07-04T11:16:35.000Z</time>
      </trkpt>
      <trkpt lat="48.7542" lon="1.81744">
        <ele>136</ele>
        <time>2014-07-04T11:17:17.000Z</time>
      </trkpt>
      <trkpt lat="48.75418" lon="1.81742">
        <ele>136</ele>
        <time>2014-07-04T11:17:23.000Z</time>
      </trkpt>
      <trkpt lat="48.7542" lon="1.81715">
        <ele>137.80000305176</ele>
        <time>2014-07-04T11:18:19.000Z</time>
      </trkpt>
      <trkpt lat="48.75422" lon="1.81714">
        <ele>138</ele>
        <time>2014-07-04T11:18:22.000Z</time>
      </trkpt>
      <trkpt lat="48.75421" lon="1.81713">
        <ele>138</ele>
        <time>2014-07-04T11:18:23.000Z</time>
      </trkpt>
      <trkpt lat="48.7542" lon="1.81711">
        <ele>138</ele>
        <time>2014-07-04T11:18:26.000Z</time>
      </trkpt>
      <trkpt lat="48.7542" lon="1.81711">
        <ele>138</ele>
        <time>2014-07-04T11:18:27.000Z</time>
      </trkpt>
      <trkpt lat="48.75412" lon="1.81714">
        <ele>137.80000305176</ele>
        <time>2014-07-04T11:20:10.000Z</time>
      </trkpt>
      <trkpt lat="48.75416" lon="1.81716">
        <ele>137.80000305176</ele>
        <time>2014-07-04T11:20:24.000Z</time>
      </trkpt>
      <trkpt lat="48.75415" lon="1.81716">
        <ele>137.80000305176</ele>
        <time>2014-07-04T11:20:27.000Z</time>
      </trkpt>
      <trkpt lat="48.75415" lon="1.81714">
        <ele>137.80000305176</ele>
        <time>2014-07-04T11:20:30.000Z</time>
      </trkpt>
      <trkpt lat="48.75424" lon="1.81696">
        <ele>138.60000610352</ele>
        <time>2014-07-04T11:20:46.000Z</time>
      </trkpt>
      <trkpt lat="48.75424" lon="1.81698">
        <ele>138.39999389648</ele>
        <time>2014-07-04T11:20:49.000Z</time>
      </trkpt>
      <trkpt lat="48.75417" lon="1.81697">
        <ele>138.39999389648</ele>
        <time>2014-07-04T11:20:59.000Z</time>
      </trkpt>
      <trkpt lat="48.75413" lon="1.81693">
        <ele>138.60000610352</ele>
        <time>2014-07-04T11:21:06.000Z</time>
      </trkpt>
      <trkpt lat="48.7541" lon="1.81685">
        <ele>139</ele>
        <time>2014-07-04T11:21:12.000Z</time>
      </trkpt>
      <trkpt lat="48.75409" lon="1.81685">
        <ele>139</ele>
        <time>2014-07-04T11:21:15.000Z</time>
      </trkpt>
      <trkpt lat="48.75409" lon="1.81678">
        <ele>139.19999694824</ele>
        <time>2014-07-04T11:21:20.000Z</time>
      </trkpt>
      <trkpt lat="48.75408" lon="1.8167">
        <ele>139.39999389648</ele>
        <time>2014-07-04T11:21:22.000Z</time>
      </trkpt>
      <trkpt lat="48.75407" lon="1.81655">
        <ele>140</ele>
        <time>2014-07-04T11:21:29.000Z</time>
      </trkpt>
      <trkpt lat="48.75408" lon="1.81653">
        <ele>140</ele>
        <time>2014-07-04T11:21:30.000Z</time>
      </trkpt>
      <trkpt lat="48.75409" lon="1.81639">
        <ele>140.60000610352</ele>
        <time>2014-07-04T11:21:36.000Z</time>
      </trkpt>
      <trkpt lat="48.7541" lon="1.81637">
        <ele>140.60000610352</ele>
        <time>2014-07-04T11:21:37.000Z</time>
      </trkpt>
      <trkpt lat="48.7541" lon="1.8163">
        <ele>140.80000305176</ele>
        <time>2014-07-04T11:21:40.000Z</time>
      </trkpt>
      <trkpt lat="48.75414" lon="1.81617">
        <ele>140.80000305176</ele>
        <time>2014-07-04T11:21:46.000Z</time>
      </trkpt>
      <trkpt lat="48.75412" lon="1.81612">
        <ele>141</ele>
        <time>2014-07-04T11:21:50.000Z</time>
      </trkpt>
      <trkpt lat="48.75414" lon="1.81604">
        <ele>140.80000305176</ele>
        <time>2014-07-04T11:21:53.000Z</time>
      </trkpt>
      <trkpt lat="48.75416" lon="1.81594">
        <ele>140.80000305176</ele>
        <time>2014-07-04T11:21:58.000Z</time>
      </trkpt>
      <trkpt lat="48.75415" lon="1.81583">
        <ele>140.80000305176</ele>
        <time>2014-07-04T11:22:03.000Z</time>
      </trkpt>
      <trkpt lat="48.75418" lon="1.81571">
        <ele>140.80000305176</ele>
        <time>2014-07-04T11:22:09.000Z</time>
      </trkpt>
      <trkpt lat="48.75419" lon="1.81569">
        <ele>140.80000305176</ele>
        <time>2014-07-04T11:22:10.000Z</time>
      </trkpt>
      <trkpt lat="48.7542" lon="1.81555">
        <ele>141</ele>
        <time>2014-07-04T11:22:15.000Z</time>
      </trkpt>
      <trkpt lat="48.75422" lon="1.81551">
        <ele>141</ele>
        <time>2014-07-04T11:22:17.000Z</time>
      </trkpt>
      <trkpt lat="48.75437" lon="1.81534">
        <ele>141</ele>
        <time>2014-07-04T11:22:23.000Z</time>
      </trkpt>
      <trkpt lat="48.7544" lon="1.81527">
        <ele>141.60000610352</ele>
        <time>2014-07-04T11:22:27.000Z</time>
      </trkpt>
      <trkpt lat="48.75439" lon="1.81522">
        <ele>141.60000610352</ele>
        <time>2014-07-04T11:22:31.000Z</time>
      </trkpt>
      <trkpt lat="48.75436" lon="1.81516">
        <ele>141.39999389648</ele>
        <time>2014-07-04T11:22:34.000Z</time>
      </trkpt>
      <trkpt lat="48.75438" lon="1.81506">
        <ele>141.60000610352</ele>
        <time>2014-07-04T11:22:39.000Z</time>
      </trkpt>
      <trkpt lat="48.75442" lon="1.81497">
        <ele>142.60000610352</ele>
        <time>2014-07-04T11:22:43.000Z</time>
      </trkpt>
      <trkpt lat="48.75445" lon="1.81486">
        <ele>143</ele>
        <time>2014-07-04T11:22:48.000Z</time>
      </trkpt>
      <trkpt lat="48.75448" lon="1.81477">
        <ele>143.80000305176</ele>
        <time>2014-07-04T11:22:52.000Z</time>
      </trkpt>
      <trkpt lat="48.7545" lon="1.81457">
        <ele>145.19999694824</ele>
        <time>2014-07-04T11:23:00.000Z</time>
      </trkpt>
      <trkpt lat="48.75453" lon="1.81448">
        <ele>146.19999694824</ele>
        <time>2014-07-04T11:23:05.000Z</time>
      </trkpt>
      <trkpt lat="48.75461" lon="1.81437">
        <ele>147.60000610352</ele>
        <time>2014-07-04T11:23:11.000Z</time>
      </trkpt>
      <trkpt lat="48.75463" lon="1.81426">
        <ele>148</ele>
        <time>2014-07-04T11:23:17.000Z</time>
      </trkpt>
      <trkpt lat="48.75473" lon="1.81417">
        <ele>147.80000305176</ele>
        <time>2014-07-04T11:23:23.000Z</time>
      </trkpt>
      <trkpt lat="48.75483" lon="1.81404">
        <ele>147.60000610352</ele>
        <time>2014-07-04T11:23:29.000Z</time>
      </trkpt>
      <trkpt lat="48.75486" lon="1.81398">
        <ele>147.80000305176</ele>
        <time>2014-07-04T11:23:34.000Z</time>
      </trkpt>
      <trkpt lat="48.75489" lon="1.81391">
        <ele>148</ele>
        <time>2014-07-04T11:23:38.000Z</time>
      </trkpt>
      <trkpt lat="48.75492" lon="1.81387">
        <ele>148</ele>
        <time>2014-07-04T11:23:42.000Z</time>
      </trkpt>
      <trkpt lat="48.75496" lon="1.81382">
        <ele>148.19999694824</ele>
        <time>2014-07-04T11:23:47.000Z</time>
      </trkpt>
      <trkpt lat="48.75501" lon="1.81372">
        <ele>148</ele>
        <time>2014-07-04T11:23:52.000Z</time>
      </trkpt>
      <trkpt lat="48.75505" lon="1.81365">
        <ele>147.80000305176</ele>
        <time>2014-07-04T11:23:56.000Z</time>
      </trkpt>
      <trkpt lat="48.75508" lon="1.81353">
        <ele>147.60000610352</ele>
        <time>2014-07-04T11:24:02.000Z</time>
      </trkpt>
      <trkpt lat="48.75512" lon="1.81338">
        <ele>147.39999389648</ele>
        <time>2014-07-04T11:24:08.000Z</time>
      </trkpt>
      <trkpt lat="48.75516" lon="1.81333">
        <ele>147.19999694824</ele>
        <time>2014-07-04T11:24:11.000Z</time>
      </trkpt>
      <trkpt lat="48.75518" lon="1.81325">
        <ele>147.19999694824</ele>
        <time>2014-07-04T11:24:15.000Z</time>
      </trkpt>
      <trkpt lat="48.75524" lon="1.81313">
        <ele>147.80000305176</ele>
        <time>2014-07-04T11:24:22.000Z</time>
      </trkpt>
      <trkpt lat="48.75531" lon="1.81302">
        <ele>149.19999694824</ele>
        <time>2014-07-04T11:24:28.000Z</time>
      </trkpt>
      <trkpt lat="48.75533" lon="1.81297">
        <ele>149.60000610352</ele>
        <time>2014-07-04T11:24:33.000Z</time>
      </trkpt>
      <trkpt lat="48.75538" lon="1.81288">
        <ele>150.60000610352</ele>
        <time>2014-07-04T11:24:39.000Z</time>
      </trkpt>
      <trkpt lat="48.7554" lon="1.8128">
        <ele>151.39999389648</ele>
        <time>2014-07-04T11:24:44.000Z</time>
      </trkpt>
      <trkpt lat="48.75545" lon="1.81269">
        <ele>152.39999389648</ele>
        <time>2014-07-04T11:24:50.000Z</time>
      </trkpt>
      <trkpt lat="48.75559" lon="1.81261">
        <ele>152</ele>
        <time>2014-07-04T11:24:56.000Z</time>
      </trkpt>
      <trkpt lat="48.75558" lon="1.81257">
        <ele>151.80000305176</ele>
        <time>2014-07-04T11:24:59.000Z</time>
      </trkpt>
      <trkpt lat="48.75562" lon="1.81249">
        <ele>150.80000305176</ele>
        <time>2014-07-04T11:25:04.000Z</time>
      </trkpt>
      <trkpt lat="48.75571" lon="1.81244">
        <ele>150</ele>
        <time>2014-07-04T11:25:09.000Z</time>
      </trkpt>
      <trkpt lat="48.75578" lon="1.81236">
        <ele>149.39999389648</ele>
        <time>2014-07-04T11:25:15.000Z</time>
      </trkpt>
      <trkpt lat="48.75578" lon="1.81236">
        <ele>149.39999389648</ele>
        <time>2014-07-04T11:25:17.000Z</time>
      </trkpt>
      <trkpt lat="48.75577" lon="1.81228">
        <ele>150</ele>
        <time>2014-07-04T11:25:23.000Z</time>
      </trkpt>
      <trkpt lat="48.75579" lon="1.81225">
        <ele>150</ele>
        <time>2014-07-04T11:25:27.000Z</time>
      </trkpt>
      <trkpt lat="48.75579" lon="1.81225">
        <ele>150</ele>
        <time>2014-07-04T11:25:30.000Z</time>
      </trkpt>
      <trkpt lat="48.75581" lon="1.81216">
        <ele>150.39999389648</ele>
        <time>2014-07-04T11:25:46.000Z</time>
      </trkpt>
      <trkpt lat="48.75577" lon="1.81221">
        <ele>150.39999389648</ele>
        <time>2014-07-04T11:25:49.000Z</time>
      </trkpt>
      <trkpt lat="48.75577" lon="1.81225">
        <ele>150.19999694824</ele>
        <time>2014-07-04T11:25:52.000Z</time>
      </trkpt>
      <trkpt lat="48.75579" lon="1.81235">
        <ele>149.39999389648</ele>
        <time>2014-07-04T11:25:59.000Z</time>
      </trkpt>
      <trkpt lat="48.75581" lon="1.81237">
        <ele>149.19999694824</ele>
        <time>2014-07-04T11:26:01.000Z</time>
      </trkpt>
      <trkpt lat="48.75588" lon="1.81233">
        <ele>149</ele>
        <time>2014-07-04T11:26:05.000Z</time>
      </trkpt>
      <trkpt lat="48.75592" lon="1.81228">
        <ele>149.19999694824</ele>
        <time>2014-07-04T11:26:08.000Z</time>
      </trkpt>
      <trkpt lat="48.75591" lon="1.81221">
        <ele>149.80000305176</ele>
        <time>2014-07-04T11:26:13.000Z</time>
      </trkpt>
      <trkpt lat="48.75598" lon="1.81211">
        <ele>150.19999694824</ele>
        <time>2014-07-04T11:26:20.000Z</time>
      </trkpt>
      <trkpt lat="48.75604" lon="1.81196">
        <ele>151</ele>
        <time>2014-07-04T11:26:26.000Z</time>
      </trkpt>
      <trkpt lat="48.75603" lon="1.81192">
        <ele>151.39999389648</ele>
        <time>2014-07-04T11:26:29.000Z</time>
      </trkpt>
      <trkpt lat="48.75603" lon="1.81187">
        <ele>151.80000305176</ele>
        <time>2014-07-04T11:26:31.000Z</time>
      </trkpt>
      <trkpt lat="48.75615" lon="1.81171">
        <ele>155.39999389648</ele>
        <time>2014-07-04T11:26:39.000Z</time>
      </trkpt>
      <trkpt lat="48.75624" lon="1.81159">
        <ele>156</ele>
        <time>2014-07-04T11:26:45.000Z</time>
      </trkpt>
      <trkpt lat="48.75628" lon="1.81148">
        <ele>156.39999389648</ele>
        <time>2014-07-04T11:26:51.000Z</time>
      </trkpt>
      <trkpt lat="48.75632" lon="1.8114">
        <ele>157</ele>
        <time>2014-07-04T11:26:55.000Z</time>
      </trkpt>
      <trkpt lat="48.75632" lon="1.81136">
        <ele>157.19999694824</ele>
        <time>2014-07-04T11:26:58.000Z</time>
      </trkpt>
      <trkpt lat="48.75637" lon="1.81126">
        <ele>158.19999694824</ele>
        <time>2014-07-04T11:27:04.000Z</time>
      </trkpt>
      <trkpt lat="48.75649" lon="1.81119">
        <ele>159.60000610352</ele>
        <time>2014-07-04T11:27:13.000Z</time>
      </trkpt>
      <trkpt lat="48.75653" lon="1.81118">
        <ele>159.60000610352</ele>
        <time>2014-07-04T11:27:21.000Z</time>
      </trkpt>
      <trkpt lat="48.75652" lon="1.81117">
        <ele>159.60000610352</ele>
        <time>2014-07-04T11:27:29.000Z</time>
      </trkpt>
      <trkpt lat="48.75659" lon="1.8112">
        <ele>159.80000305176</ele>
        <time>2014-07-04T11:28:02.000Z</time>
      </trkpt>
      <trkpt lat="48.7566" lon="1.81117">
        <ele>159.60000610352</ele>
        <time>2014-07-04T11:28:06.000Z</time>
      </trkpt>
      <trkpt lat="48.75659" lon="1.81116">
        <ele>159.60000610352</ele>
        <time>2014-07-04T11:28:09.000Z</time>
      </trkpt>
      <trkpt lat="48.75653" lon="1.8111">
        <ele>159.39999389648</ele>
        <time>2014-07-04T11:28:20.000Z</time>
      </trkpt>
      <trkpt lat="48.75652" lon="1.81106">
        <ele>159.19999694824</ele>
        <time>2014-07-04T11:28:22.000Z</time>
      </trkpt>
      <trkpt lat="48.75652" lon="1.81101">
        <ele>159</ele>
        <time>2014-07-04T11:28:28.000Z</time>
      </trkpt>
      <trkpt lat="48.75655" lon="1.81092">
        <ele>158.80000305176</ele>
        <time>2014-07-04T11:28:37.000Z</time>
      </trkpt>
      <trkpt lat="48.75659" lon="1.81081">
        <ele>158.39999389648</ele>
        <time>2014-07-04T11:28:43.000Z</time>
      </trkpt>
      <trkpt lat="48.75661" lon="1.8108">
        <ele>158.19999694824</ele>
        <time>2014-07-04T11:28:46.000Z</time>
      </trkpt>
      <trkpt lat="48.75664" lon="1.81072">
        <ele>158</ele>
        <time>2014-07-04T11:28:50.000Z</time>
      </trkpt>
      <trkpt lat="48.75664" lon="1.81067">
        <ele>158.19999694824</ele>
        <time>2014-07-04T11:28:52.000Z</time>
      </trkpt>
      <trkpt lat="48.75666" lon="1.81059">
        <ele>158.39999389648</ele>
        <time>2014-07-04T11:28:55.000Z</time>
      </trkpt>
      <trkpt lat="48.7567" lon="1.81047">
        <ele>158.60000610352</ele>
        <time>2014-07-04T11:29:01.000Z</time>
      </trkpt>
      <trkpt lat="48.75673" lon="1.81039">
        <ele>158.39999389648</ele>
        <time>2014-07-04T11:29:05.000Z</time>
      </trkpt>
      <trkpt lat="48.75673" lon="1.81023">
        <ele>158.19999694824</ele>
        <time>2014-07-04T11:29:11.000Z</time>
      </trkpt>
      <trkpt lat="48.75677" lon="1.81014">
        <ele>157.80000305176</ele>
        <time>2014-07-04T11:29:16.000Z</time>
      </trkpt>
      <trkpt lat="48.75679" lon="1.81005">
        <ele>157.60000610352</ele>
        <time>2014-07-04T11:29:20.000Z</time>
      </trkpt>
      <trkpt lat="48.75686" lon="1.80995">
        <ele>157.19999694824</ele>
        <time>2014-07-04T11:29:26.000Z</time>
      </trkpt>
      <trkpt lat="48.75691" lon="1.8099">
        <ele>157.60000610352</ele>
        <time>2014-07-04T11:29:32.000Z</time>
      </trkpt>
      <trkpt lat="48.757" lon="1.80985">
        <ele>158.60000610352</ele>
        <time>2014-07-04T11:29:37.000Z</time>
      </trkpt>
      <trkpt lat="48.75706" lon="1.80978">
        <ele>159.39999389648</ele>
        <time>2014-07-04T11:29:42.000Z</time>
      </trkpt>
      <trkpt lat="48.7571" lon="1.80968">
        <ele>160.19999694824</ele>
        <time>2014-07-04T11:29:47.000Z</time>
      </trkpt>
      <trkpt lat="48.75717" lon="1.80961">
        <ele>161.19999694824</ele>
        <time>2014-07-04T11:29:52.000Z</time>
      </trkpt>
      <trkpt lat="48.75723" lon="1.80957">
        <ele>162</ele>
        <time>2014-07-04T11:29:56.000Z</time>
      </trkpt>
      <trkpt lat="48.75726" lon="1.80947">
        <ele>162.60000610352</ele>
        <time>2014-07-04T11:30:01.000Z</time>
      </trkpt>
      <trkpt lat="48.75728" lon="1.80939">
        <ele>162.39999389648</ele>
        <time>2014-07-04T11:30:05.000Z</time>
      </trkpt>
      <trkpt lat="48.75728" lon="1.80935">
        <ele>162.19999694824</ele>
        <time>2014-07-04T11:30:07.000Z</time>
      </trkpt>
      <trkpt lat="48.75729" lon="1.80931">
        <ele>161.80000305176</ele>
        <time>2014-07-04T11:30:09.000Z</time>
      </trkpt>
      <trkpt lat="48.75734" lon="1.80917">
        <ele>161</ele>
        <time>2014-07-04T11:30:16.000Z</time>
      </trkpt>
      <trkpt lat="48.7574" lon="1.80912">
        <ele>160.80000305176</ele>
        <time>2014-07-04T11:30:21.000Z</time>
      </trkpt>
      <trkpt lat="48.75742" lon="1.80909">
        <ele>160.60000610352</ele>
        <time>2014-07-04T11:30:23.000Z</time>
      </trkpt>
      <trkpt lat="48.75746" lon="1.80901">
        <ele>160.60000610352</ele>
        <time>2014-07-04T11:30:28.000Z</time>
      </trkpt>
      <trkpt lat="48.7575" lon="1.80894">
        <ele>160.80000305176</ele>
        <time>2014-07-04T11:30:32.000Z</time>
      </trkpt>
      <trkpt lat="48.75761" lon="1.80885">
        <ele>160.80000305176</ele>
        <time>2014-07-04T11:30:37.000Z</time>
      </trkpt>
      <trkpt lat="48.7577" lon="1.80875">
        <ele>160.39999389648</ele>
        <time>2014-07-04T11:30:43.000Z</time>
      </trkpt>
      <trkpt lat="48.7577" lon="1.80873">
        <ele>160.19999694824</ele>
        <time>2014-07-04T11:30:44.000Z</time>
      </trkpt>
      <trkpt lat="48.75773" lon="1.80867">
        <ele>160.60000610352</ele>
        <time>2014-07-04T11:30:47.000Z</time>
      </trkpt>
      <trkpt lat="48.75773" lon="1.80851">
        <ele>160</ele>
        <time>2014-07-04T11:30:53.000Z</time>
      </trkpt>
      <trkpt lat="48.75774" lon="1.80849">
        <ele>160.19999694824</ele>
        <time>2014-07-04T11:30:54.000Z</time>
      </trkpt>
      <trkpt lat="48.75775" lon="1.80835">
        <ele>160</ele>
        <time>2014-07-04T11:31:00.000Z</time>
      </trkpt>
      <trkpt lat="48.75777" lon="1.8083">
        <ele>160.39999389648</ele>
        <time>2014-07-04T11:31:03.000Z</time>
      </trkpt>
      <trkpt lat="48.75777" lon="1.80818">
        <ele>160</ele>
        <time>2014-07-04T11:31:08.000Z</time>
      </trkpt>
      <trkpt lat="48.75779" lon="1.8081">
        <ele>160.19999694824</ele>
        <time>2014-07-04T11:31:12.000Z</time>
      </trkpt>
      <trkpt lat="48.75782" lon="1.808">
        <ele>160.80000305176</ele>
        <time>2014-07-04T11:31:17.000Z</time>
      </trkpt>
      <trkpt lat="48.75788" lon="1.80798">
        <ele>161.60000610352</ele>
        <time>2014-07-04T11:31:20.000Z</time>
      </trkpt>
      <trkpt lat="48.75789" lon="1.80793">
        <ele>162</ele>
        <time>2014-07-04T11:31:22.000Z</time>
      </trkpt>
      <trkpt lat="48.75793" lon="1.80787">
        <ele>162.60000610352</ele>
        <time>2014-07-04T11:31:25.000Z</time>
      </trkpt>
      <trkpt lat="48.75801" lon="1.80773">
        <ele>163.80000305176</ele>
        <time>2014-07-04T11:31:32.000Z</time>
      </trkpt>
      <trkpt lat="48.75802" lon="1.80764">
        <ele>164</ele>
        <time>2014-07-04T11:31:37.000Z</time>
      </trkpt>
      <trkpt lat="48.75806" lon="1.80751">
        <ele>163.80000305176</ele>
        <time>2014-07-04T11:31:43.000Z</time>
      </trkpt>
      <trkpt lat="48.7581" lon="1.80743">
        <ele>164</ele>
        <time>2014-07-04T11:31:48.000Z</time>
      </trkpt>
      <trkpt lat="48.75812" lon="1.80733">
        <ele>164</ele>
        <time>2014-07-04T11:31:53.000Z</time>
      </trkpt>
      <trkpt lat="48.75827" lon="1.80713">
        <ele>165.60000610352</ele>
        <time>2014-07-04T11:32:00.000Z</time>
      </trkpt>
      <trkpt lat="48.75831" lon="1.80704">
        <ele>166</ele>
        <time>2014-07-04T11:32:03.000Z</time>
      </trkpt>
      <trkpt lat="48.75829" lon="1.80688">
        <ele>165.60000610352</ele>
        <time>2014-07-04T11:32:10.000Z</time>
      </trkpt>
      <trkpt lat="48.7583" lon="1.80685">
        <ele>165.60000610352</ele>
        <time>2014-07-04T11:32:12.000Z</time>
      </trkpt>
      <trkpt lat="48.75833" lon="1.80681">
        <ele>165.80000305176</ele>
        <time>2014-07-04T11:32:14.000Z</time>
      </trkpt>
      <trkpt lat="48.75838" lon="1.80675">
        <ele>166</ele>
        <time>2014-07-04T11:32:19.000Z</time>
      </trkpt>
      <trkpt lat="48.75841" lon="1.80668">
        <ele>166.19999694824</ele>
        <time>2014-07-04T11:32:23.000Z</time>
      </trkpt>
      <trkpt lat="48.75843" lon="1.80665">
        <ele>166.19999694824</ele>
        <time>2014-07-04T11:32:25.000Z</time>
      </trkpt>
      <trkpt lat="48.75845" lon="1.80662">
        <ele>166.39999389648</ele>
        <time>2014-07-04T11:32:29.000Z</time>
      </trkpt>
      <trkpt lat="48.75849" lon="1.80662">
        <ele>166.60000610352</ele>
        <time>2014-07-04T11:32:32.000Z</time>
      </trkpt>
      <trkpt lat="48.75857" lon="1.80665">
        <ele>167.60000610352</ele>
        <time>2014-07-04T11:32:36.000Z</time>
      </trkpt>
      <trkpt lat="48.75873" lon="1.80671">
        <ele>170.80000305176</ele>
        <time>2014-07-04T11:32:42.000Z</time>
      </trkpt>
      <trkpt lat="48.7588" lon="1.80675">
        <ele>172.19999694824</ele>
        <time>2014-07-04T11:32:45.000Z</time>
      </trkpt>
      <trkpt lat="48.75888" lon="1.80679">
        <ele>173.80000305176</ele>
        <time>2014-07-04T11:32:51.000Z</time>
      </trkpt>
      <trkpt lat="48.75892" lon="1.80687">
        <ele>174.60000610352</ele>
        <time>2014-07-04T11:32:55.000Z</time>
      </trkpt>
      <trkpt lat="48.75893" lon="1.80688">
        <ele>174.80000305176</ele>
        <time>2014-07-04T11:32:57.000Z</time>
      </trkpt>
      <trkpt lat="48.75901" lon="1.8069">
        <ele>176.19999694824</ele>
        <time>2014-07-04T11:33:03.000Z</time>
      </trkpt>
      <trkpt lat="48.75908" lon="1.80695">
        <ele>177.80000305176</ele>
        <time>2014-07-04T11:33:08.000Z</time>
      </trkpt>
      <trkpt lat="48.75909" lon="1.80695">
        <ele>178</ele>
        <time>2014-07-04T11:33:10.000Z</time>
      </trkpt>
      <trkpt lat="48.75914" lon="1.80693">
        <ele>178.80000305176</ele>
        <time>2014-07-04T11:33:15.000Z</time>
      </trkpt>
      <trkpt lat="48.75917" lon="1.80692">
        <ele>179.60000610352</ele>
        <time>2014-07-04T11:33:18.000Z</time>
      </trkpt>
      <trkpt lat="48.75927" lon="1.80698">
        <ele>181.39999389648</ele>
        <time>2014-07-04T11:33:23.000Z</time>
      </trkpt>
      <trkpt lat="48.7593" lon="1.807">
        <ele>182</ele>
        <time>2014-07-04T11:33:24.000Z</time>
      </trkpt>
      <trkpt lat="48.75937" lon="1.80706">
        <ele>183.39999389648</ele>
        <time>2014-07-04T11:33:29.000Z</time>
      </trkpt>
      <trkpt lat="48.75926" lon="1.80698">
        <ele>181.19999694824</ele>
        <time>2014-07-04T11:33:35.000Z</time>
      </trkpt>
      <trkpt lat="48.75908" lon="1.8069">
        <ele>177.60000610352</ele>
        <time>2014-07-04T11:33:41.000Z</time>
      </trkpt>
      <trkpt lat="48.75901" lon="1.80682">
        <ele>176.19999694824</ele>
        <time>2014-07-04T11:33:46.000Z</time>
      </trkpt>
      <trkpt lat="48.7589" lon="1.80677">
        <ele>174.19999694824</ele>
        <time>2014-07-04T11:33:52.000Z</time>
      </trkpt>
      <trkpt lat="48.75888" lon="1.80675">
        <ele>173.60000610352</ele>
        <time>2014-07-04T11:33:54.000Z</time>
      </trkpt>
      <trkpt lat="48.75882" lon="1.80655">
        <ele>172.19999694824</ele>
        <time>2014-07-04T11:34:01.000Z</time>
      </trkpt>
      <trkpt lat="48.75881" lon="1.80643">
        <ele>172</ele>
        <time>2014-07-04T11:34:05.000Z</time>
      </trkpt>
      <trkpt lat="48.75882" lon="1.80629">
        <ele>172</ele>
        <time>2014-07-04T11:34:10.000Z</time>
      </trkpt>
      <trkpt lat="48.75882" lon="1.8062">
        <ele>171.80000305176</ele>
        <time>2014-07-04T11:34:14.000Z</time>
      </trkpt>
      <trkpt lat="48.7588" lon="1.80602">
        <ele>171.19999694824</ele>
        <time>2014-07-04T11:34:21.000Z</time>
      </trkpt>
      <trkpt lat="48.75876" lon="1.80589">
        <ele>170.39999389648</ele>
        <time>2014-07-04T11:34:27.000Z</time>
      </trkpt>
      <trkpt lat="48.75874" lon="1.80583">
        <ele>169.80000305176</ele>
        <time>2014-07-04T11:34:30.000Z</time>
      </trkpt>
      <trkpt lat="48.75873" lon="1.80575">
        <ele>169.39999389648</ele>
        <time>2014-07-04T11:34:35.000Z</time>
      </trkpt>
      <trkpt lat="48.75872" lon="1.80575">
        <ele>169.39999389648</ele>
        <time>2014-07-04T11:34:38.000Z</time>
      </trkpt>
      <trkpt lat="48.75878" lon="1.80575">
        <ele>170.39999389648</ele>
        <time>2014-07-04T11:35:55.000Z</time>
      </trkpt>
      <trkpt lat="48.75874" lon="1.80582">
        <ele>169.80000305176</ele>
        <time>2014-07-04T11:35:59.000Z</time>
      </trkpt>
      <trkpt lat="48.7587" lon="1.80595">
        <ele>169.19999694824</ele>
        <time>2014-07-04T11:36:06.000Z</time>
      </trkpt>
      <trkpt lat="48.75874" lon="1.80608">
        <ele>170.19999694824</ele>
        <time>2014-07-04T11:36:13.000Z</time>
      </trkpt>
      <trkpt lat="48.75877" lon="1.80622">
        <ele>171</ele>
        <time>2014-07-04T11:36:19.000Z</time>
      </trkpt>
      <trkpt lat="48.75878" lon="1.80635">
        <ele>171.19999694824</ele>
        <time>2014-07-04T11:36:25.000Z</time>
      </trkpt>
      <trkpt lat="48.75878" lon="1.80641">
        <ele>171.39999389648</ele>
        <time>2014-07-04T11:36:28.000Z</time>
      </trkpt>
      <trkpt lat="48.75881" lon="1.80653">
        <ele>172.19999694824</ele>
        <time>2014-07-04T11:36:34.000Z</time>
      </trkpt>
      <trkpt lat="48.75883" lon="1.80655">
        <ele>172.39999389648</ele>
        <time>2014-07-04T11:36:36.000Z</time>
      </trkpt>
      <trkpt lat="48.7589" lon="1.80661">
        <ele>174</ele>
        <time>2014-07-04T11:36:41.000Z</time>
      </trkpt>
      <trkpt lat="48.75893" lon="1.80662">
        <ele>174.60000610352</ele>
        <time>2014-07-04T11:36:43.000Z</time>
      </trkpt>
      <trkpt lat="48.75897" lon="1.80665">
        <ele>175.19999694824</ele>
        <time>2014-07-04T11:36:49.000Z</time>
      </trkpt>
      <trkpt lat="48.75896" lon="1.80665">
        <ele>175.19999694824</ele>
        <time>2014-07-04T11:36:51.000Z</time>
      </trkpt>
      <trkpt lat="48.75895" lon="1.80671">
        <ele>175</ele>
        <time>2014-07-04T11:36:55.000Z</time>
      </trkpt>
      <trkpt lat="48.75893" lon="1.80675">
        <ele>174.60000610352</ele>
        <time>2014-07-04T11:36:56.000Z</time>
      </trkpt>
      <trkpt lat="48.75887" lon="1.80688">
        <ele>173.60000610352</ele>
        <time>2014-07-04T11:37:02.000Z</time>
      </trkpt>
      <trkpt lat="48.75881" lon="1.80686">
        <ele>172.60000610352</ele>
        <time>2014-07-04T11:37:05.000Z</time>
      </trkpt>
      <trkpt lat="48.75877" lon="1.8068">
        <ele>171.60000610352</ele>
        <time>2014-07-04T11:37:09.000Z</time>
      </trkpt>
      <trkpt lat="48.7587" lon="1.80675">
        <ele>170.19999694824</ele>
        <time>2014-07-04T11:37:15.000Z</time>
      </trkpt>
      <trkpt lat="48.75868" lon="1.80673">
        <ele>169.80000305176</ele>
        <time>2014-07-04T11:37:17.000Z</time>
      </trkpt>
      <trkpt lat="48.75863" lon="1.80669">
        <ele>168.80000305176</ele>
        <time>2014-07-04T11:37:22.000Z</time>
      </trkpt>
      <trkpt lat="48.75858" lon="1.80665">
        <ele>167.80000305176</ele>
        <time>2014-07-04T11:37:26.000Z</time>
      </trkpt>
      <trkpt lat="48.75849" lon="1.80659">
        <ele>166.60000610352</ele>
        <time>2014-07-04T11:37:34.000Z</time>
      </trkpt>
      <trkpt lat="48.75847" lon="1.80659">
        <ele>166.60000610352</ele>
        <time>2014-07-04T11:37:36.000Z</time>
      </trkpt>
      <trkpt lat="48.75841" lon="1.80651">
        <ele>166.19999694824</ele>
        <time>2014-07-04T11:37:43.000Z</time>
      </trkpt>
      <trkpt lat="48.75837" lon="1.80643">
        <ele>166</ele>
        <time>2014-07-04T11:37:48.000Z</time>
      </trkpt>
      <trkpt lat="48.75836" lon="1.80642">
        <ele>166</ele>
        <time>2014-07-04T11:37:49.000Z</time>
      </trkpt>
      <trkpt lat="48.75832" lon="1.80631">
        <ele>166</ele>
        <time>2014-07-04T11:37:55.000Z</time>
      </trkpt>
      <trkpt lat="48.75827" lon="1.80619">
        <ele>165.60000610352</ele>
        <time>2014-07-04T11:38:02.000Z</time>
      </trkpt>
      <trkpt lat="48.75826" lon="1.80605">
        <ele>165.39999389648</ele>
        <time>2014-07-04T11:38:09.000Z</time>
      </trkpt>
      <trkpt lat="48.75827" lon="1.80596">
        <ele>165.19999694824</ele>
        <time>2014-07-04T11:38:14.000Z</time>
      </trkpt>
      <trkpt lat="48.75822" lon="1.80582">
        <ele>165</ele>
        <time>2014-07-04T11:38:20.000Z</time>
      </trkpt>
      <trkpt lat="48.75818" lon="1.8057">
        <ele>164.60000610352</ele>
        <time>2014-07-04T11:38:26.000Z</time>
      </trkpt>
      <trkpt lat="48.75819" lon="1.80559">
        <ele>164.60000610352</ele>
        <time>2014-07-04T11:38:32.000Z</time>
      </trkpt>
      <trkpt lat="48.75815" lon="1.80549">
        <ele>164.39999389648</ele>
        <time>2014-07-04T11:38:37.000Z</time>
      </trkpt>
      <trkpt lat="48.75813" lon="1.80545">
        <ele>164.19999694824</ele>
        <time>2014-07-04T11:38:42.000Z</time>
      </trkpt>
      <trkpt lat="48.75819" lon="1.80554">
        <ele>164.60000610352</ele>
        <time>2014-07-04T11:41:19.000Z</time>
      </trkpt>
      <trkpt lat="48.75823" lon="1.80548">
        <ele>164.60000610352</ele>
        <time>2014-07-04T11:41:23.000Z</time>
      </trkpt>
      <trkpt lat="48.75825" lon="1.80534">
        <ele>164.39999389648</ele>
        <time>2014-07-04T11:41:30.000Z</time>
      </trkpt>
      <trkpt lat="48.7583" lon="1.80518">
        <ele>164.19999694824</ele>
        <time>2014-07-04T11:41:38.000Z</time>
      </trkpt>
      <trkpt lat="48.75831" lon="1.80513">
        <ele>164</ele>
        <time>2014-07-04T11:41:40.000Z</time>
      </trkpt>
      <trkpt lat="48.75835" lon="1.80498">
        <ele>163.80000305176</ele>
        <time>2014-07-04T11:41:47.000Z</time>
      </trkpt>
      <trkpt lat="48.75837" lon="1.80487">
        <ele>163.60000610352</ele>
        <time>2014-07-04T11:41:53.000Z</time>
      </trkpt>
      <trkpt lat="48.75836" lon="1.80478">
        <ele>163.60000610352</ele>
        <time>2014-07-04T11:41:57.000Z</time>
      </trkpt>
      <trkpt lat="48.75825" lon="1.80467">
        <ele>163.60000610352</ele>
        <time>2014-07-04T11:42:05.000Z</time>
      </trkpt>
      <trkpt lat="48.75815" lon="1.80464">
        <ele>163.39999389648</ele>
        <time>2014-07-04T11:42:12.000Z</time>
      </trkpt>
      <trkpt lat="48.7581" lon="1.80461">
        <ele>163.19999694824</ele>
        <time>2014-07-04T11:42:16.000Z</time>
      </trkpt>
      <trkpt lat="48.75809" lon="1.8045">
        <ele>163.39999389648</ele>
        <time>2014-07-04T11:42:21.000Z</time>
      </trkpt>
      <trkpt lat="48.7581" lon="1.80439">
        <ele>163.60000610352</ele>
        <time>2014-07-04T11:42:26.000Z</time>
      </trkpt>
      <trkpt lat="48.75811" lon="1.80439">
        <ele>163.60000610352</ele>
        <time>2014-07-04T11:42:30.000Z</time>
      </trkpt>
      <trkpt lat="48.75813" lon="1.80439">
        <ele>163.60000610352</ele>
        <time>2014-07-04T11:43:43.000Z</time>
      </trkpt>
      <trkpt lat="48.75814" lon="1.80432">
        <ele>163.80000305176</ele>
        <time>2014-07-04T11:43:47.000Z</time>
      </trkpt>
      <trkpt lat="48.75814" lon="1.80429">
        <ele>164</ele>
        <time>2014-07-04T11:43:49.000Z</time>
      </trkpt>
      <trkpt lat="48.75819" lon="1.80431">
        <ele>164</ele>
        <time>2014-07-04T11:43:53.000Z</time>
      </trkpt>
      <trkpt lat="48.75819" lon="1.80432">
        <ele>164</ele>
        <time>2014-07-04T11:43:56.000Z</time>
      </trkpt>
      <trkpt lat="48.75818" lon="1.80429">
        <ele>164.19999694824</ele>
        <time>2014-07-04T11:43:59.000Z</time>
      </trkpt>
      <trkpt lat="48.75818" lon="1.80422">
        <ele>164.19999694824</ele>
        <time>2014-07-04T11:44:04.000Z</time>
      </trkpt>
      <trkpt lat="48.7581" lon="1.80418">
        <ele>164</ele>
        <time>2014-07-04T11:47:07.000Z</time>
      </trkpt>
      <trkpt lat="48.75811" lon="1.80415">
        <ele>164.19999694824</ele>
        <time>2014-07-04T11:47:12.000Z</time>
      </trkpt>
      <trkpt lat="48.7581" lon="1.80425">
        <ele>164</ele>
        <time>2014-07-04T12:20:19.000Z</time>
      </trkpt>
      <trkpt lat="48.75812" lon="1.80423">
        <ele>164</ele>
        <time>2014-07-04T12:20:20.000Z</time>
      </trkpt>
      <trkpt lat="48.75812" lon="1.80423">
        <ele>164</ele>
        <time>2014-07-04T12:20:25.000Z</time>
      </trkpt>
      <trkpt lat="48.7581" lon="1.80422">
        <ele>164</ele>
        <time>2014-07-04T12:20:32.000Z</time>
      </trkpt>
      <trkpt lat="48.75834" lon="1.80407">
        <ele>165.19999694824</ele>
        <time>2014-07-04T12:21:31.000Z</time>
      </trkpt>
      <trkpt lat="48.75834" lon="1.80402">
        <ele>165.39999389648</ele>
        <time>2014-07-04T12:21:33.000Z</time>
      </trkpt>
      <trkpt lat="48.75835" lon="1.80392">
        <ele>165.60000610352</ele>
        <time>2014-07-04T12:21:38.000Z</time>
      </trkpt>
      <trkpt lat="48.75835" lon="1.80387">
        <ele>165.80000305176</ele>
        <time>2014-07-04T12:21:41.000Z</time>
      </trkpt>
      <trkpt lat="48.75836" lon="1.80381">
        <ele>166.19999694824</ele>
        <time>2014-07-04T12:21:45.000Z</time>
      </trkpt>
      <trkpt lat="48.75836" lon="1.80378">
        <ele>166.39999389648</ele>
        <time>2014-07-04T12:21:47.000Z</time>
      </trkpt>
      <trkpt lat="48.75837" lon="1.8037">
        <ele>167</ele>
        <time>2014-07-04T12:21:52.000Z</time>
      </trkpt>
      <trkpt lat="48.75839" lon="1.80354">
        <ele>168.39999389648</ele>
        <time>2014-07-04T12:22:00.000Z</time>
      </trkpt>
      <trkpt lat="48.75839" lon="1.80351">
        <ele>168.60000610352</ele>
        <time>2014-07-04T12:22:02.000Z</time>
      </trkpt>
      <trkpt lat="48.75842" lon="1.80336">
        <ele>170</ele>
        <time>2014-07-04T12:22:09.000Z</time>
      </trkpt>
      <trkpt lat="48.75844" lon="1.80327">
        <ele>170.80000305176</ele>
        <time>2014-07-04T12:22:14.000Z</time>
      </trkpt>
      <trkpt lat="48.75844" lon="1.80319">
        <ele>171.19999694824</ele>
        <time>2014-07-04T12:22:18.000Z</time>
      </trkpt>
      <trkpt lat="48.75845" lon="1.80315">
        <ele>171.19999694824</ele>
        <time>2014-07-04T12:22:20.000Z</time>
      </trkpt>
      <trkpt lat="48.75845" lon="1.80312">
        <ele>171.39999389648</ele>
        <time>2014-07-04T12:22:23.000Z</time>
      </trkpt>
      <trkpt lat="48.75845" lon="1.80304">
        <ele>171.60000610352</ele>
        <time>2014-07-04T12:22:30.000Z</time>
      </trkpt>
      <trkpt lat="48.75848" lon="1.80298">
        <ele>172.19999694824</ele>
        <time>2014-07-04T12:22:34.000Z</time>
      </trkpt>
      <trkpt lat="48.7585" lon="1.80289">
        <ele>172.60000610352</ele>
        <time>2014-07-04T12:22:39.000Z</time>
      </trkpt>
      <trkpt lat="48.75852" lon="1.80279">
        <ele>173.39999389648</ele>
        <time>2014-07-04T12:22:44.000Z</time>
      </trkpt>
      <trkpt lat="48.75856" lon="1.80266">
        <ele>174</ele>
        <time>2014-07-04T12:22:50.000Z</time>
      </trkpt>
      <trkpt lat="48.75859" lon="1.80252">
        <ele>174.60000610352</ele>
        <time>2014-07-04T12:22:58.000Z</time>
      </trkpt>
      <trkpt lat="48.75859" lon="1.8025">
        <ele>174.60000610352</ele>
        <time>2014-07-04T12:22:59.000Z</time>
      </trkpt>
      <trkpt lat="48.75859" lon="1.80241">
        <ele>174.80000305176</ele>
        <time>2014-07-04T12:23:04.000Z</time>
      </trkpt>
      <trkpt lat="48.7586" lon="1.80229">
        <ele>174.80000305176</ele>
        <time>2014-07-04T12:23:11.000Z</time>
      </trkpt>
      <trkpt lat="48.7586" lon="1.80219">
        <ele>174.60000610352</ele>
        <time>2014-07-04T12:23:16.000Z</time>
      </trkpt>
      <trkpt lat="48.75862" lon="1.80214">
        <ele>174.60000610352</ele>
        <time>2014-07-04T12:23:19.000Z</time>
      </trkpt>
      <trkpt lat="48.75863" lon="1.80208">
        <ele>174.60000610352</ele>
        <time>2014-07-04T12:23:21.000Z</time>
      </trkpt>
      <trkpt lat="48.75864" lon="1.80192">
        <ele>174.39999389648</ele>
        <time>2014-07-04T12:23:29.000Z</time>
      </trkpt>
      <trkpt lat="48.75865" lon="1.80178">
        <ele>174.19999694824</ele>
        <time>2014-07-04T12:23:35.000Z</time>
      </trkpt>
      <trkpt lat="48.75867" lon="1.80164">
        <ele>174.19999694824</ele>
        <time>2014-07-04T12:23:42.000Z</time>
      </trkpt>
      <trkpt lat="48.75869" lon="1.80153">
        <ele>174.60000610352</ele>
        <time>2014-07-04T12:23:49.000Z</time>
      </trkpt>
      <trkpt lat="48.75869" lon="1.80151">
        <ele>174.80000305176</ele>
        <time>2014-07-04T12:23:50.000Z</time>
      </trkpt>
      <trkpt lat="48.75872" lon="1.80138">
        <ele>175.39999389648</ele>
        <time>2014-07-04T12:23:59.000Z</time>
      </trkpt>
      <trkpt lat="48.75872" lon="1.80135">
        <ele>175.60000610352</ele>
        <time>2014-07-04T12:24:01.000Z</time>
      </trkpt>
      <trkpt lat="48.75874" lon="1.80127">
        <ele>176</ele>
        <time>2014-07-04T12:24:05.000Z</time>
      </trkpt>
      <trkpt lat="48.75875" lon="1.80114">
        <ele>176.80000305176</ele>
        <time>2014-07-04T12:24:12.000Z</time>
      </trkpt>
      <trkpt lat="48.75876" lon="1.80099">
        <ele>177.39999389648</ele>
        <time>2014-07-04T12:24:18.000Z</time>
      </trkpt>
      <trkpt lat="48.75877" lon="1.80095">
        <ele>177.60000610352</ele>
        <time>2014-07-04T12:24:20.000Z</time>
      </trkpt>
      <trkpt lat="48.75879" lon="1.80079">
        <ele>178</ele>
        <time>2014-07-04T12:24:28.000Z</time>
      </trkpt>
      <trkpt lat="48.7588" lon="1.80068">
        <ele>178</ele>
        <time>2014-07-04T12:24:34.000Z</time>
      </trkpt>
      <trkpt lat="48.75883" lon="1.80058">
        <ele>178.39999389648</ele>
        <time>2014-07-04T12:24:39.000Z</time>
      </trkpt>
      <trkpt lat="48.75883" lon="1.80054">
        <ele>178.39999389648</ele>
        <time>2014-07-04T12:24:42.000Z</time>
      </trkpt>
      <trkpt lat="48.75885" lon="1.80043">
        <ele>178.60000610352</ele>
        <time>2014-07-04T12:24:47.000Z</time>
      </trkpt>
      <trkpt lat="48.75886" lon="1.80039">
        <ele>178.80000305176</ele>
        <time>2014-07-04T12:24:49.000Z</time>
      </trkpt>
      <trkpt lat="48.75887" lon="1.80026">
        <ele>179</ele>
        <time>2014-07-04T12:24:55.000Z</time>
      </trkpt>
      <trkpt lat="48.75888" lon="1.80013">
        <ele>179.60000610352</ele>
        <time>2014-07-04T12:25:00.000Z</time>
      </trkpt>
      <trkpt lat="48.75894" lon="1.80001">
        <ele>180</ele>
        <time>2014-07-04T12:25:05.000Z</time>
      </trkpt>
      <trkpt lat="48.75893" lon="1.79993">
        <ele>180.39999389648</ele>
        <time>2014-07-04T12:25:11.000Z</time>
      </trkpt>
      <trkpt lat="48.7589" lon="1.79982">
        <ele>180.39999389648</ele>
        <time>2014-07-04T12:25:17.000Z</time>
      </trkpt>
      <trkpt lat="48.7589" lon="1.79981">
        <ele>180.39999389648</ele>
        <time>2014-07-04T12:25:20.000Z</time>
      </trkpt>
      <trkpt lat="48.75893" lon="1.79992">
        <ele>180.39999389648</ele>
        <time>2014-07-04T12:25:52.000Z</time>
      </trkpt>
      <trkpt lat="48.75897" lon="1.79994">
        <ele>180.39999389648</ele>
        <time>2014-07-04T12:25:56.000Z</time>
      </trkpt>
      <trkpt lat="48.75896" lon="1.79995">
        <ele>180.19999694824</ele>
        <time>2014-07-04T12:26:00.000Z</time>
      </trkpt>
      <trkpt lat="48.7588" lon="1.7998">
        <ele>180.39999389648</ele>
        <time>2014-07-04T12:27:34.000Z</time>
      </trkpt>
      <trkpt lat="48.7588" lon="1.79979">
        <ele>180.39999389648</ele>
        <time>2014-07-04T12:27:35.000Z</time>
      </trkpt>
      <trkpt lat="48.75871" lon="1.79974">
        <ele>180.19999694824</ele>
        <time>2014-07-04T12:28:00.000Z</time>
      </trkpt>
      <trkpt lat="48.75863" lon="1.79971">
        <ele>180.19999694824</ele>
        <time>2014-07-04T12:28:06.000Z</time>
      </trkpt>
      <trkpt lat="48.75856" lon="1.79968">
        <ele>180</ele>
        <time>2014-07-04T12:28:11.000Z</time>
      </trkpt>
      <trkpt lat="48.75847" lon="1.79964">
        <ele>180</ele>
        <time>2014-07-04T12:28:17.000Z</time>
      </trkpt>
      <trkpt lat="48.75843" lon="1.79962">
        <ele>180</ele>
        <time>2014-07-04T12:28:20.000Z</time>
      </trkpt>
      <trkpt lat="48.75834" lon="1.79957">
        <ele>180</ele>
        <time>2014-07-04T12:28:27.000Z</time>
      </trkpt>
      <trkpt lat="48.75823" lon="1.79952">
        <ele>180</ele>
        <time>2014-07-04T12:28:34.000Z</time>
      </trkpt>
      <trkpt lat="48.75813" lon="1.79946">
        <ele>180</ele>
        <time>2014-07-04T12:28:41.000Z</time>
      </trkpt>
      <trkpt lat="48.75805" lon="1.79943">
        <ele>180</ele>
        <time>2014-07-04T12:28:46.000Z</time>
      </trkpt>
      <trkpt lat="48.75795" lon="1.79936">
        <ele>180</ele>
        <time>2014-07-04T12:28:53.000Z</time>
      </trkpt>
      <trkpt lat="48.75786" lon="1.79931">
        <ele>179.80000305176</ele>
        <time>2014-07-04T12:28:58.000Z</time>
      </trkpt>
      <trkpt lat="48.75775" lon="1.79925">
        <ele>179.80000305176</ele>
        <time>2014-07-04T12:29:06.000Z</time>
      </trkpt>
      <trkpt lat="48.75773" lon="1.79923">
        <ele>179.80000305176</ele>
        <time>2014-07-04T12:29:08.000Z</time>
      </trkpt>
      <trkpt lat="48.7576" lon="1.79915">
        <ele>179.39999389648</ele>
        <time>2014-07-04T12:29:17.000Z</time>
      </trkpt>
      <trkpt lat="48.75755" lon="1.79915">
        <ele>179.39999389648</ele>
        <time>2014-07-04T12:29:20.000Z</time>
      </trkpt>
      <trkpt lat="48.75746" lon="1.7991">
        <ele>179</ele>
        <time>2014-07-04T12:29:26.000Z</time>
      </trkpt>
      <trkpt lat="48.75735" lon="1.79904">
        <ele>178.80000305176</ele>
        <time>2014-07-04T12:29:34.000Z</time>
      </trkpt>
      <trkpt lat="48.75724" lon="1.79898">
        <ele>178.39999389648</ele>
        <time>2014-07-04T12:29:41.000Z</time>
      </trkpt>
      <trkpt lat="48.75714" lon="1.79893">
        <ele>178.19999694824</ele>
        <time>2014-07-04T12:29:48.000Z</time>
      </trkpt>
      <trkpt lat="48.75702" lon="1.7989">
        <ele>177.80000305176</ele>
        <time>2014-07-04T12:29:55.000Z</time>
      </trkpt>
      <trkpt lat="48.757" lon="1.7989">
        <ele>177.80000305176</ele>
        <time>2014-07-04T12:29:56.000Z</time>
      </trkpt>
      <trkpt lat="48.75689" lon="1.79883">
        <ele>177.60000610352</ele>
        <time>2014-07-04T12:30:02.000Z</time>
      </trkpt>
      <trkpt lat="48.75683" lon="1.7988">
        <ele>177.60000610352</ele>
        <time>2014-07-04T12:30:06.000Z</time>
      </trkpt>
      <trkpt lat="48.75671" lon="1.79875">
        <ele>177.80000305176</ele>
        <time>2014-07-04T12:30:13.000Z</time>
      </trkpt>
      <trkpt lat="48.75662" lon="1.79872">
        <ele>177.80000305176</ele>
        <time>2014-07-04T12:30:19.000Z</time>
      </trkpt>
      <trkpt lat="48.75654" lon="1.79868">
        <ele>177.80000305176</ele>
        <time>2014-07-04T12:30:25.000Z</time>
      </trkpt>
      <trkpt lat="48.75639" lon="1.79861">
        <ele>178</ele>
        <time>2014-07-04T12:30:34.000Z</time>
      </trkpt>
      <trkpt lat="48.75631" lon="1.79857">
        <ele>178</ele>
        <time>2014-07-04T12:30:40.000Z</time>
      </trkpt>
      <trkpt lat="48.75628" lon="1.79854">
        <ele>178</ele>
        <time>2014-07-04T12:30:43.000Z</time>
      </trkpt>
      <trkpt lat="48.75621" lon="1.79848">
        <ele>178.19999694824</ele>
        <time>2014-07-04T12:30:50.000Z</time>
      </trkpt>
      <trkpt lat="48.75612" lon="1.79846">
        <ele>178</ele>
        <time>2014-07-04T12:30:55.000Z</time>
      </trkpt>
      <trkpt lat="48.756" lon="1.79845">
        <ele>177.80000305176</ele>
        <time>2014-07-04T12:31:01.000Z</time>
      </trkpt>
      <trkpt lat="48.75592" lon="1.79842">
        <ele>178</ele>
        <time>2014-07-04T12:31:05.000Z</time>
      </trkpt>
      <trkpt lat="48.7558" lon="1.79833">
        <ele>178.39999389648</ele>
        <time>2014-07-04T12:31:10.000Z</time>
      </trkpt>
      <trkpt lat="48.75567" lon="1.79825">
        <ele>178.80000305176</ele>
        <time>2014-07-04T12:31:15.000Z</time>
      </trkpt>
      <trkpt lat="48.75556" lon="1.79821">
        <ele>179</ele>
        <time>2014-07-04T12:31:19.000Z</time>
      </trkpt>
      <trkpt lat="48.75541" lon="1.79813">
        <ele>179.39999389648</ele>
        <time>2014-07-04T12:31:24.000Z</time>
      </trkpt>
      <trkpt lat="48.75526" lon="1.79803">
        <ele>179.60000610352</ele>
        <time>2014-07-04T12:31:29.000Z</time>
      </trkpt>
      <trkpt lat="48.7551" lon="1.79794">
        <ele>180.19999694824</ele>
        <time>2014-07-04T12:31:34.000Z</time>
      </trkpt>
      <trkpt lat="48.75494" lon="1.79787">
        <ele>180.60000610352</ele>
        <time>2014-07-04T12:31:39.000Z</time>
      </trkpt>
      <trkpt lat="48.75478" lon="1.7978">
        <ele>181</ele>
        <time>2014-07-04T12:31:44.000Z</time>
      </trkpt>
      <trkpt lat="48.75465" lon="1.79769">
        <ele>181.60000610352</ele>
        <time>2014-07-04T12:31:48.000Z</time>
      </trkpt>
      <trkpt lat="48.75446" lon="1.79761">
        <ele>182</ele>
        <time>2014-07-04T12:31:53.000Z</time>
      </trkpt>
      <trkpt lat="48.75424" lon="1.79757">
        <ele>182.80000305176</ele>
        <time>2014-07-04T12:31:58.000Z</time>
      </trkpt>
      <trkpt lat="48.75414" lon="1.79751">
        <ele>183.39999389648</ele>
        <time>2014-07-04T12:32:01.000Z</time>
      </trkpt>
      <trkpt lat="48.75394" lon="1.79739">
        <ele>184.60000610352</ele>
        <time>2014-07-04T12:32:07.000Z</time>
      </trkpt>
      <trkpt lat="48.75382" lon="1.79734">
        <ele>185</ele>
        <time>2014-07-04T12:32:12.000Z</time>
      </trkpt>
      <trkpt lat="48.75379" lon="1.79733">
        <ele>185.19999694824</ele>
        <time>2014-07-04T12:32:14.000Z</time>
      </trkpt>
      <trkpt lat="48.7537" lon="1.79726">
        <ele>185.60000610352</ele>
        <time>2014-07-04T12:32:21.000Z</time>
      </trkpt>
      <trkpt lat="48.75366" lon="1.79725">
        <ele>185.80000305176</ele>
        <time>2014-07-04T12:32:23.000Z</time>
      </trkpt>
      <trkpt lat="48.75356" lon="1.79716">
        <ele>186.19999694824</ele>
        <time>2014-07-04T12:32:30.000Z</time>
      </trkpt>
      <trkpt lat="48.75348" lon="1.7971">
        <ele>186.39999389648</ele>
        <time>2014-07-04T12:32:36.000Z</time>
      </trkpt>
      <trkpt lat="48.75339" lon="1.79706">
        <ele>186.39999389648</ele>
        <time>2014-07-04T12:32:42.000Z</time>
      </trkpt>
      <trkpt lat="48.75337" lon="1.79707">
        <ele>186.39999389648</ele>
        <time>2014-07-04T12:32:44.000Z</time>
      </trkpt>
      <trkpt lat="48.75336" lon="1.79707">
        <ele>186.39999389648</ele>
        <time>2014-07-04T12:32:48.000Z</time>
      </trkpt>
      <trkpt lat="48.75331" lon="1.79711">
        <ele>186.39999389648</ele>
        <time>2014-07-04T12:32:56.000Z</time>
      </trkpt>
      <trkpt lat="48.75324" lon="1.79709">
        <ele>186.39999389648</ele>
        <time>2014-07-04T12:32:59.000Z</time>
      </trkpt>
      <trkpt lat="48.75317" lon="1.797">
        <ele>186.39999389648</ele>
        <time>2014-07-04T12:33:04.000Z</time>
      </trkpt>
      <trkpt lat="48.75313" lon="1.79698">
        <ele>186.39999389648</ele>
        <time>2014-07-04T12:33:07.000Z</time>
      </trkpt>
      <trkpt lat="48.75305" lon="1.79694">
        <ele>186.60000610352</ele>
        <time>2014-07-04T12:33:12.000Z</time>
      </trkpt>
      <trkpt lat="48.75304" lon="1.79693">
        <ele>186.60000610352</ele>
        <time>2014-07-04T12:33:13.000Z</time>
      </trkpt>
      <trkpt lat="48.75291" lon="1.79685">
        <ele>186.60000610352</ele>
        <time>2014-07-04T12:33:21.000Z</time>
      </trkpt>
      <trkpt lat="48.75289" lon="1.79683">
        <ele>186.60000610352</ele>
        <time>2014-07-04T12:33:23.000Z</time>
      </trkpt>
      <trkpt lat="48.75278" lon="1.7968">
        <ele>186.60000610352</ele>
        <time>2014-07-04T12:33:29.000Z</time>
      </trkpt>
      <trkpt lat="48.7527" lon="1.79678">
        <ele>186.80000305176</ele>
        <time>2014-07-04T12:33:34.000Z</time>
      </trkpt>
      <trkpt lat="48.75265" lon="1.79674">
        <ele>186.60000610352</ele>
        <time>2014-07-04T12:33:38.000Z</time>
      </trkpt>
      <trkpt lat="48.75261" lon="1.79671">
        <ele>186.60000610352</ele>
        <time>2014-07-04T12:33:41.000Z</time>
      </trkpt>
      <trkpt lat="48.75254" lon="1.79669">
        <ele>186.60000610352</ele>
        <time>2014-07-04T12:33:45.000Z</time>
      </trkpt>
      <trkpt lat="48.75244" lon="1.79665">
        <ele>186.60000610352</ele>
        <time>2014-07-04T12:33:52.000Z</time>
      </trkpt>
      <trkpt lat="48.75236" lon="1.79663">
        <ele>186.39999389648</ele>
        <time>2014-07-04T12:33:57.000Z</time>
      </trkpt>
      <trkpt lat="48.75234" lon="1.79661">
        <ele>186.39999389648</ele>
        <time>2014-07-04T12:33:58.000Z</time>
      </trkpt>
      <trkpt lat="48.75227" lon="1.79657">
        <ele>186.39999389648</ele>
        <time>2014-07-04T12:34:03.000Z</time>
      </trkpt>
      <trkpt lat="48.75217" lon="1.79649">
        <ele>186.39999389648</ele>
        <time>2014-07-04T12:34:09.000Z</time>
      </trkpt>
      <trkpt lat="48.75207" lon="1.79648">
        <ele>186.39999389648</ele>
        <time>2014-07-04T12:34:14.000Z</time>
      </trkpt>
      <trkpt lat="48.75194" lon="1.79642">
        <ele>186.19999694824</ele>
        <time>2014-07-04T12:34:21.000Z</time>
      </trkpt>
      <trkpt lat="48.75186" lon="1.79637">
        <ele>186.19999694824</ele>
        <time>2014-07-04T12:34:25.000Z</time>
      </trkpt>
      <trkpt lat="48.75181" lon="1.7963">
        <ele>186.39999389648</ele>
        <time>2014-07-04T12:34:30.000Z</time>
      </trkpt>
      <trkpt lat="48.75178" lon="1.79627">
        <ele>186.39999389648</ele>
        <time>2014-07-04T12:34:32.000Z</time>
      </trkpt>
      <trkpt lat="48.75169" lon="1.79622">
        <ele>186.60000610352</ele>
        <time>2014-07-04T12:34:38.000Z</time>
      </trkpt>
      <trkpt lat="48.75155" lon="1.7961">
        <ele>187</ele>
        <time>2014-07-04T12:34:47.000Z</time>
      </trkpt>
      <trkpt lat="48.75145" lon="1.79604">
        <ele>187.19999694824</ele>
        <time>2014-07-04T12:34:54.000Z</time>
      </trkpt>
      <trkpt lat="48.75134" lon="1.796">
        <ele>187.19999694824</ele>
        <time>2014-07-04T12:35:00.000Z</time>
      </trkpt>
      <trkpt lat="48.75125" lon="1.796">
        <ele>187.60000610352</ele>
        <time>2014-07-04T12:35:05.000Z</time>
      </trkpt>
      <trkpt lat="48.75117" lon="1.796">
        <ele>187.60000610352</ele>
        <time>2014-07-04T12:35:09.000Z</time>
      </trkpt>
      <trkpt lat="48.75109" lon="1.79593">
        <ele>187.80000305176</ele>
        <time>2014-07-04T12:35:14.000Z</time>
      </trkpt>
      <trkpt lat="48.75098" lon="1.7959">
        <ele>188.19999694824</ele>
        <time>2014-07-04T12:35:20.000Z</time>
      </trkpt>
      <trkpt lat="48.75092" lon="1.79585">
        <ele>188.39999389648</ele>
        <time>2014-07-04T12:35:24.000Z</time>
      </trkpt>
      <trkpt lat="48.75089" lon="1.79584">
        <ele>188.60000610352</ele>
        <time>2014-07-04T12:35:27.000Z</time>
      </trkpt>
      <trkpt lat="48.75074" lon="1.79578">
        <ele>189</ele>
        <time>2014-07-04T12:35:36.000Z</time>
      </trkpt>
      <trkpt lat="48.75065" lon="1.79573">
        <ele>189.39999389648</ele>
        <time>2014-07-04T12:35:42.000Z</time>
      </trkpt>
      <trkpt lat="48.75061" lon="1.79571">
        <ele>189.60000610352</ele>
        <time>2014-07-04T12:35:44.000Z</time>
      </trkpt>
      <trkpt lat="48.75059" lon="1.7957">
        <ele>189.60000610352</ele>
        <time>2014-07-04T12:35:46.000Z</time>
      </trkpt>
      <trkpt lat="48.75053" lon="1.79566">
        <ele>189.80000305176</ele>
        <time>2014-07-04T12:35:51.000Z</time>
      </trkpt>
      <trkpt lat="48.75051" lon="1.79565">
        <ele>190</ele>
        <time>2014-07-04T12:35:52.000Z</time>
      </trkpt>
      <trkpt lat="48.75043" lon="1.7956">
        <ele>190.19999694824</ele>
        <time>2014-07-04T12:35:58.000Z</time>
      </trkpt>
      <trkpt lat="48.75036" lon="1.79556">
        <ele>190.39999389648</ele>
        <time>2014-07-04T12:36:03.000Z</time>
      </trkpt>
      <trkpt lat="48.7503" lon="1.79555">
        <ele>190.60000610352</ele>
        <time>2014-07-04T12:36:07.000Z</time>
      </trkpt>
      <trkpt lat="48.75019" lon="1.79551">
        <ele>191</ele>
        <time>2014-07-04T12:36:13.000Z</time>
      </trkpt>
      <trkpt lat="48.75016" lon="1.79547">
        <ele>191.19999694824</ele>
        <time>2014-07-04T12:36:16.000Z</time>
      </trkpt>
      <trkpt lat="48.7501" lon="1.79542">
        <ele>191.39999389648</ele>
        <time>2014-07-04T12:36:20.000Z</time>
      </trkpt>
      <trkpt lat="48.75003" lon="1.79537">
        <ele>191.60000610352</ele>
        <time>2014-07-04T12:36:26.000Z</time>
      </trkpt>
      <trkpt lat="48.75" lon="1.79543">
        <ele>191.80000305176</ele>
        <time>2014-07-04T12:36:30.000Z</time>
      </trkpt>
      <trkpt lat="48.74993" lon="1.79557">
        <ele>192</ele>
        <time>2014-07-04T12:36:37.000Z</time>
      </trkpt>
      <trkpt lat="48.74989" lon="1.79567">
        <ele>192.19999694824</ele>
        <time>2014-07-04T12:36:43.000Z</time>
      </trkpt>
      <trkpt lat="48.74982" lon="1.79582">
        <ele>192.19999694824</ele>
        <time>2014-07-04T12:36:51.000Z</time>
      </trkpt>
      <trkpt lat="48.74978" lon="1.79594">
        <ele>192.19999694824</ele>
        <time>2014-07-04T12:36:56.000Z</time>
      </trkpt>
      <trkpt lat="48.74974" lon="1.79603">
        <ele>192.39999389648</ele>
        <time>2014-07-04T12:37:00.000Z</time>
      </trkpt>
      <trkpt lat="48.74968" lon="1.79618">
        <ele>192.60000610352</ele>
        <time>2014-07-04T12:37:07.000Z</time>
      </trkpt>
      <trkpt lat="48.74963" lon="1.79629">
        <ele>192.80000305176</ele>
        <time>2014-07-04T12:37:13.000Z</time>
      </trkpt>
      <trkpt lat="48.74956" lon="1.79643">
        <ele>193.19999694824</ele>
        <time>2014-07-04T12:37:21.000Z</time>
      </trkpt>
      <trkpt lat="48.74948" lon="1.7966">
        <ele>193.39999389648</ele>
        <time>2014-07-04T12:37:29.000Z</time>
      </trkpt>
      <trkpt lat="48.74945" lon="1.79665">
        <ele>193.39999389648</ele>
        <time>2014-07-04T12:37:32.000Z</time>
      </trkpt>
      <trkpt lat="48.7494" lon="1.79678">
        <ele>193.39999389648</ele>
        <time>2014-07-04T12:37:38.000Z</time>
      </trkpt>
      <trkpt lat="48.7493" lon="1.79699">
        <ele>193.19999694824</ele>
        <time>2014-07-04T12:37:45.000Z</time>
      </trkpt>
      <trkpt lat="48.74923" lon="1.79719">
        <ele>192.80000305176</ele>
        <time>2014-07-04T12:37:54.000Z</time>
      </trkpt>
      <trkpt lat="48.74918" lon="1.7973">
        <ele>193</ele>
        <time>2014-07-04T12:38:00.000Z</time>
      </trkpt>
      <trkpt lat="48.74912" lon="1.79743">
        <ele>193.19999694824</ele>
        <time>2014-07-04T12:38:07.000Z</time>
      </trkpt>
      <trkpt lat="48.74903" lon="1.79761">
        <ele>193</ele>
        <time>2014-07-04T12:38:14.000Z</time>
      </trkpt>
      <trkpt lat="48.74901" lon="1.79765">
        <ele>193.19999694824</ele>
        <time>2014-07-04T12:38:16.000Z</time>
      </trkpt>
      <trkpt lat="48.74899" lon="1.79776">
        <ele>193</ele>
        <time>2014-07-04T12:38:21.000Z</time>
      </trkpt>
      <trkpt lat="48.74894" lon="1.79791">
        <ele>192.80000305176</ele>
        <time>2014-07-04T12:38:28.000Z</time>
      </trkpt>
      <trkpt lat="48.74889" lon="1.79801">
        <ele>192.80000305176</ele>
        <time>2014-07-04T12:38:32.000Z</time>
      </trkpt>
      <trkpt lat="48.7488" lon="1.79814">
        <ele>193</ele>
        <time>2014-07-04T12:38:37.000Z</time>
      </trkpt>
      <trkpt lat="48.74869" lon="1.7984">
        <ele>193.19999694824</ele>
        <time>2014-07-04T12:38:44.000Z</time>
      </trkpt>
      <trkpt lat="48.74862" lon="1.79854">
        <ele>193.39999389648</ele>
        <time>2014-07-04T12:38:50.000Z</time>
      </trkpt>
      <trkpt lat="48.74858" lon="1.79863">
        <ele>193.39999389648</ele>
        <time>2014-07-04T12:38:56.000Z</time>
      </trkpt>
      <trkpt lat="48.74854" lon="1.79876">
        <ele>193.39999389648</ele>
        <time>2014-07-04T12:39:02.000Z</time>
      </trkpt>
      <trkpt lat="48.74847" lon="1.79888">
        <ele>193.39999389648</ele>
        <time>2014-07-04T12:39:08.000Z</time>
      </trkpt>
      <trkpt lat="48.74841" lon="1.79901">
        <ele>193.60000610352</ele>
        <time>2014-07-04T12:39:15.000Z</time>
      </trkpt>
      <trkpt lat="48.74832" lon="1.79915">
        <ele>193.39999389648</ele>
        <time>2014-07-04T12:39:23.000Z</time>
      </trkpt>
      <trkpt lat="48.74821" lon="1.79917">
        <ele>193.80000305176</ele>
        <time>2014-07-04T12:39:30.000Z</time>
      </trkpt>
      <trkpt lat="48.74814" lon="1.79914">
        <ele>194.19999694824</ele>
        <time>2014-07-04T12:39:35.000Z</time>
      </trkpt>
      <trkpt lat="48.74807" lon="1.7991">
        <ele>194.60000610352</ele>
        <time>2014-07-04T12:39:39.000Z</time>
      </trkpt>
      <trkpt lat="48.748" lon="1.79903">
        <ele>195</ele>
        <time>2014-07-04T12:39:44.000Z</time>
      </trkpt>
      <trkpt lat="48.74789" lon="1.79893">
        <ele>195.39999389648</ele>
        <time>2014-07-04T12:39:51.000Z</time>
      </trkpt>
      <trkpt lat="48.74778" lon="1.79884">
        <ele>196</ele>
        <time>2014-07-04T12:39:58.000Z</time>
      </trkpt>
      <trkpt lat="48.74774" lon="1.79882">
        <ele>196.19999694824</ele>
        <time>2014-07-04T12:40:00.000Z</time>
      </trkpt>
      <trkpt lat="48.74767" lon="1.79875">
        <ele>196.39999389648</ele>
        <time>2014-07-04T12:40:06.000Z</time>
      </trkpt>
      <trkpt lat="48.74755" lon="1.79863">
        <ele>196.60000610352</ele>
        <time>2014-07-04T12:40:15.000Z</time>
      </trkpt>
      <trkpt lat="48.74745" lon="1.79854">
        <ele>196.60000610352</ele>
        <time>2014-07-04T12:40:22.000Z</time>
      </trkpt>
      <trkpt lat="48.74735" lon="1.79847">
        <ele>196.60000610352</ele>
        <time>2014-07-04T12:40:28.000Z</time>
      </trkpt>
      <trkpt lat="48.74727" lon="1.79838">
        <ele>196.80000305176</ele>
        <time>2014-07-04T12:40:35.000Z</time>
      </trkpt>
      <trkpt lat="48.74719" lon="1.79829">
        <ele>197</ele>
        <time>2014-07-04T12:40:41.000Z</time>
      </trkpt>
      <trkpt lat="48.74717" lon="1.79828">
        <ele>197</ele>
        <time>2014-07-04T12:40:42.000Z</time>
      </trkpt>
      <trkpt lat="48.7471" lon="1.79827">
        <ele>197</ele>
        <time>2014-07-04T12:40:46.000Z</time>
      </trkpt>
      <trkpt lat="48.74696" lon="1.79819">
        <ele>197</ele>
        <time>2014-07-04T12:40:54.000Z</time>
      </trkpt>
      <trkpt lat="48.74684" lon="1.7981">
        <ele>196.80000305176</ele>
        <time>2014-07-04T12:41:02.000Z</time>
      </trkpt>
      <trkpt lat="48.74676" lon="1.79802">
        <ele>196.60000610352</ele>
        <time>2014-07-04T12:41:08.000Z</time>
      </trkpt>
      <trkpt lat="48.74671" lon="1.79796">
        <ele>196.39999389648</ele>
        <time>2014-07-04T12:41:12.000Z</time>
      </trkpt>
      <trkpt lat="48.74659" lon="1.79787">
        <ele>196</ele>
        <time>2014-07-04T12:41:20.000Z</time>
      </trkpt>
      <trkpt lat="48.74648" lon="1.79777">
        <ele>195.60000610352</ele>
        <time>2014-07-04T12:41:28.000Z</time>
      </trkpt>
      <trkpt lat="48.74639" lon="1.7977">
        <ele>195.19999694824</ele>
        <time>2014-07-04T12:41:34.000Z</time>
      </trkpt>
      <trkpt lat="48.7463" lon="1.79764">
        <ele>195</ele>
        <time>2014-07-04T12:41:39.000Z</time>
      </trkpt>
      <trkpt lat="48.74623" lon="1.79759">
        <ele>194.80000305176</ele>
        <time>2014-07-04T12:41:43.000Z</time>
      </trkpt>
      <trkpt lat="48.74614" lon="1.79751">
        <ele>194.39999389648</ele>
        <time>2014-07-04T12:41:50.000Z</time>
      </trkpt>
      <trkpt lat="48.74603" lon="1.79742">
        <ele>194.19999694824</ele>
        <time>2014-07-04T12:41:57.000Z</time>
      </trkpt>
      <trkpt lat="48.74593" lon="1.79735">
        <ele>194</ele>
        <time>2014-07-04T12:42:03.000Z</time>
      </trkpt>
      <trkpt lat="48.74588" lon="1.79731">
        <ele>194</ele>
        <time>2014-07-04T12:42:07.000Z</time>
      </trkpt>
      <trkpt lat="48.74577" lon="1.79725">
        <ele>194</ele>
        <time>2014-07-04T12:42:14.000Z</time>
      </trkpt>
      <trkpt lat="48.74567" lon="1.79716">
        <ele>194</ele>
        <time>2014-07-04T12:42:19.000Z</time>
      </trkpt>
      <trkpt lat="48.74552" lon="1.79706">
        <ele>194</ele>
        <time>2014-07-04T12:42:25.000Z</time>
      </trkpt>
      <trkpt lat="48.74541" lon="1.79694">
        <ele>194</ele>
        <time>2014-07-04T12:42:30.000Z</time>
      </trkpt>
      <trkpt lat="48.7453" lon="1.79681">
        <ele>194</ele>
        <time>2014-07-04T12:42:35.000Z</time>
      </trkpt>
      <trkpt lat="48.74514" lon="1.79665">
        <ele>194</ele>
        <time>2014-07-04T12:42:41.000Z</time>
      </trkpt>
      <trkpt lat="48.74497" lon="1.79648">
        <ele>194</ele>
        <time>2014-07-04T12:42:47.000Z</time>
      </trkpt>
      <trkpt lat="48.74477" lon="1.79635">
        <ele>194</ele>
        <time>2014-07-04T12:42:53.000Z</time>
      </trkpt>
      <trkpt lat="48.74458" lon="1.79621">
        <ele>194</ele>
        <time>2014-07-04T12:42:59.000Z</time>
      </trkpt>
      <trkpt lat="48.74441" lon="1.79603">
        <ele>194</ele>
        <time>2014-07-04T12:43:05.000Z</time>
      </trkpt>
      <trkpt lat="48.74429" lon="1.79593">
        <ele>194</ele>
        <time>2014-07-04T12:43:10.000Z</time>
      </trkpt>
      <trkpt lat="48.74419" lon="1.79581">
        <ele>194</ele>
        <time>2014-07-04T12:43:14.000Z</time>
      </trkpt>
      <trkpt lat="48.74404" lon="1.79561">
        <ele>194.19999694824</ele>
        <time>2014-07-04T12:43:19.000Z</time>
      </trkpt>
      <trkpt lat="48.74391" lon="1.79544">
        <ele>194.39999389648</ele>
        <time>2014-07-04T12:43:23.000Z</time>
      </trkpt>
      <trkpt lat="48.74378" lon="1.79532">
        <ele>194.39999389648</ele>
        <time>2014-07-04T12:43:27.000Z</time>
      </trkpt>
      <trkpt lat="48.74365" lon="1.79519">
        <ele>194.60000610352</ele>
        <time>2014-07-04T12:43:31.000Z</time>
      </trkpt>
      <trkpt lat="48.74348" lon="1.79505">
        <ele>195</ele>
        <time>2014-07-04T12:43:36.000Z</time>
      </trkpt>
      <trkpt lat="48.74331" lon="1.7949">
        <ele>195.60000610352</ele>
        <time>2014-07-04T12:43:41.000Z</time>
      </trkpt>
      <trkpt lat="48.74313" lon="1.79473">
        <ele>196.19999694824</ele>
        <time>2014-07-04T12:43:46.000Z</time>
      </trkpt>
      <trkpt lat="48.74288" lon="1.79452">
        <ele>197</ele>
        <time>2014-07-04T12:43:53.000Z</time>
      </trkpt>
      <trkpt lat="48.74272" lon="1.79443">
        <ele>197.39999389648</ele>
        <time>2014-07-04T12:43:57.000Z</time>
      </trkpt>
      <trkpt lat="48.74256" lon="1.79427">
        <ele>197.60000610352</ele>
        <time>2014-07-04T12:44:02.000Z</time>
      </trkpt>
      <trkpt lat="48.74236" lon="1.79411">
        <ele>197.60000610352</ele>
        <time>2014-07-04T12:44:07.000Z</time>
      </trkpt>
      <trkpt lat="48.74232" lon="1.79407">
        <ele>197.60000610352</ele>
        <time>2014-07-04T12:44:08.000Z</time>
      </trkpt>
      <trkpt lat="48.74214" lon="1.79388">
        <ele>197.39999389648</ele>
        <time>2014-07-04T12:44:13.000Z</time>
      </trkpt>
      <trkpt lat="48.74193" lon="1.79367">
        <ele>197</ele>
        <time>2014-07-04T12:44:19.000Z</time>
      </trkpt>
      <trkpt lat="48.74173" lon="1.79352">
        <ele>196.39999389648</ele>
        <time>2014-07-04T12:44:24.000Z</time>
      </trkpt>
      <trkpt lat="48.74152" lon="1.79334">
        <ele>195.19999694824</ele>
        <time>2014-07-04T12:44:29.000Z</time>
      </trkpt>
      <trkpt lat="48.7414" lon="1.79322">
        <ele>194.80000305176</ele>
        <time>2014-07-04T12:44:32.000Z</time>
      </trkpt>
      <trkpt lat="48.74122" lon="1.79306">
        <ele>193.19999694824</ele>
        <time>2014-07-04T12:44:37.000Z</time>
      </trkpt>
      <trkpt lat="48.74107" lon="1.79288">
        <ele>191.39999389648</ele>
        <time>2014-07-04T12:44:42.000Z</time>
      </trkpt>
      <trkpt lat="48.7408" lon="1.79265">
        <ele>189.80000305176</ele>
        <time>2014-07-04T12:44:49.000Z</time>
      </trkpt>
      <trkpt lat="48.74051" lon="1.79236">
        <ele>187.80000305176</ele>
        <time>2014-07-04T12:44:55.000Z</time>
      </trkpt>
      <trkpt lat="48.74026" lon="1.79216">
        <ele>187.19999694824</ele>
        <time>2014-07-04T12:45:00.000Z</time>
      </trkpt>
      <trkpt lat="48.73988" lon="1.79179">
        <ele>187.80000305176</ele>
        <time>2014-07-04T12:45:08.000Z</time>
      </trkpt>
      <trkpt lat="48.73957" lon="1.79154">
        <ele>188.60000610352</ele>
        <time>2014-07-04T12:45:14.000Z</time>
      </trkpt>
      <trkpt lat="48.73948" lon="1.79145">
        <ele>188.60000610352</ele>
        <time>2014-07-04T12:45:16.000Z</time>
      </trkpt>
      <trkpt lat="48.7394" lon="1.79136">
        <ele>188.80000305176</ele>
        <time>2014-07-04T12:45:18.000Z</time>
      </trkpt>
      <trkpt lat="48.73928" lon="1.79127">
        <ele>188.80000305176</ele>
        <time>2014-07-04T12:45:21.000Z</time>
      </trkpt>
      <trkpt lat="48.73913" lon="1.79114">
        <ele>189</ele>
        <time>2014-07-04T12:45:25.000Z</time>
      </trkpt>
      <trkpt lat="48.73892" lon="1.79095">
        <ele>189.39999389648</ele>
        <time>2014-07-04T12:45:32.000Z</time>
      </trkpt>
      <trkpt lat="48.73879" lon="1.79083">
        <ele>189.60000610352</ele>
        <time>2014-07-04T12:45:37.000Z</time>
      </trkpt>
      <trkpt lat="48.73865" lon="1.79069">
        <ele>189.80000305176</ele>
        <time>2014-07-04T12:45:43.000Z</time>
      </trkpt>
      <trkpt lat="48.73854" lon="1.7906">
        <ele>190.19999694824</ele>
        <time>2014-07-04T12:45:49.000Z</time>
      </trkpt>
      <trkpt lat="48.73842" lon="1.79049">
        <ele>190.19999694824</ele>
        <time>2014-07-04T12:45:54.000Z</time>
      </trkpt>
      <trkpt lat="48.73838" lon="1.79049">
        <ele>190.19999694824</ele>
        <time>2014-07-04T12:45:59.000Z</time>
      </trkpt>
      <trkpt lat="48.73833" lon="1.79045">
        <ele>190.19999694824</ele>
        <time>2014-07-04T12:46:03.000Z</time>
      </trkpt>
      <trkpt lat="48.73827" lon="1.7904">
        <ele>190.19999694824</ele>
        <time>2014-07-04T12:46:07.000Z</time>
      </trkpt>
      <trkpt lat="48.73814" lon="1.79028">
        <ele>190</ele>
        <time>2014-07-04T12:46:16.000Z</time>
      </trkpt>
      <trkpt lat="48.73808" lon="1.79022">
        <ele>190</ele>
        <time>2014-07-04T12:46:21.000Z</time>
      </trkpt>
      <trkpt lat="48.73799" lon="1.79016">
        <ele>190</ele>
        <time>2014-07-04T12:46:27.000Z</time>
      </trkpt>
      <trkpt lat="48.73795" lon="1.79012">
        <ele>190</ele>
        <time>2014-07-04T12:46:30.000Z</time>
      </trkpt>
      <trkpt lat="48.7379" lon="1.79007">
        <ele>190</ele>
        <time>2014-07-04T12:46:34.000Z</time>
      </trkpt>
      <trkpt lat="48.73779" lon="1.78995">
        <ele>190</ele>
        <time>2014-07-04T12:46:42.000Z</time>
      </trkpt>
      <trkpt lat="48.73771" lon="1.78988">
        <ele>190</ele>
        <time>2014-07-04T12:46:48.000Z</time>
      </trkpt>
      <trkpt lat="48.7376" lon="1.78979">
        <ele>189.60000610352</ele>
        <time>2014-07-04T12:46:55.000Z</time>
      </trkpt>
      <trkpt lat="48.73753" lon="1.78971">
        <ele>189.19999694824</ele>
        <time>2014-07-04T12:47:00.000Z</time>
      </trkpt>
      <trkpt lat="48.73744" lon="1.78961">
        <ele>188.80000305176</ele>
        <time>2014-07-04T12:47:07.000Z</time>
      </trkpt>
      <trkpt lat="48.73737" lon="1.78954">
        <ele>188.39999389648</ele>
        <time>2014-07-04T12:47:12.000Z</time>
      </trkpt>
      <trkpt lat="48.73728" lon="1.78946">
        <ele>188</ele>
        <time>2014-07-04T12:47:18.000Z</time>
      </trkpt>
      <trkpt lat="48.73721" lon="1.78939">
        <ele>187.60000610352</ele>
        <time>2014-07-04T12:47:23.000Z</time>
      </trkpt>
      <trkpt lat="48.73712" lon="1.7893">
        <ele>187.19999694824</ele>
        <time>2014-07-04T12:47:29.000Z</time>
      </trkpt>
      <trkpt lat="48.73699" lon="1.78918">
        <ele>186.60000610352</ele>
        <time>2014-07-04T12:47:38.000Z</time>
      </trkpt>
      <trkpt lat="48.73686" lon="1.78906">
        <ele>186</ele>
        <time>2014-07-04T12:47:47.000Z</time>
      </trkpt>
      <trkpt lat="48.73674" lon="1.78896">
        <ele>185.19999694824</ele>
        <time>2014-07-04T12:47:55.000Z</time>
      </trkpt>
      <trkpt lat="48.73663" lon="1.78884">
        <ele>184.39999389648</ele>
        <time>2014-07-04T12:48:02.000Z</time>
      </trkpt>
      <trkpt lat="48.73647" lon="1.78871">
        <ele>183.39999389648</ele>
        <time>2014-07-04T12:48:12.000Z</time>
      </trkpt>
      <trkpt lat="48.73637" lon="1.78858">
        <ele>182.39999389648</ele>
        <time>2014-07-04T12:48:20.000Z</time>
      </trkpt>
      <trkpt lat="48.73631" lon="1.78853">
        <ele>182</ele>
        <time>2014-07-04T12:48:24.000Z</time>
      </trkpt>
      <trkpt lat="48.73625" lon="1.78847">
        <ele>181.60000610352</ele>
        <time>2014-07-04T12:48:28.000Z</time>
      </trkpt>
      <trkpt lat="48.73613" lon="1.78836">
        <ele>180.80000305176</ele>
        <time>2014-07-04T12:48:36.000Z</time>
      </trkpt>
      <trkpt lat="48.73601" lon="1.78825">
        <ele>180</ele>
        <time>2014-07-04T12:48:45.000Z</time>
      </trkpt>
      <trkpt lat="48.73594" lon="1.78818">
        <ele>179.39999389648</ele>
        <time>2014-07-04T12:48:50.000Z</time>
      </trkpt>
      <trkpt lat="48.73583" lon="1.78806">
        <ele>178.60000610352</ele>
        <time>2014-07-04T12:48:58.000Z</time>
      </trkpt>
      <trkpt lat="48.73572" lon="1.78797">
        <ele>177.80000305176</ele>
        <time>2014-07-04T12:49:05.000Z</time>
      </trkpt>
      <trkpt lat="48.73559" lon="1.78784">
        <ele>176.60000610352</ele>
        <time>2014-07-04T12:49:14.000Z</time>
      </trkpt>
      <trkpt lat="48.73551" lon="1.78776">
        <ele>176</ele>
        <time>2014-07-04T12:49:20.000Z</time>
      </trkpt>
      <trkpt lat="48.73541" lon="1.78767">
        <ele>175.19999694824</ele>
        <time>2014-07-04T12:49:27.000Z</time>
      </trkpt>
      <trkpt lat="48.7353" lon="1.78755">
        <ele>174.19999694824</ele>
        <time>2014-07-04T12:49:34.000Z</time>
      </trkpt>
      <trkpt lat="48.73518" lon="1.78745">
        <ele>173.19999694824</ele>
        <time>2014-07-04T12:49:42.000Z</time>
      </trkpt>
      <trkpt lat="48.73507" lon="1.78736">
        <ele>172.60000610352</ele>
        <time>2014-07-04T12:49:49.000Z</time>
      </trkpt>
      <trkpt lat="48.73497" lon="1.78725">
        <ele>171.80000305176</ele>
        <time>2014-07-04T12:49:56.000Z</time>
      </trkpt>
      <trkpt lat="48.73484" lon="1.78714">
        <ele>171</ele>
        <time>2014-07-04T12:50:04.000Z</time>
      </trkpt>
      <trkpt lat="48.73467" lon="1.78701">
        <ele>170</ele>
        <time>2014-07-04T12:50:14.000Z</time>
      </trkpt>
      <trkpt lat="48.73456" lon="1.78689">
        <ele>169.19999694824</ele>
        <time>2014-07-04T12:50:21.000Z</time>
      </trkpt>
      <trkpt lat="48.73447" lon="1.7868">
        <ele>168.39999389648</ele>
        <time>2014-07-04T12:50:27.000Z</time>
      </trkpt>
      <trkpt lat="48.73441" lon="1.78672">
        <ele>167.80000305176</ele>
        <time>2014-07-04T12:50:32.000Z</time>
      </trkpt>
      <trkpt lat="48.73431" lon="1.78662">
        <ele>167.60000610352</ele>
        <time>2014-07-04T12:50:39.000Z</time>
      </trkpt>
      <trkpt lat="48.73421" lon="1.78653">
        <ele>167.80000305176</ele>
        <time>2014-07-04T12:50:46.000Z</time>
      </trkpt>
      <trkpt lat="48.7341" lon="1.78644">
        <ele>168.60000610352</ele>
        <time>2014-07-04T12:50:53.000Z</time>
      </trkpt>
      <trkpt lat="48.73398" lon="1.78638">
        <ele>169.60000610352</ele>
        <time>2014-07-04T12:51:00.000Z</time>
      </trkpt>
      <trkpt lat="48.73385" lon="1.78627">
        <ele>170.60000610352</ele>
        <time>2014-07-04T12:51:08.000Z</time>
      </trkpt>
      <trkpt lat="48.73376" lon="1.78617">
        <ele>171.19999694824</ele>
        <time>2014-07-04T12:51:14.000Z</time>
      </trkpt>
      <trkpt lat="48.73371" lon="1.78611">
        <ele>171.80000305176</ele>
        <time>2014-07-04T12:51:18.000Z</time>
      </trkpt>
      <trkpt lat="48.7336" lon="1.78602">
        <ele>172.60000610352</ele>
        <time>2014-07-04T12:51:23.000Z</time>
      </trkpt>
      <trkpt lat="48.73346" lon="1.7859">
        <ele>174</ele>
        <time>2014-07-04T12:51:29.000Z</time>
      </trkpt>
      <trkpt lat="48.73341" lon="1.78583">
        <ele>174.60000610352</ele>
        <time>2014-07-04T12:51:34.000Z</time>
      </trkpt>
      <trkpt lat="48.7333" lon="1.78576">
        <ele>175.80000305176</ele>
        <time>2014-07-04T12:51:42.000Z</time>
      </trkpt>
      <trkpt lat="48.73329" lon="1.78575">
        <ele>176</ele>
        <time>2014-07-04T12:51:43.000Z</time>
      </trkpt>
      <trkpt lat="48.73323" lon="1.78572">
        <ele>176.60000610352</ele>
        <time>2014-07-04T12:51:50.000Z</time>
      </trkpt>
      <trkpt lat="48.73313" lon="1.78564">
        <ele>177.39999389648</ele>
        <time>2014-07-04T12:51:57.000Z</time>
      </trkpt>
      <trkpt lat="48.73305" lon="1.78556">
        <ele>178</ele>
        <time>2014-07-04T12:52:03.000Z</time>
      </trkpt>
      <trkpt lat="48.73299" lon="1.78551">
        <ele>178.60000610352</ele>
        <time>2014-07-04T12:52:09.000Z</time>
      </trkpt>
      <trkpt lat="48.73292" lon="1.78544">
        <ele>179.19999694824</ele>
        <time>2014-07-04T12:52:14.000Z</time>
      </trkpt>
      <trkpt lat="48.73289" lon="1.78542">
        <ele>179.39999389648</ele>
        <time>2014-07-04T12:52:16.000Z</time>
      </trkpt>
      <trkpt lat="48.73284" lon="1.78542">
        <ele>179.80000305176</ele>
        <time>2014-07-04T12:52:23.000Z</time>
      </trkpt>
      <trkpt lat="48.73279" lon="1.78534">
        <ele>180.19999694824</ele>
        <time>2014-07-04T12:52:36.000Z</time>
      </trkpt>
      <trkpt lat="48.73268" lon="1.78524">
        <ele>181</ele>
        <time>2014-07-04T12:52:44.000Z</time>
      </trkpt>
      <trkpt lat="48.73257" lon="1.78515">
        <ele>181.19999694824</ele>
        <time>2014-07-04T12:52:51.000Z</time>
      </trkpt>
      <trkpt lat="48.73249" lon="1.78504">
        <ele>181.19999694824</ele>
        <time>2014-07-04T12:52:58.000Z</time>
      </trkpt>
      <trkpt lat="48.7324" lon="1.78495">
        <ele>181.39999389648</ele>
        <time>2014-07-04T12:53:05.000Z</time>
      </trkpt>
      <trkpt lat="48.73231" lon="1.78488">
        <ele>181.39999389648</ele>
        <time>2014-07-04T12:53:12.000Z</time>
      </trkpt>
      <trkpt lat="48.73224" lon="1.78479">
        <ele>181.60000610352</ele>
        <time>2014-07-04T12:53:18.000Z</time>
      </trkpt>
      <trkpt lat="48.73219" lon="1.78474">
        <ele>181.80000305176</ele>
        <time>2014-07-04T12:53:22.000Z</time>
      </trkpt>
      <trkpt lat="48.73215" lon="1.78471">
        <ele>181.80000305176</ele>
        <time>2014-07-04T12:53:24.000Z</time>
      </trkpt>
      <trkpt lat="48.73208" lon="1.78465">
        <ele>182</ele>
        <time>2014-07-04T12:53:30.000Z</time>
      </trkpt>
      <trkpt lat="48.73206" lon="1.78465">
        <ele>182</ele>
        <time>2014-07-04T12:53:31.000Z</time>
      </trkpt>
      <trkpt lat="48.73194" lon="1.78456">
        <ele>182.39999389648</ele>
        <time>2014-07-04T12:53:38.000Z</time>
      </trkpt>
      <trkpt lat="48.73191" lon="1.78452">
        <ele>182.39999389648</ele>
        <time>2014-07-04T12:53:41.000Z</time>
      </trkpt>
      <trkpt lat="48.73182" lon="1.78447">
        <ele>182.60000610352</ele>
        <time>2014-07-04T12:53:47.000Z</time>
      </trkpt>
      <trkpt lat="48.7317" lon="1.78432">
        <ele>182.80000305176</ele>
        <time>2014-07-04T12:53:57.000Z</time>
      </trkpt>
      <trkpt lat="48.7316" lon="1.78423">
        <ele>183.19999694824</ele>
        <time>2014-07-04T12:54:04.000Z</time>
      </trkpt>
      <trkpt lat="48.73148" lon="1.78415">
        <ele>183.39999389648</ele>
        <time>2014-07-04T12:54:11.000Z</time>
      </trkpt>
      <trkpt lat="48.73138" lon="1.78408">
        <ele>183.60000610352</ele>
        <time>2014-07-04T12:54:18.000Z</time>
      </trkpt>
      <trkpt lat="48.73132" lon="1.78403">
        <ele>183.60000610352</ele>
        <time>2014-07-04T12:54:22.000Z</time>
      </trkpt>
      <trkpt lat="48.73119" lon="1.78392">
        <ele>183.60000610352</ele>
        <time>2014-07-04T12:54:31.000Z</time>
      </trkpt>
      <trkpt lat="48.7311" lon="1.78383">
        <ele>183.60000610352</ele>
        <time>2014-07-04T12:54:38.000Z</time>
      </trkpt>
      <trkpt lat="48.73097" lon="1.78375">
        <ele>183.39999389648</ele>
        <time>2014-07-04T12:54:47.000Z</time>
      </trkpt>
      <trkpt lat="48.73085" lon="1.78366">
        <ele>182.80000305176</ele>
        <time>2014-07-04T12:54:55.000Z</time>
      </trkpt>
      <trkpt lat="48.73076" lon="1.78358">
        <ele>182.39999389648</ele>
        <time>2014-07-04T12:55:02.000Z</time>
      </trkpt>
      <trkpt lat="48.73071" lon="1.78354">
        <ele>182.19999694824</ele>
        <time>2014-07-04T12:55:05.000Z</time>
      </trkpt>
      <trkpt lat="48.7306" lon="1.78339">
        <ele>181.60000610352</ele>
        <time>2014-07-04T12:55:14.000Z</time>
      </trkpt>
      <trkpt lat="48.73048" lon="1.78329">
        <ele>181</ele>
        <time>2014-07-04T12:55:22.000Z</time>
      </trkpt>
      <trkpt lat="48.73041" lon="1.78323">
        <ele>180.80000305176</ele>
        <time>2014-07-04T12:55:27.000Z</time>
      </trkpt>
      <trkpt lat="48.73033" lon="1.78318">
        <ele>180.39999389648</ele>
        <time>2014-07-04T12:55:32.000Z</time>
      </trkpt>
      <trkpt lat="48.73025" lon="1.78309">
        <ele>180.19999694824</ele>
        <time>2014-07-04T12:55:38.000Z</time>
      </trkpt>
      <trkpt lat="48.73014" lon="1.783">
        <ele>180</ele>
        <time>2014-07-04T12:55:46.000Z</time>
      </trkpt>
      <trkpt lat="48.73003" lon="1.78291">
        <ele>180</ele>
        <time>2014-07-04T12:55:53.000Z</time>
      </trkpt>
      <trkpt lat="48.73" lon="1.78289">
        <ele>180</ele>
        <time>2014-07-04T12:55:54.000Z</time>
      </trkpt>
      <trkpt lat="48.72987" lon="1.78276">
        <ele>180</ele>
        <time>2014-07-04T12:56:02.000Z</time>
      </trkpt>
      <trkpt lat="48.72978" lon="1.78272">
        <ele>180</ele>
        <time>2014-07-04T12:56:07.000Z</time>
      </trkpt>
      <trkpt lat="48.72964" lon="1.78259">
        <ele>180</ele>
        <time>2014-07-04T12:56:14.000Z</time>
      </trkpt>
      <trkpt lat="48.72957" lon="1.78251">
        <ele>180</ele>
        <time>2014-07-04T12:56:19.000Z</time>
      </trkpt>
      <trkpt lat="48.72948" lon="1.78247">
        <ele>180</ele>
        <time>2014-07-04T12:56:24.000Z</time>
      </trkpt>
      <trkpt lat="48.72936" lon="1.78239">
        <ele>180</ele>
        <time>2014-07-04T12:56:31.000Z</time>
      </trkpt>
      <trkpt lat="48.72926" lon="1.78229">
        <ele>180</ele>
        <time>2014-07-04T12:56:37.000Z</time>
      </trkpt>
      <trkpt lat="48.72924" lon="1.78226">
        <ele>180</ele>
        <time>2014-07-04T12:56:39.000Z</time>
      </trkpt>
      <trkpt lat="48.72913" lon="1.78215">
        <ele>180</ele>
        <time>2014-07-04T12:56:46.000Z</time>
      </trkpt>
      <trkpt lat="48.72901" lon="1.78208">
        <ele>180</ele>
        <time>2014-07-04T12:56:54.000Z</time>
      </trkpt>
      <trkpt lat="48.72891" lon="1.78198">
        <ele>180</ele>
        <time>2014-07-04T12:57:01.000Z</time>
      </trkpt>
      <trkpt lat="48.72879" lon="1.78185">
        <ele>180</ele>
        <time>2014-07-04T12:57:10.000Z</time>
      </trkpt>
      <trkpt lat="48.72869" lon="1.78176">
        <ele>180</ele>
        <time>2014-07-04T12:57:16.000Z</time>
      </trkpt>
      <trkpt lat="48.72858" lon="1.78165">
        <ele>180</ele>
        <time>2014-07-04T12:57:23.000Z</time>
      </trkpt>
      <trkpt lat="48.72854" lon="1.78162">
        <ele>180</ele>
        <time>2014-07-04T12:57:26.000Z</time>
      </trkpt>
      <trkpt lat="48.72848" lon="1.78157">
        <ele>180</ele>
        <time>2014-07-04T12:57:30.000Z</time>
      </trkpt>
      <trkpt lat="48.72839" lon="1.78148">
        <ele>179.80000305176</ele>
        <time>2014-07-04T12:57:37.000Z</time>
      </trkpt>
      <trkpt lat="48.72829" lon="1.78139">
        <ele>179.80000305176</ele>
        <time>2014-07-04T12:57:44.000Z</time>
      </trkpt>
      <trkpt lat="48.72819" lon="1.78129">
        <ele>179.80000305176</ele>
        <time>2014-07-04T12:57:51.000Z</time>
      </trkpt>
      <trkpt lat="48.72808" lon="1.78119">
        <ele>179.80000305176</ele>
        <time>2014-07-04T12:57:59.000Z</time>
      </trkpt>
      <trkpt lat="48.72797" lon="1.78111">
        <ele>179.80000305176</ele>
        <time>2014-07-04T12:58:06.000Z</time>
      </trkpt>
      <trkpt lat="48.72787" lon="1.78101">
        <ele>179.80000305176</ele>
        <time>2014-07-04T12:58:13.000Z</time>
      </trkpt>
      <trkpt lat="48.72782" lon="1.78096">
        <ele>179.80000305176</ele>
        <time>2014-07-04T12:58:16.000Z</time>
      </trkpt>
      <trkpt lat="48.72777" lon="1.78091">
        <ele>179.80000305176</ele>
        <time>2014-07-04T12:58:20.000Z</time>
      </trkpt>
      <trkpt lat="48.72767" lon="1.7808">
        <ele>180</ele>
        <time>2014-07-04T12:58:28.000Z</time>
      </trkpt>
      <trkpt lat="48.72759" lon="1.78073">
        <ele>180</ele>
        <time>2014-07-04T12:58:33.000Z</time>
      </trkpt>
      <trkpt lat="48.72748" lon="1.78065">
        <ele>180</ele>
        <time>2014-07-04T12:58:41.000Z</time>
      </trkpt>
      <trkpt lat="48.72735" lon="1.78057">
        <ele>180.19999694824</ele>
        <time>2014-07-04T12:58:49.000Z</time>
      </trkpt>
      <trkpt lat="48.72727" lon="1.78049">
        <ele>180.19999694824</ele>
        <time>2014-07-04T12:58:54.000Z</time>
      </trkpt>
      <trkpt lat="48.72723" lon="1.78046">
        <ele>180.19999694824</ele>
        <time>2014-07-04T12:58:57.000Z</time>
      </trkpt>
      <trkpt lat="48.72717" lon="1.78039">
        <ele>180.39999389648</ele>
        <time>2014-07-04T12:59:02.000Z</time>
      </trkpt>
      <trkpt lat="48.72715" lon="1.78037">
        <ele>180.39999389648</ele>
        <time>2014-07-04T12:59:03.000Z</time>
      </trkpt>
      <trkpt lat="48.72706" lon="1.78029">
        <ele>180.60000610352</ele>
        <time>2014-07-04T12:59:10.000Z</time>
      </trkpt>
      <trkpt lat="48.72702" lon="1.78018">
        <ele>180.60000610352</ele>
        <time>2014-07-04T12:59:15.000Z</time>
      </trkpt>
      <trkpt lat="48.72696" lon="1.78004">
        <ele>180.80000305176</ele>
        <time>2014-07-04T12:59:21.000Z</time>
      </trkpt>
      <trkpt lat="48.72695" lon="1.78003">
        <ele>180.80000305176</ele>
        <time>2014-07-04T12:59:22.000Z</time>
      </trkpt>
      <trkpt lat="48.72689" lon="1.77987">
        <ele>181</ele>
        <time>2014-07-04T12:59:29.000Z</time>
      </trkpt>
      <trkpt lat="48.72683" lon="1.77973">
        <ele>181.60000610352</ele>
        <time>2014-07-04T12:59:35.000Z</time>
      </trkpt>
      <trkpt lat="48.72681" lon="1.7797">
        <ele>181.60000610352</ele>
        <time>2014-07-04T12:59:37.000Z</time>
      </trkpt>
      <trkpt lat="48.72673" lon="1.77964">
        <ele>181.39999389648</ele>
        <time>2014-07-04T12:59:42.000Z</time>
      </trkpt>
      <trkpt lat="48.72661" lon="1.77961">
        <ele>181</ele>
        <time>2014-07-04T12:59:49.000Z</time>
      </trkpt>
      <trkpt lat="48.72659" lon="1.7796">
        <ele>181</ele>
        <time>2014-07-04T12:59:51.000Z</time>
      </trkpt>
      <trkpt lat="48.72653" lon="1.77957">
        <ele>180.80000305176</ele>
        <time>2014-07-04T12:59:56.000Z</time>
      </trkpt>
      <trkpt lat="48.72649" lon="1.77957">
        <ele>180.60000610352</ele>
        <time>2014-07-04T12:59:58.000Z</time>
      </trkpt>
      <trkpt lat="48.72641" lon="1.7796">
        <ele>179.80000305176</ele>
        <time>2014-07-04T13:00:03.000Z</time>
      </trkpt>
      <trkpt lat="48.72624" lon="1.77972">
        <ele>178.19999694824</ele>
        <time>2014-07-04T13:00:11.000Z</time>
      </trkpt>
      <trkpt lat="48.72611" lon="1.77982">
        <ele>176.80000305176</ele>
        <time>2014-07-04T13:00:17.000Z</time>
      </trkpt>
      <trkpt lat="48.72599" lon="1.77989">
        <ele>176</ele>
        <time>2014-07-04T13:00:22.000Z</time>
      </trkpt>
      <trkpt lat="48.72596" lon="1.77988">
        <ele>176</ele>
        <time>2014-07-04T13:00:27.000Z</time>
      </trkpt>
      <trkpt lat="48.72592" lon="1.77987">
        <ele>176</ele>
        <time>2014-07-04T13:00:31.000Z</time>
      </trkpt>
      <trkpt lat="48.72589" lon="1.77987">
        <ele>176</ele>
        <time>2014-07-04T13:00:33.000Z</time>
      </trkpt>
      <trkpt lat="48.7258" lon="1.77993">
        <ele>175.80000305176</ele>
        <time>2014-07-04T13:00:40.000Z</time>
      </trkpt>
      <trkpt lat="48.72567" lon="1.77997">
        <ele>175.80000305176</ele>
        <time>2014-07-04T13:00:46.000Z</time>
      </trkpt>
      <trkpt lat="48.72564" lon="1.77998">
        <ele>175.80000305176</ele>
        <time>2014-07-04T13:00:47.000Z</time>
      </trkpt>
      <trkpt lat="48.72551" lon="1.77996">
        <ele>175.80000305176</ele>
        <time>2014-07-04T13:00:54.000Z</time>
      </trkpt>
      <trkpt lat="48.72545" lon="1.7799">
        <ele>176</ele>
        <time>2014-07-04T13:00:59.000Z</time>
      </trkpt>
      <trkpt lat="48.72536" lon="1.77983">
        <ele>176</ele>
        <time>2014-07-04T13:01:05.000Z</time>
      </trkpt>
      <trkpt lat="48.72528" lon="1.77981">
        <ele>176</ele>
        <time>2014-07-04T13:01:09.000Z</time>
      </trkpt>
      <trkpt lat="48.72523" lon="1.77974">
        <ele>175.80000305176</ele>
        <time>2014-07-04T13:01:13.000Z</time>
      </trkpt>
      <trkpt lat="48.72511" lon="1.77963">
        <ele>175.39999389648</ele>
        <time>2014-07-04T13:01:21.000Z</time>
      </trkpt>
      <trkpt lat="48.72501" lon="1.77957">
        <ele>175</ele>
        <time>2014-07-04T13:01:27.000Z</time>
      </trkpt>
      <trkpt lat="48.72484" lon="1.77953">
        <ele>174.19999694824</ele>
        <time>2014-07-04T13:01:34.000Z</time>
      </trkpt>
      <trkpt lat="48.72477" lon="1.77948">
        <ele>174</ele>
        <time>2014-07-04T13:01:38.000Z</time>
      </trkpt>
      <trkpt lat="48.72471" lon="1.77937">
        <ele>173.60000610352</ele>
        <time>2014-07-04T13:01:44.000Z</time>
      </trkpt>
      <trkpt lat="48.72468" lon="1.77929">
        <ele>173.39999389648</ele>
        <time>2014-07-04T13:01:48.000Z</time>
      </trkpt>
      <trkpt lat="48.72461" lon="1.77915">
        <ele>173</ele>
        <time>2014-07-04T13:01:54.000Z</time>
      </trkpt>
      <trkpt lat="48.72457" lon="1.77914">
        <ele>172.80000305176</ele>
        <time>2014-07-04T13:01:56.000Z</time>
      </trkpt>
      <trkpt lat="48.72451" lon="1.77907">
        <ele>172.60000610352</ele>
        <time>2014-07-04T13:02:02.000Z</time>
      </trkpt>
      <trkpt lat="48.72448" lon="1.77907">
        <ele>172.39999389648</ele>
        <time>2014-07-04T13:02:05.000Z</time>
      </trkpt>
      <trkpt lat="48.72435" lon="1.77898">
        <ele>172.19999694824</ele>
        <time>2014-07-04T13:02:12.000Z</time>
      </trkpt>
      <trkpt lat="48.72427" lon="1.779">
        <ele>171.19999694824</ele>
        <time>2014-07-04T13:02:16.000Z</time>
      </trkpt>
      <trkpt lat="48.7242" lon="1.779">
        <ele>170.39999389648</ele>
        <time>2014-07-04T13:02:20.000Z</time>
      </trkpt>
      <trkpt lat="48.72417" lon="1.77901">
        <ele>170.19999694824</ele>
        <time>2014-07-04T13:02:22.000Z</time>
      </trkpt>
      <trkpt lat="48.72406" lon="1.77904">
        <ele>169</ele>
        <time>2014-07-04T13:02:28.000Z</time>
      </trkpt>
      <trkpt lat="48.72399" lon="1.77909">
        <ele>168.39999389648</ele>
        <time>2014-07-04T13:02:34.000Z</time>
      </trkpt>
      <trkpt lat="48.72398" lon="1.77909">
        <ele>168.39999389648</ele>
        <time>2014-07-04T13:02:35.000Z</time>
      </trkpt>
      <trkpt lat="48.72394" lon="1.77909">
        <ele>168</ele>
        <time>2014-07-04T13:02:38.000Z</time>
      </trkpt>
      <trkpt lat="48.72379" lon="1.7791">
        <ele>166.60000610352</ele>
        <time>2014-07-04T13:02:45.000Z</time>
      </trkpt>
      <trkpt lat="48.72373" lon="1.77908">
        <ele>166</ele>
        <time>2014-07-04T13:02:47.000Z</time>
      </trkpt>
      <trkpt lat="48.72362" lon="1.77899">
        <ele>165</ele>
        <time>2014-07-04T13:02:54.000Z</time>
      </trkpt>
      <trkpt lat="48.72351" lon="1.77892">
        <ele>164.39999389648</ele>
        <time>2014-07-04T13:03:00.000Z</time>
      </trkpt>
      <trkpt lat="48.72342" lon="1.77874">
        <ele>164.80000305176</ele>
        <time>2014-07-04T13:03:08.000Z</time>
      </trkpt>
      <trkpt lat="48.72335" lon="1.77866">
        <ele>165</ele>
        <time>2014-07-04T13:03:13.000Z</time>
      </trkpt>
      <trkpt lat="48.72327" lon="1.77854">
        <ele>165.19999694824</ele>
        <time>2014-07-04T13:03:20.000Z</time>
      </trkpt>
      <trkpt lat="48.72325" lon="1.77851">
        <ele>165.19999694824</ele>
        <time>2014-07-04T13:03:22.000Z</time>
      </trkpt>
      <trkpt lat="48.72317" lon="1.77836">
        <ele>165.60000610352</ele>
        <time>2014-07-04T13:03:30.000Z</time>
      </trkpt>
      <trkpt lat="48.72312" lon="1.77828">
        <ele>165.80000305176</ele>
        <time>2014-07-04T13:03:34.000Z</time>
      </trkpt>
      <trkpt lat="48.72311" lon="1.77824">
        <ele>166</ele>
        <time>2014-07-04T13:03:36.000Z</time>
      </trkpt>
      <trkpt lat="48.72306" lon="1.77817">
        <ele>165.80000305176</ele>
        <time>2014-07-04T13:03:40.000Z</time>
      </trkpt>
      <trkpt lat="48.72295" lon="1.77806">
        <ele>165.39999389648</ele>
        <time>2014-07-04T13:03:47.000Z</time>
      </trkpt>
      <trkpt lat="48.72287" lon="1.77799">
        <ele>165.19999694824</ele>
        <time>2014-07-04T13:03:52.000Z</time>
      </trkpt>
      <trkpt lat="48.72273" lon="1.77794">
        <ele>165</ele>
        <time>2014-07-04T13:04:00.000Z</time>
      </trkpt>
      <trkpt lat="48.72262" lon="1.7779">
        <ele>165.19999694824</ele>
        <time>2014-07-04T13:04:05.000Z</time>
      </trkpt>
      <trkpt lat="48.72255" lon="1.77783">
        <ele>165.19999694824</ele>
        <time>2014-07-04T13:04:09.000Z</time>
      </trkpt>
      <trkpt lat="48.72253" lon="1.77779">
        <ele>165</ele>
        <time>2014-07-04T13:04:11.000Z</time>
      </trkpt>
      <trkpt lat="48.72248" lon="1.77763">
        <ele>164.80000305176</ele>
        <time>2014-07-04T13:04:18.000Z</time>
      </trkpt>
      <trkpt lat="48.72241" lon="1.77749">
        <ele>164.39999389648</ele>
        <time>2014-07-04T13:04:25.000Z</time>
      </trkpt>
      <trkpt lat="48.72235" lon="1.77733">
        <ele>164</ele>
        <time>2014-07-04T13:04:32.000Z</time>
      </trkpt>
      <trkpt lat="48.72233" lon="1.77728">
        <ele>163.80000305176</ele>
        <time>2014-07-04T13:04:34.000Z</time>
      </trkpt>
      <trkpt lat="48.72227" lon="1.77716">
        <ele>163.39999389648</ele>
        <time>2014-07-04T13:04:39.000Z</time>
      </trkpt>
      <trkpt lat="48.72223" lon="1.77704">
        <ele>163</ele>
        <time>2014-07-04T13:04:44.000Z</time>
      </trkpt>
      <trkpt lat="48.72222" lon="1.77702">
        <ele>163</ele>
        <time>2014-07-04T13:04:45.000Z</time>
      </trkpt>
      <trkpt lat="48.72215" lon="1.77687">
        <ele>162.60000610352</ele>
        <time>2014-07-04T13:04:51.000Z</time>
      </trkpt>
      <trkpt lat="48.72205" lon="1.77667">
        <ele>162.39999389648</ele>
        <time>2014-07-04T13:05:00.000Z</time>
      </trkpt>
      <trkpt lat="48.72197" lon="1.77657">
        <ele>162.39999389648</ele>
        <time>2014-07-04T13:05:06.000Z</time>
      </trkpt>
      <trkpt lat="48.72185" lon="1.77636">
        <ele>161.39999389648</ele>
        <time>2014-07-04T13:05:17.000Z</time>
      </trkpt>
      <trkpt lat="48.72178" lon="1.77624">
        <ele>161</ele>
        <time>2014-07-04T13:05:23.000Z</time>
      </trkpt>
      <trkpt lat="48.72167" lon="1.7761">
        <ele>160.39999389648</ele>
        <time>2014-07-04T13:05:31.000Z</time>
      </trkpt>
      <trkpt lat="48.72156" lon="1.77605">
        <ele>160</ele>
        <time>2014-07-04T13:05:37.000Z</time>
      </trkpt>
      <trkpt lat="48.72145" lon="1.77597">
        <ele>159.60000610352</ele>
        <time>2014-07-04T13:05:43.000Z</time>
      </trkpt>
      <trkpt lat="48.72138" lon="1.77588">
        <ele>159.19999694824</ele>
        <time>2014-07-04T13:05:48.000Z</time>
      </trkpt>
      <trkpt lat="48.72128" lon="1.77578">
        <ele>158.80000305176</ele>
        <time>2014-07-04T13:05:56.000Z</time>
      </trkpt>
      <trkpt lat="48.7212" lon="1.77573">
        <ele>158.39999389648</ele>
        <time>2014-07-04T13:06:02.000Z</time>
      </trkpt>
      <trkpt lat="48.72105" lon="1.77571">
        <ele>158</ele>
        <time>2014-07-04T13:06:11.000Z</time>
      </trkpt>
      <trkpt lat="48.72099" lon="1.77564">
        <ele>158</ele>
        <time>2014-07-04T13:06:16.000Z</time>
      </trkpt>
      <trkpt lat="48.72096" lon="1.77561">
        <ele>158</ele>
        <time>2014-07-04T13:06:18.000Z</time>
      </trkpt>
      <trkpt lat="48.72088" lon="1.77561">
        <ele>158.39999389648</ele>
        <time>2014-07-04T13:06:22.000Z</time>
      </trkpt>
      <trkpt lat="48.72086" lon="1.77558">
        <ele>158.19999694824</ele>
        <time>2014-07-04T13:06:25.000Z</time>
      </trkpt>
      <trkpt lat="48.7208" lon="1.77553">
        <ele>158.19999694824</ele>
        <time>2014-07-04T13:06:30.000Z</time>
      </trkpt>
      <trkpt lat="48.72071" lon="1.77555">
        <ele>159.19999694824</ele>
        <time>2014-07-04T13:06:36.000Z</time>
      </trkpt>
      <trkpt lat="48.72065" lon="1.77558">
        <ele>160</ele>
        <time>2014-07-04T13:06:42.000Z</time>
      </trkpt>
      <trkpt lat="48.72063" lon="1.77559">
        <ele>160.19999694824</ele>
        <time>2014-07-04T13:06:43.000Z</time>
      </trkpt>
      <trkpt lat="48.72055" lon="1.77555">
        <ele>160.60000610352</ele>
        <time>2014-07-04T13:06:49.000Z</time>
      </trkpt>
      <trkpt lat="48.72051" lon="1.77555">
        <ele>160.80000305176</ele>
        <time>2014-07-04T13:06:51.000Z</time>
      </trkpt>
      <trkpt lat="48.72036" lon="1.7755">
        <ele>161.60000610352</ele>
        <time>2014-07-04T13:06:58.000Z</time>
      </trkpt>
      <trkpt lat="48.7203" lon="1.77546">
        <ele>161.80000305176</ele>
        <time>2014-07-04T13:07:02.000Z</time>
      </trkpt>
      <trkpt lat="48.7202" lon="1.77534">
        <ele>161.39999389648</ele>
        <time>2014-07-04T13:07:08.000Z</time>
      </trkpt>
      <trkpt lat="48.72012" lon="1.77526">
        <ele>161.60000610352</ele>
        <time>2014-07-04T13:07:13.000Z</time>
      </trkpt>
      <trkpt lat="48.72002" lon="1.77517">
        <ele>162</ele>
        <time>2014-07-04T13:07:20.000Z</time>
      </trkpt>
      <trkpt lat="48.71996" lon="1.77503">
        <ele>161.39999389648</ele>
        <time>2014-07-04T13:07:27.000Z</time>
      </trkpt>
      <trkpt lat="48.71993" lon="1.77499">
        <ele>161.39999389648</ele>
        <time>2014-07-04T13:07:30.000Z</time>
      </trkpt>
      <trkpt lat="48.71984" lon="1.77493">
        <ele>161.80000305176</ele>
        <time>2014-07-04T13:07:36.000Z</time>
      </trkpt>
      <trkpt lat="48.71972" lon="1.77484">
        <ele>162.39999389648</ele>
        <time>2014-07-04T13:07:42.000Z</time>
      </trkpt>
      <trkpt lat="48.71966" lon="1.77474">
        <ele>162.39999389648</ele>
        <time>2014-07-04T13:07:47.000Z</time>
      </trkpt>
      <trkpt lat="48.7196" lon="1.77463">
        <ele>162.19999694824</ele>
        <time>2014-07-04T13:07:53.000Z</time>
      </trkpt>
      <trkpt lat="48.71956" lon="1.77453">
        <ele>161.80000305176</ele>
        <time>2014-07-04T13:07:58.000Z</time>
      </trkpt>
      <trkpt lat="48.71951" lon="1.77447">
        <ele>162</ele>
        <time>2014-07-04T13:08:02.000Z</time>
      </trkpt>
      <trkpt lat="48.7194" lon="1.77435">
        <ele>162.19999694824</ele>
        <time>2014-07-04T13:08:09.000Z</time>
      </trkpt>
      <trkpt lat="48.71931" lon="1.77431">
        <ele>162.39999389648</ele>
        <time>2014-07-04T13:08:14.000Z</time>
      </trkpt>
      <trkpt lat="48.71924" lon="1.77423">
        <ele>162</ele>
        <time>2014-07-04T13:08:19.000Z</time>
      </trkpt>
      <trkpt lat="48.7192" lon="1.77417">
        <ele>161.60000610352</ele>
        <time>2014-07-04T13:08:23.000Z</time>
      </trkpt>
      <trkpt lat="48.71916" lon="1.77416">
        <ele>161.80000305176</ele>
        <time>2014-07-04T13:08:25.000Z</time>
      </trkpt>
      <trkpt lat="48.71906" lon="1.77405">
        <ele>161.19999694824</ele>
        <time>2014-07-04T13:08:32.000Z</time>
      </trkpt>
      <trkpt lat="48.71903" lon="1.77398">
        <ele>160.60000610352</ele>
        <time>2014-07-04T13:08:35.000Z</time>
      </trkpt>
      <trkpt lat="48.71898" lon="1.77389">
        <ele>159.80000305176</ele>
        <time>2014-07-04T13:08:41.000Z</time>
      </trkpt>
      <trkpt lat="48.71897" lon="1.77371">
        <ele>158.19999694824</ele>
        <time>2014-07-04T13:08:46.000Z</time>
      </trkpt>
      <trkpt lat="48.71898" lon="1.77355">
        <ele>157</ele>
        <time>2014-07-04T13:08:51.000Z</time>
      </trkpt>
      <trkpt lat="48.71896" lon="1.77341">
        <ele>156.19999694824</ele>
        <time>2014-07-04T13:08:56.000Z</time>
      </trkpt>
      <trkpt lat="48.71893" lon="1.77324">
        <ele>155.19999694824</ele>
        <time>2014-07-04T13:09:02.000Z</time>
      </trkpt>
      <trkpt lat="48.71891" lon="1.77313">
        <ele>155</ele>
        <time>2014-07-04T13:09:06.000Z</time>
      </trkpt>
      <trkpt lat="48.7189" lon="1.77298">
        <ele>155</ele>
        <time>2014-07-04T13:09:13.000Z</time>
      </trkpt>
      <trkpt lat="48.71887" lon="1.77285">
        <ele>155</ele>
        <time>2014-07-04T13:09:19.000Z</time>
      </trkpt>
      <trkpt lat="48.71886" lon="1.77275">
        <ele>155</ele>
        <time>2014-07-04T13:09:24.000Z</time>
      </trkpt>
      <trkpt lat="48.71884" lon="1.7726">
        <ele>154.60000610352</ele>
        <time>2014-07-04T13:09:30.000Z</time>
      </trkpt>
      <trkpt lat="48.71882" lon="1.77244">
        <ele>154</ele>
        <time>2014-07-04T13:09:37.000Z</time>
      </trkpt>
      <trkpt lat="48.7188" lon="1.77237">
        <ele>153.80000305176</ele>
        <time>2014-07-04T13:09:40.000Z</time>
      </trkpt>
      <trkpt lat="48.71879" lon="1.77223">
        <ele>153.80000305176</ele>
        <time>2014-07-04T13:09:46.000Z</time>
      </trkpt>
      <trkpt lat="48.7188" lon="1.77202">
        <ele>153.80000305176</ele>
        <time>2014-07-04T13:09:53.000Z</time>
      </trkpt>
      <trkpt lat="48.71879" lon="1.77188">
        <ele>153.80000305176</ele>
        <time>2014-07-04T13:10:00.000Z</time>
      </trkpt>
      <trkpt lat="48.71878" lon="1.77187">
        <ele>153.80000305176</ele>
        <time>2014-07-04T13:10:01.000Z</time>
      </trkpt>
      <trkpt lat="48.71876" lon="1.77181">
        <ele>154</ele>
        <time>2014-07-04T13:10:08.000Z</time>
      </trkpt>
      <trkpt lat="48.71877" lon="1.77182">
        <ele>153.80000305176</ele>
        <time>2014-07-04T13:10:11.000Z</time>
      </trkpt>
      <trkpt lat="48.71868" lon="1.77184">
        <ele>154.39999389648</ele>
        <time>2014-07-04T13:10:26.000Z</time>
      </trkpt>
      <trkpt lat="48.71856" lon="1.77196">
        <ele>154.80000305176</ele>
        <time>2014-07-04T13:10:34.000Z</time>
      </trkpt>
      <trkpt lat="48.71844" lon="1.77208">
        <ele>155.60000610352</ele>
        <time>2014-07-04T13:10:43.000Z</time>
      </trkpt>
      <trkpt lat="48.71838" lon="1.77213">
        <ele>156</ele>
        <time>2014-07-04T13:10:49.000Z</time>
      </trkpt>
      <trkpt lat="48.7183" lon="1.7722">
        <ele>156.39999389648</ele>
        <time>2014-07-04T13:10:54.000Z</time>
      </trkpt>
      <trkpt lat="48.7182" lon="1.77234">
        <ele>157</ele>
        <time>2014-07-04T13:11:01.000Z</time>
      </trkpt>
      <trkpt lat="48.71817" lon="1.77239">
        <ele>157.19999694824</ele>
        <time>2014-07-04T13:11:05.000Z</time>
      </trkpt>
      <trkpt lat="48.71808" lon="1.77242">
        <ele>157.80000305176</ele>
        <time>2014-07-04T13:11:10.000Z</time>
      </trkpt>
      <trkpt lat="48.71805" lon="1.77235">
        <ele>158</ele>
        <time>2014-07-04T13:11:15.000Z</time>
      </trkpt>
      <trkpt lat="48.71808" lon="1.7723">
        <ele>157.80000305176</ele>
        <time>2014-07-04T13:11:18.000Z</time>
      </trkpt>
      <trkpt lat="48.71816" lon="1.77215">
        <ele>157.19999694824</ele>
        <time>2014-07-04T13:11:26.000Z</time>
      </trkpt>
      <trkpt lat="48.71822" lon="1.77202">
        <ele>157</ele>
        <time>2014-07-04T13:11:33.000Z</time>
      </trkpt>
      <trkpt lat="48.71824" lon="1.77194">
        <ele>156.80000305176</ele>
        <time>2014-07-04T13:11:37.000Z</time>
      </trkpt>
      <trkpt lat="48.71825" lon="1.77191">
        <ele>156.80000305176</ele>
        <time>2014-07-04T13:11:38.000Z</time>
      </trkpt>
      <trkpt lat="48.71833" lon="1.77176">
        <ele>156.19999694824</ele>
        <time>2014-07-04T13:11:45.000Z</time>
      </trkpt>
      <trkpt lat="48.71837" lon="1.77167">
        <ele>156</ele>
        <time>2014-07-04T13:11:49.000Z</time>
      </trkpt>
      <trkpt lat="48.71844" lon="1.77154">
        <ele>155.60000610352</ele>
        <time>2014-07-04T13:11:56.000Z</time>
      </trkpt>
      <trkpt lat="48.71849" lon="1.77141">
        <ele>155.39999389648</ele>
        <time>2014-07-04T13:12:03.000Z</time>
      </trkpt>
      <trkpt lat="48.71856" lon="1.77127">
        <ele>155</ele>
        <time>2014-07-04T13:12:10.000Z</time>
      </trkpt>
      <trkpt lat="48.71867" lon="1.77104">
        <ele>154.19999694824</ele>
        <time>2014-07-04T13:12:21.000Z</time>
      </trkpt>
      <trkpt lat="48.71872" lon="1.77093">
        <ele>153.80000305176</ele>
        <time>2014-07-04T13:12:27.000Z</time>
      </trkpt>
      <trkpt lat="48.71876" lon="1.77085">
        <ele>153.39999389648</ele>
        <time>2014-07-04T13:12:31.000Z</time>
      </trkpt>
      <trkpt lat="48.71885" lon="1.77072">
        <ele>152.19999694824</ele>
        <time>2014-07-04T13:12:39.000Z</time>
      </trkpt>
      <trkpt lat="48.71888" lon="1.77068">
        <ele>151.80000305176</ele>
        <time>2014-07-04T13:12:41.000Z</time>
      </trkpt>
      <trkpt lat="48.71892" lon="1.77053">
        <ele>151.19999694824</ele>
        <time>2014-07-04T13:12:47.000Z</time>
      </trkpt>
      <trkpt lat="48.719" lon="1.77036">
        <ele>150</ele>
        <time>2014-07-04T13:12:56.000Z</time>
      </trkpt>
      <trkpt lat="48.7191" lon="1.77014">
        <ele>149.60000610352</ele>
        <time>2014-07-04T13:13:07.000Z</time>
      </trkpt>
      <trkpt lat="48.71917" lon="1.76999">
        <ele>149.39999389648</ele>
        <time>2014-07-04T13:13:15.000Z</time>
      </trkpt>
      <trkpt lat="48.71921" lon="1.76991">
        <ele>149.19999694824</ele>
        <time>2014-07-04T13:13:19.000Z</time>
      </trkpt>
      <trkpt lat="48.71927" lon="1.76978">
        <ele>148.80000305176</ele>
        <time>2014-07-04T13:13:26.000Z</time>
      </trkpt>
      <trkpt lat="48.71933" lon="1.76967">
        <ele>148.39999389648</ele>
        <time>2014-07-04T13:13:32.000Z</time>
      </trkpt>
      <trkpt lat="48.7194" lon="1.76952">
        <ele>147.80000305176</ele>
        <time>2014-07-04T13:13:39.000Z</time>
      </trkpt>
      <trkpt lat="48.71946" lon="1.76934">
        <ele>147.39999389648</ele>
        <time>2014-07-04T13:13:47.000Z</time>
      </trkpt>
      <trkpt lat="48.71956" lon="1.76914">
        <ele>146.80000305176</ele>
        <time>2014-07-04T13:13:57.000Z</time>
      </trkpt>
      <trkpt lat="48.71957" lon="1.76912">
        <ele>146.80000305176</ele>
        <time>2014-07-04T13:13:58.000Z</time>
      </trkpt>
      <trkpt lat="48.7196" lon="1.76903">
        <ele>146.60000610352</ele>
        <time>2014-07-04T13:14:02.000Z</time>
      </trkpt>
      <trkpt lat="48.71966" lon="1.76889">
        <ele>145.80000305176</ele>
        <time>2014-07-04T13:14:09.000Z</time>
      </trkpt>
      <trkpt lat="48.71977" lon="1.76871">
        <ele>144.80000305176</ele>
        <time>2014-07-04T13:14:18.000Z</time>
      </trkpt>
      <trkpt lat="48.71982" lon="1.76863">
        <ele>144.39999389648</ele>
        <time>2014-07-04T13:14:23.000Z</time>
      </trkpt>
      <trkpt lat="48.71986" lon="1.76858">
        <ele>144.19999694824</ele>
        <time>2014-07-04T13:14:27.000Z</time>
      </trkpt>
      <trkpt lat="48.71992" lon="1.76847">
        <ele>144</ele>
        <time>2014-07-04T13:14:34.000Z</time>
      </trkpt>
      <trkpt lat="48.71991" lon="1.76838">
        <ele>144</ele>
        <time>2014-07-04T13:14:38.000Z</time>
      </trkpt>
      <trkpt lat="48.71988" lon="1.76832">
        <ele>144.19999694824</ele>
        <time>2014-07-04T13:14:41.000Z</time>
      </trkpt>
      <trkpt lat="48.71976" lon="1.7683">
        <ele>144.60000610352</ele>
        <time>2014-07-04T13:14:48.000Z</time>
      </trkpt>
      <trkpt lat="48.7196" lon="1.76834">
        <ele>145.19999694824</ele>
        <time>2014-07-04T13:14:58.000Z</time>
      </trkpt>
      <trkpt lat="48.71949" lon="1.76837">
        <ele>145.60000610352</ele>
        <time>2014-07-04T13:15:05.000Z</time>
      </trkpt>
      <trkpt lat="48.71938" lon="1.76844">
        <ele>146.39999389648</ele>
        <time>2014-07-04T13:15:12.000Z</time>
      </trkpt>
      <trkpt lat="48.71926" lon="1.76848">
        <ele>146.80000305176</ele>
        <time>2014-07-04T13:15:19.000Z</time>
      </trkpt>
      <trkpt lat="48.71915" lon="1.7685">
        <ele>147.19999694824</ele>
        <time>2014-07-04T13:15:26.000Z</time>
      </trkpt>
      <trkpt lat="48.71903" lon="1.76849">
        <ele>147.39999389648</ele>
        <time>2014-07-04T13:15:33.000Z</time>
      </trkpt>
      <trkpt lat="48.71892" lon="1.76852">
        <ele>147.80000305176</ele>
        <time>2014-07-04T13:15:39.000Z</time>
      </trkpt>
      <trkpt lat="48.71885" lon="1.76851">
        <ele>148</ele>
        <time>2014-07-04T13:15:44.000Z</time>
      </trkpt>
      <trkpt lat="48.71875" lon="1.76856">
        <ele>149</ele>
        <time>2014-07-04T13:15:50.000Z</time>
      </trkpt>
      <trkpt lat="48.71863" lon="1.76858">
        <ele>150</ele>
        <time>2014-07-04T13:15:57.000Z</time>
      </trkpt>
      <trkpt lat="48.71853" lon="1.7686">
        <ele>150.80000305176</ele>
        <time>2014-07-04T13:16:03.000Z</time>
      </trkpt>
      <trkpt lat="48.71845" lon="1.76862">
        <ele>151.19999694824</ele>
        <time>2014-07-04T13:16:08.000Z</time>
      </trkpt>
      <trkpt lat="48.71837" lon="1.76864">
        <ele>151.60000610352</ele>
        <time>2014-07-04T13:16:13.000Z</time>
      </trkpt>
      <trkpt lat="48.7183" lon="1.76864">
        <ele>152</ele>
        <time>2014-07-04T13:16:18.000Z</time>
      </trkpt>
      <trkpt lat="48.71817" lon="1.76865">
        <ele>152.60000610352</ele>
        <time>2014-07-04T13:16:26.000Z</time>
      </trkpt>
      <trkpt lat="48.71804" lon="1.76868">
        <ele>153.39999389648</ele>
        <time>2014-07-04T13:16:33.000Z</time>
      </trkpt>
      <trkpt lat="48.71792" lon="1.76872">
        <ele>154.60000610352</ele>
        <time>2014-07-04T13:16:40.000Z</time>
      </trkpt>
      <trkpt lat="48.71784" lon="1.76873">
        <ele>155.19999694824</ele>
        <time>2014-07-04T13:16:45.000Z</time>
      </trkpt>
      <trkpt lat="48.71774" lon="1.76875">
        <ele>156</ele>
        <time>2014-07-04T13:16:51.000Z</time>
      </trkpt>
      <trkpt lat="48.71761" lon="1.76877">
        <ele>157</ele>
        <time>2014-07-04T13:16:59.000Z</time>
      </trkpt>
      <trkpt lat="48.71748" lon="1.76879">
        <ele>157.80000305176</ele>
        <time>2014-07-04T13:17:07.000Z</time>
      </trkpt>
      <trkpt lat="48.71737" lon="1.7688">
        <ele>158.19999694824</ele>
        <time>2014-07-04T13:17:14.000Z</time>
      </trkpt>
      <trkpt lat="48.71726" lon="1.76881">
        <ele>158.39999389648</ele>
        <time>2014-07-04T13:17:21.000Z</time>
      </trkpt>
      <trkpt lat="48.71713" lon="1.7688">
        <ele>158.60000610352</ele>
        <time>2014-07-04T13:17:29.000Z</time>
      </trkpt>
      <trkpt lat="48.71698" lon="1.76882">
        <ele>158.80000305176</ele>
        <time>2014-07-04T13:17:39.000Z</time>
      </trkpt>
      <trkpt lat="48.71687" lon="1.76886">
        <ele>159</ele>
        <time>2014-07-04T13:17:46.000Z</time>
      </trkpt>
      <trkpt lat="48.71677" lon="1.7689">
        <ele>159.39999389648</ele>
        <time>2014-07-04T13:17:52.000Z</time>
      </trkpt>
      <trkpt lat="48.71664" lon="1.76893">
        <ele>159.39999389648</ele>
        <time>2014-07-04T13:17:59.000Z</time>
      </trkpt>
      <trkpt lat="48.71656" lon="1.76895">
        <ele>159.19999694824</ele>
        <time>2014-07-04T13:18:04.000Z</time>
      </trkpt>
      <trkpt lat="48.7165" lon="1.76895">
        <ele>159</ele>
        <time>2014-07-04T13:18:08.000Z</time>
      </trkpt>
      <trkpt lat="48.71637" lon="1.76897">
        <ele>158.80000305176</ele>
        <time>2014-07-04T13:18:16.000Z</time>
      </trkpt>
      <trkpt lat="48.71629" lon="1.76898">
        <ele>158.60000610352</ele>
        <time>2014-07-04T13:18:21.000Z</time>
      </trkpt>
      <trkpt lat="48.71615" lon="1.769">
        <ele>158.19999694824</ele>
        <time>2014-07-04T13:18:29.000Z</time>
      </trkpt>
      <trkpt lat="48.71613" lon="1.76901">
        <ele>158.19999694824</ele>
        <time>2014-07-04T13:18:30.000Z</time>
      </trkpt>
      <trkpt lat="48.71608" lon="1.76892">
        <ele>158</ele>
        <time>2014-07-04T13:18:36.000Z</time>
      </trkpt>
      <trkpt lat="48.71612" lon="1.76881">
        <ele>158</ele>
        <time>2014-07-04T13:18:41.000Z</time>
      </trkpt>
      <trkpt lat="48.71621" lon="1.76864">
        <ele>158</ele>
        <time>2014-07-04T13:18:49.000Z</time>
      </trkpt>
      <trkpt lat="48.71631" lon="1.76852">
        <ele>158</ele>
        <time>2014-07-04T13:18:57.000Z</time>
      </trkpt>
      <trkpt lat="48.71636" lon="1.76846">
        <ele>157.80000305176</ele>
        <time>2014-07-04T13:19:01.000Z</time>
      </trkpt>
      <trkpt lat="48.71636" lon="1.76843">
        <ele>157.60000610352</ele>
        <time>2014-07-04T13:19:03.000Z</time>
      </trkpt>
      <trkpt lat="48.71645" lon="1.76834">
        <ele>157.19999694824</ele>
        <time>2014-07-04T13:19:10.000Z</time>
      </trkpt>
      <trkpt lat="48.71653" lon="1.76822">
        <ele>156.39999389648</ele>
        <time>2014-07-04T13:19:14.000Z</time>
      </trkpt>
      <trkpt lat="48.71661" lon="1.76811">
        <ele>156.39999389648</ele>
        <time>2014-07-04T13:19:19.000Z</time>
      </trkpt>
      <trkpt lat="48.71666" lon="1.76798">
        <ele>156.60000610352</ele>
        <time>2014-07-04T13:19:26.000Z</time>
      </trkpt>
      <trkpt lat="48.71669" lon="1.76789">
        <ele>156.60000610352</ele>
        <time>2014-07-04T13:19:30.000Z</time>
      </trkpt>
      <trkpt lat="48.71675" lon="1.76771">
        <ele>156.80000305176</ele>
        <time>2014-07-04T13:19:38.000Z</time>
      </trkpt>
      <trkpt lat="48.71682" lon="1.7675">
        <ele>157</ele>
        <time>2014-07-04T13:19:47.000Z</time>
      </trkpt>
      <trkpt lat="48.71684" lon="1.76739">
        <ele>157</ele>
        <time>2014-07-04T13:19:52.000Z</time>
      </trkpt>
      <trkpt lat="48.7169" lon="1.76722">
        <ele>156.80000305176</ele>
        <time>2014-07-04T13:20:00.000Z</time>
      </trkpt>
      <trkpt lat="48.71696" lon="1.76708">
        <ele>156.39999389648</ele>
        <time>2014-07-04T13:20:07.000Z</time>
      </trkpt>
      <trkpt lat="48.71699" lon="1.76692">
        <ele>156.39999389648</ele>
        <time>2014-07-04T13:20:14.000Z</time>
      </trkpt>
      <trkpt lat="48.71701" lon="1.76679">
        <ele>156.19999694824</ele>
        <time>2014-07-04T13:20:19.000Z</time>
      </trkpt>
      <trkpt lat="48.71705" lon="1.76662">
        <ele>156.39999389648</ele>
        <time>2014-07-04T13:20:26.000Z</time>
      </trkpt>
      <trkpt lat="48.71706" lon="1.76643">
        <ele>157</ele>
        <time>2014-07-04T13:20:34.000Z</time>
      </trkpt>
      <trkpt lat="48.71709" lon="1.7663">
        <ele>157.39999389648</ele>
        <time>2014-07-04T13:20:40.000Z</time>
      </trkpt>
      <trkpt lat="48.71711" lon="1.7661">
        <ele>158</ele>
        <time>2014-07-04T13:20:48.000Z</time>
      </trkpt>
      <trkpt lat="48.71712" lon="1.76603">
        <ele>158.19999694824</ele>
        <time>2014-07-04T13:20:51.000Z</time>
      </trkpt>
      <trkpt lat="48.71713" lon="1.76581">
        <ele>158.80000305176</ele>
        <time>2014-07-04T13:21:00.000Z</time>
      </trkpt>
      <trkpt lat="48.71715" lon="1.76569">
        <ele>159</ele>
        <time>2014-07-04T13:21:05.000Z</time>
      </trkpt>
      <trkpt lat="48.71717" lon="1.76562">
        <ele>158.80000305176</ele>
        <time>2014-07-04T13:21:08.000Z</time>
      </trkpt>
      <trkpt lat="48.71714" lon="1.76544">
        <ele>158.60000610352</ele>
        <time>2014-07-04T13:21:15.000Z</time>
      </trkpt>
      <trkpt lat="48.71713" lon="1.76526">
        <ele>158.60000610352</ele>
        <time>2014-07-04T13:21:24.000Z</time>
      </trkpt>
      <trkpt lat="48.7171" lon="1.76509">
        <ele>158.39999389648</ele>
        <time>2014-07-04T13:21:32.000Z</time>
      </trkpt>
      <trkpt lat="48.71709" lon="1.76494">
        <ele>158</ele>
        <time>2014-07-04T13:21:39.000Z</time>
      </trkpt>
      <trkpt lat="48.71707" lon="1.76476">
        <ele>157.39999389648</ele>
        <time>2014-07-04T13:21:48.000Z</time>
      </trkpt>
      <trkpt lat="48.71706" lon="1.76474">
        <ele>157.39999389648</ele>
        <time>2014-07-04T13:21:49.000Z</time>
      </trkpt>
      <trkpt lat="48.71706" lon="1.76461">
        <ele>156.80000305176</ele>
        <time>2014-07-04T13:21:57.000Z</time>
      </trkpt>
      <trkpt lat="48.71706" lon="1.76451">
        <ele>156.39999389648</ele>
        <time>2014-07-04T13:22:03.000Z</time>
      </trkpt>
      <trkpt lat="48.71704" lon="1.76433">
        <ele>156</ele>
        <time>2014-07-04T13:22:11.000Z</time>
      </trkpt>
      <trkpt lat="48.71702" lon="1.76424">
        <ele>155.80000305176</ele>
        <time>2014-07-04T13:22:15.000Z</time>
      </trkpt>
      <trkpt lat="48.71701" lon="1.76412">
        <ele>155.60000610352</ele>
        <time>2014-07-04T13:22:20.000Z</time>
      </trkpt>
      <trkpt lat="48.717" lon="1.76393">
        <ele>155.80000305176</ele>
        <time>2014-07-04T13:22:27.000Z</time>
      </trkpt>
      <trkpt lat="48.71699" lon="1.76378">
        <ele>156</ele>
        <time>2014-07-04T13:22:34.000Z</time>
      </trkpt>
      <trkpt lat="48.71699" lon="1.76356">
        <ele>156.19999694824</ele>
        <time>2014-07-04T13:22:43.000Z</time>
      </trkpt>
      <trkpt lat="48.71698" lon="1.76326">
        <ele>156.80000305176</ele>
        <time>2014-07-04T13:22:55.000Z</time>
      </trkpt>
      <trkpt lat="48.71691" lon="1.76313">
        <ele>157</ele>
        <time>2014-07-04T13:23:02.000Z</time>
      </trkpt>
      <trkpt lat="48.71685" lon="1.76309">
        <ele>157</ele>
        <time>2014-07-04T13:23:06.000Z</time>
      </trkpt>
      <trkpt lat="48.71671" lon="1.76299">
        <ele>157.60000610352</ele>
        <time>2014-07-04T13:23:15.000Z</time>
      </trkpt>
      <trkpt lat="48.71661" lon="1.76296">
        <ele>158</ele>
        <time>2014-07-04T13:23:21.000Z</time>
      </trkpt>
      <trkpt lat="48.71653" lon="1.76293">
        <ele>158.19999694824</ele>
        <time>2014-07-04T13:23:24.000Z</time>
      </trkpt>
      <trkpt lat="48.71647" lon="1.76287">
        <ele>158.39999389648</ele>
        <time>2014-07-04T13:23:29.000Z</time>
      </trkpt>
      <trkpt lat="48.71634" lon="1.76277">
        <ele>159</ele>
        <time>2014-07-04T13:23:38.000Z</time>
      </trkpt>
      <trkpt lat="48.71624" lon="1.76272">
        <ele>159.19999694824</ele>
        <time>2014-07-04T13:23:43.000Z</time>
      </trkpt>
      <trkpt lat="48.71615" lon="1.76263">
        <ele>159.60000610352</ele>
        <time>2014-07-04T13:23:51.000Z</time>
      </trkpt>
      <trkpt lat="48.71612" lon="1.7626">
        <ele>159.60000610352</ele>
        <time>2014-07-04T13:23:53.000Z</time>
      </trkpt>
      <trkpt lat="48.71605" lon="1.76256">
        <ele>160</ele>
        <time>2014-07-04T13:23:58.000Z</time>
      </trkpt>
      <trkpt lat="48.71592" lon="1.76247">
        <ele>160.60000610352</ele>
        <time>2014-07-04T13:24:07.000Z</time>
      </trkpt>
      <trkpt lat="48.7158" lon="1.76241">
        <ele>161.19999694824</ele>
        <time>2014-07-04T13:24:15.000Z</time>
      </trkpt>
      <trkpt lat="48.71571" lon="1.76239">
        <ele>161.60000610352</ele>
        <time>2014-07-04T13:24:21.000Z</time>
      </trkpt>
      <trkpt lat="48.71562" lon="1.76233">
        <ele>162</ele>
        <time>2014-07-04T13:24:28.000Z</time>
      </trkpt>
      <trkpt lat="48.71553" lon="1.76227">
        <ele>162.39999389648</ele>
        <time>2014-07-04T13:24:34.000Z</time>
      </trkpt>
      <trkpt lat="48.71547" lon="1.76221">
        <ele>162.80000305176</ele>
        <time>2014-07-04T13:24:39.000Z</time>
      </trkpt>
      <trkpt lat="48.71537" lon="1.76217">
        <ele>163.19999694824</ele>
        <time>2014-07-04T13:24:45.000Z</time>
      </trkpt>
      <trkpt lat="48.71523" lon="1.76208">
        <ele>163.80000305176</ele>
        <time>2014-07-04T13:24:54.000Z</time>
      </trkpt>
      <trkpt lat="48.71516" lon="1.762">
        <ele>164.19999694824</ele>
        <time>2014-07-04T13:25:00.000Z</time>
      </trkpt>
      <trkpt lat="48.71513" lon="1.76197">
        <ele>164.19999694824</ele>
        <time>2014-07-04T13:25:02.000Z</time>
      </trkpt>
      <trkpt lat="48.71502" lon="1.76189">
        <ele>164.60000610352</ele>
        <time>2014-07-04T13:25:10.000Z</time>
      </trkpt>
      <trkpt lat="48.71497" lon="1.76184">
        <ele>164.80000305176</ele>
        <time>2014-07-04T13:25:14.000Z</time>
      </trkpt>
      <trkpt lat="48.71488" lon="1.7618">
        <ele>165.19999694824</ele>
        <time>2014-07-04T13:25:20.000Z</time>
      </trkpt>
      <trkpt lat="48.71483" lon="1.76178">
        <ele>165.39999389648</ele>
        <time>2014-07-04T13:25:23.000Z</time>
      </trkpt>
      <trkpt lat="48.71471" lon="1.76173">
        <ele>165.80000305176</ele>
        <time>2014-07-04T13:25:31.000Z</time>
      </trkpt>
      <trkpt lat="48.71457" lon="1.76166">
        <ele>166.19999694824</ele>
        <time>2014-07-04T13:25:40.000Z</time>
      </trkpt>
      <trkpt lat="48.71446" lon="1.7616">
        <ele>166.60000610352</ele>
        <time>2014-07-04T13:25:47.000Z</time>
      </trkpt>
      <trkpt lat="48.71439" lon="1.76155">
        <ele>167</ele>
        <time>2014-07-04T13:25:52.000Z</time>
      </trkpt>
      <trkpt lat="48.71429" lon="1.76149">
        <ele>167.39999389648</ele>
        <time>2014-07-04T13:25:59.000Z</time>
      </trkpt>
      <trkpt lat="48.71419" lon="1.76144">
        <ele>167.80000305176</ele>
        <time>2014-07-04T13:26:06.000Z</time>
      </trkpt>
      <trkpt lat="48.71405" lon="1.76136">
        <ele>168.60000610352</ele>
        <time>2014-07-04T13:26:16.000Z</time>
      </trkpt>
      <trkpt lat="48.71387" lon="1.76128">
        <ele>169.39999389648</ele>
        <time>2014-07-04T13:26:28.000Z</time>
      </trkpt>
      <trkpt lat="48.71372" lon="1.76119">
        <ele>170.19999694824</ele>
        <time>2014-07-04T13:26:39.000Z</time>
      </trkpt>
      <trkpt lat="48.71361" lon="1.76112">
        <ele>170.80000305176</ele>
        <time>2014-07-04T13:26:47.000Z</time>
      </trkpt>
      <trkpt lat="48.7135" lon="1.76104">
        <ele>171.19999694824</ele>
        <time>2014-07-04T13:26:56.000Z</time>
      </trkpt>
      <trkpt lat="48.7134" lon="1.76098">
        <ele>171.60000610352</ele>
        <time>2014-07-04T13:27:03.000Z</time>
      </trkpt>
      <trkpt lat="48.71332" lon="1.76098">
        <ele>171.60000610352</ele>
        <time>2014-07-04T13:27:07.000Z</time>
      </trkpt>
      <trkpt lat="48.71325" lon="1.76092">
        <ele>171.80000305176</ele>
        <time>2014-07-04T13:27:11.000Z</time>
      </trkpt>
      <trkpt lat="48.71311" lon="1.76087">
        <ele>172.19999694824</ele>
        <time>2014-07-04T13:27:18.000Z</time>
      </trkpt>
      <trkpt lat="48.71301" lon="1.76079">
        <ele>172.39999389648</ele>
        <time>2014-07-04T13:27:25.000Z</time>
      </trkpt>
      <trkpt lat="48.71289" lon="1.7607">
        <ele>172.80000305176</ele>
        <time>2014-07-04T13:27:34.000Z</time>
      </trkpt>
      <trkpt lat="48.71278" lon="1.7606">
        <ele>173</ele>
        <time>2014-07-04T13:27:42.000Z</time>
      </trkpt>
      <trkpt lat="48.71267" lon="1.76053">
        <ele>173</ele>
        <time>2014-07-04T13:27:49.000Z</time>
      </trkpt>
      <trkpt lat="48.71253" lon="1.7604">
        <ele>173.19999694824</ele>
        <time>2014-07-04T13:28:00.000Z</time>
      </trkpt>
      <trkpt lat="48.71245" lon="1.76033">
        <ele>173.39999389648</ele>
        <time>2014-07-04T13:28:07.000Z</time>
      </trkpt>
      <trkpt lat="48.71244" lon="1.76032">
        <ele>173.39999389648</ele>
        <time>2014-07-04T13:28:08.000Z</time>
      </trkpt>
      <trkpt lat="48.71229" lon="1.76021">
        <ele>173.39999389648</ele>
        <time>2014-07-04T13:28:18.000Z</time>
      </trkpt>
      <trkpt lat="48.71219" lon="1.76013">
        <ele>173.60000610352</ele>
        <time>2014-07-04T13:28:25.000Z</time>
      </trkpt>
      <trkpt lat="48.71203" lon="1.76004">
        <ele>173.80000305176</ele>
        <time>2014-07-04T13:28:35.000Z</time>
      </trkpt>
      <trkpt lat="48.71189" lon="1.76">
        <ele>173.80000305176</ele>
        <time>2014-07-04T13:28:44.000Z</time>
      </trkpt>
      <trkpt lat="48.71168" lon="1.75995">
        <ele>174.19999694824</ele>
        <time>2014-07-04T13:28:57.000Z</time>
      </trkpt>
      <trkpt lat="48.71149" lon="1.75992">
        <ele>174.39999389648</ele>
        <time>2014-07-04T13:29:09.000Z</time>
      </trkpt>
      <trkpt lat="48.71139" lon="1.75989">
        <ele>174.60000610352</ele>
        <time>2014-07-04T13:29:15.000Z</time>
      </trkpt>
      <trkpt lat="48.71124" lon="1.75984">
        <ele>174.80000305176</ele>
        <time>2014-07-04T13:29:25.000Z</time>
      </trkpt>
      <trkpt lat="48.71112" lon="1.75981">
        <ele>175</ele>
        <time>2014-07-04T13:29:33.000Z</time>
      </trkpt>
      <trkpt lat="48.71092" lon="1.75976">
        <ele>175.39999389648</ele>
        <time>2014-07-04T13:29:46.000Z</time>
      </trkpt>
      <trkpt lat="48.71074" lon="1.7597">
        <ele>175.60000610352</ele>
        <time>2014-07-04T13:29:58.000Z</time>
      </trkpt>
      <trkpt lat="48.71061" lon="1.75962">
        <ele>176</ele>
        <time>2014-07-04T13:30:06.000Z</time>
      </trkpt>
      <trkpt lat="48.71054" lon="1.75959">
        <ele>176</ele>
        <time>2014-07-04T13:30:11.000Z</time>
      </trkpt>
      <trkpt lat="48.7105" lon="1.75959">
        <ele>176</ele>
        <time>2014-07-04T13:30:13.000Z</time>
      </trkpt>
      <trkpt lat="48.71038" lon="1.75961">
        <ele>176</ele>
        <time>2014-07-04T13:30:20.000Z</time>
      </trkpt>
      <trkpt lat="48.71026" lon="1.75958">
        <ele>176</ele>
        <time>2014-07-04T13:30:28.000Z</time>
      </trkpt>
      <trkpt lat="48.71021" lon="1.75956">
        <ele>176.19999694824</ele>
        <time>2014-07-04T13:30:31.000Z</time>
      </trkpt>
      <trkpt lat="48.71012" lon="1.75954">
        <ele>176</ele>
        <time>2014-07-04T13:30:37.000Z</time>
      </trkpt>
      <trkpt lat="48.70999" lon="1.75952">
        <ele>175.60000610352</ele>
        <time>2014-07-04T13:30:45.000Z</time>
      </trkpt>
      <trkpt lat="48.70991" lon="1.7595">
        <ele>175.39999389648</ele>
        <time>2014-07-04T13:30:49.000Z</time>
      </trkpt>
      <trkpt lat="48.70982" lon="1.75947">
        <ele>175.19999694824</ele>
        <time>2014-07-04T13:30:54.000Z</time>
      </trkpt>
      <trkpt lat="48.70972" lon="1.75942">
        <ele>175</ele>
        <time>2014-07-04T13:31:01.000Z</time>
      </trkpt>
      <trkpt lat="48.70956" lon="1.75937">
        <ele>174.60000610352</ele>
        <time>2014-07-04T13:31:12.000Z</time>
      </trkpt>
      <trkpt lat="48.70945" lon="1.75934">
        <ele>174.39999389648</ele>
        <time>2014-07-04T13:31:20.000Z</time>
      </trkpt>
      <trkpt lat="48.70934" lon="1.75929">
        <ele>174.39999389648</ele>
        <time>2014-07-04T13:31:27.000Z</time>
      </trkpt>
      <trkpt lat="48.7092" lon="1.75925">
        <ele>174.39999389648</ele>
        <time>2014-07-04T13:31:36.000Z</time>
      </trkpt>
      <trkpt lat="48.7091" lon="1.75924">
        <ele>174.19999694824</ele>
        <time>2014-07-04T13:31:43.000Z</time>
      </trkpt>
      <trkpt lat="48.70899" lon="1.75922">
        <ele>174.19999694824</ele>
        <time>2014-07-04T13:31:49.000Z</time>
      </trkpt>
      <trkpt lat="48.70888" lon="1.75917">
        <ele>174.19999694824</ele>
        <time>2014-07-04T13:31:56.000Z</time>
      </trkpt>
      <trkpt lat="48.70869" lon="1.75911">
        <ele>174</ele>
        <time>2014-07-04T13:32:06.000Z</time>
      </trkpt>
      <trkpt lat="48.7086" lon="1.75904">
        <ele>174</ele>
        <time>2014-07-04T13:32:12.000Z</time>
      </trkpt>
      <trkpt lat="48.7085" lon="1.759">
        <ele>174</ele>
        <time>2014-07-04T13:32:19.000Z</time>
      </trkpt>
      <trkpt lat="48.70841" lon="1.75899">
        <ele>173.80000305176</ele>
        <time>2014-07-04T13:32:26.000Z</time>
      </trkpt>
      <trkpt lat="48.70839" lon="1.75902">
        <ele>173.80000305176</ele>
        <time>2014-07-04T13:32:33.000Z</time>
      </trkpt>
      <trkpt lat="48.70829" lon="1.75895">
        <ele>173.80000305176</ele>
        <time>2014-07-04T13:32:38.000Z</time>
      </trkpt>
      <trkpt lat="48.70825" lon="1.75892">
        <ele>173.60000610352</ele>
        <time>2014-07-04T13:32:43.000Z</time>
      </trkpt>
      <trkpt lat="48.70821" lon="1.75887">
        <ele>173.60000610352</ele>
        <time>2014-07-04T13:32:51.000Z</time>
      </trkpt>
      <trkpt lat="48.70812" lon="1.75879">
        <ele>173.60000610352</ele>
        <time>2014-07-04T13:32:57.000Z</time>
      </trkpt>
      <trkpt lat="48.70804" lon="1.75873">
        <ele>173.39999389648</ele>
        <time>2014-07-04T13:33:03.000Z</time>
      </trkpt>
      <trkpt lat="48.70794" lon="1.75863">
        <ele>173.19999694824</ele>
        <time>2014-07-04T13:33:11.000Z</time>
      </trkpt>
      <trkpt lat="48.70786" lon="1.75856">
        <ele>173.19999694824</ele>
        <time>2014-07-04T13:33:18.000Z</time>
      </trkpt>
      <trkpt lat="48.70777" lon="1.75844">
        <ele>173</ele>
        <time>2014-07-04T13:33:23.000Z</time>
      </trkpt>
      <trkpt lat="48.70757" lon="1.75814">
        <ele>173</ele>
        <time>2014-07-04T13:33:32.000Z</time>
      </trkpt>
      <trkpt lat="48.70737" lon="1.75782">
        <ele>173.39999389648</ele>
        <time>2014-07-04T13:33:40.000Z</time>
      </trkpt>
      <trkpt lat="48.7072" lon="1.75753">
        <ele>173.80000305176</ele>
        <time>2014-07-04T13:33:47.000Z</time>
      </trkpt>
      <trkpt lat="48.70704" lon="1.75732">
        <ele>174</ele>
        <time>2014-07-04T13:33:53.000Z</time>
      </trkpt>
      <trkpt lat="48.70687" lon="1.75713">
        <ele>174.19999694824</ele>
        <time>2014-07-04T13:33:59.000Z</time>
      </trkpt>
      <trkpt lat="48.70671" lon="1.75699">
        <ele>176.39999389648</ele>
        <time>2014-07-04T13:34:04.000Z</time>
      </trkpt>
      <trkpt lat="48.70661" lon="1.75688">
        <ele>177.80000305176</ele>
        <time>2014-07-04T13:34:09.000Z</time>
      </trkpt>
      <trkpt lat="48.70652" lon="1.75683">
        <ele>178.80000305176</ele>
        <time>2014-07-04T13:34:16.000Z</time>
      </trkpt>
      <trkpt lat="48.70648" lon="1.7568">
        <ele>179.39999389648</ele>
        <time>2014-07-04T13:34:22.000Z</time>
      </trkpt>
      <trkpt lat="48.70649" lon="1.75679">
        <ele>179.19999694824</ele>
        <time>2014-07-04T13:34:28.000Z</time>
      </trkpt>
      <trkpt lat="48.70649" lon="1.75679">
        <ele>179.19999694824</ele>
        <time>2014-07-04T13:34:29.000Z</time>
      </trkpt>
      <trkpt lat="48.70647" lon="1.75678">
        <ele>179.60000610352</ele>
        <time>2014-07-04T13:34:50.000Z</time>
      </trkpt>
      <trkpt lat="48.7064" lon="1.75669">
        <ele>180.39999389648</ele>
        <time>2014-07-04T13:34:53.000Z</time>
      </trkpt>
      <trkpt lat="48.70639" lon="1.75661">
        <ele>180.60000610352</ele>
        <time>2014-07-04T13:34:57.000Z</time>
      </trkpt>
      <trkpt lat="48.70637" lon="1.75658">
        <ele>181</ele>
        <time>2014-07-04T13:34:59.000Z</time>
      </trkpt>
      <trkpt lat="48.70636" lon="1.75646">
        <ele>180.80000305176</ele>
        <time>2014-07-04T13:35:04.000Z</time>
      </trkpt>
      <trkpt lat="48.70637" lon="1.75634">
        <ele>180.39999389648</ele>
        <time>2014-07-04T13:35:08.000Z</time>
      </trkpt>
      <trkpt lat="48.70639" lon="1.75623">
        <ele>180</ele>
        <time>2014-07-04T13:35:13.000Z</time>
      </trkpt>
      <trkpt lat="48.70643" lon="1.75615">
        <ele>179.39999389648</ele>
        <time>2014-07-04T13:35:17.000Z</time>
      </trkpt>
      <trkpt lat="48.70644" lon="1.75605">
        <ele>179</ele>
        <time>2014-07-04T13:35:22.000Z</time>
      </trkpt>
      <trkpt lat="48.7065" lon="1.75593">
        <ele>178.60000610352</ele>
        <time>2014-07-04T13:35:28.000Z</time>
      </trkpt>
      <trkpt lat="48.70657" lon="1.75583">
        <ele>177.80000305176</ele>
        <time>2014-07-04T13:35:33.000Z</time>
      </trkpt>
      <trkpt lat="48.70664" lon="1.75568">
        <ele>176.80000305176</ele>
        <time>2014-07-04T13:35:40.000Z</time>
      </trkpt>
      <trkpt lat="48.70671" lon="1.75558">
        <ele>175</ele>
        <time>2014-07-04T13:35:45.000Z</time>
      </trkpt>
      <trkpt lat="48.70676" lon="1.75547">
        <ele>174.60000610352</ele>
        <time>2014-07-04T13:35:51.000Z</time>
      </trkpt>
      <trkpt lat="48.70682" lon="1.75535">
        <ele>174.19999694824</ele>
        <time>2014-07-04T13:35:57.000Z</time>
      </trkpt>
      <trkpt lat="48.70687" lon="1.75528">
        <ele>174</ele>
        <time>2014-07-04T13:36:01.000Z</time>
      </trkpt>
      <trkpt lat="48.7069" lon="1.75516">
        <ele>173.60000610352</ele>
        <time>2014-07-04T13:36:07.000Z</time>
      </trkpt>
      <trkpt lat="48.70697" lon="1.75502">
        <ele>172.80000305176</ele>
        <time>2014-07-04T13:36:14.000Z</time>
      </trkpt>
      <trkpt lat="48.70701" lon="1.75492">
        <ele>172.60000610352</ele>
        <time>2014-07-04T13:36:19.000Z</time>
      </trkpt>
      <trkpt lat="48.70703" lon="1.75482">
        <ele>172.39999389648</ele>
        <time>2014-07-04T13:36:24.000Z</time>
      </trkpt>
      <trkpt lat="48.70703" lon="1.75479">
        <ele>172.39999389648</ele>
        <time>2014-07-04T13:36:28.000Z</time>
      </trkpt>
      <trkpt lat="48.70705" lon="1.75469">
        <ele>172.19999694824</ele>
        <time>2014-07-04T13:36:33.000Z</time>
      </trkpt>
      <trkpt lat="48.70706" lon="1.75467">
        <ele>172</ele>
        <time>2014-07-04T13:36:34.000Z</time>
      </trkpt>
      <trkpt lat="48.70709" lon="1.75457">
        <ele>171.80000305176</ele>
        <time>2014-07-04T13:36:39.000Z</time>
      </trkpt>
      <trkpt lat="48.70711" lon="1.7545">
        <ele>171.60000610352</ele>
        <time>2014-07-04T13:36:45.000Z</time>
      </trkpt>
      <trkpt lat="48.70708" lon="1.75448">
        <ele>171.60000610352</ele>
        <time>2014-07-04T13:38:10.000Z</time>
      </trkpt>
      <trkpt lat="48.70697" lon="1.75443">
        <ele>171.60000610352</ele>
        <time>2014-07-04T13:38:16.000Z</time>
      </trkpt>
      <trkpt lat="48.70695" lon="1.75443">
        <ele>171.80000305176</ele>
        <time>2014-07-04T13:38:17.000Z</time>
      </trkpt>
      <trkpt lat="48.70687" lon="1.75443">
        <ele>172</ele>
        <time>2014-07-04T13:38:22.000Z</time>
      </trkpt>
      <trkpt lat="48.70684" lon="1.75442">
        <ele>172</ele>
        <time>2014-07-04T13:38:23.000Z</time>
      </trkpt>
      <trkpt lat="48.7067" lon="1.75444">
        <ele>172</ele>
        <time>2014-07-04T13:38:28.000Z</time>
      </trkpt>
      <trkpt lat="48.7066" lon="1.75441">
        <ele>171.80000305176</ele>
        <time>2014-07-04T13:38:32.000Z</time>
      </trkpt>
      <trkpt lat="48.70652" lon="1.75442">
        <ele>172</ele>
        <time>2014-07-04T13:38:37.000Z</time>
      </trkpt>
    </trkseg>
  </trk>
</gpx>